<?xml version="1.0" encoding="UTF-8" standalone="no" ?>
<gpx xmlns="http://www.topografix.com/GPX/1/1" xmlns:xsi="http://www.w3.org/2001/XMLSchema-instance" xsi:schemaLocation="http://www.topografix.com/GPX/1/1 http://www.topografix.com/GPX/1/1/gpx.xsd" version="1.1" creator="VisuGPX - https://www.visugpx.com">
  <metadata>
    <name>Des Mouettes aux Cigales 2021</name>
  </metadata>
  <trk>
    <name><![CDATA[Étape 15 : St-Julien-du-Verdon - Nice]]></name>
    <extensions>
      <line xmlns="http://www.topografix.com/GPX/gpx_style/0/2">
        <color>FFFF00</color>
        <width>4</width>
      </line>
    </extensions>
    <trkseg>
      <trkpt lat="43.91502" lon="6.54271">
        <ele>922.962691</ele>
        <time>2021-09-19T05:28:40.000Z</time>
      </trkpt>
      <trkpt lat="43.91497" lon="6.54288">
        <ele>922.962691</ele>
        <time>2021-09-19T05:28:45.000Z</time>
      </trkpt>
      <trkpt lat="43.91489" lon="6.54328">
        <ele>922.962691</ele>
        <time>2021-09-19T05:28:52.000Z</time>
      </trkpt>
      <trkpt lat="43.9148" lon="6.54356">
        <ele>922.962691</ele>
        <time>2021-09-19T05:28:59.000Z</time>
      </trkpt>
      <trkpt lat="43.91466" lon="6.54383">
        <ele>922.962691</ele>
        <time>2021-09-19T05:29:06.000Z</time>
      </trkpt>
      <trkpt lat="43.91447" lon="6.54415">
        <ele>923.755606</ele>
        <time>2021-09-19T05:29:15.000Z</time>
      </trkpt>
      <trkpt lat="43.91427" lon="6.54443">
        <ele>924.545698</ele>
        <time>2021-09-19T05:29:24.000Z</time>
      </trkpt>
      <trkpt lat="43.91407" lon="6.54474">
        <ele>925.370909</ele>
        <time>2021-09-19T05:29:34.000Z</time>
      </trkpt>
      <trkpt lat="43.91394" lon="6.54503">
        <ele>926.048116</ele>
        <time>2021-09-19T05:29:41.000Z</time>
      </trkpt>
      <trkpt lat="43.91388" lon="6.54526">
        <ele>926.538366</ele>
        <time>2021-09-19T05:29:48.000Z</time>
      </trkpt>
      <trkpt lat="43.91382" lon="6.54558">
        <ele>927.192505</ele>
        <time>2021-09-19T05:29:56.000Z</time>
      </trkpt>
      <trkpt lat="43.91374" lon="6.54596">
        <ele>928.035655</ele>
        <time>2021-09-19T05:30:06.000Z</time>
      </trkpt>
      <trkpt lat="43.91367" lon="6.54624">
        <ele>929.24994</ele>
        <time>2021-09-19T05:30:14.000Z</time>
      </trkpt>
      <trkpt lat="43.9136" lon="6.54652">
        <ele>930.46039</ele>
        <time>2021-09-19T05:30:22.000Z</time>
      </trkpt>
      <trkpt lat="43.91354" lon="6.54675">
        <ele>931.426058</ele>
        <time>2021-09-19T05:30:29.000Z</time>
      </trkpt>
      <trkpt lat="43.91347" lon="6.54703">
        <ele>932.661396</ele>
        <time>2021-09-19T05:30:37.000Z</time>
      </trkpt>
      <trkpt lat="43.91345" lon="6.54734">
        <ele>933.897237</ele>
        <time>2021-09-19T05:30:45.000Z</time>
      </trkpt>
      <trkpt lat="43.91349" lon="6.5477">
        <ele>935.409214</ele>
        <time>2021-09-19T05:30:55.000Z</time>
      </trkpt>
      <trkpt lat="43.91349" lon="6.54795">
        <ele>936.388997</ele>
        <time>2021-09-19T05:31:02.000Z</time>
      </trkpt>
      <trkpt lat="43.91349" lon="6.54796">
        <ele>936.451006</ele>
        <time>2021-09-19T05:31:04.000Z</time>
      </trkpt>
      <trkpt lat="43.91348" lon="6.54799">
        <ele>936.579022</ele>
        <time>2021-09-19T05:31:57.000Z</time>
      </trkpt>
      <trkpt lat="43.91348" lon="6.54802">
        <ele>936.695056</ele>
        <time>2021-09-19T05:31:58.000Z</time>
      </trkpt>
      <trkpt lat="43.91343" lon="6.54828">
        <ele>937.770336</ele>
        <time>2021-09-19T05:32:04.000Z</time>
      </trkpt>
      <trkpt lat="43.91334" lon="6.54868">
        <ele>939.030877</ele>
        <time>2021-09-19T05:32:13.000Z</time>
      </trkpt>
      <trkpt lat="43.91329" lon="6.54898">
        <ele>939.841041</ele>
        <time>2021-09-19T05:32:20.000Z</time>
      </trkpt>
      <trkpt lat="43.91327" lon="6.54932">
        <ele>940.780902</ele>
        <time>2021-09-19T05:32:28.000Z</time>
      </trkpt>
      <trkpt lat="43.91328" lon="6.54969">
        <ele>941.764936</ele>
        <time>2021-09-19T05:32:36.000Z</time>
      </trkpt>
      <trkpt lat="43.91336" lon="6.54991">
        <ele>942.455179</ele>
        <time>2021-09-19T05:32:42.000Z</time>
      </trkpt>
      <trkpt lat="43.9135" lon="6.55012">
        <ele>943.204234</ele>
        <time>2021-09-19T05:32:49.000Z</time>
      </trkpt>
      <trkpt lat="43.91364" lon="6.55037">
        <ele>944.067075</ele>
        <time>2021-09-19T05:32:57.000Z</time>
      </trkpt>
      <trkpt lat="43.91374" lon="6.55058">
        <ele>944.751054</ele>
        <time>2021-09-19T05:33:03.000Z</time>
      </trkpt>
      <trkpt lat="43.91385" lon="6.55084">
        <ele>945.527649</ele>
        <time>2021-09-19T05:33:10.000Z</time>
      </trkpt>
      <trkpt lat="43.91393" lon="6.55119">
        <ele>946.479659</ele>
        <time>2021-09-19T05:33:19.000Z</time>
      </trkpt>
      <trkpt lat="43.91397" lon="6.55157">
        <ele>947.477838</ele>
        <time>2021-09-19T05:33:28.000Z</time>
      </trkpt>
      <trkpt lat="43.91397" lon="6.55194">
        <ele>948.426516</ele>
        <time>2021-09-19T05:33:37.000Z</time>
      </trkpt>
      <trkpt lat="43.91395" lon="6.55246">
        <ele>949.760886</ele>
        <time>2021-09-19T05:33:49.000Z</time>
      </trkpt>
      <trkpt lat="43.91395" lon="6.55285">
        <ele>950.766048</ele>
        <time>2021-09-19T05:33:59.000Z</time>
      </trkpt>
      <trkpt lat="43.91399" lon="6.55335">
        <ele>952.102629</ele>
        <time>2021-09-19T05:34:10.000Z</time>
      </trkpt>
      <trkpt lat="43.91403" lon="6.55374">
        <ele>953.137762</ele>
        <time>2021-09-19T05:34:19.000Z</time>
      </trkpt>
      <trkpt lat="43.91405" lon="6.55407">
        <ele>954.037384</ele>
        <time>2021-09-19T05:34:27.000Z</time>
      </trkpt>
      <trkpt lat="43.91407" lon="6.55437">
        <ele>954.83282</ele>
        <time>2021-09-19T05:34:34.000Z</time>
      </trkpt>
      <trkpt lat="43.91409" lon="6.55474">
        <ele>955.843466</ele>
        <time>2021-09-19T05:34:43.000Z</time>
      </trkpt>
      <trkpt lat="43.91409" lon="6.55512">
        <ele>956.849903</ele>
        <time>2021-09-19T05:34:52.000Z</time>
      </trkpt>
      <trkpt lat="43.91406" lon="6.55543">
        <ele>957.698749</ele>
        <time>2021-09-19T05:34:59.000Z</time>
      </trkpt>
      <trkpt lat="43.91395" lon="6.55585">
        <ele>959.044059</ele>
        <time>2021-09-19T05:35:09.000Z</time>
      </trkpt>
      <trkpt lat="43.91387" lon="6.55612">
        <ele>959.952644</ele>
        <time>2021-09-19T05:35:16.000Z</time>
      </trkpt>
      <trkpt lat="43.91382" lon="6.5563">
        <ele>960.580625</ele>
        <time>2021-09-19T05:35:21.000Z</time>
      </trkpt>
      <trkpt lat="43.91378" lon="6.5566">
        <ele>961.555088</ele>
        <time>2021-09-19T05:35:29.000Z</time>
      </trkpt>
      <trkpt lat="43.9138" lon="6.55691">
        <ele>962.51559</ele>
        <time>2021-09-19T05:35:37.000Z</time>
      </trkpt>
      <trkpt lat="43.91386" lon="6.55718">
        <ele>963.411124</ele>
        <time>2021-09-19T05:35:44.000Z</time>
      </trkpt>
      <trkpt lat="43.91403" lon="6.55743">
        <ele>964.49389</ele>
        <time>2021-09-19T05:35:52.000Z</time>
      </trkpt>
      <trkpt lat="43.91424" lon="6.55764">
        <ele>965.629194</ele>
        <time>2021-09-19T05:36:01.000Z</time>
      </trkpt>
      <trkpt lat="43.91444" lon="6.55782">
        <ele>966.532641</ele>
        <time>2021-09-19T05:36:09.000Z</time>
      </trkpt>
      <trkpt lat="43.91462" lon="6.55804">
        <ele>967.377804</ele>
        <time>2021-09-19T05:36:17.000Z</time>
      </trkpt>
      <trkpt lat="43.91475" lon="6.55835">
        <ele>968.313115</ele>
        <time>2021-09-19T05:36:25.000Z</time>
      </trkpt>
      <trkpt lat="43.91483" lon="6.55869">
        <ele>969.251096</ele>
        <time>2021-09-19T05:36:33.000Z</time>
      </trkpt>
      <trkpt lat="43.91488" lon="6.55907">
        <ele>970.244503</ele>
        <time>2021-09-19T05:36:41.000Z</time>
      </trkpt>
      <trkpt lat="43.91487" lon="6.55953">
        <ele>971.446536</ele>
        <time>2021-09-19T05:36:50.000Z</time>
      </trkpt>
      <trkpt lat="43.91479" lon="6.55988">
        <ele>972.439195</ele>
        <time>2021-09-19T05:36:57.000Z</time>
      </trkpt>
      <trkpt lat="43.91464" lon="6.56033">
        <ele>974.116892</ele>
        <time>2021-09-19T05:37:06.000Z</time>
      </trkpt>
      <trkpt lat="43.91449" lon="6.56081">
        <ele>975.885393</ele>
        <time>2021-09-19T05:37:16.000Z</time>
      </trkpt>
      <trkpt lat="43.91444" lon="6.56123">
        <ele>977.316624</ele>
        <time>2021-09-19T05:37:24.000Z</time>
      </trkpt>
      <trkpt lat="43.91444" lon="6.56164">
        <ele>978.709703</ele>
        <time>2021-09-19T05:37:32.000Z</time>
      </trkpt>
      <trkpt lat="43.91455" lon="6.56197">
        <ele>979.956728</ele>
        <time>2021-09-19T05:37:39.000Z</time>
      </trkpt>
      <trkpt lat="43.91474" lon="6.5624">
        <ele>981.232944</ele>
        <time>2021-09-19T05:37:49.000Z</time>
      </trkpt>
      <trkpt lat="43.91487" lon="6.56275">
        <ele>981.924158</ele>
        <time>2021-09-19T05:37:56.000Z</time>
      </trkpt>
      <trkpt lat="43.91492" lon="6.56323">
        <ele>982.756594</ele>
        <time>2021-09-19T05:38:05.000Z</time>
      </trkpt>
      <trkpt lat="43.91498" lon="6.56365">
        <ele>983.505229</ele>
        <time>2021-09-19T05:38:13.000Z</time>
      </trkpt>
      <trkpt lat="43.91504" lon="6.56405">
        <ele>984.219295</ele>
        <time>2021-09-19T05:38:20.000Z</time>
      </trkpt>
      <trkpt lat="43.91505" lon="6.5641">
        <ele>984.317959</ele>
        <time>2021-09-19T05:38:21.000Z</time>
      </trkpt>
      <trkpt lat="43.91504" lon="6.56463">
        <ele>985.270775</ele>
        <time>2021-09-19T05:38:30.000Z</time>
      </trkpt>
      <trkpt lat="43.91501" lon="6.56526">
        <ele>986.667774</ele>
        <time>2021-09-19T05:38:41.000Z</time>
      </trkpt>
      <trkpt lat="43.91499" lon="6.56564">
        <ele>987.536708</ele>
        <time>2021-09-19T05:38:48.000Z</time>
      </trkpt>
      <trkpt lat="43.91495" lon="6.56608">
        <ele>988.513697</ele>
        <time>2021-09-19T05:38:56.000Z</time>
      </trkpt>
      <trkpt lat="43.9149" lon="6.56644">
        <ele>989.334492</ele>
        <time>2021-09-19T05:39:03.000Z</time>
      </trkpt>
      <trkpt lat="43.91478" lon="6.56704">
        <ele>990.73755</ele>
        <time>2021-09-19T05:39:14.000Z</time>
      </trkpt>
      <trkpt lat="43.91467" lon="6.56745">
        <ele>991.717521</ele>
        <time>2021-09-19T05:39:23.000Z</time>
      </trkpt>
      <trkpt lat="43.91454" lon="6.56784">
        <ele>992.667811</ele>
        <time>2021-09-19T05:39:31.000Z</time>
      </trkpt>
      <trkpt lat="43.91435" lon="6.56809">
        <ele>993.503226</ele>
        <time>2021-09-19T05:39:38.000Z</time>
      </trkpt>
      <trkpt lat="43.91415" lon="6.56843">
        <ele>994.485164</ele>
        <time>2021-09-19T05:39:46.000Z</time>
      </trkpt>
      <trkpt lat="43.91402" lon="6.56889">
        <ele>995.576336</ele>
        <time>2021-09-19T05:39:55.000Z</time>
      </trkpt>
      <trkpt lat="43.91394" lon="6.56931">
        <ele>996.530945</ele>
        <time>2021-09-19T05:40:03.000Z</time>
      </trkpt>
      <trkpt lat="43.91392" lon="6.56943">
        <ele>996.755059</ele>
        <time>2021-09-19T05:40:05.000Z</time>
      </trkpt>
      <trkpt lat="43.91385" lon="6.56969">
        <ele>997.310032</ele>
        <time>2021-09-19T05:40:10.000Z</time>
      </trkpt>
      <trkpt lat="43.91367" lon="6.5702">
        <ele>998.397564</ele>
        <time>2021-09-19T05:40:20.000Z</time>
      </trkpt>
      <trkpt lat="43.9136" lon="6.57051">
        <ele>999.035353</ele>
        <time>2021-09-19T05:40:26.000Z</time>
      </trkpt>
      <trkpt lat="43.91361" lon="6.57084">
        <ele>999.683319</ele>
        <time>2021-09-19T05:40:32.000Z</time>
      </trkpt>
      <trkpt lat="43.91375" lon="6.57138">
        <ele>1000.782333</ele>
        <time>2021-09-19T05:40:42.000Z</time>
      </trkpt>
      <trkpt lat="43.9138" lon="6.57175">
        <ele>1001.592897</ele>
        <time>2021-09-19T05:40:49.000Z</time>
      </trkpt>
      <trkpt lat="43.91382" lon="6.5722">
        <ele>1002.595613</ele>
        <time>2021-09-19T05:40:57.000Z</time>
      </trkpt>
      <trkpt lat="43.91384" lon="6.57258">
        <ele>1003.468645</ele>
        <time>2021-09-19T05:41:04.000Z</time>
      </trkpt>
      <trkpt lat="43.91386" lon="6.57313">
        <ele>1004.714679</ele>
        <time>2021-09-19T05:41:14.000Z</time>
      </trkpt>
      <trkpt lat="43.91388" lon="6.57344">
        <ele>1005.419334</ele>
        <time>2021-09-19T05:41:20.000Z</time>
      </trkpt>
      <trkpt lat="43.91388" lon="6.57395">
        <ele>1006.583453</ele>
        <time>2021-09-19T05:41:30.000Z</time>
      </trkpt>
      <trkpt lat="43.91388" lon="6.57429">
        <ele>1007.44112</ele>
        <time>2021-09-19T05:41:37.000Z</time>
      </trkpt>
      <trkpt lat="43.91386" lon="6.57464">
        <ele>1008.346685</ele>
        <time>2021-09-19T05:41:44.000Z</time>
      </trkpt>
      <trkpt lat="43.91384" lon="6.57504">
        <ele>1009.378038</ele>
        <time>2021-09-19T05:41:52.000Z</time>
      </trkpt>
      <trkpt lat="43.91379" lon="6.5755">
        <ele>1010.594021</ele>
        <time>2021-09-19T05:42:01.000Z</time>
      </trkpt>
      <trkpt lat="43.91376" lon="6.57597">
        <ele>1011.80721</ele>
        <time>2021-09-19T05:42:10.000Z</time>
      </trkpt>
      <trkpt lat="43.91379" lon="6.57651">
        <ele>1013.206579</ele>
        <time>2021-09-19T05:42:19.000Z</time>
      </trkpt>
      <trkpt lat="43.9138" lon="6.5771">
        <ele>1013.768262</ele>
        <time>2021-09-19T05:42:28.000Z</time>
      </trkpt>
      <trkpt lat="43.9138" lon="6.57716">
        <ele>1013.823889</ele>
        <time>2021-09-19T05:42:29.000Z</time>
      </trkpt>
      <trkpt lat="43.9138" lon="6.57754">
        <ele>1014.154178</ele>
        <time>2021-09-19T05:42:35.000Z</time>
      </trkpt>
      <trkpt lat="43.91385" lon="6.57784">
        <ele>1014.421551</ele>
        <time>2021-09-19T05:42:40.000Z</time>
      </trkpt>
      <trkpt lat="43.91386" lon="6.57789">
        <ele>1014.468572</ele>
        <time>2021-09-19T05:42:41.000Z</time>
      </trkpt>
      <trkpt lat="43.91402" lon="6.5784">
        <ele>1014.943615</ele>
        <time>2021-09-19T05:42:51.000Z</time>
      </trkpt>
      <trkpt lat="43.91412" lon="6.57872">
        <ele>1015.256872</ele>
        <time>2021-09-19T05:42:58.000Z</time>
      </trkpt>
      <trkpt lat="43.91423" lon="6.57907">
        <ele>1015.578588</ele>
        <time>2021-09-19T05:43:05.000Z</time>
      </trkpt>
      <trkpt lat="43.91433" lon="6.57946">
        <ele>1015.929825</ele>
        <time>2021-09-19T05:43:13.000Z</time>
      </trkpt>
      <trkpt lat="43.91437" lon="6.57978">
        <ele>1016.208355</ele>
        <time>2021-09-19T05:43:20.000Z</time>
      </trkpt>
      <trkpt lat="43.91437" lon="6.58015">
        <ele>1016.519534</ele>
        <time>2021-09-19T05:43:27.000Z</time>
      </trkpt>
      <trkpt lat="43.91436" lon="6.58054">
        <ele>1016.844369</ele>
        <time>2021-09-19T05:43:34.000Z</time>
      </trkpt>
      <trkpt lat="43.91435" lon="6.58091">
        <ele>1017.163255</ele>
        <time>2021-09-19T05:43:41.000Z</time>
      </trkpt>
      <trkpt lat="43.91438" lon="6.58146">
        <ele>1017.666789</ele>
        <time>2021-09-19T05:43:51.000Z</time>
      </trkpt>
      <trkpt lat="43.91441" lon="6.58185">
        <ele>1018.171232</ele>
        <time>2021-09-19T05:43:58.000Z</time>
      </trkpt>
      <trkpt lat="43.91441" lon="6.58219">
        <ele>1018.614812</ele>
        <time>2021-09-19T05:44:04.000Z</time>
      </trkpt>
      <trkpt lat="43.91441" lon="6.58224">
        <ele>1018.685309</ele>
        <time>2021-09-19T05:44:05.000Z</time>
      </trkpt>
      <trkpt lat="43.91438" lon="6.58245">
        <ele>1018.968583</ele>
        <time>2021-09-19T05:44:08.000Z</time>
      </trkpt>
      <trkpt lat="43.91442" lon="6.58254">
        <ele>1019.107675</ele>
        <time>2021-09-19T05:44:11.000Z</time>
      </trkpt>
      <trkpt lat="43.91444" lon="6.58255">
        <ele>1019.143394</ele>
        <time>2021-09-19T05:44:12.000Z</time>
      </trkpt>
      <trkpt lat="43.91446" lon="6.58256">
        <ele>1019.179112</ele>
        <time>2021-09-19T05:44:14.000Z</time>
      </trkpt>
      <trkpt lat="43.91437" lon="6.5825">
        <ele>1019.357172</ele>
        <time>2021-09-19T05:44:21.000Z</time>
      </trkpt>
      <trkpt lat="43.91437" lon="6.58251">
        <ele>1019.366509</ele>
        <time>2021-09-19T05:44:23.000Z</time>
      </trkpt>
      <trkpt lat="43.91434" lon="6.58267">
        <ele>1019.583758</ele>
        <time>2021-09-19T05:44:25.000Z</time>
      </trkpt>
      <trkpt lat="43.91435" lon="6.58263">
        <ele>1019.636811</ele>
        <time>2021-09-19T05:44:27.000Z</time>
      </trkpt>
      <trkpt lat="43.91427" lon="6.58287">
        <ele>1019.981608</ele>
        <time>2021-09-19T05:44:35.000Z</time>
      </trkpt>
      <trkpt lat="43.91419" lon="6.58305">
        <ele>1020.254576</ele>
        <time>2021-09-19T05:44:40.000Z</time>
      </trkpt>
      <trkpt lat="43.91409" lon="6.58328">
        <ele>1020.617648</ele>
        <time>2021-09-19T05:44:45.000Z</time>
      </trkpt>
      <trkpt lat="43.91402" lon="6.58344">
        <ele>1020.864116</ele>
        <time>2021-09-19T05:44:48.000Z</time>
      </trkpt>
      <trkpt lat="43.91388" lon="6.58383">
        <ele>1021.657226</ele>
        <time>2021-09-19T05:44:55.000Z</time>
      </trkpt>
      <trkpt lat="43.91373" lon="6.58431">
        <ele>1022.608236</ele>
        <time>2021-09-19T05:45:03.000Z</time>
      </trkpt>
      <trkpt lat="43.91361" lon="6.58487">
        <ele>1023.655298</ele>
        <time>2021-09-19T05:45:11.000Z</time>
      </trkpt>
      <trkpt lat="43.9136" lon="6.58529">
        <ele>1024.413227</ele>
        <time>2021-09-19T05:45:17.000Z</time>
      </trkpt>
      <trkpt lat="43.9136" lon="6.58541">
        <ele>1024.643272</ele>
        <time>2021-09-19T05:45:19.000Z</time>
      </trkpt>
      <trkpt lat="43.91361" lon="6.58585">
        <ele>1025.400014</ele>
        <time>2021-09-19T05:45:26.000Z</time>
      </trkpt>
      <trkpt lat="43.91361" lon="6.58622">
        <ele>1025.807372</ele>
        <time>2021-09-19T05:45:32.000Z</time>
      </trkpt>
      <trkpt lat="43.91361" lon="6.58625">
        <ele>1025.848237</ele>
        <time>2021-09-19T05:45:34.000Z</time>
      </trkpt>
      <trkpt lat="43.91361" lon="6.58629">
        <ele>1025.883555</ele>
        <time>2021-09-19T05:45:42.000Z</time>
      </trkpt>
      <trkpt lat="43.91362" lon="6.58644">
        <ele>1026.059099</ele>
        <time>2021-09-19T05:45:48.000Z</time>
      </trkpt>
      <trkpt lat="43.91362" lon="6.58672">
        <ele>1026.361695</ele>
        <time>2021-09-19T05:45:54.000Z</time>
      </trkpt>
      <trkpt lat="43.91362" lon="6.58673">
        <ele>1026.377222</ele>
        <time>2021-09-19T05:45:57.000Z</time>
      </trkpt>
      <trkpt lat="43.91363" lon="6.58676">
        <ele>1026.411573</ele>
        <time>2021-09-19T05:46:07.000Z</time>
      </trkpt>
      <trkpt lat="43.91366" lon="6.58693">
        <ele>1026.605648</ele>
        <time>2021-09-19T05:46:12.000Z</time>
      </trkpt>
      <trkpt lat="43.91376" lon="6.58729">
        <ele>1027.031569</ele>
        <time>2021-09-19T05:46:19.000Z</time>
      </trkpt>
      <trkpt lat="43.91385" lon="6.58757">
        <ele>1027.360639</ele>
        <time>2021-09-19T05:46:26.000Z</time>
      </trkpt>
      <trkpt lat="43.91385" lon="6.58786">
        <ele>1027.679603</ele>
        <time>2021-09-19T05:46:32.000Z</time>
      </trkpt>
      <trkpt lat="43.91373" lon="6.58827">
        <ele>1028.234769</ele>
        <time>2021-09-19T05:46:42.000Z</time>
      </trkpt>
      <trkpt lat="43.91355" lon="6.58862">
        <ele>1029.313571</ele>
        <time>2021-09-19T05:46:52.000Z</time>
      </trkpt>
      <trkpt lat="43.91339" lon="6.58893">
        <ele>1030.266112</ele>
        <time>2021-09-19T05:47:01.000Z</time>
      </trkpt>
      <trkpt lat="43.91324" lon="6.5893">
        <ele>1031.364118</ele>
        <time>2021-09-19T05:47:11.000Z</time>
      </trkpt>
      <trkpt lat="43.91313" lon="6.58966">
        <ele>1032.326158</ele>
        <time>2021-09-19T05:47:20.000Z</time>
      </trkpt>
      <trkpt lat="43.91307" lon="6.58995">
        <ele>1033.098983</ele>
        <time>2021-09-19T05:47:27.000Z</time>
      </trkpt>
      <trkpt lat="43.91303" lon="6.59014">
        <ele>1033.588789</ele>
        <time>2021-09-19T05:47:33.000Z</time>
      </trkpt>
      <trkpt lat="43.91294" lon="6.59045">
        <ele>1034.438488</ele>
        <time>2021-09-19T05:47:42.000Z</time>
      </trkpt>
      <trkpt lat="43.91281" lon="6.59083">
        <ele>1035.655674</ele>
        <time>2021-09-19T05:47:53.000Z</time>
      </trkpt>
      <trkpt lat="43.91274" lon="6.59112">
        <ele>1036.539468</ele>
        <time>2021-09-19T05:48:01.000Z</time>
      </trkpt>
      <trkpt lat="43.91273" lon="6.59145">
        <ele>1037.495841</ele>
        <time>2021-09-19T05:48:10.000Z</time>
      </trkpt>
      <trkpt lat="43.91276" lon="6.59169">
        <ele>1038.224761</ele>
        <time>2021-09-19T05:48:17.000Z</time>
      </trkpt>
      <trkpt lat="43.9128" lon="6.59196">
        <ele>1039.001623</ele>
        <time>2021-09-19T05:48:24.000Z</time>
      </trkpt>
      <trkpt lat="43.9128" lon="6.59222">
        <ele>1039.759681</ele>
        <time>2021-09-19T05:48:31.000Z</time>
      </trkpt>
      <trkpt lat="43.91276" lon="6.59252">
        <ele>1040.652059</ele>
        <time>2021-09-19T05:48:39.000Z</time>
      </trkpt>
      <trkpt lat="43.91266" lon="6.59285">
        <ele>1041.696392</ele>
        <time>2021-09-19T05:48:48.000Z</time>
      </trkpt>
      <trkpt lat="43.91258" lon="6.5931">
        <ele>1042.493103</ele>
        <time>2021-09-19T05:48:55.000Z</time>
      </trkpt>
      <trkpt lat="43.9125" lon="6.59348">
        <ele>1043.628995</ele>
        <time>2021-09-19T05:49:05.000Z</time>
      </trkpt>
      <trkpt lat="43.91248" lon="6.59372">
        <ele>1044.341913</ele>
        <time>2021-09-19T05:49:11.000Z</time>
      </trkpt>
      <trkpt lat="43.91247" lon="6.59398">
        <ele>1045.090531</ele>
        <time>2021-09-19T05:49:18.000Z</time>
      </trkpt>
      <trkpt lat="43.91246" lon="6.59422">
        <ele>1045.794846</ele>
        <time>2021-09-19T05:49:25.000Z</time>
      </trkpt>
      <trkpt lat="43.91245" lon="6.59451">
        <ele>1046.650605</ele>
        <time>2021-09-19T05:49:32.000Z</time>
      </trkpt>
      <trkpt lat="43.91244" lon="6.59501">
        <ele>1048.091353</ele>
        <time>2021-09-19T05:49:43.000Z</time>
      </trkpt>
      <trkpt lat="43.91243" lon="6.59535">
        <ele>1049.071238</ele>
        <time>2021-09-19T05:49:51.000Z</time>
      </trkpt>
      <trkpt lat="43.91242" lon="6.59574">
        <ele>1050.105591</ele>
        <time>2021-09-19T05:50:00.000Z</time>
      </trkpt>
      <trkpt lat="43.91242" lon="6.59595">
        <ele>1050.666782</ele>
        <time>2021-09-19T05:50:06.000Z</time>
      </trkpt>
      <trkpt lat="43.91242" lon="6.59596">
        <ele>1050.704371</ele>
        <time>2021-09-19T05:50:08.000Z</time>
      </trkpt>
      <trkpt lat="43.91242" lon="6.59602">
        <ele>1050.878888</ele>
        <time>2021-09-19T05:50:21.000Z</time>
      </trkpt>
      <trkpt lat="43.91242" lon="6.59606">
        <ele>1050.975544</ele>
        <time>2021-09-19T05:50:22.000Z</time>
      </trkpt>
      <trkpt lat="43.91244" lon="6.59633">
        <ele>1051.691748</ele>
        <time>2021-09-19T05:50:29.000Z</time>
      </trkpt>
      <trkpt lat="43.91251" lon="6.59659">
        <ele>1052.439491</ele>
        <time>2021-09-19T05:50:35.000Z</time>
      </trkpt>
      <trkpt lat="43.91269" lon="6.59696">
        <ele>1053.636273</ele>
        <time>2021-09-19T05:50:44.000Z</time>
      </trkpt>
      <trkpt lat="43.91283" lon="6.59725">
        <ele>1054.591263</ele>
        <time>2021-09-19T05:50:51.000Z</time>
      </trkpt>
      <trkpt lat="43.9129" lon="6.59751">
        <ele>1055.334118</ele>
        <time>2021-09-19T05:50:57.000Z</time>
      </trkpt>
      <trkpt lat="43.91291" lon="6.59778">
        <ele>1055.924571</ele>
        <time>2021-09-19T05:51:03.000Z</time>
      </trkpt>
      <trkpt lat="43.91295" lon="6.59823">
        <ele>1056.79473</ele>
        <time>2021-09-19T05:51:11.000Z</time>
      </trkpt>
      <trkpt lat="43.91299" lon="6.59855">
        <ele>1057.438292</ele>
        <time>2021-09-19T05:51:19.000Z</time>
      </trkpt>
      <trkpt lat="43.91303" lon="6.59884">
        <ele>1058.002647</ele>
        <time>2021-09-19T05:51:25.000Z</time>
      </trkpt>
      <trkpt lat="43.91304" lon="6.59915">
        <ele>1058.61561</ele>
        <time>2021-09-19T05:51:31.000Z</time>
      </trkpt>
      <trkpt lat="43.91297" lon="6.59946">
        <ele>1059.242422</ele>
        <time>2021-09-19T05:51:37.000Z</time>
      </trkpt>
      <trkpt lat="43.91281" lon="6.59994">
        <ele>1060.260832</ele>
        <time>2021-09-19T05:51:47.000Z</time>
      </trkpt>
      <trkpt lat="43.91263" lon="6.60044">
        <ele>1061.133034</ele>
        <time>2021-09-19T05:51:57.000Z</time>
      </trkpt>
      <trkpt lat="43.91243" lon="6.6011">
        <ele>1062.186454</ele>
        <time>2021-09-19T05:52:09.000Z</time>
      </trkpt>
      <trkpt lat="43.9123" lon="6.60173">
        <ele>1063.173523</ele>
        <time>2021-09-19T05:52:20.000Z</time>
      </trkpt>
      <trkpt lat="43.91225" lon="6.60221">
        <ele>1063.887581</ele>
        <time>2021-09-19T05:52:28.000Z</time>
      </trkpt>
      <trkpt lat="43.91227" lon="6.60273">
        <ele>1064.649886</ele>
        <time>2021-09-19T05:52:37.000Z</time>
      </trkpt>
      <trkpt lat="43.91231" lon="6.60334">
        <ele>1065.545505</ele>
        <time>2021-09-19T05:52:48.000Z</time>
      </trkpt>
      <trkpt lat="43.91234" lon="6.60384">
        <ele>1066.273064</ele>
        <time>2021-09-19T05:52:57.000Z</time>
      </trkpt>
      <trkpt lat="43.91237" lon="6.6043">
        <ele>1066.94514</ele>
        <time>2021-09-19T05:53:05.000Z</time>
      </trkpt>
      <trkpt lat="43.91242" lon="6.60502">
        <ele>1068.042809</ele>
        <time>2021-09-19T05:53:18.000Z</time>
      </trkpt>
      <trkpt lat="43.91249" lon="6.60534">
        <ele>1068.599861</ele>
        <time>2021-09-19T05:53:24.000Z</time>
      </trkpt>
      <trkpt lat="43.91253" lon="6.60543">
        <ele>1068.788495</ele>
        <time>2021-09-19T05:53:26.000Z</time>
      </trkpt>
      <trkpt lat="43.91266" lon="6.60565">
        <ele>1069.271503</ele>
        <time>2021-09-19T05:53:31.000Z</time>
      </trkpt>
      <trkpt lat="43.91288" lon="6.60596">
        <ele>1070.008486</ele>
        <time>2021-09-19T05:53:39.000Z</time>
      </trkpt>
      <trkpt lat="43.91308" lon="6.60618">
        <ele>1070.616599</ele>
        <time>2021-09-19T05:53:46.000Z</time>
      </trkpt>
      <trkpt lat="43.91331" lon="6.60637">
        <ele>1071.249316</ele>
        <time>2021-09-19T05:53:53.000Z</time>
      </trkpt>
      <trkpt lat="43.91352" lon="6.60653">
        <ele>1071.813167</ele>
        <time>2021-09-19T05:54:00.000Z</time>
      </trkpt>
      <trkpt lat="43.91374" lon="6.60669">
        <ele>1072.47758</ele>
        <time>2021-09-19T05:54:07.000Z</time>
      </trkpt>
      <trkpt lat="43.91401" lon="6.60679">
        <ele>1073.274844</ele>
        <time>2021-09-19T05:54:14.000Z</time>
      </trkpt>
      <trkpt lat="43.91436" lon="6.60684">
        <ele>1074.295136</ele>
        <time>2021-09-19T05:54:23.000Z</time>
      </trkpt>
      <trkpt lat="43.91479" lon="6.6068">
        <ele>1075.536679</ele>
        <time>2021-09-19T05:54:34.000Z</time>
      </trkpt>
      <trkpt lat="43.91506" lon="6.60676">
        <ele>1076.322789</ele>
        <time>2021-09-19T05:54:41.000Z</time>
      </trkpt>
      <trkpt lat="43.91533" lon="6.60677">
        <ele>1077.08197</ele>
        <time>2021-09-19T05:54:48.000Z</time>
      </trkpt>
      <trkpt lat="43.91553" lon="6.60688">
        <ele>1078.000931</ele>
        <time>2021-09-19T05:54:55.000Z</time>
      </trkpt>
      <trkpt lat="43.9157" lon="6.60705">
        <ele>1078.903547</ele>
        <time>2021-09-19T05:55:02.000Z</time>
      </trkpt>
      <trkpt lat="43.91585" lon="6.60739">
        <ele>1080.180115</ele>
        <time>2021-09-19T05:55:12.000Z</time>
      </trkpt>
      <trkpt lat="43.91595" lon="6.60761">
        <ele>1081.020563</ele>
        <time>2021-09-19T05:55:19.000Z</time>
      </trkpt>
      <trkpt lat="43.91604" lon="6.60781">
        <ele>1081.765259</ele>
        <time>2021-09-19T05:55:25.000Z</time>
      </trkpt>
      <trkpt lat="43.91624" lon="6.60824">
        <ele>1083.414302</ele>
        <time>2021-09-19T05:55:37.000Z</time>
      </trkpt>
      <trkpt lat="43.91638" lon="6.60848">
        <ele>1084.37265</ele>
        <time>2021-09-19T05:55:46.000Z</time>
      </trkpt>
      <trkpt lat="43.91656" lon="6.60878">
        <ele>1085.726759</ele>
        <time>2021-09-19T05:55:56.000Z</time>
      </trkpt>
      <trkpt lat="43.91674" lon="6.60903">
        <ele>1087.036886</ele>
        <time>2021-09-19T05:56:05.000Z</time>
      </trkpt>
      <trkpt lat="43.91695" lon="6.60922">
        <ele>1088.338754</ele>
        <time>2021-09-19T05:56:14.000Z</time>
      </trkpt>
      <trkpt lat="43.91722" lon="6.60942">
        <ele>1089.956002</ele>
        <time>2021-09-19T05:56:25.000Z</time>
      </trkpt>
      <trkpt lat="43.9174" lon="6.6096">
        <ele>1091.102812</ele>
        <time>2021-09-19T05:56:33.000Z</time>
      </trkpt>
      <trkpt lat="43.91751" lon="6.60981">
        <ele>1092.078262</ele>
        <time>2021-09-19T05:56:40.000Z</time>
      </trkpt>
      <trkpt lat="43.91759" lon="6.61014">
        <ele>1093.350529</ele>
        <time>2021-09-19T05:56:49.000Z</time>
      </trkpt>
      <trkpt lat="43.91765" lon="6.61044">
        <ele>1094.544723</ele>
        <time>2021-09-19T05:56:59.000Z</time>
      </trkpt>
      <trkpt lat="43.9177" lon="6.61073">
        <ele>1095.637018</ele>
        <time>2021-09-19T05:57:07.000Z</time>
      </trkpt>
      <trkpt lat="43.91777" lon="6.61094">
        <ele>1096.510655</ele>
        <time>2021-09-19T05:57:13.000Z</time>
      </trkpt>
      <trkpt lat="43.91787" lon="6.61114">
        <ele>1097.400576</ele>
        <time>2021-09-19T05:57:19.000Z</time>
      </trkpt>
      <trkpt lat="43.918" lon="6.61136">
        <ele>1098.446</ele>
        <time>2021-09-19T05:57:26.000Z</time>
      </trkpt>
      <trkpt lat="43.91816" lon="6.61162">
        <ele>1099.724274</ele>
        <time>2021-09-19T05:57:35.000Z</time>
      </trkpt>
      <trkpt lat="43.91827" lon="6.61182">
        <ele>1100.685233</ele>
        <time>2021-09-19T05:57:42.000Z</time>
      </trkpt>
      <trkpt lat="43.91843" lon="6.61209">
        <ele>1101.981546</ele>
        <time>2021-09-19T05:57:51.000Z</time>
      </trkpt>
      <trkpt lat="43.91856" lon="6.61233">
        <ele>1103.098058</ele>
        <time>2021-09-19T05:57:59.000Z</time>
      </trkpt>
      <trkpt lat="43.91868" lon="6.61258">
        <ele>1104.239304</ele>
        <time>2021-09-19T05:58:07.000Z</time>
      </trkpt>
      <trkpt lat="43.91883" lon="6.61288">
        <ele>1105.70674</ele>
        <time>2021-09-19T05:58:17.000Z</time>
      </trkpt>
      <trkpt lat="43.91894" lon="6.6131">
        <ele>1106.760446</ele>
        <time>2021-09-19T05:58:24.000Z</time>
      </trkpt>
      <trkpt lat="43.91912" lon="6.61339">
        <ele>1108.248619</ele>
        <time>2021-09-19T05:58:34.000Z</time>
      </trkpt>
      <trkpt lat="43.91926" lon="6.61362">
        <ele>1109.484328</ele>
        <time>2021-09-19T05:58:43.000Z</time>
      </trkpt>
      <trkpt lat="43.91931" lon="6.61368">
        <ele>1109.849478</ele>
        <time>2021-09-19T05:58:48.000Z</time>
      </trkpt>
      <trkpt lat="43.91932" lon="6.6137">
        <ele>1109.914584</ele>
        <time>2021-09-19T05:58:52.000Z</time>
      </trkpt>
      <trkpt lat="43.91935" lon="6.61374">
        <ele>1110.187764</ele>
        <time>2021-09-19T05:58:54.000Z</time>
      </trkpt>
      <trkpt lat="43.91943" lon="6.61385">
        <ele>1110.794968</ele>
        <time>2021-09-19T05:59:00.000Z</time>
      </trkpt>
      <trkpt lat="43.91951" lon="6.61391">
        <ele>1111.265106</ele>
        <time>2021-09-19T05:59:04.000Z</time>
      </trkpt>
      <trkpt lat="43.91948" lon="6.6139">
        <ele>1111.428314</ele>
        <time>2021-09-19T05:59:05.000Z</time>
      </trkpt>
      <trkpt lat="43.91953" lon="6.61392">
        <ele>1111.75473</ele>
        <time>2021-09-19T05:59:29.000Z</time>
      </trkpt>
      <trkpt lat="43.9196" lon="6.61395">
        <ele>1112.133381</ele>
        <time>2021-09-19T05:59:31.000Z</time>
      </trkpt>
      <trkpt lat="43.91969" lon="6.61399">
        <ele>1112.650505</ele>
        <time>2021-09-19T05:59:35.000Z</time>
      </trkpt>
      <trkpt lat="43.91973" lon="6.61401">
        <ele>1112.872456</ele>
        <time>2021-09-19T05:59:36.000Z</time>
      </trkpt>
      <trkpt lat="43.91994" lon="6.61403">
        <ele>1113.725829</ele>
        <time>2021-09-19T05:59:40.000Z</time>
      </trkpt>
      <trkpt lat="43.92021" lon="6.61406">
        <ele>1113.750104</ele>
        <time>2021-09-19T05:59:44.000Z</time>
      </trkpt>
      <trkpt lat="43.92035" lon="6.61407">
        <ele>1113.763113</ele>
        <time>2021-09-19T05:59:46.000Z</time>
      </trkpt>
      <trkpt lat="43.92065" lon="6.61403">
        <ele>1113.790819</ele>
        <time>2021-09-19T05:59:50.000Z</time>
      </trkpt>
      <trkpt lat="43.92073" lon="6.61401">
        <ele>1113.798276</ele>
        <time>2021-09-19T05:59:51.000Z</time>
      </trkpt>
      <trkpt lat="43.92114" lon="6.61383">
        <ele>1113.837423</ele>
        <time>2021-09-19T05:59:56.000Z</time>
      </trkpt>
      <trkpt lat="43.92123" lon="6.61379">
        <ele>1113.845675</ele>
        <time>2021-09-19T05:59:57.000Z</time>
      </trkpt>
      <trkpt lat="43.9214" lon="6.61373">
        <ele>1113.862336</ele>
        <time>2021-09-19T05:59:59.000Z</time>
      </trkpt>
      <trkpt lat="43.9216" lon="6.61376">
        <ele>1113.880087</ele>
        <time>2021-09-19T06:00:01.000Z</time>
      </trkpt>
      <trkpt lat="43.92169" lon="6.61381">
        <ele>1113.737931</ele>
        <time>2021-09-19T06:00:02.000Z</time>
      </trkpt>
      <trkpt lat="43.92187" lon="6.61396">
        <ele>1113.198754</ele>
        <time>2021-09-19T06:00:04.000Z</time>
      </trkpt>
      <trkpt lat="43.92195" lon="6.61405">
        <ele>1112.947463</ele>
        <time>2021-09-19T06:00:05.000Z</time>
      </trkpt>
      <trkpt lat="43.92203" lon="6.61412">
        <ele>1112.703991</ele>
        <time>2021-09-19T06:00:06.000Z</time>
      </trkpt>
      <trkpt lat="43.9222" lon="6.61424">
        <ele>1112.207732</ele>
        <time>2021-09-19T06:00:08.000Z</time>
      </trkpt>
      <trkpt lat="43.9226" lon="6.6144">
        <ele>1111.138101</ele>
        <time>2021-09-19T06:00:12.000Z</time>
      </trkpt>
      <trkpt lat="43.9227" lon="6.61442">
        <ele>1110.871644</ele>
        <time>2021-09-19T06:00:13.000Z</time>
      </trkpt>
      <trkpt lat="43.92291" lon="6.61444">
        <ele>1110.33686</ele>
        <time>2021-09-19T06:00:15.000Z</time>
      </trkpt>
      <trkpt lat="43.923" lon="6.61446">
        <ele>1110.098934</ele>
        <time>2021-09-19T06:00:16.000Z</time>
      </trkpt>
      <trkpt lat="43.92309" lon="6.61449">
        <ele>1109.871943</ele>
        <time>2021-09-19T06:00:17.000Z</time>
      </trkpt>
      <trkpt lat="43.92317" lon="6.61456">
        <ele>1109.638755</ele>
        <time>2021-09-19T06:00:18.000Z</time>
      </trkpt>
      <trkpt lat="43.92322" lon="6.61466">
        <ele>1109.401707</ele>
        <time>2021-09-19T06:00:19.000Z</time>
      </trkpt>
      <trkpt lat="43.92329" lon="6.61507">
        <ele>1108.440527</ele>
        <time>2021-09-19T06:00:22.000Z</time>
      </trkpt>
      <trkpt lat="43.92332" lon="6.61548">
        <ele>1107.430998</ele>
        <time>2021-09-19T06:00:25.000Z</time>
      </trkpt>
      <trkpt lat="43.92333" lon="6.61562">
        <ele>1107.092764</ele>
        <time>2021-09-19T06:00:26.000Z</time>
      </trkpt>
      <trkpt lat="43.92336" lon="6.61575">
        <ele>1106.75596</ele>
        <time>2021-09-19T06:00:27.000Z</time>
      </trkpt>
      <trkpt lat="43.9235" lon="6.61596">
        <ele>1106.066838</ele>
        <time>2021-09-19T06:00:29.000Z</time>
      </trkpt>
      <trkpt lat="43.92386" lon="6.61628">
        <ele>1104.622154</ele>
        <time>2021-09-19T06:00:33.000Z</time>
      </trkpt>
      <trkpt lat="43.92434" lon="6.61667">
        <ele>1102.81794</ele>
        <time>2021-09-19T06:00:38.000Z</time>
      </trkpt>
      <trkpt lat="43.92473" lon="6.61696">
        <ele>1101.492747</ele>
        <time>2021-09-19T06:00:42.000Z</time>
      </trkpt>
      <trkpt lat="43.92526" lon="6.61718">
        <ele>1099.814723</ele>
        <time>2021-09-19T06:00:47.000Z</time>
      </trkpt>
      <trkpt lat="43.9258" lon="6.6174">
        <ele>1098.148849</ele>
        <time>2021-09-19T06:00:52.000Z</time>
      </trkpt>
      <trkpt lat="43.92628" lon="6.61766">
        <ele>1096.147615</ele>
        <time>2021-09-19T06:00:57.000Z</time>
      </trkpt>
      <trkpt lat="43.92654" lon="6.61787">
        <ele>1094.929326</ele>
        <time>2021-09-19T06:01:00.000Z</time>
      </trkpt>
      <trkpt lat="43.92662" lon="6.61796">
        <ele>1094.519417</ele>
        <time>2021-09-19T06:01:01.000Z</time>
      </trkpt>
      <trkpt lat="43.92669" lon="6.61807">
        <ele>1094.105618</ele>
        <time>2021-09-19T06:01:02.000Z</time>
      </trkpt>
      <trkpt lat="43.92686" lon="6.61842">
        <ele>1092.865131</ele>
        <time>2021-09-19T06:01:05.000Z</time>
      </trkpt>
      <trkpt lat="43.92717" lon="6.61914">
        <ele>1090.377533</ele>
        <time>2021-09-19T06:01:11.000Z</time>
      </trkpt>
      <trkpt lat="43.9275" lon="6.61984">
        <ele>1087.268969</ele>
        <time>2021-09-19T06:01:16.000Z</time>
      </trkpt>
      <trkpt lat="43.9275" lon="6.61984">
        <ele>1087.268969</ele>
        <time>2021-09-19T06:01:17.000Z</time>
      </trkpt>
      <trkpt lat="43.92783" lon="6.62055">
        <ele>1084.123648</ele>
        <time>2021-09-19T06:01:23.000Z</time>
      </trkpt>
      <trkpt lat="43.92789" lon="6.62067">
        <ele>1083.594903</ele>
        <time>2021-09-19T06:01:24.000Z</time>
      </trkpt>
      <trkpt lat="43.92822" lon="6.62138">
        <ele>1080.424973</ele>
        <time>2021-09-19T06:01:30.000Z</time>
      </trkpt>
      <trkpt lat="43.92833" lon="6.62161">
        <ele>1079.368743</ele>
        <time>2021-09-19T06:01:32.000Z</time>
      </trkpt>
      <trkpt lat="43.9286" lon="6.6222">
        <ele>1076.71389</ele>
        <time>2021-09-19T06:01:37.000Z</time>
      </trkpt>
      <trkpt lat="43.92896" lon="6.62288">
        <ele>1073.5052</ele>
        <time>2021-09-19T06:01:43.000Z</time>
      </trkpt>
      <trkpt lat="43.92938" lon="6.62349">
        <ele>1070.366545</ele>
        <time>2021-09-19T06:01:49.000Z</time>
      </trkpt>
      <trkpt lat="43.92982" lon="6.62403">
        <ele>1067.348783</ele>
        <time>2021-09-19T06:01:55.000Z</time>
      </trkpt>
      <trkpt lat="43.93021" lon="6.62446">
        <ele>1064.834235</ele>
        <time>2021-09-19T06:02:00.000Z</time>
      </trkpt>
      <trkpt lat="43.93029" lon="6.62454">
        <ele>1064.33066</ele>
        <time>2021-09-19T06:02:01.000Z</time>
      </trkpt>
      <trkpt lat="43.93074" lon="6.62481">
        <ele>1061.808992</ele>
        <time>2021-09-19T06:02:06.000Z</time>
      </trkpt>
      <trkpt lat="43.93122" lon="6.62509">
        <ele>1059.211938</ele>
        <time>2021-09-19T06:02:11.000Z</time>
      </trkpt>
      <trkpt lat="43.93131" lon="6.62517">
        <ele>1058.683458</ele>
        <time>2021-09-19T06:02:12.000Z</time>
      </trkpt>
      <trkpt lat="43.93148" lon="6.62534">
        <ele>1057.625309</ele>
        <time>2021-09-19T06:02:14.000Z</time>
      </trkpt>
      <trkpt lat="43.93168" lon="6.6257">
        <ele>1055.979135</ele>
        <time>2021-09-19T06:02:17.000Z</time>
      </trkpt>
      <trkpt lat="43.93182" lon="6.62628">
        <ele>1053.759966</ele>
        <time>2021-09-19T06:02:21.000Z</time>
      </trkpt>
      <trkpt lat="43.93189" lon="6.62658">
        <ele>1052.618196</ele>
        <time>2021-09-19T06:02:23.000Z</time>
      </trkpt>
      <trkpt lat="43.93198" lon="6.62685">
        <ele>1051.478432</ele>
        <time>2021-09-19T06:02:25.000Z</time>
      </trkpt>
      <trkpt lat="43.93222" lon="6.62753">
        <ele>1048.572714</ele>
        <time>2021-09-19T06:02:30.000Z</time>
      </trkpt>
      <trkpt lat="43.93247" lon="6.62835">
        <ele>1045.18897</ele>
        <time>2021-09-19T06:02:36.000Z</time>
      </trkpt>
      <trkpt lat="43.93273" lon="6.629">
        <ele>1042.296898</ele>
        <time>2021-09-19T06:02:41.000Z</time>
      </trkpt>
      <trkpt lat="43.93278" lon="6.62913">
        <ele>1041.726873</ele>
        <time>2021-09-19T06:02:42.000Z</time>
      </trkpt>
      <trkpt lat="43.93288" lon="6.62952">
        <ele>1040.071025</ele>
        <time>2021-09-19T06:02:45.000Z</time>
      </trkpt>
      <trkpt lat="43.93298" lon="6.63035">
        <ele>1036.72647</ele>
        <time>2021-09-19T06:02:51.000Z</time>
      </trkpt>
      <trkpt lat="43.93312" lon="6.63116">
        <ele>1033.425652</ele>
        <time>2021-09-19T06:02:57.000Z</time>
      </trkpt>
      <trkpt lat="43.93326" lon="6.63198">
        <ele>1030.035857</ele>
        <time>2021-09-19T06:03:03.000Z</time>
      </trkpt>
      <trkpt lat="43.93336" lon="6.63253">
        <ele>1027.786426</ele>
        <time>2021-09-19T06:03:07.000Z</time>
      </trkpt>
      <trkpt lat="43.93345" lon="6.63292">
        <ele>1026.115462</ele>
        <time>2021-09-19T06:03:10.000Z</time>
      </trkpt>
      <trkpt lat="43.93348" lon="6.63305">
        <ele>1025.561229</ele>
        <time>2021-09-19T06:03:11.000Z</time>
      </trkpt>
      <trkpt lat="43.93365" lon="6.63355">
        <ele>1023.344241</ele>
        <time>2021-09-19T06:03:15.000Z</time>
      </trkpt>
      <trkpt lat="43.93369" lon="6.63368">
        <ele>1022.781346</ele>
        <time>2021-09-19T06:03:16.000Z</time>
      </trkpt>
      <trkpt lat="43.93372" lon="6.63381">
        <ele>1022.231508</ele>
        <time>2021-09-19T06:03:17.000Z</time>
      </trkpt>
      <trkpt lat="43.93372" lon="6.63408">
        <ele>1021.112562</ele>
        <time>2021-09-19T06:03:19.000Z</time>
      </trkpt>
      <trkpt lat="43.93372" lon="6.63434">
        <ele>1020.082449</ele>
        <time>2021-09-19T06:03:21.000Z</time>
      </trkpt>
      <trkpt lat="43.93383" lon="6.63455">
        <ele>1019.036962</ele>
        <time>2021-09-19T06:03:23.000Z</time>
      </trkpt>
      <trkpt lat="43.93412" lon="6.6347">
        <ele>1017.324792</ele>
        <time>2021-09-19T06:03:26.000Z</time>
      </trkpt>
      <trkpt lat="43.93453" lon="6.63511">
        <ele>1014.468457</ele>
        <time>2021-09-19T06:03:31.000Z</time>
      </trkpt>
      <trkpt lat="43.93469" lon="6.63527">
        <ele>1013.422381</ele>
        <time>2021-09-19T06:03:33.000Z</time>
      </trkpt>
      <trkpt lat="43.93478" lon="6.63533">
        <ele>1012.905219</ele>
        <time>2021-09-19T06:03:34.000Z</time>
      </trkpt>
      <trkpt lat="43.93487" lon="6.63534">
        <ele>1012.40595</ele>
        <time>2021-09-19T06:03:35.000Z</time>
      </trkpt>
      <trkpt lat="43.93507" lon="6.63532">
        <ele>1011.374201</ele>
        <time>2021-09-19T06:03:37.000Z</time>
      </trkpt>
      <trkpt lat="43.93517" lon="6.63531">
        <ele>1010.843467</ele>
        <time>2021-09-19T06:03:38.000Z</time>
      </trkpt>
      <trkpt lat="43.93536" lon="6.63531">
        <ele>1009.819346</ele>
        <time>2021-09-19T06:03:40.000Z</time>
      </trkpt>
      <trkpt lat="43.93565" lon="6.63539">
        <ele>1008.259217</ele>
        <time>2021-09-19T06:03:43.000Z</time>
      </trkpt>
      <trkpt lat="43.93584" lon="6.63543">
        <ele>1007.246844</ele>
        <time>2021-09-19T06:03:45.000Z</time>
      </trkpt>
      <trkpt lat="43.93613" lon="6.63537">
        <ele>1005.690915</ele>
        <time>2021-09-19T06:03:48.000Z</time>
      </trkpt>
      <trkpt lat="43.93623" lon="6.63533">
        <ele>1005.159812</ele>
        <time>2021-09-19T06:03:49.000Z</time>
      </trkpt>
      <trkpt lat="43.93642" lon="6.6353">
        <ele>1004.123909</ele>
        <time>2021-09-19T06:03:51.000Z</time>
      </trkpt>
      <trkpt lat="43.93661" lon="6.63541">
        <ele>1003.08766</ele>
        <time>2021-09-19T06:03:53.000Z</time>
      </trkpt>
      <trkpt lat="43.93673" lon="6.63561">
        <ele>1002.07724</ele>
        <time>2021-09-19T06:03:55.000Z</time>
      </trkpt>
      <trkpt lat="43.93674" lon="6.63586">
        <ele>1001.148902</ele>
        <time>2021-09-19T06:03:57.000Z</time>
      </trkpt>
      <trkpt lat="43.9366" lon="6.63616">
        <ele>999.784904</ele>
        <time>2021-09-19T06:03:59.000Z</time>
      </trkpt>
      <trkpt lat="43.9366" lon="6.63616">
        <ele>999.784904</ele>
        <time>2021-09-19T06:04:00.000Z</time>
      </trkpt>
      <trkpt lat="43.93628" lon="6.63649">
        <ele>997.706838</ele>
        <time>2021-09-19T06:04:05.000Z</time>
      </trkpt>
      <trkpt lat="43.93584" lon="6.63684">
        <ele>995.06566</ele>
        <time>2021-09-19T06:04:11.000Z</time>
      </trkpt>
      <trkpt lat="43.93553" lon="6.6371">
        <ele>993.293661</ele>
        <time>2021-09-19T06:04:15.000Z</time>
      </trkpt>
      <trkpt lat="43.935" lon="6.63742">
        <ele>990.466456</ele>
        <time>2021-09-19T06:04:21.000Z</time>
      </trkpt>
      <trkpt lat="43.93445" lon="6.63776">
        <ele>987.495528</ele>
        <time>2021-09-19T06:04:27.000Z</time>
      </trkpt>
      <trkpt lat="43.93426" lon="6.63787">
        <ele>986.477973</ele>
        <time>2021-09-19T06:04:29.000Z</time>
      </trkpt>
      <trkpt lat="43.93377" lon="6.63819">
        <ele>984.085813</ele>
        <time>2021-09-19T06:04:34.000Z</time>
      </trkpt>
      <trkpt lat="43.93358" lon="6.63835">
        <ele>983.139298</ele>
        <time>2021-09-19T06:04:36.000Z</time>
      </trkpt>
      <trkpt lat="43.93322" lon="6.63872">
        <ele>981.185076</ele>
        <time>2021-09-19T06:04:40.000Z</time>
      </trkpt>
      <trkpt lat="43.93278" lon="6.63923">
        <ele>978.706692</ele>
        <time>2021-09-19T06:04:45.000Z</time>
      </trkpt>
      <trkpt lat="43.93236" lon="6.63975">
        <ele>976.055239</ele>
        <time>2021-09-19T06:04:50.000Z</time>
      </trkpt>
      <trkpt lat="43.93206" lon="6.64038">
        <ele>973.453797</ele>
        <time>2021-09-19T06:04:55.000Z</time>
      </trkpt>
      <trkpt lat="43.93176" lon="6.64101">
        <ele>970.876699</ele>
        <time>2021-09-19T06:05:00.000Z</time>
      </trkpt>
      <trkpt lat="43.93144" lon="6.64146">
        <ele>968.525304</ele>
        <time>2021-09-19T06:05:04.000Z</time>
      </trkpt>
      <trkpt lat="43.93126" lon="6.64168">
        <ele>967.242252</ele>
        <time>2021-09-19T06:05:06.000Z</time>
      </trkpt>
      <trkpt lat="43.93111" lon="6.64193">
        <ele>965.946111</ele>
        <time>2021-09-19T06:05:08.000Z</time>
      </trkpt>
      <trkpt lat="43.93098" lon="6.64239">
        <ele>964.008243</ele>
        <time>2021-09-19T06:05:11.000Z</time>
      </trkpt>
      <trkpt lat="43.93093" lon="6.64253">
        <ele>963.414035</ele>
        <time>2021-09-19T06:05:12.000Z</time>
      </trkpt>
      <trkpt lat="43.93087" lon="6.64265">
        <ele>962.839102</ele>
        <time>2021-09-19T06:05:13.000Z</time>
      </trkpt>
      <trkpt lat="43.93073" lon="6.64288">
        <ele>961.65734</ele>
        <time>2021-09-19T06:05:15.000Z</time>
      </trkpt>
      <trkpt lat="43.93043" lon="6.64309">
        <ele>959.76885</ele>
        <time>2021-09-19T06:05:18.000Z</time>
      </trkpt>
      <trkpt lat="43.93034" lon="6.64316">
        <ele>959.098534</ele>
        <time>2021-09-19T06:05:19.000Z</time>
      </trkpt>
      <trkpt lat="43.93025" lon="6.6433">
        <ele>958.258203</ele>
        <time>2021-09-19T06:05:20.000Z</time>
      </trkpt>
      <trkpt lat="43.93021" lon="6.64345">
        <ele>957.531718</ele>
        <time>2021-09-19T06:05:21.000Z</time>
      </trkpt>
      <trkpt lat="43.93021" lon="6.64361">
        <ele>956.775628</ele>
        <time>2021-09-19T06:05:22.000Z</time>
      </trkpt>
      <trkpt lat="43.93025" lon="6.64375">
        <ele>956.119167</ele>
        <time>2021-09-19T06:05:23.000Z</time>
      </trkpt>
      <trkpt lat="43.93031" lon="6.64383">
        <ele>955.549583</ele>
        <time>2021-09-19T06:05:24.000Z</time>
      </trkpt>
      <trkpt lat="43.9304" lon="6.64388">
        <ele>954.939862</ele>
        <time>2021-09-19T06:05:25.000Z</time>
      </trkpt>
      <trkpt lat="43.93082" lon="6.64394">
        <ele>952.29867</ele>
        <time>2021-09-19T06:05:29.000Z</time>
      </trkpt>
      <trkpt lat="43.93114" lon="6.64404">
        <ele>950.24796</ele>
        <time>2021-09-19T06:05:32.000Z</time>
      </trkpt>
      <trkpt lat="43.93124" lon="6.6441">
        <ele>949.557204</ele>
        <time>2021-09-19T06:05:33.000Z</time>
      </trkpt>
      <trkpt lat="43.93164" lon="6.64435">
        <ele>946.966164</ele>
        <time>2021-09-19T06:05:37.000Z</time>
      </trkpt>
      <trkpt lat="43.93174" lon="6.64444">
        <ele>946.299167</ele>
        <time>2021-09-19T06:05:38.000Z</time>
      </trkpt>
      <trkpt lat="43.93181" lon="6.64455">
        <ele>945.655325</ele>
        <time>2021-09-19T06:05:39.000Z</time>
      </trkpt>
      <trkpt lat="43.93193" lon="6.64483">
        <ele>944.352206</ele>
        <time>2021-09-19T06:05:41.000Z</time>
      </trkpt>
      <trkpt lat="43.93216" lon="6.64536">
        <ele>941.808543</ele>
        <time>2021-09-19T06:05:45.000Z</time>
      </trkpt>
      <trkpt lat="43.93247" lon="6.64602">
        <ele>938.570469</ele>
        <time>2021-09-19T06:05:50.000Z</time>
      </trkpt>
      <trkpt lat="43.93251" lon="6.64616">
        <ele>937.942066</ele>
        <time>2021-09-19T06:05:51.000Z</time>
      </trkpt>
      <trkpt lat="43.93257" lon="6.64647">
        <ele>936.667701</ele>
        <time>2021-09-19T06:05:53.000Z</time>
      </trkpt>
      <trkpt lat="43.93253" lon="6.64695">
        <ele>934.736613</ele>
        <time>2021-09-19T06:05:56.000Z</time>
      </trkpt>
      <trkpt lat="43.93239" lon="6.64776">
        <ele>931.431591</ele>
        <time>2021-09-19T06:06:01.000Z</time>
      </trkpt>
      <trkpt lat="43.93236" lon="6.64792">
        <ele>930.765384</ele>
        <time>2021-09-19T06:06:02.000Z</time>
      </trkpt>
      <trkpt lat="43.93236" lon="6.64808">
        <ele>930.114858</ele>
        <time>2021-09-19T06:06:03.000Z</time>
      </trkpt>
      <trkpt lat="43.9324" lon="6.64841">
        <ele>928.785519</ele>
        <time>2021-09-19T06:06:05.000Z</time>
      </trkpt>
      <trkpt lat="43.93252" lon="6.64906">
        <ele>926.188918</ele>
        <time>2021-09-19T06:06:09.000Z</time>
      </trkpt>
      <trkpt lat="43.93255" lon="6.64922">
        <ele>925.552615</ele>
        <time>2021-09-19T06:06:10.000Z</time>
      </trkpt>
      <trkpt lat="43.93259" lon="6.64937">
        <ele>924.948991</ele>
        <time>2021-09-19T06:06:11.000Z</time>
      </trkpt>
      <trkpt lat="43.93273" lon="6.64961">
        <ele>923.748989</ele>
        <time>2021-09-19T06:06:13.000Z</time>
      </trkpt>
      <trkpt lat="43.93289" lon="6.64984">
        <ele>922.521118</ele>
        <time>2021-09-19T06:06:15.000Z</time>
      </trkpt>
      <trkpt lat="43.93303" lon="6.65007">
        <ele>921.380503</ele>
        <time>2021-09-19T06:06:17.000Z</time>
      </trkpt>
      <trkpt lat="43.93309" lon="6.65034">
        <ele>920.313158</ele>
        <time>2021-09-19T06:06:19.000Z</time>
      </trkpt>
      <trkpt lat="43.93306" lon="6.65061">
        <ele>919.239817</ele>
        <time>2021-09-19T06:06:21.000Z</time>
      </trkpt>
      <trkpt lat="43.93304" lon="6.65074">
        <ele>918.732175</ele>
        <time>2021-09-19T06:06:22.000Z</time>
      </trkpt>
      <trkpt lat="43.93279" lon="6.65143">
        <ele>915.792435</ele>
        <time>2021-09-19T06:06:27.000Z</time>
      </trkpt>
      <trkpt lat="43.93256" lon="6.65182">
        <ele>913.902306</ele>
        <time>2021-09-19T06:06:32.000Z</time>
      </trkpt>
      <trkpt lat="43.93225" lon="6.65227">
        <ele>911.4863</ele>
        <time>2021-09-19T06:06:38.000Z</time>
      </trkpt>
      <trkpt lat="43.93202" lon="6.65263">
        <ele>909.68001</ele>
        <time>2021-09-19T06:06:44.000Z</time>
      </trkpt>
      <trkpt lat="43.93178" lon="6.6531">
        <ele>908.150359</ele>
        <time>2021-09-19T06:06:52.000Z</time>
      </trkpt>
      <trkpt lat="43.9315" lon="6.65372">
        <ele>906.307006</ele>
        <time>2021-09-19T06:07:02.000Z</time>
      </trkpt>
      <trkpt lat="43.93147" lon="6.65379">
        <ele>906.128581</ele>
        <time>2021-09-19T06:07:03.000Z</time>
      </trkpt>
      <trkpt lat="43.93138" lon="6.65411">
        <ele>905.27262</ele>
        <time>2021-09-19T06:07:08.000Z</time>
      </trkpt>
      <trkpt lat="43.93134" lon="6.65423">
        <ele>904.943897</ele>
        <time>2021-09-19T06:07:10.000Z</time>
      </trkpt>
      <trkpt lat="43.93125" lon="6.65439">
        <ele>904.440447</ele>
        <time>2021-09-19T06:07:12.000Z</time>
      </trkpt>
      <trkpt lat="43.93121" lon="6.65443">
        <ele>904.27194</ele>
        <time>2021-09-19T06:07:14.000Z</time>
      </trkpt>
      <trkpt lat="43.93114" lon="6.65452">
        <ele>903.938264</ele>
        <time>2021-09-19T06:07:16.000Z</time>
      </trkpt>
      <trkpt lat="43.93099" lon="6.65471">
        <ele>903.243935</ele>
        <time>2021-09-19T06:07:21.000Z</time>
      </trkpt>
      <trkpt lat="43.93087" lon="6.65494">
        <ele>902.905744</ele>
        <time>2021-09-19T06:07:27.000Z</time>
      </trkpt>
      <trkpt lat="43.93081" lon="6.65523">
        <ele>902.576207</ele>
        <time>2021-09-19T06:07:33.000Z</time>
      </trkpt>
      <trkpt lat="43.9308" lon="6.65547">
        <ele>902.313489</ele>
        <time>2021-09-19T06:07:39.000Z</time>
      </trkpt>
      <trkpt lat="43.93079" lon="6.65562">
        <ele>902.146796</ele>
        <time>2021-09-19T06:07:45.000Z</time>
      </trkpt>
      <trkpt lat="43.93076" lon="6.65585">
        <ele>901.889368</ele>
        <time>2021-09-19T06:07:52.000Z</time>
      </trkpt>
      <trkpt lat="43.93074" lon="6.65611">
        <ele>901.601063</ele>
        <time>2021-09-19T06:07:58.000Z</time>
      </trkpt>
      <trkpt lat="43.9307" lon="6.65632">
        <ele>901.363244</ele>
        <time>2021-09-19T06:08:01.000Z</time>
      </trkpt>
      <trkpt lat="43.93069" lon="6.65636">
        <ele>901.317648</ele>
        <time>2021-09-19T06:08:03.000Z</time>
      </trkpt>
      <trkpt lat="43.93065" lon="6.65657">
        <ele>901.083024</ele>
        <time>2021-09-19T06:08:06.000Z</time>
      </trkpt>
      <trkpt lat="43.93059" lon="6.6569">
        <ele>900.706374</ele>
        <time>2021-09-19T06:08:11.000Z</time>
      </trkpt>
      <trkpt lat="43.93057" lon="6.65706">
        <ele>900.528019</ele>
        <time>2021-09-19T06:08:15.000Z</time>
      </trkpt>
      <trkpt lat="43.93056" lon="6.65712">
        <ele>900.461081</ele>
        <time>2021-09-19T06:08:16.000Z</time>
      </trkpt>
      <trkpt lat="43.93055" lon="6.65724">
        <ele>900.281237</ele>
        <time>2021-09-19T06:08:17.000Z</time>
      </trkpt>
      <trkpt lat="43.93059" lon="6.65746">
        <ele>899.928851</ele>
        <time>2021-09-19T06:08:21.000Z</time>
      </trkpt>
      <trkpt lat="43.93062" lon="6.65754">
        <ele>899.798238</ele>
        <time>2021-09-19T06:08:24.000Z</time>
      </trkpt>
      <trkpt lat="43.93062" lon="6.65754">
        <ele>899.798238</ele>
        <time>2021-09-19T06:08:26.000Z</time>
      </trkpt>
      <trkpt lat="43.93063" lon="6.65757">
        <ele>899.741663</ele>
        <time>2021-09-19T06:08:38.000Z</time>
      </trkpt>
      <trkpt lat="43.93064" lon="6.6576">
        <ele>899.689063</ele>
        <time>2021-09-19T06:08:39.000Z</time>
      </trkpt>
      <trkpt lat="43.93075" lon="6.65778">
        <ele>899.327282</ele>
        <time>2021-09-19T06:08:43.000Z</time>
      </trkpt>
      <trkpt lat="43.93095" lon="6.65809">
        <ele>898.678892</ele>
        <time>2021-09-19T06:08:48.000Z</time>
      </trkpt>
      <trkpt lat="43.93119" lon="6.65833">
        <ele>898.057534</ele>
        <time>2021-09-19T06:08:52.000Z</time>
      </trkpt>
      <trkpt lat="43.93126" lon="6.65838">
        <ele>897.893205</ele>
        <time>2021-09-19T06:08:53.000Z</time>
      </trkpt>
      <trkpt lat="43.93133" lon="6.65843">
        <ele>897.722429</ele>
        <time>2021-09-19T06:08:54.000Z</time>
      </trkpt>
      <trkpt lat="43.93156" lon="6.65849">
        <ele>897.215122</ele>
        <time>2021-09-19T06:08:57.000Z</time>
      </trkpt>
      <trkpt lat="43.93169" lon="6.65865">
        <ele>896.847906</ele>
        <time>2021-09-19T06:08:59.000Z</time>
      </trkpt>
      <trkpt lat="43.93171" lon="6.65888">
        <ele>896.515437</ele>
        <time>2021-09-19T06:09:01.000Z</time>
      </trkpt>
      <trkpt lat="43.93163" lon="6.65925">
        <ele>896.029529</ele>
        <time>2021-09-19T06:09:04.000Z</time>
      </trkpt>
      <trkpt lat="43.93146" lon="6.65984">
        <ele>895.217881</ele>
        <time>2021-09-19T06:09:09.000Z</time>
      </trkpt>
      <trkpt lat="43.93127" lon="6.66051">
        <ele>894.305111</ele>
        <time>2021-09-19T06:09:15.000Z</time>
      </trkpt>
      <trkpt lat="43.93126" lon="6.66075">
        <ele>894.001447</ele>
        <time>2021-09-19T06:09:17.000Z</time>
      </trkpt>
      <trkpt lat="43.93127" lon="6.66087">
        <ele>893.851338</ele>
        <time>2021-09-19T06:09:18.000Z</time>
      </trkpt>
      <trkpt lat="43.9313" lon="6.66098">
        <ele>893.699735</ele>
        <time>2021-09-19T06:09:19.000Z</time>
      </trkpt>
      <trkpt lat="43.93141" lon="6.66131">
        <ele>893.180746</ele>
        <time>2021-09-19T06:09:22.000Z</time>
      </trkpt>
      <trkpt lat="43.93165" lon="6.66207">
        <ele>891.792628</ele>
        <time>2021-09-19T06:09:29.000Z</time>
      </trkpt>
      <trkpt lat="43.93168" lon="6.66219">
        <ele>891.584692</ele>
        <time>2021-09-19T06:09:30.000Z</time>
      </trkpt>
      <trkpt lat="43.93169" lon="6.66244">
        <ele>891.168136</ele>
        <time>2021-09-19T06:09:32.000Z</time>
      </trkpt>
      <trkpt lat="43.93168" lon="6.66256">
        <ele>890.968122</ele>
        <time>2021-09-19T06:09:33.000Z</time>
      </trkpt>
      <trkpt lat="43.93158" lon="6.66314">
        <ele>889.970467</ele>
        <time>2021-09-19T06:09:38.000Z</time>
      </trkpt>
      <trkpt lat="43.93156" lon="6.66376">
        <ele>888.939066</ele>
        <time>2021-09-19T06:09:43.000Z</time>
      </trkpt>
      <trkpt lat="43.93155" lon="6.66426">
        <ele>888.091634</ele>
        <time>2021-09-19T06:09:47.000Z</time>
      </trkpt>
      <trkpt lat="43.93152" lon="6.66438">
        <ele>887.87983</ele>
        <time>2021-09-19T06:09:48.000Z</time>
      </trkpt>
      <trkpt lat="43.93149" lon="6.6645">
        <ele>887.672746</ele>
        <time>2021-09-19T06:09:49.000Z</time>
      </trkpt>
      <trkpt lat="43.9314" lon="6.66471">
        <ele>887.261462</ele>
        <time>2021-09-19T06:09:51.000Z</time>
      </trkpt>
      <trkpt lat="43.93121" lon="6.6652">
        <ele>886.325057</ele>
        <time>2021-09-19T06:09:56.000Z</time>
      </trkpt>
      <trkpt lat="43.93119" lon="6.6653">
        <ele>886.152108</ele>
        <time>2021-09-19T06:09:57.000Z</time>
      </trkpt>
      <trkpt lat="43.93118" lon="6.6654">
        <ele>885.986627</ele>
        <time>2021-09-19T06:09:58.000Z</time>
      </trkpt>
      <trkpt lat="43.93121" lon="6.6656">
        <ele>885.655278</ele>
        <time>2021-09-19T06:10:00.000Z</time>
      </trkpt>
      <trkpt lat="43.93131" lon="6.66576">
        <ele>885.315187</ele>
        <time>2021-09-19T06:10:02.000Z</time>
      </trkpt>
      <trkpt lat="43.93137" lon="6.66582">
        <ele>885.133543</ele>
        <time>2021-09-19T06:10:03.000Z</time>
      </trkpt>
      <trkpt lat="43.93137" lon="6.66582">
        <ele>885.133543</ele>
        <time>2021-09-19T06:10:04.000Z</time>
      </trkpt>
      <trkpt lat="43.93161" lon="6.66587">
        <ele>884.422976</ele>
        <time>2021-09-19T06:10:06.000Z</time>
      </trkpt>
      <trkpt lat="43.93206" lon="6.66579">
        <ele>883.078862</ele>
        <time>2021-09-19T06:10:11.000Z</time>
      </trkpt>
      <trkpt lat="43.93221" lon="6.66592">
        <ele>882.544117</ele>
        <time>2021-09-19T06:10:13.000Z</time>
      </trkpt>
      <trkpt lat="43.93227" lon="6.66615">
        <ele>882.023162</ele>
        <time>2021-09-19T06:10:15.000Z</time>
      </trkpt>
      <trkpt lat="43.93221" lon="6.6664">
        <ele>881.475136</ele>
        <time>2021-09-19T06:10:17.000Z</time>
      </trkpt>
      <trkpt lat="43.93216" lon="6.66652">
        <ele>881.18622</ele>
        <time>2021-09-19T06:10:18.000Z</time>
      </trkpt>
      <trkpt lat="43.9321" lon="6.66677">
        <ele>880.61204</ele>
        <time>2021-09-19T06:10:20.000Z</time>
      </trkpt>
      <trkpt lat="43.93202" lon="6.66745">
        <ele>878.96508</ele>
        <time>2021-09-19T06:10:25.000Z</time>
      </trkpt>
      <trkpt lat="43.93201" lon="6.66759">
        <ele>878.57368</ele>
        <time>2021-09-19T06:10:26.000Z</time>
      </trkpt>
      <trkpt lat="43.93202" lon="6.66773">
        <ele>878.200771</ele>
        <time>2021-09-19T06:10:27.000Z</time>
      </trkpt>
      <trkpt lat="43.93206" lon="6.66786">
        <ele>877.807024</ele>
        <time>2021-09-19T06:10:28.000Z</time>
      </trkpt>
      <trkpt lat="43.93228" lon="6.66853">
        <ele>875.792432</ele>
        <time>2021-09-19T06:10:33.000Z</time>
      </trkpt>
      <trkpt lat="43.93232" lon="6.66868">
        <ele>875.351989</ele>
        <time>2021-09-19T06:10:34.000Z</time>
      </trkpt>
      <trkpt lat="43.93242" lon="6.66877">
        <ele>874.908769</ele>
        <time>2021-09-19T06:10:35.000Z</time>
      </trkpt>
      <trkpt lat="43.93252" lon="6.66881">
        <ele>874.511366</ele>
        <time>2021-09-19T06:10:36.000Z</time>
      </trkpt>
      <trkpt lat="43.93273" lon="6.66889">
        <ele>873.687936</ele>
        <time>2021-09-19T06:10:38.000Z</time>
      </trkpt>
      <trkpt lat="43.93289" lon="6.6691">
        <ele>872.821751</ele>
        <time>2021-09-19T06:10:40.000Z</time>
      </trkpt>
      <trkpt lat="43.93298" lon="6.66937">
        <ele>871.821055</ele>
        <time>2021-09-19T06:10:42.000Z</time>
      </trkpt>
      <trkpt lat="43.93305" lon="6.66967">
        <ele>870.789665</ele>
        <time>2021-09-19T06:10:44.000Z</time>
      </trkpt>
      <trkpt lat="43.9331" lon="6.66978">
        <ele>870.318663</ele>
        <time>2021-09-19T06:10:45.000Z</time>
      </trkpt>
      <trkpt lat="43.9332" lon="6.66986">
        <ele>869.800501</ele>
        <time>2021-09-19T06:10:46.000Z</time>
      </trkpt>
      <trkpt lat="43.9333" lon="6.6699">
        <ele>869.334578</ele>
        <time>2021-09-19T06:10:47.000Z</time>
      </trkpt>
      <trkpt lat="43.93349" lon="6.66998">
        <ele>868.386231</ele>
        <time>2021-09-19T06:10:49.000Z</time>
      </trkpt>
      <trkpt lat="43.93357" lon="6.67007">
        <ele>867.929984</ele>
        <time>2021-09-19T06:10:50.000Z</time>
      </trkpt>
      <trkpt lat="43.93361" lon="6.67019">
        <ele>867.493774</ele>
        <time>2021-09-19T06:10:51.000Z</time>
      </trkpt>
      <trkpt lat="43.93363" lon="6.67032">
        <ele>867.043133</ele>
        <time>2021-09-19T06:10:52.000Z</time>
      </trkpt>
      <trkpt lat="43.93361" lon="6.67047">
        <ele>866.548305</ele>
        <time>2021-09-19T06:10:53.000Z</time>
      </trkpt>
      <trkpt lat="43.93354" lon="6.67073">
        <ele>865.605947</ele>
        <time>2021-09-19T06:10:55.000Z</time>
      </trkpt>
      <trkpt lat="43.93356" lon="6.67102">
        <ele>864.645374</ele>
        <time>2021-09-19T06:10:57.000Z</time>
      </trkpt>
      <trkpt lat="43.93368" lon="6.67125">
        <ele>863.629472</ele>
        <time>2021-09-19T06:10:59.000Z</time>
      </trkpt>
      <trkpt lat="43.93388" lon="6.67139">
        <ele>862.543277</ele>
        <time>2021-09-19T06:11:01.000Z</time>
      </trkpt>
      <trkpt lat="43.93398" lon="6.67145">
        <ele>862.003799</ele>
        <time>2021-09-19T06:11:02.000Z</time>
      </trkpt>
      <trkpt lat="43.93406" lon="6.67154">
        <ele>861.473103</ele>
        <time>2021-09-19T06:11:03.000Z</time>
      </trkpt>
      <trkpt lat="43.93412" lon="6.67167">
        <ele>860.935026</ele>
        <time>2021-09-19T06:11:04.000Z</time>
      </trkpt>
      <trkpt lat="43.93417" lon="6.67181">
        <ele>860.372533</ele>
        <time>2021-09-19T06:11:05.000Z</time>
      </trkpt>
      <trkpt lat="43.93427" lon="6.67208">
        <ele>859.279309</ele>
        <time>2021-09-19T06:11:07.000Z</time>
      </trkpt>
      <trkpt lat="43.93455" lon="6.67256">
        <ele>857.086113</ele>
        <time>2021-09-19T06:11:11.000Z</time>
      </trkpt>
      <trkpt lat="43.93473" lon="6.67293">
        <ele>855.462354</ele>
        <time>2021-09-19T06:11:14.000Z</time>
      </trkpt>
      <trkpt lat="43.93484" lon="6.6732">
        <ele>854.39547</ele>
        <time>2021-09-19T06:11:16.000Z</time>
      </trkpt>
      <trkpt lat="43.93505" lon="6.67392">
        <ele>851.640181</ele>
        <time>2021-09-19T06:11:21.000Z</time>
      </trkpt>
      <trkpt lat="43.93514" lon="6.67421">
        <ele>850.527796</ele>
        <time>2021-09-19T06:11:23.000Z</time>
      </trkpt>
      <trkpt lat="43.93522" lon="6.67483">
        <ele>848.287369</ele>
        <time>2021-09-19T06:11:27.000Z</time>
      </trkpt>
      <trkpt lat="43.9352" lon="6.67558">
        <ele>845.815358</ele>
        <time>2021-09-19T06:11:32.000Z</time>
      </trkpt>
      <trkpt lat="43.93519" lon="6.67585">
        <ele>844.977314</ele>
        <time>2021-09-19T06:11:34.000Z</time>
      </trkpt>
      <trkpt lat="43.93521" lon="6.67598">
        <ele>844.572521</ele>
        <time>2021-09-19T06:11:35.000Z</time>
      </trkpt>
      <trkpt lat="43.93524" lon="6.6761">
        <ele>844.164612</ele>
        <time>2021-09-19T06:11:36.000Z</time>
      </trkpt>
      <trkpt lat="43.93533" lon="6.67634">
        <ele>843.328761</ele>
        <time>2021-09-19T06:11:38.000Z</time>
      </trkpt>
      <trkpt lat="43.93537" lon="6.67647">
        <ele>842.904735</ele>
        <time>2021-09-19T06:11:39.000Z</time>
      </trkpt>
      <trkpt lat="43.93542" lon="6.67674">
        <ele>842.050327</ele>
        <time>2021-09-19T06:11:41.000Z</time>
      </trkpt>
      <trkpt lat="43.93543" lon="6.67714">
        <ele>840.819367</ele>
        <time>2021-09-19T06:11:44.000Z</time>
      </trkpt>
      <trkpt lat="43.93547" lon="6.67726">
        <ele>840.414039</ele>
        <time>2021-09-19T06:11:45.000Z</time>
      </trkpt>
      <trkpt lat="43.93552" lon="6.67738">
        <ele>839.996214</ele>
        <time>2021-09-19T06:11:46.000Z</time>
      </trkpt>
      <trkpt lat="43.93567" lon="6.67757">
        <ele>839.112324</ele>
        <time>2021-09-19T06:11:48.000Z</time>
      </trkpt>
      <trkpt lat="43.93611" lon="6.67799">
        <ele>836.936893</ele>
        <time>2021-09-19T06:11:53.000Z</time>
      </trkpt>
      <trkpt lat="43.93621" lon="6.67805">
        <ele>836.489495</ele>
        <time>2021-09-19T06:11:54.000Z</time>
      </trkpt>
      <trkpt lat="43.93651" lon="6.67823">
        <ele>835.142367</ele>
        <time>2021-09-19T06:11:57.000Z</time>
      </trkpt>
      <trkpt lat="43.93661" lon="6.67829">
        <ele>834.708593</ele>
        <time>2021-09-19T06:11:58.000Z</time>
      </trkpt>
      <trkpt lat="43.93674" lon="6.67851">
        <ele>833.859032</ele>
        <time>2021-09-19T06:12:00.000Z</time>
      </trkpt>
      <trkpt lat="43.93674" lon="6.67877">
        <ele>833.103732</ele>
        <time>2021-09-19T06:12:02.000Z</time>
      </trkpt>
      <trkpt lat="43.93673" lon="6.67903">
        <ele>832.3153</ele>
        <time>2021-09-19T06:12:04.000Z</time>
      </trkpt>
      <trkpt lat="43.93677" lon="6.6793">
        <ele>831.46836</ele>
        <time>2021-09-19T06:12:06.000Z</time>
      </trkpt>
      <trkpt lat="43.93685" lon="6.68">
        <ele>829.034486</ele>
        <time>2021-09-19T06:12:11.000Z</time>
      </trkpt>
      <trkpt lat="43.93691" lon="6.68087">
        <ele>826.054432</ele>
        <time>2021-09-19T06:12:17.000Z</time>
      </trkpt>
      <trkpt lat="43.93697" lon="6.68115">
        <ele>825.038814</ele>
        <time>2021-09-19T06:12:19.000Z</time>
      </trkpt>
      <trkpt lat="43.93701" lon="6.68129">
        <ele>824.531564</ele>
        <time>2021-09-19T06:12:20.000Z</time>
      </trkpt>
      <trkpt lat="43.93705" lon="6.68143">
        <ele>824.024313</ele>
        <time>2021-09-19T06:12:21.000Z</time>
      </trkpt>
      <trkpt lat="43.9371" lon="6.68172">
        <ele>823.022906</ele>
        <time>2021-09-19T06:12:23.000Z</time>
      </trkpt>
      <trkpt lat="43.93712" lon="6.68186">
        <ele>822.584994</ele>
        <time>2021-09-19T06:12:24.000Z</time>
      </trkpt>
      <trkpt lat="43.93716" lon="6.68197">
        <ele>822.189406</ele>
        <time>2021-09-19T06:12:25.000Z</time>
      </trkpt>
      <trkpt lat="43.93723" lon="6.68207">
        <ele>821.757748</ele>
        <time>2021-09-19T06:12:26.000Z</time>
      </trkpt>
      <trkpt lat="43.93738" lon="6.6823">
        <ele>820.833516</ele>
        <time>2021-09-19T06:12:28.000Z</time>
      </trkpt>
      <trkpt lat="43.93745" lon="6.68258">
        <ele>819.888497</ele>
        <time>2021-09-19T06:12:30.000Z</time>
      </trkpt>
      <trkpt lat="43.93745" lon="6.68273">
        <ele>819.445804</ele>
        <time>2021-09-19T06:12:31.000Z</time>
      </trkpt>
      <trkpt lat="43.93746" lon="6.68316">
        <ele>818.117728</ele>
        <time>2021-09-19T06:12:34.000Z</time>
      </trkpt>
      <trkpt lat="43.93746" lon="6.68345">
        <ele>817.195118</ele>
        <time>2021-09-19T06:12:36.000Z</time>
      </trkpt>
      <trkpt lat="43.93747" lon="6.6839">
        <ele>815.826812</ele>
        <time>2021-09-19T06:12:39.000Z</time>
      </trkpt>
      <trkpt lat="43.93748" lon="6.68404">
        <ele>815.382768</ele>
        <time>2021-09-19T06:12:40.000Z</time>
      </trkpt>
      <trkpt lat="43.93751" lon="6.68418">
        <ele>814.9182</ele>
        <time>2021-09-19T06:12:41.000Z</time>
      </trkpt>
      <trkpt lat="43.93762" lon="6.68444">
        <ele>813.953988</ele>
        <time>2021-09-19T06:12:43.000Z</time>
      </trkpt>
      <trkpt lat="43.93764" lon="6.68473">
        <ele>813.041233</ele>
        <time>2021-09-19T06:12:45.000Z</time>
      </trkpt>
      <trkpt lat="43.93766" lon="6.68515">
        <ele>811.710767</ele>
        <time>2021-09-19T06:12:48.000Z</time>
      </trkpt>
      <trkpt lat="43.93776" lon="6.68541">
        <ele>810.777618</ele>
        <time>2021-09-19T06:12:50.000Z</time>
      </trkpt>
      <trkpt lat="43.93778" lon="6.68557">
        <ele>810.285967</ele>
        <time>2021-09-19T06:12:51.000Z</time>
      </trkpt>
      <trkpt lat="43.93776" lon="6.68571">
        <ele>809.824243</ele>
        <time>2021-09-19T06:12:52.000Z</time>
      </trkpt>
      <trkpt lat="43.93772" lon="6.68584">
        <ele>809.364228</ele>
        <time>2021-09-19T06:12:53.000Z</time>
      </trkpt>
      <trkpt lat="43.93764" lon="6.6861">
        <ele>808.483242</ele>
        <time>2021-09-19T06:12:55.000Z</time>
      </trkpt>
      <trkpt lat="43.93759" lon="6.68637">
        <ele>807.618685</ele>
        <time>2021-09-19T06:12:57.000Z</time>
      </trkpt>
      <trkpt lat="43.93755" lon="6.68664">
        <ele>806.837558</ele>
        <time>2021-09-19T06:12:59.000Z</time>
      </trkpt>
      <trkpt lat="43.93755" lon="6.68689">
        <ele>806.116707</ele>
        <time>2021-09-19T06:13:01.000Z</time>
      </trkpt>
      <trkpt lat="43.93768" lon="6.68708">
        <ele>805.37345</ele>
        <time>2021-09-19T06:13:03.000Z</time>
      </trkpt>
      <trkpt lat="43.93799" lon="6.68715">
        <ele>804.121939</ele>
        <time>2021-09-19T06:13:06.000Z</time>
      </trkpt>
      <trkpt lat="43.9383" lon="6.68718">
        <ele>802.862666</ele>
        <time>2021-09-19T06:13:09.000Z</time>
      </trkpt>
      <trkpt lat="43.9384" lon="6.68721">
        <ele>802.447559</ele>
        <time>2021-09-19T06:13:10.000Z</time>
      </trkpt>
      <trkpt lat="43.93889" lon="6.68739">
        <ele>800.442549</ele>
        <time>2021-09-19T06:13:15.000Z</time>
      </trkpt>
      <trkpt lat="43.93898" lon="6.68746">
        <ele>800.12089</ele>
        <time>2021-09-19T06:13:16.000Z</time>
      </trkpt>
      <trkpt lat="43.93945" lon="6.68792">
        <ele>798.204173</ele>
        <time>2021-09-19T06:13:22.000Z</time>
      </trkpt>
      <trkpt lat="43.93973" lon="6.6883">
        <ele>796.87754</ele>
        <time>2021-09-19T06:13:26.000Z</time>
      </trkpt>
      <trkpt lat="43.9399" lon="6.68841">
        <ele>796.257804</ele>
        <time>2021-09-19T06:13:28.000Z</time>
      </trkpt>
      <trkpt lat="43.93996" lon="6.68846">
        <ele>796.030627</ele>
        <time>2021-09-19T06:13:29.000Z</time>
      </trkpt>
      <trkpt lat="43.93996" lon="6.68856">
        <ele>795.793162</ele>
        <time>2021-09-19T06:13:30.000Z</time>
      </trkpt>
      <trkpt lat="43.93996" lon="6.68866">
        <ele>795.5604</ele>
        <time>2021-09-19T06:13:31.000Z</time>
      </trkpt>
      <trkpt lat="43.93996" lon="6.68876">
        <ele>795.33231</ele>
        <time>2021-09-19T06:13:32.000Z</time>
      </trkpt>
      <trkpt lat="43.93997" lon="6.68895">
        <ele>794.859357</ele>
        <time>2021-09-19T06:13:34.000Z</time>
      </trkpt>
      <trkpt lat="43.9401" lon="6.68908">
        <ele>794.349434</ele>
        <time>2021-09-19T06:13:36.000Z</time>
      </trkpt>
      <trkpt lat="43.94023" lon="6.68919">
        <ele>793.918622</ele>
        <time>2021-09-19T06:13:38.000Z</time>
      </trkpt>
      <trkpt lat="43.94044" lon="6.68934">
        <ele>793.234128</ele>
        <time>2021-09-19T06:13:41.000Z</time>
      </trkpt>
      <trkpt lat="43.9406" lon="6.6894">
        <ele>792.768664</ele>
        <time>2021-09-19T06:13:43.000Z</time>
      </trkpt>
      <trkpt lat="43.94086" lon="6.68945">
        <ele>792.015996</ele>
        <time>2021-09-19T06:13:46.000Z</time>
      </trkpt>
      <trkpt lat="43.94095" lon="6.68946">
        <ele>791.759169</ele>
        <time>2021-09-19T06:13:47.000Z</time>
      </trkpt>
      <trkpt lat="43.94103" lon="6.6895">
        <ele>791.509702</ele>
        <time>2021-09-19T06:13:48.000Z</time>
      </trkpt>
      <trkpt lat="43.9412" lon="6.68965">
        <ele>790.936826</ele>
        <time>2021-09-19T06:13:50.000Z</time>
      </trkpt>
      <trkpt lat="43.94158" lon="6.68992">
        <ele>789.713893</ele>
        <time>2021-09-19T06:13:54.000Z</time>
      </trkpt>
      <trkpt lat="43.94169" lon="6.68994">
        <ele>789.417828</ele>
        <time>2021-09-19T06:13:55.000Z</time>
      </trkpt>
      <trkpt lat="43.94179" lon="6.68995">
        <ele>789.163886</ele>
        <time>2021-09-19T06:13:56.000Z</time>
      </trkpt>
      <trkpt lat="43.9419" lon="6.68994">
        <ele>788.89831</ele>
        <time>2021-09-19T06:13:57.000Z</time>
      </trkpt>
      <trkpt lat="43.94202" lon="6.68991">
        <ele>788.623616</ele>
        <time>2021-09-19T06:13:58.000Z</time>
      </trkpt>
      <trkpt lat="43.94225" lon="6.68981">
        <ele>788.064597</ele>
        <time>2021-09-19T06:14:00.000Z</time>
      </trkpt>
      <trkpt lat="43.94236" lon="6.68978">
        <ele>787.805097</ele>
        <time>2021-09-19T06:14:01.000Z</time>
      </trkpt>
      <trkpt lat="43.94246" lon="6.68978">
        <ele>787.556382</ele>
        <time>2021-09-19T06:14:02.000Z</time>
      </trkpt>
      <trkpt lat="43.94257" lon="6.68978">
        <ele>787.307666</ele>
        <time>2021-09-19T06:14:03.000Z</time>
      </trkpt>
      <trkpt lat="43.94269" lon="6.68981">
        <ele>787.010305</ele>
        <time>2021-09-19T06:14:04.000Z</time>
      </trkpt>
      <trkpt lat="43.94312" lon="6.69018">
        <ele>785.82319</ele>
        <time>2021-09-19T06:14:08.000Z</time>
      </trkpt>
      <trkpt lat="43.94356" lon="6.69041">
        <ele>784.741752</ele>
        <time>2021-09-19T06:14:12.000Z</time>
      </trkpt>
      <trkpt lat="43.94408" lon="6.69055">
        <ele>783.540792</ele>
        <time>2021-09-19T06:14:16.000Z</time>
      </trkpt>
      <trkpt lat="43.94421" lon="6.69057">
        <ele>783.231541</ele>
        <time>2021-09-19T06:14:17.000Z</time>
      </trkpt>
      <trkpt lat="43.94448" lon="6.69048">
        <ele>782.599282</ele>
        <time>2021-09-19T06:14:19.000Z</time>
      </trkpt>
      <trkpt lat="43.94471" lon="6.69016">
        <ele>781.850669</ele>
        <time>2021-09-19T06:14:22.000Z</time>
      </trkpt>
      <trkpt lat="43.94478" lon="6.68996">
        <ele>781.485217</ele>
        <time>2021-09-19T06:14:23.000Z</time>
      </trkpt>
      <trkpt lat="43.94484" lon="6.68981">
        <ele>781.205196</ele>
        <time>2021-09-19T06:14:24.000Z</time>
      </trkpt>
      <trkpt lat="43.94491" lon="6.68967">
        <ele>780.848196</ele>
        <time>2021-09-19T06:14:25.000Z</time>
      </trkpt>
      <trkpt lat="43.94508" lon="6.68946">
        <ele>779.976845</ele>
        <time>2021-09-19T06:14:27.000Z</time>
      </trkpt>
      <trkpt lat="43.94528" lon="6.68937">
        <ele>779.156475</ele>
        <time>2021-09-19T06:14:29.000Z</time>
      </trkpt>
      <trkpt lat="43.94563" lon="6.68943">
        <ele>777.799627</ele>
        <time>2021-09-19T06:14:32.000Z</time>
      </trkpt>
      <trkpt lat="43.94617" lon="6.68958">
        <ele>775.69323</ele>
        <time>2021-09-19T06:14:37.000Z</time>
      </trkpt>
      <trkpt lat="43.94628" lon="6.68959">
        <ele>775.266676</ele>
        <time>2021-09-19T06:14:38.000Z</time>
      </trkpt>
      <trkpt lat="43.94658" lon="6.68953">
        <ele>774.049542</ele>
        <time>2021-09-19T06:14:41.000Z</time>
      </trkpt>
      <trkpt lat="43.94668" lon="6.6895">
        <ele>773.563601</ele>
        <time>2021-09-19T06:14:42.000Z</time>
      </trkpt>
      <trkpt lat="43.94723" lon="6.68926">
        <ele>770.621802</ele>
        <time>2021-09-19T06:14:48.000Z</time>
      </trkpt>
      <trkpt lat="43.94776" lon="6.68898">
        <ele>767.720529</ele>
        <time>2021-09-19T06:14:54.000Z</time>
      </trkpt>
      <trkpt lat="43.94827" lon="6.68886">
        <ele>765.080185</ele>
        <time>2021-09-19T06:14:59.000Z</time>
      </trkpt>
      <trkpt lat="43.94883" lon="6.68881">
        <ele>760.981822</ele>
        <time>2021-09-19T06:15:05.000Z</time>
      </trkpt>
      <trkpt lat="43.94892" lon="6.68878">
        <ele>760.317845</ele>
        <time>2021-09-19T06:15:06.000Z</time>
      </trkpt>
      <trkpt lat="43.94909" lon="6.68868">
        <ele>758.96812</ele>
        <time>2021-09-19T06:15:08.000Z</time>
      </trkpt>
      <trkpt lat="43.94931" lon="6.68844">
        <ele>756.933108</ele>
        <time>2021-09-19T06:15:11.000Z</time>
      </trkpt>
      <trkpt lat="43.94937" lon="6.68834">
        <ele>756.238637</ele>
        <time>2021-09-19T06:15:12.000Z</time>
      </trkpt>
      <trkpt lat="43.94966" lon="6.68782">
        <ele>752.838706</ele>
        <time>2021-09-19T06:15:17.000Z</time>
      </trkpt>
      <trkpt lat="43.94991" lon="6.68743">
        <ele>750.186868</ele>
        <time>2021-09-19T06:15:21.000Z</time>
      </trkpt>
      <trkpt lat="43.94999" lon="6.68735">
        <ele>749.53701</ele>
        <time>2021-09-19T06:15:22.000Z</time>
      </trkpt>
      <trkpt lat="43.95008" lon="6.68729">
        <ele>748.87634</ele>
        <time>2021-09-19T06:15:23.000Z</time>
      </trkpt>
      <trkpt lat="43.95027" lon="6.68724">
        <ele>747.523406</ele>
        <time>2021-09-19T06:15:25.000Z</time>
      </trkpt>
      <trkpt lat="43.95087" lon="6.68719">
        <ele>743.446759</ele>
        <time>2021-09-19T06:15:31.000Z</time>
      </trkpt>
      <trkpt lat="43.95107" lon="6.68717">
        <ele>742.125091</ele>
        <time>2021-09-19T06:15:33.000Z</time>
      </trkpt>
      <trkpt lat="43.95117" lon="6.68715">
        <ele>741.460573</ele>
        <time>2021-09-19T06:15:34.000Z</time>
      </trkpt>
      <trkpt lat="43.95135" lon="6.68709">
        <ele>740.167291</ele>
        <time>2021-09-19T06:15:36.000Z</time>
      </trkpt>
      <trkpt lat="43.95167" lon="6.68681">
        <ele>737.598961</ele>
        <time>2021-09-19T06:15:40.000Z</time>
      </trkpt>
      <trkpt lat="43.95179" lon="6.68664">
        <ele>736.405651</ele>
        <time>2021-09-19T06:15:42.000Z</time>
      </trkpt>
      <trkpt lat="43.9519" lon="6.68645">
        <ele>735.183994</ele>
        <time>2021-09-19T06:15:44.000Z</time>
      </trkpt>
      <trkpt lat="43.95198" lon="6.68623">
        <ele>733.983731</ele>
        <time>2021-09-19T06:15:46.000Z</time>
      </trkpt>
      <trkpt lat="43.95202" lon="6.68612">
        <ele>733.358822</ele>
        <time>2021-09-19T06:15:47.000Z</time>
      </trkpt>
      <trkpt lat="43.95205" lon="6.68588">
        <ele>732.144221</ele>
        <time>2021-09-19T06:15:49.000Z</time>
      </trkpt>
      <trkpt lat="43.95207" lon="6.6856">
        <ele>730.77996</ele>
        <time>2021-09-19T06:15:51.000Z</time>
      </trkpt>
      <trkpt lat="43.95217" lon="6.68536">
        <ele>729.398457</ele>
        <time>2021-09-19T06:15:53.000Z</time>
      </trkpt>
      <trkpt lat="43.95235" lon="6.68523">
        <ele>728.052757</ele>
        <time>2021-09-19T06:15:55.000Z</time>
      </trkpt>
      <trkpt lat="43.95262" lon="6.68504">
        <ele>726.020646</ele>
        <time>2021-09-19T06:15:58.000Z</time>
      </trkpt>
      <trkpt lat="43.95272" lon="6.68497">
        <ele>725.352088</ele>
        <time>2021-09-19T06:15:59.000Z</time>
      </trkpt>
      <trkpt lat="43.95292" lon="6.68487">
        <ele>724.004711</ele>
        <time>2021-09-19T06:16:01.000Z</time>
      </trkpt>
      <trkpt lat="43.95315" lon="6.68459">
        <ele>722.017325</ele>
        <time>2021-09-19T06:16:04.000Z</time>
      </trkpt>
      <trkpt lat="43.95325" lon="6.68453">
        <ele>721.351354</ele>
        <time>2021-09-19T06:16:05.000Z</time>
      </trkpt>
      <trkpt lat="43.95335" lon="6.6845">
        <ele>720.660066</ele>
        <time>2021-09-19T06:16:06.000Z</time>
      </trkpt>
      <trkpt lat="43.95348" lon="6.68451">
        <ele>719.879878</ele>
        <time>2021-09-19T06:16:07.000Z</time>
      </trkpt>
      <trkpt lat="43.95358" lon="6.68456">
        <ele>719.171536</ele>
        <time>2021-09-19T06:16:08.000Z</time>
      </trkpt>
      <trkpt lat="43.95401" lon="6.68474">
        <ele>716.282437</ele>
        <time>2021-09-19T06:16:12.000Z</time>
      </trkpt>
      <trkpt lat="43.95425" lon="6.68473">
        <ele>714.739013</ele>
        <time>2021-09-19T06:16:14.000Z</time>
      </trkpt>
      <trkpt lat="43.95436" lon="6.6847">
        <ele>713.953438</ele>
        <time>2021-09-19T06:16:15.000Z</time>
      </trkpt>
      <trkpt lat="43.95446" lon="6.68466">
        <ele>713.23968</ele>
        <time>2021-09-19T06:16:16.000Z</time>
      </trkpt>
      <trkpt lat="43.95457" lon="6.68466">
        <ele>712.535388</ele>
        <time>2021-09-19T06:16:17.000Z</time>
      </trkpt>
      <trkpt lat="43.95467" lon="6.68473">
        <ele>711.798112</ele>
        <time>2021-09-19T06:16:18.000Z</time>
      </trkpt>
      <trkpt lat="43.95475" lon="6.68483">
        <ele>711.026109</ele>
        <time>2021-09-19T06:16:19.000Z</time>
      </trkpt>
      <trkpt lat="43.95482" lon="6.68495">
        <ele>710.286396</ele>
        <time>2021-09-19T06:16:20.000Z</time>
      </trkpt>
      <trkpt lat="43.95494" lon="6.68521">
        <ele>708.782922</ele>
        <time>2021-09-19T06:16:22.000Z</time>
      </trkpt>
      <trkpt lat="43.95525" lon="6.68588">
        <ele>704.898561</ele>
        <time>2021-09-19T06:16:27.000Z</time>
      </trkpt>
      <trkpt lat="43.95531" lon="6.68602">
        <ele>704.117558</ele>
        <time>2021-09-19T06:16:28.000Z</time>
      </trkpt>
      <trkpt lat="43.95542" lon="6.68627">
        <ele>702.649776</ele>
        <time>2021-09-19T06:16:30.000Z</time>
      </trkpt>
      <trkpt lat="43.95548" lon="6.68638">
        <ele>701.956986</ele>
        <time>2021-09-19T06:16:31.000Z</time>
      </trkpt>
      <trkpt lat="43.95558" lon="6.68644">
        <ele>701.222557</ele>
        <time>2021-09-19T06:16:32.000Z</time>
      </trkpt>
      <trkpt lat="43.95575" lon="6.68648">
        <ele>699.979761</ele>
        <time>2021-09-19T06:16:34.000Z</time>
      </trkpt>
      <trkpt lat="43.95584" lon="6.6867">
        <ele>698.722758</ele>
        <time>2021-09-19T06:16:36.000Z</time>
      </trkpt>
      <trkpt lat="43.95583" lon="6.68708">
        <ele>696.809749</ele>
        <time>2021-09-19T06:16:40.000Z</time>
      </trkpt>
      <trkpt lat="43.95583" lon="6.68733">
        <ele>695.544275</ele>
        <time>2021-09-19T06:16:43.000Z</time>
      </trkpt>
      <trkpt lat="43.95587" lon="6.68749">
        <ele>694.727055</ele>
        <time>2021-09-19T06:16:45.000Z</time>
      </trkpt>
      <trkpt lat="43.95589" lon="6.68756">
        <ele>694.307401</ele>
        <time>2021-09-19T06:16:46.000Z</time>
      </trkpt>
      <trkpt lat="43.95596" lon="6.68771">
        <ele>693.440731</ele>
        <time>2021-09-19T06:16:48.000Z</time>
      </trkpt>
      <trkpt lat="43.95613" lon="6.688">
        <ele>691.556045</ele>
        <time>2021-09-19T06:16:52.000Z</time>
      </trkpt>
      <trkpt lat="43.95639" lon="6.68848">
        <ele>689.06693</ele>
        <time>2021-09-19T06:16:58.000Z</time>
      </trkpt>
      <trkpt lat="43.95666" lon="6.68898">
        <ele>686.575741</ele>
        <time>2021-09-19T06:17:04.000Z</time>
      </trkpt>
      <trkpt lat="43.95697" lon="6.6897">
        <ele>683.233066</ele>
        <time>2021-09-19T06:17:11.000Z</time>
      </trkpt>
      <trkpt lat="43.95717" lon="6.69016">
        <ele>681.09426</ele>
        <time>2021-09-19T06:17:15.000Z</time>
      </trkpt>
      <trkpt lat="43.95722" lon="6.69028">
        <ele>680.632711</ele>
        <time>2021-09-19T06:17:16.000Z</time>
      </trkpt>
      <trkpt lat="43.95738" lon="6.69064">
        <ele>679.218345</ele>
        <time>2021-09-19T06:17:19.000Z</time>
      </trkpt>
      <trkpt lat="43.95744" lon="6.69076">
        <ele>678.732351</ele>
        <time>2021-09-19T06:17:20.000Z</time>
      </trkpt>
      <trkpt lat="43.95761" lon="6.69115">
        <ele>677.209168</ele>
        <time>2021-09-19T06:17:23.000Z</time>
      </trkpt>
      <trkpt lat="43.95767" lon="6.69145">
        <ele>676.16954</ele>
        <time>2021-09-19T06:17:25.000Z</time>
      </trkpt>
      <trkpt lat="43.95775" lon="6.69222">
        <ele>673.541407</ele>
        <time>2021-09-19T06:17:30.000Z</time>
      </trkpt>
      <trkpt lat="43.95781" lon="6.69267">
        <ele>672.050898</ele>
        <time>2021-09-19T06:17:33.000Z</time>
      </trkpt>
      <trkpt lat="43.95787" lon="6.69296">
        <ele>671.100013</ele>
        <time>2021-09-19T06:17:35.000Z</time>
      </trkpt>
      <trkpt lat="43.95799" lon="6.69339">
        <ele>669.657563</ele>
        <time>2021-09-19T06:17:38.000Z</time>
      </trkpt>
      <trkpt lat="43.95817" lon="6.69409">
        <ele>667.29571</ele>
        <time>2021-09-19T06:17:43.000Z</time>
      </trkpt>
      <trkpt lat="43.9583" lon="6.69467">
        <ele>665.375953</ele>
        <time>2021-09-19T06:17:47.000Z</time>
      </trkpt>
      <trkpt lat="43.9583" lon="6.69496">
        <ele>664.421511</ele>
        <time>2021-09-19T06:17:49.000Z</time>
      </trkpt>
      <trkpt lat="43.95828" lon="6.69511">
        <ele>663.947</ele>
        <time>2021-09-19T06:17:50.000Z</time>
      </trkpt>
      <trkpt lat="43.95812" lon="6.69566">
        <ele>662.015883</ele>
        <time>2021-09-19T06:17:54.000Z</time>
      </trkpt>
      <trkpt lat="43.95785" lon="6.69646">
        <ele>659.128837</ele>
        <time>2021-09-19T06:18:00.000Z</time>
      </trkpt>
      <trkpt lat="43.9578" lon="6.6966">
        <ele>658.650718</ele>
        <time>2021-09-19T06:18:01.000Z</time>
      </trkpt>
      <trkpt lat="43.95763" lon="6.69732">
        <ele>656.167567</ele>
        <time>2021-09-19T06:18:06.000Z</time>
      </trkpt>
      <trkpt lat="43.95761" lon="6.69747">
        <ele>655.651333</ele>
        <time>2021-09-19T06:18:07.000Z</time>
      </trkpt>
      <trkpt lat="43.9575" lon="6.69823">
        <ele>653.036317</ele>
        <time>2021-09-19T06:18:12.000Z</time>
      </trkpt>
      <trkpt lat="43.95741" lon="6.69884">
        <ele>650.947091</ele>
        <time>2021-09-19T06:18:16.000Z</time>
      </trkpt>
      <trkpt lat="43.9574" lon="6.69945">
        <ele>648.891594</ele>
        <time>2021-09-19T06:18:20.000Z</time>
      </trkpt>
      <trkpt lat="43.95744" lon="6.70025">
        <ele>646.08968</ele>
        <time>2021-09-19T06:18:25.000Z</time>
      </trkpt>
      <trkpt lat="43.95745" lon="6.70041">
        <ele>645.517267</ele>
        <time>2021-09-19T06:18:26.000Z</time>
      </trkpt>
      <trkpt lat="43.95752" lon="6.70121">
        <ele>642.675257</ele>
        <time>2021-09-19T06:18:31.000Z</time>
      </trkpt>
      <trkpt lat="43.95759" lon="6.70166">
        <ele>641.034329</ele>
        <time>2021-09-19T06:18:34.000Z</time>
      </trkpt>
      <trkpt lat="43.95778" lon="6.70239">
        <ele>638.239353</ele>
        <time>2021-09-19T06:18:39.000Z</time>
      </trkpt>
      <trkpt lat="43.95806" lon="6.70314">
        <ele>635.148392</ele>
        <time>2021-09-19T06:18:45.000Z</time>
      </trkpt>
      <trkpt lat="43.95833" lon="6.70379">
        <ele>632.414534</ele>
        <time>2021-09-19T06:18:51.000Z</time>
      </trkpt>
      <trkpt lat="43.95836" lon="6.7039">
        <ele>631.972468</ele>
        <time>2021-09-19T06:18:52.000Z</time>
      </trkpt>
      <trkpt lat="43.9584" lon="6.70402">
        <ele>631.526103</ele>
        <time>2021-09-19T06:18:53.000Z</time>
      </trkpt>
      <trkpt lat="43.95845" lon="6.70437">
        <ele>630.230437</ele>
        <time>2021-09-19T06:18:56.000Z</time>
      </trkpt>
      <trkpt lat="43.95851" lon="6.70505">
        <ele>628.028299</ele>
        <time>2021-09-19T06:19:02.000Z</time>
      </trkpt>
      <trkpt lat="43.9586" lon="6.70583">
        <ele>625.502056</ele>
        <time>2021-09-19T06:19:09.000Z</time>
      </trkpt>
      <trkpt lat="43.95876" lon="6.7066">
        <ele>622.944719</ele>
        <time>2021-09-19T06:19:16.000Z</time>
      </trkpt>
      <trkpt lat="43.95883" lon="6.70693">
        <ele>621.957808</ele>
        <time>2021-09-19T06:19:19.000Z</time>
      </trkpt>
      <trkpt lat="43.95899" lon="6.70768">
        <ele>619.940038</ele>
        <time>2021-09-19T06:19:26.000Z</time>
      </trkpt>
      <trkpt lat="43.95905" lon="6.70799">
        <ele>619.105047</ele>
        <time>2021-09-19T06:19:29.000Z</time>
      </trkpt>
      <trkpt lat="43.95921" lon="6.70877">
        <ele>616.996987</ele>
        <time>2021-09-19T06:19:37.000Z</time>
      </trkpt>
      <trkpt lat="43.95923" lon="6.70886">
        <ele>616.754873</ele>
        <time>2021-09-19T06:19:38.000Z</time>
      </trkpt>
      <trkpt lat="43.95935" lon="6.70937">
        <ele>615.497283</ele>
        <time>2021-09-19T06:19:44.000Z</time>
      </trkpt>
      <trkpt lat="43.95949" lon="6.70998">
        <ele>614.220949</ele>
        <time>2021-09-19T06:19:51.000Z</time>
      </trkpt>
      <trkpt lat="43.95963" lon="6.7107">
        <ele>612.712823</ele>
        <time>2021-09-19T06:19:59.000Z</time>
      </trkpt>
      <trkpt lat="43.95961" lon="6.71117">
        <ele>611.751352</ele>
        <time>2021-09-19T06:20:04.000Z</time>
      </trkpt>
      <trkpt lat="43.95948" lon="6.71186">
        <ele>610.434729</ele>
        <time>2021-09-19T06:20:11.000Z</time>
      </trkpt>
      <trkpt lat="43.95936" lon="6.71246">
        <ele>609.404416</ele>
        <time>2021-09-19T06:20:17.000Z</time>
      </trkpt>
      <trkpt lat="43.95932" lon="6.71313">
        <ele>608.31235</ele>
        <time>2021-09-19T06:20:23.000Z</time>
      </trkpt>
      <trkpt lat="43.95929" lon="6.71396">
        <ele>606.955379</ele>
        <time>2021-09-19T06:20:30.000Z</time>
      </trkpt>
      <trkpt lat="43.95928" lon="6.71408">
        <ele>606.768693</ele>
        <time>2021-09-19T06:20:31.000Z</time>
      </trkpt>
      <trkpt lat="43.95928" lon="6.7142">
        <ele>606.622455</ele>
        <time>2021-09-19T06:20:32.000Z</time>
      </trkpt>
      <trkpt lat="43.95937" lon="6.71456">
        <ele>606.179629</ele>
        <time>2021-09-19T06:20:35.000Z</time>
      </trkpt>
      <trkpt lat="43.95952" lon="6.71528">
        <ele>605.291614</ele>
        <time>2021-09-19T06:20:41.000Z</time>
      </trkpt>
      <trkpt lat="43.95962" lon="6.7161">
        <ele>604.305922</ele>
        <time>2021-09-19T06:20:48.000Z</time>
      </trkpt>
      <trkpt lat="43.95962" lon="6.71691">
        <ele>603.45545</ele>
        <time>2021-09-19T06:20:55.000Z</time>
      </trkpt>
      <trkpt lat="43.95962" lon="6.71702">
        <ele>603.346178</ele>
        <time>2021-09-19T06:20:56.000Z</time>
      </trkpt>
      <trkpt lat="43.95963" lon="6.71781">
        <ele>602.592162</ele>
        <time>2021-09-19T06:21:03.000Z</time>
      </trkpt>
      <trkpt lat="43.95951" lon="6.71857">
        <ele>601.842309</ele>
        <time>2021-09-19T06:21:10.000Z</time>
      </trkpt>
      <trkpt lat="43.95948" lon="6.7188">
        <ele>601.62394</ele>
        <time>2021-09-19T06:21:12.000Z</time>
      </trkpt>
      <trkpt lat="43.95938" lon="6.71945">
        <ele>600.934645</ele>
        <time>2021-09-19T06:21:18.000Z</time>
      </trkpt>
      <trkpt lat="43.95937" lon="6.72012">
        <ele>600.221538</ele>
        <time>2021-09-19T06:21:24.000Z</time>
      </trkpt>
      <trkpt lat="43.95941" lon="6.72092">
        <ele>599.374346</ele>
        <time>2021-09-19T06:21:31.000Z</time>
      </trkpt>
      <trkpt lat="43.95944" lon="6.72159">
        <ele>598.636947</ele>
        <time>2021-09-19T06:21:37.000Z</time>
      </trkpt>
      <trkpt lat="43.95955" lon="6.72235">
        <ele>597.711178</ele>
        <time>2021-09-19T06:21:44.000Z</time>
      </trkpt>
      <trkpt lat="43.95972" lon="6.7231">
        <ele>596.772968</ele>
        <time>2021-09-19T06:21:51.000Z</time>
      </trkpt>
      <trkpt lat="43.95974" lon="6.72321">
        <ele>596.645413</ele>
        <time>2021-09-19T06:21:52.000Z</time>
      </trkpt>
      <trkpt lat="43.95991" lon="6.72392">
        <ele>595.744164</ele>
        <time>2021-09-19T06:21:59.000Z</time>
      </trkpt>
      <trkpt lat="43.95994" lon="6.72402">
        <ele>595.602327</ele>
        <time>2021-09-19T06:22:00.000Z</time>
      </trkpt>
      <trkpt lat="43.95999" lon="6.7247">
        <ele>594.717313</ele>
        <time>2021-09-19T06:22:06.000Z</time>
      </trkpt>
      <trkpt lat="43.95997" lon="6.72543">
        <ele>593.768481</ele>
        <time>2021-09-19T06:22:12.000Z</time>
      </trkpt>
      <trkpt lat="43.95996" lon="6.72628">
        <ele>592.67722</ele>
        <time>2021-09-19T06:22:19.000Z</time>
      </trkpt>
      <trkpt lat="43.95994" lon="6.7271">
        <ele>591.850183</ele>
        <time>2021-09-19T06:22:26.000Z</time>
      </trkpt>
      <trkpt lat="43.95992" lon="6.72733">
        <ele>591.61933</ele>
        <time>2021-09-19T06:22:28.000Z</time>
      </trkpt>
      <trkpt lat="43.95981" lon="6.72798">
        <ele>590.96347</ele>
        <time>2021-09-19T06:22:34.000Z</time>
      </trkpt>
      <trkpt lat="43.95968" lon="6.72869">
        <ele>590.235822</ele>
        <time>2021-09-19T06:22:41.000Z</time>
      </trkpt>
      <trkpt lat="43.95954" lon="6.72947">
        <ele>589.357393</ele>
        <time>2021-09-19T06:22:49.000Z</time>
      </trkpt>
      <trkpt lat="43.95942" lon="6.73012">
        <ele>588.605154</ele>
        <time>2021-09-19T06:22:56.000Z</time>
      </trkpt>
      <trkpt lat="43.95931" lon="6.73074">
        <ele>587.895819</ele>
        <time>2021-09-19T06:23:02.000Z</time>
      </trkpt>
      <trkpt lat="43.95918" lon="6.73156">
        <ele>586.903698</ele>
        <time>2021-09-19T06:23:09.000Z</time>
      </trkpt>
      <trkpt lat="43.95912" lon="6.73191">
        <ele>586.445566</ele>
        <time>2021-09-19T06:23:12.000Z</time>
      </trkpt>
      <trkpt lat="43.95899" lon="6.73264">
        <ele>585.464851</ele>
        <time>2021-09-19T06:23:19.000Z</time>
      </trkpt>
      <trkpt lat="43.95891" lon="6.73321">
        <ele>584.720421</ele>
        <time>2021-09-19T06:23:25.000Z</time>
      </trkpt>
      <trkpt lat="43.95881" lon="6.73395">
        <ele>583.958154</ele>
        <time>2021-09-19T06:23:33.000Z</time>
      </trkpt>
      <trkpt lat="43.9588" lon="6.7342">
        <ele>583.805173</ele>
        <time>2021-09-19T06:23:36.000Z</time>
      </trkpt>
      <trkpt lat="43.9588" lon="6.7343">
        <ele>583.747296</ele>
        <time>2021-09-19T06:23:37.000Z</time>
      </trkpt>
      <trkpt lat="43.95884" lon="6.73455">
        <ele>583.589876</ele>
        <time>2021-09-19T06:23:40.000Z</time>
      </trkpt>
      <trkpt lat="43.95887" lon="6.73462">
        <ele>583.543258</ele>
        <time>2021-09-19T06:23:41.000Z</time>
      </trkpt>
      <trkpt lat="43.95893" lon="6.73471">
        <ele>583.470183</ele>
        <time>2021-09-19T06:23:43.000Z</time>
      </trkpt>
      <trkpt lat="43.95904" lon="6.7348">
        <ele>583.361061</ele>
        <time>2021-09-19T06:23:46.000Z</time>
      </trkpt>
      <trkpt lat="43.95908" lon="6.73484">
        <ele>583.315375</ele>
        <time>2021-09-19T06:23:47.000Z</time>
      </trkpt>
      <trkpt lat="43.95916" lon="6.73487">
        <ele>583.250464</ele>
        <time>2021-09-19T06:23:49.000Z</time>
      </trkpt>
      <trkpt lat="43.95924" lon="6.73491">
        <ele>583.174605</ele>
        <time>2021-09-19T06:23:51.000Z</time>
      </trkpt>
      <trkpt lat="43.95928" lon="6.73491">
        <ele>583.147635</ele>
        <time>2021-09-19T06:23:52.000Z</time>
      </trkpt>
      <trkpt lat="43.95946" lon="6.73493">
        <ele>582.989671</ele>
        <time>2021-09-19T06:23:56.000Z</time>
      </trkpt>
      <trkpt lat="43.95978" lon="6.73504">
        <ele>582.720888</ele>
        <time>2021-09-19T06:24:03.000Z</time>
      </trkpt>
      <trkpt lat="43.95986" lon="6.7351">
        <ele>582.640795</ele>
        <time>2021-09-19T06:24:05.000Z</time>
      </trkpt>
      <trkpt lat="43.96005" lon="6.73522">
        <ele>582.580776</ele>
        <time>2021-09-19T06:24:09.000Z</time>
      </trkpt>
      <trkpt lat="43.96014" lon="6.73529">
        <ele>582.552003</ele>
        <time>2021-09-19T06:24:11.000Z</time>
      </trkpt>
      <trkpt lat="43.96032" lon="6.73545">
        <ele>582.496002</ele>
        <time>2021-09-19T06:24:15.000Z</time>
      </trkpt>
      <trkpt lat="43.96049" lon="6.73563">
        <ele>582.438909</ele>
        <time>2021-09-19T06:24:19.000Z</time>
      </trkpt>
      <trkpt lat="43.96079" lon="6.73593">
        <ele>582.340144</ele>
        <time>2021-09-19T06:24:26.000Z</time>
      </trkpt>
      <trkpt lat="43.96114" lon="6.73631">
        <ele>582.221883</ele>
        <time>2021-09-19T06:24:33.000Z</time>
      </trkpt>
      <trkpt lat="43.96141" lon="6.7368">
        <ele>581.779864</ele>
        <time>2021-09-19T06:24:39.000Z</time>
      </trkpt>
      <trkpt lat="43.96149" lon="6.73698">
        <ele>581.4829</ele>
        <time>2021-09-19T06:24:41.000Z</time>
      </trkpt>
      <trkpt lat="43.96164" lon="6.73735">
        <ele>580.854793</ele>
        <time>2021-09-19T06:24:45.000Z</time>
      </trkpt>
      <trkpt lat="43.96195" lon="6.73807">
        <ele>579.653734</ele>
        <time>2021-09-19T06:24:52.000Z</time>
      </trkpt>
      <trkpt lat="43.96223" lon="6.73875">
        <ele>578.521834</ele>
        <time>2021-09-19T06:24:58.000Z</time>
      </trkpt>
      <trkpt lat="43.96252" lon="6.73945">
        <ele>577.042909</ele>
        <time>2021-09-19T06:25:04.000Z</time>
      </trkpt>
      <trkpt lat="43.96257" lon="6.73957">
        <ele>576.796423</ele>
        <time>2021-09-19T06:25:05.000Z</time>
      </trkpt>
      <trkpt lat="43.96287" lon="6.74029">
        <ele>575.278996</ele>
        <time>2021-09-19T06:25:11.000Z</time>
      </trkpt>
      <trkpt lat="43.96302" lon="6.74064">
        <ele>574.53197</ele>
        <time>2021-09-19T06:25:14.000Z</time>
      </trkpt>
      <trkpt lat="43.96331" lon="6.74133">
        <ele>573.074475</ele>
        <time>2021-09-19T06:25:20.000Z</time>
      </trkpt>
      <trkpt lat="43.96358" lon="6.74198">
        <ele>571.664238</ele>
        <time>2021-09-19T06:25:26.000Z</time>
      </trkpt>
      <trkpt lat="43.96363" lon="6.74209">
        <ele>571.434289</ele>
        <time>2021-09-19T06:25:27.000Z</time>
      </trkpt>
      <trkpt lat="43.96393" lon="6.74281">
        <ele>569.880302</ele>
        <time>2021-09-19T06:25:34.000Z</time>
      </trkpt>
      <trkpt lat="43.96397" lon="6.74291">
        <ele>569.663865</ele>
        <time>2021-09-19T06:25:35.000Z</time>
      </trkpt>
      <trkpt lat="43.96429" lon="6.74358">
        <ele>568.154634</ele>
        <time>2021-09-19T06:25:42.000Z</time>
      </trkpt>
      <trkpt lat="43.96434" lon="6.74367">
        <ele>567.939736</ele>
        <time>2021-09-19T06:25:43.000Z</time>
      </trkpt>
      <trkpt lat="43.96466" lon="6.74432">
        <ele>566.440987</ele>
        <time>2021-09-19T06:25:50.000Z</time>
      </trkpt>
      <trkpt lat="43.96476" lon="6.7445">
        <ele>566.00837</ele>
        <time>2021-09-19T06:25:52.000Z</time>
      </trkpt>
      <trkpt lat="43.96509" lon="6.74513">
        <ele>564.552389</ele>
        <time>2021-09-19T06:25:59.000Z</time>
      </trkpt>
      <trkpt lat="43.96518" lon="6.7453">
        <ele>564.258167</ele>
        <time>2021-09-19T06:26:01.000Z</time>
      </trkpt>
      <trkpt lat="43.96544" lon="6.74579">
        <ele>563.432785</ele>
        <time>2021-09-19T06:26:07.000Z</time>
      </trkpt>
      <trkpt lat="43.96576" lon="6.74641">
        <ele>562.395836</ele>
        <time>2021-09-19T06:26:15.000Z</time>
      </trkpt>
      <trkpt lat="43.96608" lon="6.74703">
        <ele>561.37102</ele>
        <time>2021-09-19T06:26:23.000Z</time>
      </trkpt>
      <trkpt lat="43.96615" lon="6.74718">
        <ele>561.153771</ele>
        <time>2021-09-19T06:26:25.000Z</time>
      </trkpt>
      <trkpt lat="43.96636" lon="6.74777">
        <ele>560.555227</ele>
        <time>2021-09-19T06:26:32.000Z</time>
      </trkpt>
      <trkpt lat="43.96648" lon="6.74828">
        <ele>560.065191</ele>
        <time>2021-09-19T06:26:38.000Z</time>
      </trkpt>
      <trkpt lat="43.96661" lon="6.74905">
        <ele>559.339869</ele>
        <time>2021-09-19T06:26:47.000Z</time>
      </trkpt>
      <trkpt lat="43.96677" lon="6.74968">
        <ele>558.727654</ele>
        <time>2021-09-19T06:26:54.000Z</time>
      </trkpt>
      <trkpt lat="43.96695" lon="6.7503">
        <ele>558.115961</ele>
        <time>2021-09-19T06:27:01.000Z</time>
      </trkpt>
      <trkpt lat="43.9671" lon="6.75105">
        <ele>557.397034</ele>
        <time>2021-09-19T06:27:09.000Z</time>
      </trkpt>
      <trkpt lat="43.96715" lon="6.75173">
        <ele>556.762817</ele>
        <time>2021-09-19T06:27:16.000Z</time>
      </trkpt>
      <trkpt lat="43.96718" lon="6.75254">
        <ele>555.827976</ele>
        <time>2021-09-19T06:27:24.000Z</time>
      </trkpt>
      <trkpt lat="43.96718" lon="6.75274">
        <ele>555.589972</ele>
        <time>2021-09-19T06:27:26.000Z</time>
      </trkpt>
      <trkpt lat="43.96721" lon="6.75355">
        <ele>554.611726</ele>
        <time>2021-09-19T06:27:34.000Z</time>
      </trkpt>
      <trkpt lat="43.96721" lon="6.75366">
        <ele>554.489163</ele>
        <time>2021-09-19T06:27:35.000Z</time>
      </trkpt>
      <trkpt lat="43.96724" lon="6.75449">
        <ele>553.462994</ele>
        <time>2021-09-19T06:27:43.000Z</time>
      </trkpt>
      <trkpt lat="43.96728" lon="6.75502">
        <ele>552.717416</ele>
        <time>2021-09-19T06:27:48.000Z</time>
      </trkpt>
      <trkpt lat="43.96742" lon="6.75554">
        <ele>551.929234</ele>
        <time>2021-09-19T06:27:53.000Z</time>
      </trkpt>
      <trkpt lat="43.96766" lon="6.75611">
        <ele>551.003827</ele>
        <time>2021-09-19T06:27:59.000Z</time>
      </trkpt>
      <trkpt lat="43.96798" lon="6.75682">
        <ele>549.930438</ele>
        <time>2021-09-19T06:28:07.000Z</time>
      </trkpt>
      <trkpt lat="43.9682" lon="6.75728">
        <ele>549.425591</ele>
        <time>2021-09-19T06:28:13.000Z</time>
      </trkpt>
      <trkpt lat="43.96853" lon="6.75771">
        <ele>548.853038</ele>
        <time>2021-09-19T06:28:20.000Z</time>
      </trkpt>
      <trkpt lat="43.96883" lon="6.75807">
        <ele>548.353999</ele>
        <time>2021-09-19T06:28:26.000Z</time>
      </trkpt>
      <trkpt lat="43.9692" lon="6.75853">
        <ele>547.839238</ele>
        <time>2021-09-19T06:28:34.000Z</time>
      </trkpt>
      <trkpt lat="43.9696" lon="6.75901">
        <ele>547.78568</ele>
        <time>2021-09-19T06:28:43.000Z</time>
      </trkpt>
      <trkpt lat="43.96979" lon="6.75923">
        <ele>547.759774</ele>
        <time>2021-09-19T06:28:48.000Z</time>
      </trkpt>
      <trkpt lat="43.96988" lon="6.75933">
        <ele>547.748625</ele>
        <time>2021-09-19T06:28:50.000Z</time>
      </trkpt>
      <trkpt lat="43.97002" lon="6.75949">
        <ele>547.730372</ele>
        <time>2021-09-19T06:28:53.000Z</time>
      </trkpt>
      <trkpt lat="43.97033" lon="6.75984">
        <ele>547.68888</ele>
        <time>2021-09-19T06:29:00.000Z</time>
      </trkpt>
      <trkpt lat="43.97045" lon="6.7599">
        <ele>547.675977</ele>
        <time>2021-09-19T06:29:02.000Z</time>
      </trkpt>
      <trkpt lat="43.97056" lon="6.75994">
        <ele>547.659314</ele>
        <time>2021-09-19T06:29:04.000Z</time>
      </trkpt>
      <trkpt lat="43.97086" lon="6.75993">
        <ele>547.503576</ele>
        <time>2021-09-19T06:29:09.000Z</time>
      </trkpt>
      <trkpt lat="43.97092" lon="6.75993">
        <ele>547.473453</ele>
        <time>2021-09-19T06:29:10.000Z</time>
      </trkpt>
      <trkpt lat="43.97103" lon="6.75998">
        <ele>547.41293</ele>
        <time>2021-09-19T06:29:12.000Z</time>
      </trkpt>
      <trkpt lat="43.97107" lon="6.76003">
        <ele>547.381456</ele>
        <time>2021-09-19T06:29:13.000Z</time>
      </trkpt>
      <trkpt lat="43.97112" lon="6.76009">
        <ele>547.347882</ele>
        <time>2021-09-19T06:29:14.000Z</time>
      </trkpt>
      <trkpt lat="43.97124" lon="6.76031">
        <ele>547.243054</ele>
        <time>2021-09-19T06:29:17.000Z</time>
      </trkpt>
      <trkpt lat="43.97143" lon="6.76069">
        <ele>547.067621</ele>
        <time>2021-09-19T06:29:22.000Z</time>
      </trkpt>
      <trkpt lat="43.97147" lon="6.76087">
        <ele>546.99325</ele>
        <time>2021-09-19T06:29:24.000Z</time>
      </trkpt>
      <trkpt lat="43.9715" lon="6.76107">
        <ele>546.916229</ele>
        <time>2021-09-19T06:29:26.000Z</time>
      </trkpt>
      <trkpt lat="43.97159" lon="6.76175">
        <ele>546.571419</ele>
        <time>2021-09-19T06:29:33.000Z</time>
      </trkpt>
      <trkpt lat="43.9716" lon="6.76185">
        <ele>546.478429</ele>
        <time>2021-09-19T06:29:34.000Z</time>
      </trkpt>
      <trkpt lat="43.97166" lon="6.76212">
        <ele>546.219612</ele>
        <time>2021-09-19T06:29:37.000Z</time>
      </trkpt>
      <trkpt lat="43.97176" lon="6.76246">
        <ele>545.885847</ele>
        <time>2021-09-19T06:29:41.000Z</time>
      </trkpt>
      <trkpt lat="43.97179" lon="6.76254">
        <ele>545.802507</ele>
        <time>2021-09-19T06:29:42.000Z</time>
      </trkpt>
      <trkpt lat="43.97201" lon="6.76309">
        <ele>545.219297</ele>
        <time>2021-09-19T06:29:49.000Z</time>
      </trkpt>
      <trkpt lat="43.97222" lon="6.76374">
        <ele>544.563583</ele>
        <time>2021-09-19T06:29:57.000Z</time>
      </trkpt>
      <trkpt lat="43.97231" lon="6.76427">
        <ele>544.152701</ele>
        <time>2021-09-19T06:30:03.000Z</time>
      </trkpt>
      <trkpt lat="43.97242" lon="6.76488">
        <ele>543.707825</ele>
        <time>2021-09-19T06:30:10.000Z</time>
      </trkpt>
      <trkpt lat="43.97256" lon="6.76567">
        <ele>543.1298</ele>
        <time>2021-09-19T06:30:19.000Z</time>
      </trkpt>
      <trkpt lat="43.97268" lon="6.76647">
        <ele>542.611212</ele>
        <time>2021-09-19T06:30:28.000Z</time>
      </trkpt>
      <trkpt lat="43.97268" lon="6.76656">
        <ele>542.583907</ele>
        <time>2021-09-19T06:30:29.000Z</time>
      </trkpt>
      <trkpt lat="43.97267" lon="6.76684">
        <ele>542.50154</ele>
        <time>2021-09-19T06:30:32.000Z</time>
      </trkpt>
      <trkpt lat="43.97266" lon="6.76692">
        <ele>542.475401</ele>
        <time>2021-09-19T06:30:33.000Z</time>
      </trkpt>
      <trkpt lat="43.97255" lon="6.76744">
        <ele>542.313319</ele>
        <time>2021-09-19T06:30:39.000Z</time>
      </trkpt>
      <trkpt lat="43.97237" lon="6.76812">
        <ele>542.09606</ele>
        <time>2021-09-19T06:30:47.000Z</time>
      </trkpt>
      <trkpt lat="43.97219" lon="6.7686">
        <ele>541.933846</ele>
        <time>2021-09-19T06:30:53.000Z</time>
      </trkpt>
      <trkpt lat="43.97208" lon="6.76922">
        <ele>541.807305</ele>
        <time>2021-09-19T06:31:00.000Z</time>
      </trkpt>
      <trkpt lat="43.97206" lon="6.76977">
        <ele>541.709012</ele>
        <time>2021-09-19T06:31:06.000Z</time>
      </trkpt>
      <trkpt lat="43.97207" lon="6.77048">
        <ele>541.579182</ele>
        <time>2021-09-19T06:31:14.000Z</time>
      </trkpt>
      <trkpt lat="43.97212" lon="6.77122">
        <ele>541.432815</ele>
        <time>2021-09-19T06:31:22.000Z</time>
      </trkpt>
      <trkpt lat="43.97222" lon="6.77198">
        <ele>541.082421</ele>
        <time>2021-09-19T06:31:30.000Z</time>
      </trkpt>
      <trkpt lat="43.97223" lon="6.77207">
        <ele>541.03801</ele>
        <time>2021-09-19T06:31:31.000Z</time>
      </trkpt>
      <trkpt lat="43.97231" lon="6.77246">
        <ele>540.856069</ele>
        <time>2021-09-19T06:31:35.000Z</time>
      </trkpt>
      <trkpt lat="43.97234" lon="6.77276">
        <ele>540.720368</ele>
        <time>2021-09-19T06:31:38.000Z</time>
      </trkpt>
      <trkpt lat="43.97232" lon="6.77346">
        <ele>540.400681</ele>
        <time>2021-09-19T06:31:45.000Z</time>
      </trkpt>
      <trkpt lat="43.97225" lon="6.77416">
        <ele>539.970591</ele>
        <time>2021-09-19T06:31:52.000Z</time>
      </trkpt>
      <trkpt lat="43.97213" lon="6.77462">
        <ele>539.644635</ele>
        <time>2021-09-19T06:31:57.000Z</time>
      </trkpt>
      <trkpt lat="43.97209" lon="6.7747">
        <ele>539.577558</ele>
        <time>2021-09-19T06:31:58.000Z</time>
      </trkpt>
      <trkpt lat="43.97195" lon="6.77494">
        <ele>539.369846</ele>
        <time>2021-09-19T06:32:01.000Z</time>
      </trkpt>
      <trkpt lat="43.97186" lon="6.77511">
        <ele>539.229769</ele>
        <time>2021-09-19T06:32:03.000Z</time>
      </trkpt>
      <trkpt lat="43.97182" lon="6.7752">
        <ele>539.159451</ele>
        <time>2021-09-19T06:32:04.000Z</time>
      </trkpt>
      <trkpt lat="43.97174" lon="6.77538">
        <ele>539.019031</ele>
        <time>2021-09-19T06:32:06.000Z</time>
      </trkpt>
      <trkpt lat="43.97172" lon="6.77548">
        <ele>538.947254</ele>
        <time>2021-09-19T06:32:07.000Z</time>
      </trkpt>
      <trkpt lat="43.97169" lon="6.7757">
        <ele>538.801263</ele>
        <time>2021-09-19T06:32:09.000Z</time>
      </trkpt>
      <trkpt lat="43.97168" lon="6.77602">
        <ele>538.531339</ele>
        <time>2021-09-19T06:32:12.000Z</time>
      </trkpt>
      <trkpt lat="43.97163" lon="6.77681">
        <ele>537.612937</ele>
        <time>2021-09-19T06:32:19.000Z</time>
      </trkpt>
      <trkpt lat="43.97152" lon="6.77739">
        <ele>536.926613</ele>
        <time>2021-09-19T06:32:24.000Z</time>
      </trkpt>
      <trkpt lat="43.97135" lon="6.77769">
        <ele>536.491819</ele>
        <time>2021-09-19T06:32:27.000Z</time>
      </trkpt>
      <trkpt lat="43.97128" lon="6.77775">
        <ele>536.355791</ele>
        <time>2021-09-19T06:32:28.000Z</time>
      </trkpt>
      <trkpt lat="43.97121" lon="6.77781">
        <ele>536.216993</ele>
        <time>2021-09-19T06:32:29.000Z</time>
      </trkpt>
      <trkpt lat="43.97104" lon="6.77789">
        <ele>535.93668</ele>
        <time>2021-09-19T06:32:31.000Z</time>
      </trkpt>
      <trkpt lat="43.97086" lon="6.77789">
        <ele>535.624433</ele>
        <time>2021-09-19T06:32:33.000Z</time>
      </trkpt>
      <trkpt lat="43.97077" lon="6.77787">
        <ele>535.457044</ele>
        <time>2021-09-19T06:32:34.000Z</time>
      </trkpt>
      <trkpt lat="43.97068" lon="6.77783">
        <ele>535.281224</ele>
        <time>2021-09-19T06:32:35.000Z</time>
      </trkpt>
      <trkpt lat="43.97052" lon="6.7777">
        <ele>534.936195</ele>
        <time>2021-09-19T06:32:37.000Z</time>
      </trkpt>
      <trkpt lat="43.97022" lon="6.7773">
        <ele>534.141451</ele>
        <time>2021-09-19T06:32:42.000Z</time>
      </trkpt>
      <trkpt lat="43.97003" lon="6.77709">
        <ele>533.686566</ele>
        <time>2021-09-19T06:32:45.000Z</time>
      </trkpt>
      <trkpt lat="43.96989" lon="6.777">
        <ele>533.394719</ele>
        <time>2021-09-19T06:32:47.000Z</time>
      </trkpt>
      <trkpt lat="43.96972" lon="6.77699">
        <ele>533.089072</ele>
        <time>2021-09-19T06:32:49.000Z</time>
      </trkpt>
      <trkpt lat="43.96964" lon="6.777">
        <ele>532.930112</ele>
        <time>2021-09-19T06:32:50.000Z</time>
      </trkpt>
      <trkpt lat="43.96921" lon="6.77707">
        <ele>532.098505</ele>
        <time>2021-09-19T06:32:55.000Z</time>
      </trkpt>
      <trkpt lat="43.96871" lon="6.77721">
        <ele>531.078842</ele>
        <time>2021-09-19T06:33:01.000Z</time>
      </trkpt>
      <trkpt lat="43.96831" lon="6.77747">
        <ele>530.195543</ele>
        <time>2021-09-19T06:33:06.000Z</time>
      </trkpt>
      <trkpt lat="43.96806" lon="6.77761">
        <ele>529.636854</ele>
        <time>2021-09-19T06:33:09.000Z</time>
      </trkpt>
      <trkpt lat="43.96796" lon="6.77765">
        <ele>529.445589</ele>
        <time>2021-09-19T06:33:10.000Z</time>
      </trkpt>
      <trkpt lat="43.96751" lon="6.77777">
        <ele>528.530377</ele>
        <time>2021-09-19T06:33:15.000Z</time>
      </trkpt>
      <trkpt lat="43.96726" lon="6.77786">
        <ele>528.029932</ele>
        <time>2021-09-19T06:33:18.000Z</time>
      </trkpt>
      <trkpt lat="43.9671" lon="6.77796">
        <ele>527.705312</ele>
        <time>2021-09-19T06:33:20.000Z</time>
      </trkpt>
      <trkpt lat="43.96674" lon="6.77828">
        <ele>526.898778</ele>
        <time>2021-09-19T06:33:25.000Z</time>
      </trkpt>
      <trkpt lat="43.96646" lon="6.77869">
        <ele>526.120812</ele>
        <time>2021-09-19T06:33:30.000Z</time>
      </trkpt>
      <trkpt lat="43.96607" lon="6.7793">
        <ele>525.089257</ele>
        <time>2021-09-19T06:33:37.000Z</time>
      </trkpt>
      <trkpt lat="43.96585" lon="6.77966">
        <ele>524.59919</ele>
        <time>2021-09-19T06:33:41.000Z</time>
      </trkpt>
      <trkpt lat="43.9658" lon="6.77975">
        <ele>524.476474</ele>
        <time>2021-09-19T06:33:42.000Z</time>
      </trkpt>
      <trkpt lat="43.96556" lon="6.7802">
        <ele>523.88208</ele>
        <time>2021-09-19T06:33:47.000Z</time>
      </trkpt>
      <trkpt lat="43.96528" lon="6.78076">
        <ele>523.17809</ele>
        <time>2021-09-19T06:33:53.000Z</time>
      </trkpt>
      <trkpt lat="43.96496" lon="6.78142">
        <ele>522.469653</ele>
        <time>2021-09-19T06:34:00.000Z</time>
      </trkpt>
      <trkpt lat="43.96465" lon="6.78205">
        <ele>521.914161</ele>
        <time>2021-09-19T06:34:07.000Z</time>
      </trkpt>
      <trkpt lat="43.96446" lon="6.7824">
        <ele>521.603132</ele>
        <time>2021-09-19T06:34:11.000Z</time>
      </trkpt>
      <trkpt lat="43.96441" lon="6.78248">
        <ele>521.52276</ele>
        <time>2021-09-19T06:34:12.000Z</time>
      </trkpt>
      <trkpt lat="43.96398" lon="6.78295">
        <ele>520.981111</ele>
        <time>2021-09-19T06:34:19.000Z</time>
      </trkpt>
      <trkpt lat="43.96373" lon="6.78332">
        <ele>520.711442</ele>
        <time>2021-09-19T06:34:24.000Z</time>
      </trkpt>
      <trkpt lat="43.96352" lon="6.78369">
        <ele>520.480008</ele>
        <time>2021-09-19T06:34:29.000Z</time>
      </trkpt>
      <trkpt lat="43.96327" lon="6.7841">
        <ele>520.207919</ele>
        <time>2021-09-19T06:34:35.000Z</time>
      </trkpt>
      <trkpt lat="43.96322" lon="6.78416">
        <ele>520.162147</ele>
        <time>2021-09-19T06:34:36.000Z</time>
      </trkpt>
      <trkpt lat="43.96287" lon="6.7846">
        <ele>519.830515</ele>
        <time>2021-09-19T06:34:43.000Z</time>
      </trkpt>
      <trkpt lat="43.96282" lon="6.78466">
        <ele>519.784222</ele>
        <time>2021-09-19T06:34:44.000Z</time>
      </trkpt>
      <trkpt lat="43.96266" lon="6.78485">
        <ele>519.691409</ele>
        <time>2021-09-19T06:34:47.000Z</time>
      </trkpt>
      <trkpt lat="43.96228" lon="6.78542">
        <ele>519.710746</ele>
        <time>2021-09-19T06:34:55.000Z</time>
      </trkpt>
      <trkpt lat="43.96221" lon="6.78558">
        <ele>519.7155</ele>
        <time>2021-09-19T06:34:57.000Z</time>
      </trkpt>
      <trkpt lat="43.96214" lon="6.78575">
        <ele>519.720422</ele>
        <time>2021-09-19T06:34:59.000Z</time>
      </trkpt>
      <trkpt lat="43.96189" lon="6.78639">
        <ele>519.738582</ele>
        <time>2021-09-19T06:35:06.000Z</time>
      </trkpt>
      <trkpt lat="43.96165" lon="6.787">
        <ele>519.704316</ele>
        <time>2021-09-19T06:35:13.000Z</time>
      </trkpt>
      <trkpt lat="43.96162" lon="6.78709">
        <ele>519.677968</ele>
        <time>2021-09-19T06:35:14.000Z</time>
      </trkpt>
      <trkpt lat="43.96157" lon="6.78728">
        <ele>519.625941</ele>
        <time>2021-09-19T06:35:16.000Z</time>
      </trkpt>
      <trkpt lat="43.96156" lon="6.78738">
        <ele>519.598493</ele>
        <time>2021-09-19T06:35:17.000Z</time>
      </trkpt>
      <trkpt lat="43.9615" lon="6.78816">
        <ele>519.393266</ele>
        <time>2021-09-19T06:35:24.000Z</time>
      </trkpt>
      <trkpt lat="43.96136" lon="6.78868">
        <ele>519.246677</ele>
        <time>2021-09-19T06:35:29.000Z</time>
      </trkpt>
      <trkpt lat="43.9613" lon="6.78888">
        <ele>519.189249</ele>
        <time>2021-09-19T06:35:31.000Z</time>
      </trkpt>
      <trkpt lat="43.96125" lon="6.78897">
        <ele>519.159197</ele>
        <time>2021-09-19T06:35:32.000Z</time>
      </trkpt>
      <trkpt lat="43.96096" lon="6.78958">
        <ele>519.015669</ele>
        <time>2021-09-19T06:35:38.000Z</time>
      </trkpt>
      <trkpt lat="43.96072" lon="6.79006">
        <ele>518.919874</ele>
        <time>2021-09-19T06:35:43.000Z</time>
      </trkpt>
      <trkpt lat="43.96042" lon="6.79069">
        <ele>518.795446</ele>
        <time>2021-09-19T06:35:50.000Z</time>
      </trkpt>
      <trkpt lat="43.96012" lon="6.79132">
        <ele>518.659318</ele>
        <time>2021-09-19T06:35:57.000Z</time>
      </trkpt>
      <trkpt lat="43.95985" lon="6.79195">
        <ele>518.436139</ele>
        <time>2021-09-19T06:36:04.000Z</time>
      </trkpt>
      <trkpt lat="43.95954" lon="6.79248">
        <ele>518.229311</ele>
        <time>2021-09-19T06:36:11.000Z</time>
      </trkpt>
      <trkpt lat="43.95947" lon="6.79264">
        <ele>518.172387</ele>
        <time>2021-09-19T06:36:13.000Z</time>
      </trkpt>
      <trkpt lat="43.95942" lon="6.79282">
        <ele>518.113274</ele>
        <time>2021-09-19T06:36:15.000Z</time>
      </trkpt>
      <trkpt lat="43.9594" lon="6.79292">
        <ele>518.084158</ele>
        <time>2021-09-19T06:36:16.000Z</time>
      </trkpt>
      <trkpt lat="43.95933" lon="6.79356">
        <ele>517.852495</ele>
        <time>2021-09-19T06:36:23.000Z</time>
      </trkpt>
      <trkpt lat="43.95922" lon="6.79407">
        <ele>517.542286</ele>
        <time>2021-09-19T06:36:29.000Z</time>
      </trkpt>
      <trkpt lat="43.95899" lon="6.79462">
        <ele>517.174718</ele>
        <time>2021-09-19T06:36:36.000Z</time>
      </trkpt>
      <trkpt lat="43.95892" lon="6.79477">
        <ele>517.069815</ele>
        <time>2021-09-19T06:36:38.000Z</time>
      </trkpt>
      <trkpt lat="43.95879" lon="6.79508">
        <ele>516.864579</ele>
        <time>2021-09-19T06:36:42.000Z</time>
      </trkpt>
      <trkpt lat="43.95855" lon="6.79553">
        <ele>516.541194</ele>
        <time>2021-09-19T06:36:48.000Z</time>
      </trkpt>
      <trkpt lat="43.95845" lon="6.79566">
        <ele>516.342289</ele>
        <time>2021-09-19T06:36:50.000Z</time>
      </trkpt>
      <trkpt lat="43.95827" lon="6.79582">
        <ele>515.923131</ele>
        <time>2021-09-19T06:36:53.000Z</time>
      </trkpt>
      <trkpt lat="43.95788" lon="6.79605">
        <ele>515.073333</ele>
        <time>2021-09-19T06:36:59.000Z</time>
      </trkpt>
      <trkpt lat="43.95735" lon="6.79638">
        <ele>513.888824</ele>
        <time>2021-09-19T06:37:07.000Z</time>
      </trkpt>
      <trkpt lat="43.95729" lon="6.79642">
        <ele>513.752551</ele>
        <time>2021-09-19T06:37:08.000Z</time>
      </trkpt>
      <trkpt lat="43.95698" lon="6.79674">
        <ele>512.969697</ele>
        <time>2021-09-19T06:37:13.000Z</time>
      </trkpt>
      <trkpt lat="43.95657" lon="6.79731">
        <ele>511.546341</ele>
        <time>2021-09-19T06:37:20.000Z</time>
      </trkpt>
      <trkpt lat="43.95619" lon="6.79788">
        <ele>510.110974</ele>
        <time>2021-09-19T06:37:27.000Z</time>
      </trkpt>
      <trkpt lat="43.95583" lon="6.7985">
        <ele>508.665571</ele>
        <time>2021-09-19T06:37:34.000Z</time>
      </trkpt>
      <trkpt lat="43.95556" lon="6.79905">
        <ele>507.466873</ele>
        <time>2021-09-19T06:37:40.000Z</time>
      </trkpt>
      <trkpt lat="43.95537" lon="6.79955">
        <ele>506.446259</ele>
        <time>2021-09-19T06:37:45.000Z</time>
      </trkpt>
      <trkpt lat="43.95524" lon="6.79984">
        <ele>505.83829</ele>
        <time>2021-09-19T06:37:48.000Z</time>
      </trkpt>
      <trkpt lat="43.95519" lon="6.79993">
        <ele>505.636482</ele>
        <time>2021-09-19T06:37:49.000Z</time>
      </trkpt>
      <trkpt lat="43.95501" lon="6.8003">
        <ele>504.83919</ele>
        <time>2021-09-19T06:37:53.000Z</time>
      </trkpt>
      <trkpt lat="43.95495" lon="6.8005">
        <ele>504.458928</ele>
        <time>2021-09-19T06:37:55.000Z</time>
      </trkpt>
      <trkpt lat="43.95487" lon="6.80079">
        <ele>503.893354</ele>
        <time>2021-09-19T06:37:58.000Z</time>
      </trkpt>
      <trkpt lat="43.95479" lon="6.80109">
        <ele>503.315414</ele>
        <time>2021-09-19T06:38:01.000Z</time>
      </trkpt>
      <trkpt lat="43.95477" lon="6.80119">
        <ele>503.124567</ele>
        <time>2021-09-19T06:38:02.000Z</time>
      </trkpt>
      <trkpt lat="43.95469" lon="6.8015">
        <ele>502.516481</ele>
        <time>2021-09-19T06:38:05.000Z</time>
      </trkpt>
      <trkpt lat="43.95459" lon="6.80183">
        <ele>501.856983</ele>
        <time>2021-09-19T06:38:08.000Z</time>
      </trkpt>
      <trkpt lat="43.95451" lon="6.80204">
        <ele>501.411656</ele>
        <time>2021-09-19T06:38:10.000Z</time>
      </trkpt>
      <trkpt lat="43.95421" lon="6.80279">
        <ele>499.831502</ele>
        <time>2021-09-19T06:38:17.000Z</time>
      </trkpt>
      <trkpt lat="43.95413" lon="6.80298">
        <ele>499.431999</ele>
        <time>2021-09-19T06:38:19.000Z</time>
      </trkpt>
      <trkpt lat="43.95402" lon="6.80328">
        <ele>498.741831</ele>
        <time>2021-09-19T06:38:22.000Z</time>
      </trkpt>
      <trkpt lat="43.95387" lon="6.80366">
        <ele>497.81277</ele>
        <time>2021-09-19T06:38:26.000Z</time>
      </trkpt>
      <trkpt lat="43.95368" lon="6.80414">
        <ele>496.670237</ele>
        <time>2021-09-19T06:38:31.000Z</time>
      </trkpt>
      <trkpt lat="43.95351" lon="6.80458">
        <ele>495.600571</ele>
        <time>2021-09-19T06:38:36.000Z</time>
      </trkpt>
      <trkpt lat="43.95332" lon="6.80506">
        <ele>494.431879</ele>
        <time>2021-09-19T06:38:41.000Z</time>
      </trkpt>
      <trkpt lat="43.95303" lon="6.80578">
        <ele>492.959135</ele>
        <time>2021-09-19T06:38:48.000Z</time>
      </trkpt>
      <trkpt lat="43.95281" lon="6.80634">
        <ele>491.897577</ele>
        <time>2021-09-19T06:38:54.000Z</time>
      </trkpt>
      <trkpt lat="43.95278" lon="6.80643">
        <ele>491.723995</ele>
        <time>2021-09-19T06:38:55.000Z</time>
      </trkpt>
      <trkpt lat="43.95265" lon="6.80666">
        <ele>491.243562</ele>
        <time>2021-09-19T06:38:58.000Z</time>
      </trkpt>
      <trkpt lat="43.95236" lon="6.807">
        <ele>490.382109</ele>
        <time>2021-09-19T06:39:04.000Z</time>
      </trkpt>
      <trkpt lat="43.95204" lon="6.80743">
        <ele>489.65858</ele>
        <time>2021-09-19T06:39:11.000Z</time>
      </trkpt>
      <trkpt lat="43.95192" lon="6.80764">
        <ele>489.54828</ele>
        <time>2021-09-19T06:39:14.000Z</time>
      </trkpt>
      <trkpt lat="43.95184" lon="6.80778">
        <ele>489.471911</ele>
        <time>2021-09-19T06:39:16.000Z</time>
      </trkpt>
      <trkpt lat="43.95164" lon="6.80829">
        <ele>489.229264</ele>
        <time>2021-09-19T06:39:22.000Z</time>
      </trkpt>
      <trkpt lat="43.95143" lon="6.80879">
        <ele>488.985464</ele>
        <time>2021-09-19T06:39:28.000Z</time>
      </trkpt>
      <trkpt lat="43.95122" lon="6.80929">
        <ele>488.745571</ele>
        <time>2021-09-19T06:39:34.000Z</time>
      </trkpt>
      <trkpt lat="43.95112" lon="6.80942">
        <ele>488.784009</ele>
        <time>2021-09-19T06:39:36.000Z</time>
      </trkpt>
      <trkpt lat="43.95106" lon="6.80945">
        <ele>488.831255</ele>
        <time>2021-09-19T06:39:37.000Z</time>
      </trkpt>
      <trkpt lat="43.9509" lon="6.80947">
        <ele>488.948155</ele>
        <time>2021-09-19T06:39:39.000Z</time>
      </trkpt>
      <trkpt lat="43.95074" lon="6.80941">
        <ele>489.065355</ele>
        <time>2021-09-19T06:39:41.000Z</time>
      </trkpt>
      <trkpt lat="43.95053" lon="6.80927">
        <ele>489.235705</ele>
        <time>2021-09-19T06:39:44.000Z</time>
      </trkpt>
      <trkpt lat="43.95036" lon="6.80915">
        <ele>489.373245</ele>
        <time>2021-09-19T06:39:47.000Z</time>
      </trkpt>
      <trkpt lat="43.95026" lon="6.8091">
        <ele>489.450526</ele>
        <time>2021-09-19T06:39:49.000Z</time>
      </trkpt>
      <trkpt lat="43.95017" lon="6.80907">
        <ele>489.520857</ele>
        <time>2021-09-19T06:39:51.000Z</time>
      </trkpt>
      <trkpt lat="43.95008" lon="6.80906">
        <ele>489.586134</ele>
        <time>2021-09-19T06:39:53.000Z</time>
      </trkpt>
      <trkpt lat="43.95004" lon="6.80906">
        <ele>489.614502</ele>
        <time>2021-09-19T06:39:54.000Z</time>
      </trkpt>
      <trkpt lat="43.94982" lon="6.80911">
        <ele>489.775219</ele>
        <time>2021-09-19T06:40:00.000Z</time>
      </trkpt>
      <trkpt lat="43.94963" lon="6.80931">
        <ele>489.948749</ele>
        <time>2021-09-19T06:40:06.000Z</time>
      </trkpt>
      <trkpt lat="43.94951" lon="6.80952">
        <ele>490.031876</ele>
        <time>2021-09-19T06:40:12.000Z</time>
      </trkpt>
      <trkpt lat="43.9494" lon="6.8097">
        <ele>490.04279</ele>
        <time>2021-09-19T06:40:17.000Z</time>
      </trkpt>
      <trkpt lat="43.94928" lon="6.80991">
        <ele>490.054829</ele>
        <time>2021-09-19T06:40:22.000Z</time>
      </trkpt>
      <trkpt lat="43.94921" lon="6.8101">
        <ele>490.065251</ele>
        <time>2021-09-19T06:40:26.000Z</time>
      </trkpt>
      <trkpt lat="43.94917" lon="6.81022">
        <ele>490.071236</ele>
        <time>2021-09-19T06:40:28.000Z</time>
      </trkpt>
      <trkpt lat="43.94911" lon="6.81039">
        <ele>490.079876</ele>
        <time>2021-09-19T06:40:31.000Z</time>
      </trkpt>
      <trkpt lat="43.94907" lon="6.81064">
        <ele>490.0919</ele>
        <time>2021-09-19T06:40:35.000Z</time>
      </trkpt>
      <trkpt lat="43.94906" lon="6.81071">
        <ele>490.094928</ele>
        <time>2021-09-19T06:40:36.000Z</time>
      </trkpt>
      <trkpt lat="43.94905" lon="6.81095">
        <ele>490.106204</ele>
        <time>2021-09-19T06:40:40.000Z</time>
      </trkpt>
      <trkpt lat="43.94905" lon="6.81107">
        <ele>490.111858</ele>
        <time>2021-09-19T06:40:42.000Z</time>
      </trkpt>
      <trkpt lat="43.94905" lon="6.8113">
        <ele>490.122282</ele>
        <time>2021-09-19T06:40:45.000Z</time>
      </trkpt>
      <trkpt lat="43.94905" lon="6.81183">
        <ele>489.988228</ele>
        <time>2021-09-19T06:40:51.000Z</time>
      </trkpt>
      <trkpt lat="43.94906" lon="6.81193">
        <ele>489.854729</ele>
        <time>2021-09-19T06:40:52.000Z</time>
      </trkpt>
      <trkpt lat="43.94913" lon="6.81235">
        <ele>489.276787</ele>
        <time>2021-09-19T06:40:56.000Z</time>
      </trkpt>
      <trkpt lat="43.94935" lon="6.81298">
        <ele>488.329014</ele>
        <time>2021-09-19T06:41:02.000Z</time>
      </trkpt>
      <trkpt lat="43.94956" lon="6.81354">
        <ele>487.484221</ele>
        <time>2021-09-19T06:41:07.000Z</time>
      </trkpt>
      <trkpt lat="43.9498" lon="6.81421">
        <ele>486.463754</ele>
        <time>2021-09-19T06:41:13.000Z</time>
      </trkpt>
      <trkpt lat="43.94984" lon="6.81432">
        <ele>486.303758</ele>
        <time>2021-09-19T06:41:14.000Z</time>
      </trkpt>
      <trkpt lat="43.95009" lon="6.81501">
        <ele>485.256434</ele>
        <time>2021-09-19T06:41:21.000Z</time>
      </trkpt>
      <trkpt lat="43.95012" lon="6.81511">
        <ele>485.110664</ele>
        <time>2021-09-19T06:41:22.000Z</time>
      </trkpt>
      <trkpt lat="43.95036" lon="6.81579">
        <ele>484.095979</ele>
        <time>2021-09-19T06:41:29.000Z</time>
      </trkpt>
      <trkpt lat="43.95056" lon="6.81658">
        <ele>482.997696</ele>
        <time>2021-09-19T06:41:37.000Z</time>
      </trkpt>
      <trkpt lat="43.95069" lon="6.81739">
        <ele>481.972644</ele>
        <time>2021-09-19T06:41:45.000Z</time>
      </trkpt>
      <trkpt lat="43.95078" lon="6.8181">
        <ele>481.074483</ele>
        <time>2021-09-19T06:41:52.000Z</time>
      </trkpt>
      <trkpt lat="43.95086" lon="6.81884">
        <ele>480.160289</ele>
        <time>2021-09-19T06:41:59.000Z</time>
      </trkpt>
      <trkpt lat="43.95094" lon="6.81947">
        <ele>479.39111</ele>
        <time>2021-09-19T06:42:05.000Z</time>
      </trkpt>
      <trkpt lat="43.95102" lon="6.82022">
        <ele>478.469768</ele>
        <time>2021-09-19T06:42:12.000Z</time>
      </trkpt>
      <trkpt lat="43.95106" lon="6.82055">
        <ele>478.074983</ele>
        <time>2021-09-19T06:42:15.000Z</time>
      </trkpt>
      <trkpt lat="43.95114" lon="6.8213">
        <ele>477.176664</ele>
        <time>2021-09-19T06:42:22.000Z</time>
      </trkpt>
      <trkpt lat="43.95115" lon="6.82141">
        <ele>477.058907</ele>
        <time>2021-09-19T06:42:23.000Z</time>
      </trkpt>
      <trkpt lat="43.95124" lon="6.82215">
        <ele>476.25426</ele>
        <time>2021-09-19T06:42:30.000Z</time>
      </trkpt>
      <trkpt lat="43.95127" lon="6.82236">
        <ele>476.028452</ele>
        <time>2021-09-19T06:42:32.000Z</time>
      </trkpt>
      <trkpt lat="43.95136" lon="6.82311">
        <ele>475.216444</ele>
        <time>2021-09-19T06:42:39.000Z</time>
      </trkpt>
      <trkpt lat="43.95144" lon="6.82387">
        <ele>474.37947</ele>
        <time>2021-09-19T06:42:46.000Z</time>
      </trkpt>
      <trkpt lat="43.95152" lon="6.82461">
        <ele>473.516245</ele>
        <time>2021-09-19T06:42:53.000Z</time>
      </trkpt>
      <trkpt lat="43.95146" lon="6.825">
        <ele>473.054416</ele>
        <time>2021-09-19T06:42:57.000Z</time>
      </trkpt>
      <trkpt lat="43.95151" lon="6.82539">
        <ele>472.603302</ele>
        <time>2021-09-19T06:43:01.000Z</time>
      </trkpt>
      <trkpt lat="43.95153" lon="6.82548">
        <ele>472.490098</ele>
        <time>2021-09-19T06:43:02.000Z</time>
      </trkpt>
      <trkpt lat="43.95167" lon="6.8262">
        <ele>471.591183</ele>
        <time>2021-09-19T06:43:09.000Z</time>
      </trkpt>
      <trkpt lat="43.95175" lon="6.82685">
        <ele>470.555396</ele>
        <time>2021-09-19T06:43:15.000Z</time>
      </trkpt>
      <trkpt lat="43.95178" lon="6.8274">
        <ele>469.678743</ele>
        <time>2021-09-19T06:43:20.000Z</time>
      </trkpt>
      <trkpt lat="43.9518" lon="6.82806">
        <ele>468.636499</ele>
        <time>2021-09-19T06:43:26.000Z</time>
      </trkpt>
      <trkpt lat="43.95182" lon="6.82873">
        <ele>467.485829</ele>
        <time>2021-09-19T06:43:32.000Z</time>
      </trkpt>
      <trkpt lat="43.95184" lon="6.82948">
        <ele>465.800923</ele>
        <time>2021-09-19T06:43:39.000Z</time>
      </trkpt>
      <trkpt lat="43.95184" lon="6.82969">
        <ele>465.330355</ele>
        <time>2021-09-19T06:43:41.000Z</time>
      </trkpt>
      <trkpt lat="43.95185" lon="6.82989">
        <ele>464.895581</ele>
        <time>2021-09-19T06:43:43.000Z</time>
      </trkpt>
      <trkpt lat="43.95185" lon="6.82999">
        <ele>464.673829</ele>
        <time>2021-09-19T06:43:44.000Z</time>
      </trkpt>
      <trkpt lat="43.95186" lon="6.83039">
        <ele>463.761777</ele>
        <time>2021-09-19T06:43:48.000Z</time>
      </trkpt>
      <trkpt lat="43.95188" lon="6.83114">
        <ele>462.10801</ele>
        <time>2021-09-19T06:43:55.000Z</time>
      </trkpt>
      <trkpt lat="43.9519" lon="6.83166">
        <ele>461.033411</ele>
        <time>2021-09-19T06:44:00.000Z</time>
      </trkpt>
      <trkpt lat="43.95191" lon="6.83207">
        <ele>460.175488</ele>
        <time>2021-09-19T06:44:04.000Z</time>
      </trkpt>
      <trkpt lat="43.95191" lon="6.83218">
        <ele>459.96098</ele>
        <time>2021-09-19T06:44:05.000Z</time>
      </trkpt>
      <trkpt lat="43.95193" lon="6.83281">
        <ele>458.65334</ele>
        <time>2021-09-19T06:44:11.000Z</time>
      </trkpt>
      <trkpt lat="43.95195" lon="6.83342">
        <ele>457.395236</ele>
        <time>2021-09-19T06:44:17.000Z</time>
      </trkpt>
      <trkpt lat="43.95196" lon="6.83395">
        <ele>456.513985</ele>
        <time>2021-09-19T06:44:22.000Z</time>
      </trkpt>
      <trkpt lat="43.95199" lon="6.83469">
        <ele>455.38931</ele>
        <time>2021-09-19T06:44:29.000Z</time>
      </trkpt>
      <trkpt lat="43.95201" lon="6.83522">
        <ele>454.587624</ele>
        <time>2021-09-19T06:44:34.000Z</time>
      </trkpt>
      <trkpt lat="43.95203" lon="6.83573">
        <ele>453.807136</ele>
        <time>2021-09-19T06:44:39.000Z</time>
      </trkpt>
      <trkpt lat="43.95204" lon="6.83604">
        <ele>453.338044</ele>
        <time>2021-09-19T06:44:42.000Z</time>
      </trkpt>
      <trkpt lat="43.95204" lon="6.83614">
        <ele>453.148523</ele>
        <time>2021-09-19T06:44:43.000Z</time>
      </trkpt>
      <trkpt lat="43.95206" lon="6.83656">
        <ele>452.311788</ele>
        <time>2021-09-19T06:44:47.000Z</time>
      </trkpt>
      <trkpt lat="43.95206" lon="6.83667">
        <ele>452.097578</ele>
        <time>2021-09-19T06:44:48.000Z</time>
      </trkpt>
      <trkpt lat="43.95207" lon="6.83686">
        <ele>451.701244</ele>
        <time>2021-09-19T06:44:50.000Z</time>
      </trkpt>
      <trkpt lat="43.95208" lon="6.83728">
        <ele>450.870356</ele>
        <time>2021-09-19T06:44:54.000Z</time>
      </trkpt>
      <trkpt lat="43.95209" lon="6.83737">
        <ele>450.678245</ele>
        <time>2021-09-19T06:44:55.000Z</time>
      </trkpt>
      <trkpt lat="43.95211" lon="6.83787">
        <ele>449.679213</ele>
        <time>2021-09-19T06:45:00.000Z</time>
      </trkpt>
      <trkpt lat="43.95212" lon="6.83827">
        <ele>448.876422</ele>
        <time>2021-09-19T06:45:04.000Z</time>
      </trkpt>
      <trkpt lat="43.95212" lon="6.83838">
        <ele>448.674324</ele>
        <time>2021-09-19T06:45:05.000Z</time>
      </trkpt>
      <trkpt lat="43.95213" lon="6.83867">
        <ele>448.055914</ele>
        <time>2021-09-19T06:45:08.000Z</time>
      </trkpt>
      <trkpt lat="43.95213" lon="6.83876">
        <ele>447.823979</ele>
        <time>2021-09-19T06:45:09.000Z</time>
      </trkpt>
      <trkpt lat="43.95214" lon="6.83886">
        <ele>447.592161</ele>
        <time>2021-09-19T06:45:10.000Z</time>
      </trkpt>
      <trkpt lat="43.95214" lon="6.83907">
        <ele>447.109515</ele>
        <time>2021-09-19T06:45:12.000Z</time>
      </trkpt>
      <trkpt lat="43.95215" lon="6.83931">
        <ele>446.529867</ele>
        <time>2021-09-19T06:45:15.000Z</time>
      </trkpt>
      <trkpt lat="43.95215" lon="6.83961">
        <ele>445.822496</ele>
        <time>2021-09-19T06:45:18.000Z</time>
      </trkpt>
      <trkpt lat="43.95216" lon="6.83974">
        <ele>445.51955</ele>
        <time>2021-09-19T06:45:19.000Z</time>
      </trkpt>
      <trkpt lat="43.9522" lon="6.84029">
        <ele>444.208053</ele>
        <time>2021-09-19T06:45:24.000Z</time>
      </trkpt>
      <trkpt lat="43.9522" lon="6.8404">
        <ele>443.95165</ele>
        <time>2021-09-19T06:45:25.000Z</time>
      </trkpt>
      <trkpt lat="43.95222" lon="6.8406">
        <ele>443.459717</ele>
        <time>2021-09-19T06:45:27.000Z</time>
      </trkpt>
      <trkpt lat="43.95225" lon="6.84104">
        <ele>442.418047</ele>
        <time>2021-09-19T06:45:31.000Z</time>
      </trkpt>
      <trkpt lat="43.95227" lon="6.84125">
        <ele>442.277928</ele>
        <time>2021-09-19T06:45:33.000Z</time>
      </trkpt>
      <trkpt lat="43.95233" lon="6.84176">
        <ele>441.974962</ele>
        <time>2021-09-19T06:45:38.000Z</time>
      </trkpt>
      <trkpt lat="43.95239" lon="6.84225">
        <ele>441.681568</ele>
        <time>2021-09-19T06:45:43.000Z</time>
      </trkpt>
      <trkpt lat="43.95246" lon="6.84274">
        <ele>441.38793</ele>
        <time>2021-09-19T06:45:48.000Z</time>
      </trkpt>
      <trkpt lat="43.95248" lon="6.84284">
        <ele>441.328562</ele>
        <time>2021-09-19T06:45:49.000Z</time>
      </trkpt>
      <trkpt lat="43.95252" lon="6.84313">
        <ele>441.156534</ele>
        <time>2021-09-19T06:45:52.000Z</time>
      </trkpt>
      <trkpt lat="43.95255" lon="6.84334">
        <ele>441.033199</ele>
        <time>2021-09-19T06:45:54.000Z</time>
      </trkpt>
      <trkpt lat="43.95266" lon="6.84393">
        <ele>440.873416</ele>
        <time>2021-09-19T06:46:00.000Z</time>
      </trkpt>
      <trkpt lat="43.95275" lon="6.84442">
        <ele>440.809827</ele>
        <time>2021-09-19T06:46:05.000Z</time>
      </trkpt>
      <trkpt lat="43.95277" lon="6.84451">
        <ele>440.797208</ele>
        <time>2021-09-19T06:46:06.000Z</time>
      </trkpt>
      <trkpt lat="43.95286" lon="6.845">
        <ele>440.733193</ele>
        <time>2021-09-19T06:46:11.000Z</time>
      </trkpt>
      <trkpt lat="43.95301" lon="6.84567">
        <ele>440.644908</ele>
        <time>2021-09-19T06:46:18.000Z</time>
      </trkpt>
      <trkpt lat="43.95314" lon="6.84631">
        <ele>440.580794</ele>
        <time>2021-09-19T06:46:25.000Z</time>
      </trkpt>
      <trkpt lat="43.95327" lon="6.84687">
        <ele>440.536803</ele>
        <time>2021-09-19T06:46:31.000Z</time>
      </trkpt>
      <trkpt lat="43.95343" lon="6.84765">
        <ele>440.475961</ele>
        <time>2021-09-19T06:46:39.000Z</time>
      </trkpt>
      <trkpt lat="43.95347" lon="6.84784">
        <ele>440.461383</ele>
        <time>2021-09-19T06:46:41.000Z</time>
      </trkpt>
      <trkpt lat="43.95351" lon="6.84802">
        <ele>440.447152</ele>
        <time>2021-09-19T06:46:43.000Z</time>
      </trkpt>
      <trkpt lat="43.95355" lon="6.8482">
        <ele>440.43285</ele>
        <time>2021-09-19T06:46:45.000Z</time>
      </trkpt>
      <trkpt lat="43.95366" lon="6.84869">
        <ele>440.186303</ele>
        <time>2021-09-19T06:46:50.000Z</time>
      </trkpt>
      <trkpt lat="43.95376" lon="6.84918">
        <ele>439.887589</ele>
        <time>2021-09-19T06:46:55.000Z</time>
      </trkpt>
      <trkpt lat="43.95389" lon="6.84986">
        <ele>439.467613</ele>
        <time>2021-09-19T06:47:02.000Z</time>
      </trkpt>
      <trkpt lat="43.95404" lon="6.85065">
        <ele>438.981541</ele>
        <time>2021-09-19T06:47:10.000Z</time>
      </trkpt>
      <trkpt lat="43.9541" lon="6.85112">
        <ele>438.471779</ele>
        <time>2021-09-19T06:47:15.000Z</time>
      </trkpt>
      <trkpt lat="43.95412" lon="6.85121">
        <ele>438.362212</ele>
        <time>2021-09-19T06:47:16.000Z</time>
      </trkpt>
      <trkpt lat="43.95414" lon="6.8514">
        <ele>438.140314</ele>
        <time>2021-09-19T06:47:18.000Z</time>
      </trkpt>
      <trkpt lat="43.95416" lon="6.8515">
        <ele>438.023965</ele>
        <time>2021-09-19T06:47:19.000Z</time>
      </trkpt>
      <trkpt lat="43.9542" lon="6.85189">
        <ele>437.567084</ele>
        <time>2021-09-19T06:47:23.000Z</time>
      </trkpt>
      <trkpt lat="43.95422" lon="6.85208">
        <ele>437.346087</ele>
        <time>2021-09-19T06:47:25.000Z</time>
      </trkpt>
      <trkpt lat="43.95424" lon="6.85227">
        <ele>437.127582</ele>
        <time>2021-09-19T06:47:27.000Z</time>
      </trkpt>
      <trkpt lat="43.95425" lon="6.85236">
        <ele>437.020513</ele>
        <time>2021-09-19T06:47:28.000Z</time>
      </trkpt>
      <trkpt lat="43.95427" lon="6.85262">
        <ele>436.714795</ele>
        <time>2021-09-19T06:47:31.000Z</time>
      </trkpt>
      <trkpt lat="43.95428" lon="6.85276">
        <ele>436.552208</ele>
        <time>2021-09-19T06:47:33.000Z</time>
      </trkpt>
      <trkpt lat="43.95431" lon="6.85312">
        <ele>436.135788</ele>
        <time>2021-09-19T06:47:36.000Z</time>
      </trkpt>
      <trkpt lat="43.95433" lon="6.8536">
        <ele>435.723014</ele>
        <time>2021-09-19T06:47:41.000Z</time>
      </trkpt>
      <trkpt lat="43.95434" lon="6.8537">
        <ele>435.637507</ele>
        <time>2021-09-19T06:47:43.000Z</time>
      </trkpt>
      <trkpt lat="43.95406" lon="6.85382">
        <ele>435.30649</ele>
        <time>2021-09-19T06:47:44.000Z</time>
      </trkpt>
      <trkpt lat="43.95407" lon="6.85403">
        <ele>435.130401</ele>
        <time>2021-09-19T06:47:46.000Z</time>
      </trkpt>
      <trkpt lat="43.95407" lon="6.85413">
        <ele>435.050818</ele>
        <time>2021-09-19T06:47:47.000Z</time>
      </trkpt>
      <trkpt lat="43.95407" lon="6.85432">
        <ele>434.897258</ele>
        <time>2021-09-19T06:47:49.000Z</time>
      </trkpt>
      <trkpt lat="43.95409" lon="6.85443">
        <ele>434.798338</ele>
        <time>2021-09-19T06:47:50.000Z</time>
      </trkpt>
      <trkpt lat="43.95416" lon="6.85464">
        <ele>434.607746</ele>
        <time>2021-09-19T06:47:52.000Z</time>
      </trkpt>
      <trkpt lat="43.9542" lon="6.85488">
        <ele>434.409843</ele>
        <time>2021-09-19T06:47:54.000Z</time>
      </trkpt>
      <trkpt lat="43.95423" lon="6.85506">
        <ele>434.253813</ele>
        <time>2021-09-19T06:47:56.000Z</time>
      </trkpt>
      <trkpt lat="43.95435" lon="6.85518">
        <ele>434.08581</ele>
        <time>2021-09-19T06:47:58.000Z</time>
      </trkpt>
      <trkpt lat="43.95433" lon="6.85578">
        <ele>434.692877</ele>
        <time>2021-09-19T06:48:04.000Z</time>
      </trkpt>
      <trkpt lat="43.95432" lon="6.85604">
        <ele>435.057711</ele>
        <time>2021-09-19T06:48:07.000Z</time>
      </trkpt>
      <trkpt lat="43.95431" lon="6.85641">
        <ele>435.557954</ele>
        <time>2021-09-19T06:48:11.000Z</time>
      </trkpt>
      <trkpt lat="43.95427" lon="6.85697">
        <ele>436.32499</ele>
        <time>2021-09-19T06:48:17.000Z</time>
      </trkpt>
      <trkpt lat="43.95425" lon="6.85735">
        <ele>436.849766</ele>
        <time>2021-09-19T06:48:21.000Z</time>
      </trkpt>
      <trkpt lat="43.95423" lon="6.85755">
        <ele>437.119715</ele>
        <time>2021-09-19T06:48:23.000Z</time>
      </trkpt>
      <trkpt lat="43.95422" lon="6.85774">
        <ele>437.377436</ele>
        <time>2021-09-19T06:48:25.000Z</time>
      </trkpt>
      <trkpt lat="43.95419" lon="6.8582">
        <ele>438.746297</ele>
        <time>2021-09-19T06:48:30.000Z</time>
      </trkpt>
      <trkpt lat="43.95415" lon="6.8587">
        <ele>440.28612</ele>
        <time>2021-09-19T06:48:35.000Z</time>
      </trkpt>
      <trkpt lat="43.95414" lon="6.8589">
        <ele>440.900043</ele>
        <time>2021-09-19T06:48:37.000Z</time>
      </trkpt>
      <trkpt lat="43.95413" lon="6.85909">
        <ele>441.467977</ele>
        <time>2021-09-19T06:48:39.000Z</time>
      </trkpt>
      <trkpt lat="43.95409" lon="6.85959">
        <ele>443.005605</ele>
        <time>2021-09-19T06:48:44.000Z</time>
      </trkpt>
      <trkpt lat="43.95405" lon="6.86017">
        <ele>444.788804</ele>
        <time>2021-09-19T06:48:50.000Z</time>
      </trkpt>
      <trkpt lat="43.95404" lon="6.86027">
        <ele>445.112338</ele>
        <time>2021-09-19T06:48:51.000Z</time>
      </trkpt>
      <trkpt lat="43.95402" lon="6.86046">
        <ele>445.66799</ele>
        <time>2021-09-19T06:48:53.000Z</time>
      </trkpt>
      <trkpt lat="43.95398" lon="6.86107">
        <ele>447.493702</ele>
        <time>2021-09-19T06:48:59.000Z</time>
      </trkpt>
      <trkpt lat="43.95394" lon="6.86165">
        <ele>449.244281</ele>
        <time>2021-09-19T06:49:05.000Z</time>
      </trkpt>
      <trkpt lat="43.9539" lon="6.86212">
        <ele>450.648523</ele>
        <time>2021-09-19T06:49:10.000Z</time>
      </trkpt>
      <trkpt lat="43.95389" lon="6.8623">
        <ele>451.197813</ele>
        <time>2021-09-19T06:49:12.000Z</time>
      </trkpt>
      <trkpt lat="43.95385" lon="6.86296">
        <ele>453.493558</ele>
        <time>2021-09-19T06:49:19.000Z</time>
      </trkpt>
      <trkpt lat="43.95381" lon="6.86342">
        <ele>455.579964</ele>
        <time>2021-09-19T06:49:24.000Z</time>
      </trkpt>
      <trkpt lat="43.95377" lon="6.86406">
        <ele>458.490305</ele>
        <time>2021-09-19T06:49:31.000Z</time>
      </trkpt>
      <trkpt lat="43.95376" lon="6.86423">
        <ele>459.260888</ele>
        <time>2021-09-19T06:49:33.000Z</time>
      </trkpt>
      <trkpt lat="43.95375" lon="6.8644">
        <ele>460.031471</ele>
        <time>2021-09-19T06:49:35.000Z</time>
      </trkpt>
      <trkpt lat="43.95374" lon="6.86448">
        <ele>460.398499</ele>
        <time>2021-09-19T06:49:36.000Z</time>
      </trkpt>
      <trkpt lat="43.95371" lon="6.8651">
        <ele>463.203205</ele>
        <time>2021-09-19T06:49:43.000Z</time>
      </trkpt>
      <trkpt lat="43.95366" lon="6.86579">
        <ele>464.610357</ele>
        <time>2021-09-19T06:49:49.000Z</time>
      </trkpt>
      <trkpt lat="43.95363" lon="6.86633">
        <ele>465.411142</ele>
        <time>2021-09-19T06:49:54.000Z</time>
      </trkpt>
      <trkpt lat="43.95359" lon="6.86699">
        <ele>466.368743</ele>
        <time>2021-09-19T06:50:00.000Z</time>
      </trkpt>
      <trkpt lat="43.95356" lon="6.86739">
        <ele>466.965782</ele>
        <time>2021-09-19T06:50:04.000Z</time>
      </trkpt>
      <trkpt lat="43.95356" lon="6.86749">
        <ele>467.110951</ele>
        <time>2021-09-19T06:50:05.000Z</time>
      </trkpt>
      <trkpt lat="43.95353" lon="6.86789">
        <ele>467.137194</ele>
        <time>2021-09-19T06:50:09.000Z</time>
      </trkpt>
      <trkpt lat="43.95352" lon="6.86808">
        <ele>466.800727</ele>
        <time>2021-09-19T06:50:11.000Z</time>
      </trkpt>
      <trkpt lat="43.95348" lon="6.86868">
        <ele>465.763574</ele>
        <time>2021-09-19T06:50:17.000Z</time>
      </trkpt>
      <trkpt lat="43.95343" lon="6.86917">
        <ele>464.912147</ele>
        <time>2021-09-19T06:50:22.000Z</time>
      </trkpt>
      <trkpt lat="43.95326" lon="6.86973">
        <ele>463.8565</ele>
        <time>2021-09-19T06:50:28.000Z</time>
      </trkpt>
      <trkpt lat="43.95309" lon="6.87025">
        <ele>462.57481</ele>
        <time>2021-09-19T06:50:34.000Z</time>
      </trkpt>
      <trkpt lat="43.95295" lon="6.87065">
        <ele>460.937697</ele>
        <time>2021-09-19T06:50:39.000Z</time>
      </trkpt>
      <trkpt lat="43.95292" lon="6.87073">
        <ele>460.61761</ele>
        <time>2021-09-19T06:50:40.000Z</time>
      </trkpt>
      <trkpt lat="43.95285" lon="6.87096">
        <ele>459.673057</ele>
        <time>2021-09-19T06:50:43.000Z</time>
      </trkpt>
      <trkpt lat="43.95281" lon="6.87111">
        <ele>459.076201</ele>
        <time>2021-09-19T06:50:45.000Z</time>
      </trkpt>
      <trkpt lat="43.95279" lon="6.87121">
        <ele>458.71014</ele>
        <time>2021-09-19T06:50:46.000Z</time>
      </trkpt>
      <trkpt lat="43.95275" lon="6.8716">
        <ele>457.236965</ele>
        <time>2021-09-19T06:50:50.000Z</time>
      </trkpt>
      <trkpt lat="43.95276" lon="6.8717">
        <ele>456.888369</ele>
        <time>2021-09-19T06:50:51.000Z</time>
      </trkpt>
      <trkpt lat="43.95277" lon="6.87199">
        <ele>455.795304</ele>
        <time>2021-09-19T06:50:54.000Z</time>
      </trkpt>
      <trkpt lat="43.95278" lon="6.8721">
        <ele>455.386686</ele>
        <time>2021-09-19T06:50:55.000Z</time>
      </trkpt>
      <trkpt lat="43.9528" lon="6.8722">
        <ele>455.006289</ele>
        <time>2021-09-19T06:50:56.000Z</time>
      </trkpt>
      <trkpt lat="43.95282" lon="6.87242">
        <ele>454.20457</ele>
        <time>2021-09-19T06:50:58.000Z</time>
      </trkpt>
      <trkpt lat="43.95284" lon="6.87291">
        <ele>452.649182</ele>
        <time>2021-09-19T06:51:03.000Z</time>
      </trkpt>
      <trkpt lat="43.95282" lon="6.87301">
        <ele>452.346423</ele>
        <time>2021-09-19T06:51:04.000Z</time>
      </trkpt>
      <trkpt lat="43.95276" lon="6.87319">
        <ele>451.730225</ele>
        <time>2021-09-19T06:51:06.000Z</time>
      </trkpt>
      <trkpt lat="43.95273" lon="6.87328">
        <ele>451.434062</ele>
        <time>2021-09-19T06:51:07.000Z</time>
      </trkpt>
      <trkpt lat="43.95253" lon="6.87378">
        <ele>449.718229</ele>
        <time>2021-09-19T06:51:13.000Z</time>
      </trkpt>
      <trkpt lat="43.95227" lon="6.87427">
        <ele>447.886593</ele>
        <time>2021-09-19T06:51:20.000Z</time>
      </trkpt>
      <trkpt lat="43.95216" lon="6.87446">
        <ele>447.141013</ele>
        <time>2021-09-19T06:51:23.000Z</time>
      </trkpt>
      <trkpt lat="43.95209" lon="6.87459">
        <ele>446.633255</ele>
        <time>2021-09-19T06:51:25.000Z</time>
      </trkpt>
      <trkpt lat="43.95205" lon="6.87466">
        <ele>446.383126</ele>
        <time>2021-09-19T06:51:26.000Z</time>
      </trkpt>
      <trkpt lat="43.95197" lon="6.87486">
        <ele>446.037865</ele>
        <time>2021-09-19T06:51:29.000Z</time>
      </trkpt>
      <trkpt lat="43.95194" lon="6.875">
        <ele>445.831818</ele>
        <time>2021-09-19T06:51:31.000Z</time>
      </trkpt>
      <trkpt lat="43.9519" lon="6.87541">
        <ele>445.246563</ele>
        <time>2021-09-19T06:51:37.000Z</time>
      </trkpt>
      <trkpt lat="43.9519" lon="6.87547">
        <ele>445.15638</ele>
        <time>2021-09-19T06:51:38.000Z</time>
      </trkpt>
      <trkpt lat="43.95189" lon="6.87568">
        <ele>444.872984</ele>
        <time>2021-09-19T06:51:41.000Z</time>
      </trkpt>
      <trkpt lat="43.95189" lon="6.87574">
        <ele>444.779988</ele>
        <time>2021-09-19T06:51:42.000Z</time>
      </trkpt>
      <trkpt lat="43.95188" lon="6.87596">
        <ele>444.465755</ele>
        <time>2021-09-19T06:51:45.000Z</time>
      </trkpt>
      <trkpt lat="43.95187" lon="6.87614">
        <ele>444.221081</ele>
        <time>2021-09-19T06:51:47.000Z</time>
      </trkpt>
      <trkpt lat="43.95186" lon="6.87622">
        <ele>444.104588</ele>
        <time>2021-09-19T06:51:48.000Z</time>
      </trkpt>
      <trkpt lat="43.95184" lon="6.87639">
        <ele>443.865476</ele>
        <time>2021-09-19T06:51:50.000Z</time>
      </trkpt>
      <trkpt lat="43.95183" lon="6.87648">
        <ele>443.738954</ele>
        <time>2021-09-19T06:51:51.000Z</time>
      </trkpt>
      <trkpt lat="43.9518" lon="6.87692">
        <ele>443.105071</ele>
        <time>2021-09-19T06:51:56.000Z</time>
      </trkpt>
      <trkpt lat="43.95182" lon="6.87704">
        <ele>442.937459</ele>
        <time>2021-09-19T06:51:57.000Z</time>
      </trkpt>
      <trkpt lat="43.95188" lon="6.87712">
        <ele>442.769665</ele>
        <time>2021-09-19T06:51:58.000Z</time>
      </trkpt>
      <trkpt lat="43.95193" lon="6.87715">
        <ele>442.623056</ele>
        <time>2021-09-19T06:51:59.000Z</time>
      </trkpt>
      <trkpt lat="43.95198" lon="6.87718">
        <ele>442.47961</ele>
        <time>2021-09-19T06:52:00.000Z</time>
      </trkpt>
      <trkpt lat="43.95216" lon="6.87729">
        <ele>441.958871</ele>
        <time>2021-09-19T06:52:03.000Z</time>
      </trkpt>
      <trkpt lat="43.9525" lon="6.87751">
        <ele>440.969108</ele>
        <time>2021-09-19T06:52:09.000Z</time>
      </trkpt>
      <trkpt lat="43.95254" lon="6.87756">
        <ele>440.837577</ele>
        <time>2021-09-19T06:52:10.000Z</time>
      </trkpt>
      <trkpt lat="43.95257" lon="6.87764">
        <ele>440.673193</ele>
        <time>2021-09-19T06:52:11.000Z</time>
      </trkpt>
      <trkpt lat="43.95258" lon="6.87781">
        <ele>440.348296</ele>
        <time>2021-09-19T06:52:13.000Z</time>
      </trkpt>
      <trkpt lat="43.95253" lon="6.87801">
        <ele>439.956045</ele>
        <time>2021-09-19T06:52:15.000Z</time>
      </trkpt>
      <trkpt lat="43.95247" lon="6.87819">
        <ele>439.567233</ele>
        <time>2021-09-19T06:52:17.000Z</time>
      </trkpt>
      <trkpt lat="43.95228" lon="6.87875">
        <ele>438.409298</ele>
        <time>2021-09-19T06:52:23.000Z</time>
      </trkpt>
      <trkpt lat="43.95214" lon="6.87921">
        <ele>437.431549</ele>
        <time>2021-09-19T06:52:28.000Z</time>
      </trkpt>
      <trkpt lat="43.95203" lon="6.87964">
        <ele>436.526368</ele>
        <time>2021-09-19T06:52:32.000Z</time>
      </trkpt>
      <trkpt lat="43.95194" lon="6.88031">
        <ele>435.187437</ele>
        <time>2021-09-19T06:52:38.000Z</time>
      </trkpt>
      <trkpt lat="43.95193" lon="6.88106">
        <ele>433.698311</ele>
        <time>2021-09-19T06:52:45.000Z</time>
      </trkpt>
      <trkpt lat="43.95195" lon="6.88117">
        <ele>433.484741</ele>
        <time>2021-09-19T06:52:46.000Z</time>
      </trkpt>
      <trkpt lat="43.95201" lon="6.88136">
        <ele>433.077046</ele>
        <time>2021-09-19T06:52:48.000Z</time>
      </trkpt>
      <trkpt lat="43.95205" lon="6.88145">
        <ele>432.882302</ele>
        <time>2021-09-19T06:52:49.000Z</time>
      </trkpt>
      <trkpt lat="43.95212" lon="6.88163">
        <ele>432.496109</ele>
        <time>2021-09-19T06:52:51.000Z</time>
      </trkpt>
      <trkpt lat="43.95217" lon="6.88181">
        <ele>432.112125</ele>
        <time>2021-09-19T06:52:53.000Z</time>
      </trkpt>
      <trkpt lat="43.95219" lon="6.88232">
        <ele>431.151476</ele>
        <time>2021-09-19T06:52:58.000Z</time>
      </trkpt>
      <trkpt lat="43.95222" lon="6.88261">
        <ele>430.592073</ele>
        <time>2021-09-19T06:53:01.000Z</time>
      </trkpt>
      <trkpt lat="43.95226" lon="6.88281">
        <ele>430.208834</ele>
        <time>2021-09-19T06:53:03.000Z</time>
      </trkpt>
      <trkpt lat="43.95228" lon="6.88291">
        <ele>430.015682</ele>
        <time>2021-09-19T06:53:04.000Z</time>
      </trkpt>
      <trkpt lat="43.95235" lon="6.88321">
        <ele>429.396922</ele>
        <time>2021-09-19T06:53:07.000Z</time>
      </trkpt>
      <trkpt lat="43.95249" lon="6.88361">
        <ele>428.563681</ele>
        <time>2021-09-19T06:53:11.000Z</time>
      </trkpt>
      <trkpt lat="43.95273" lon="6.88431">
        <ele>427.158416</ele>
        <time>2021-09-19T06:53:18.000Z</time>
      </trkpt>
      <trkpt lat="43.95279" lon="6.88451">
        <ele>426.77167</ele>
        <time>2021-09-19T06:53:20.000Z</time>
      </trkpt>
      <trkpt lat="43.95303" lon="6.88516">
        <ele>425.458266</ele>
        <time>2021-09-19T06:53:27.000Z</time>
      </trkpt>
      <trkpt lat="43.95323" lon="6.88571">
        <ele>424.352033</ele>
        <time>2021-09-19T06:53:33.000Z</time>
      </trkpt>
      <trkpt lat="43.95339" lon="6.88616">
        <ele>423.263535</ele>
        <time>2021-09-19T06:53:38.000Z</time>
      </trkpt>
      <trkpt lat="43.95349" lon="6.88643">
        <ele>422.519769</ele>
        <time>2021-09-19T06:53:41.000Z</time>
      </trkpt>
      <trkpt lat="43.95354" lon="6.88662">
        <ele>422.035459</ele>
        <time>2021-09-19T06:53:43.000Z</time>
      </trkpt>
      <trkpt lat="43.95366" lon="6.88709">
        <ele>420.799483</ele>
        <time>2021-09-19T06:53:48.000Z</time>
      </trkpt>
      <trkpt lat="43.95374" lon="6.88746">
        <ele>419.847215</ele>
        <time>2021-09-19T06:53:52.000Z</time>
      </trkpt>
      <trkpt lat="43.95385" lon="6.88805">
        <ele>418.365953</ele>
        <time>2021-09-19T06:53:58.000Z</time>
      </trkpt>
      <trkpt lat="43.95391" lon="6.88834">
        <ele>417.677423</ele>
        <time>2021-09-19T06:54:01.000Z</time>
      </trkpt>
      <trkpt lat="43.95395" lon="6.88853">
        <ele>417.347586</ele>
        <time>2021-09-19T06:54:03.000Z</time>
      </trkpt>
      <trkpt lat="43.954" lon="6.8887">
        <ele>417.034587</ele>
        <time>2021-09-19T06:54:05.000Z</time>
      </trkpt>
      <trkpt lat="43.95405" lon="6.88888">
        <ele>416.707527</ele>
        <time>2021-09-19T06:54:07.000Z</time>
      </trkpt>
      <trkpt lat="43.95419" lon="6.88932">
        <ele>415.906565</ele>
        <time>2021-09-19T06:54:12.000Z</time>
      </trkpt>
      <trkpt lat="43.95425" lon="6.88949">
        <ele>415.581225</ele>
        <time>2021-09-19T06:54:14.000Z</time>
      </trkpt>
      <trkpt lat="43.95436" lon="6.88974">
        <ele>415.086368</ele>
        <time>2021-09-19T06:54:17.000Z</time>
      </trkpt>
      <trkpt lat="43.95459" lon="6.89034">
        <ele>413.952409</ele>
        <time>2021-09-19T06:54:24.000Z</time>
      </trkpt>
      <trkpt lat="43.95461" lon="6.89042">
        <ele>413.811188</ele>
        <time>2021-09-19T06:54:25.000Z</time>
      </trkpt>
      <trkpt lat="43.95465" lon="6.89068">
        <ele>413.520028</ele>
        <time>2021-09-19T06:54:28.000Z</time>
      </trkpt>
      <trkpt lat="43.95476" lon="6.8912">
        <ele>413.16932</ele>
        <time>2021-09-19T06:54:34.000Z</time>
      </trkpt>
      <trkpt lat="43.95478" lon="6.89159">
        <ele>412.924081</ele>
        <time>2021-09-19T06:54:38.000Z</time>
      </trkpt>
      <trkpt lat="43.95478" lon="6.89178">
        <ele>412.800812</ele>
        <time>2021-09-19T06:54:40.000Z</time>
      </trkpt>
      <trkpt lat="43.95477" lon="6.89205">
        <ele>412.629497</ele>
        <time>2021-09-19T06:54:43.000Z</time>
      </trkpt>
      <trkpt lat="43.95477" lon="6.89222">
        <ele>412.518278</ele>
        <time>2021-09-19T06:54:45.000Z</time>
      </trkpt>
      <trkpt lat="43.95477" lon="6.89277">
        <ele>412.166345</ele>
        <time>2021-09-19T06:54:51.000Z</time>
      </trkpt>
      <trkpt lat="43.95477" lon="6.89296">
        <ele>412.046911</ele>
        <time>2021-09-19T06:54:53.000Z</time>
      </trkpt>
      <trkpt lat="43.95477" lon="6.89324">
        <ele>411.918322</ele>
        <time>2021-09-19T06:54:56.000Z</time>
      </trkpt>
      <trkpt lat="43.95477" lon="6.89344">
        <ele>411.837155</ele>
        <time>2021-09-19T06:54:58.000Z</time>
      </trkpt>
      <trkpt lat="43.95478" lon="6.89364">
        <ele>411.755772</ele>
        <time>2021-09-19T06:55:00.000Z</time>
      </trkpt>
      <trkpt lat="43.95482" lon="6.89393">
        <ele>411.635237</ele>
        <time>2021-09-19T06:55:03.000Z</time>
      </trkpt>
      <trkpt lat="43.95485" lon="6.89411">
        <ele>411.557167</ele>
        <time>2021-09-19T06:55:05.000Z</time>
      </trkpt>
      <trkpt lat="43.95493" lon="6.89454">
        <ele>411.376596</ele>
        <time>2021-09-19T06:55:10.000Z</time>
      </trkpt>
      <trkpt lat="43.95495" lon="6.89462">
        <ele>411.344465</ele>
        <time>2021-09-19T06:55:11.000Z</time>
      </trkpt>
      <trkpt lat="43.955" lon="6.8949">
        <ele>411.223761</ele>
        <time>2021-09-19T06:55:14.000Z</time>
      </trkpt>
      <trkpt lat="43.9551" lon="6.89564">
        <ele>410.917226</ele>
        <time>2021-09-19T06:55:21.000Z</time>
      </trkpt>
      <trkpt lat="43.95519" lon="6.89636">
        <ele>410.62699</ele>
        <time>2021-09-19T06:55:28.000Z</time>
      </trkpt>
      <trkpt lat="43.95517" lon="6.89684">
        <ele>410.435236</ele>
        <time>2021-09-19T06:55:33.000Z</time>
      </trkpt>
      <trkpt lat="43.95513" lon="6.89724">
        <ele>410.278398</ele>
        <time>2021-09-19T06:55:37.000Z</time>
      </trkpt>
      <trkpt lat="43.95508" lon="6.89783">
        <ele>410.041565</ele>
        <time>2021-09-19T06:55:43.000Z</time>
      </trkpt>
      <trkpt lat="43.95503" lon="6.89834">
        <ele>409.998399</ele>
        <time>2021-09-19T06:55:48.000Z</time>
      </trkpt>
      <trkpt lat="43.95497" lon="6.89884">
        <ele>410.000668</ele>
        <time>2021-09-19T06:55:53.000Z</time>
      </trkpt>
      <trkpt lat="43.9549" lon="6.89913">
        <ele>410.002023</ele>
        <time>2021-09-19T06:55:56.000Z</time>
      </trkpt>
      <trkpt lat="43.95484" lon="6.89932">
        <ele>410.002952</ele>
        <time>2021-09-19T06:55:58.000Z</time>
      </trkpt>
      <trkpt lat="43.95481" lon="6.89941">
        <ele>410.003408</ele>
        <time>2021-09-19T06:55:59.000Z</time>
      </trkpt>
      <trkpt lat="43.95467" lon="6.89965">
        <ele>410.004756</ele>
        <time>2021-09-19T06:56:02.000Z</time>
      </trkpt>
      <trkpt lat="43.95444" lon="6.89995">
        <ele>410.006726</ele>
        <time>2021-09-19T06:56:06.000Z</time>
      </trkpt>
      <trkpt lat="43.95407" lon="6.90033">
        <ele>409.886519</ele>
        <time>2021-09-19T06:56:12.000Z</time>
      </trkpt>
      <trkpt lat="43.95383" lon="6.90057">
        <ele>409.769041</ele>
        <time>2021-09-19T06:56:16.000Z</time>
      </trkpt>
      <trkpt lat="43.95356" lon="6.90105">
        <ele>409.59227</ele>
        <time>2021-09-19T06:56:22.000Z</time>
      </trkpt>
      <trkpt lat="43.95325" lon="6.90174">
        <ele>409.356587</ele>
        <time>2021-09-19T06:56:30.000Z</time>
      </trkpt>
      <trkpt lat="43.95299" lon="6.9024">
        <ele>409.097224</ele>
        <time>2021-09-19T06:56:37.000Z</time>
      </trkpt>
      <trkpt lat="43.95292" lon="6.90259">
        <ele>409.016142</ele>
        <time>2021-09-19T06:56:39.000Z</time>
      </trkpt>
      <trkpt lat="43.95267" lon="6.90328">
        <ele>408.733083</ele>
        <time>2021-09-19T06:56:46.000Z</time>
      </trkpt>
      <trkpt lat="43.95261" lon="6.90347">
        <ele>408.653738</ele>
        <time>2021-09-19T06:56:48.000Z</time>
      </trkpt>
      <trkpt lat="43.95239" lon="6.90416">
        <ele>408.375138</ele>
        <time>2021-09-19T06:56:55.000Z</time>
      </trkpt>
      <trkpt lat="43.95228" lon="6.90487">
        <ele>407.895599</ele>
        <time>2021-09-19T06:57:02.000Z</time>
      </trkpt>
      <trkpt lat="43.95227" lon="6.9057">
        <ele>407.3383</ele>
        <time>2021-09-19T06:57:10.000Z</time>
      </trkpt>
      <trkpt lat="43.95239" lon="6.90651">
        <ele>406.77898</ele>
        <time>2021-09-19T06:57:18.000Z</time>
      </trkpt>
      <trkpt lat="43.95256" lon="6.90717">
        <ele>406.084393</ele>
        <time>2021-09-19T06:57:25.000Z</time>
      </trkpt>
      <trkpt lat="43.95285" lon="6.90788">
        <ele>405.204849</ele>
        <time>2021-09-19T06:57:33.000Z</time>
      </trkpt>
      <trkpt lat="43.9532" lon="6.90854">
        <ele>404.315568</ele>
        <time>2021-09-19T06:57:41.000Z</time>
      </trkpt>
      <trkpt lat="43.9535" lon="6.90913">
        <ele>403.558875</ele>
        <time>2021-09-19T06:57:48.000Z</time>
      </trkpt>
      <trkpt lat="43.95381" lon="6.90975">
        <ele>402.773387</ele>
        <time>2021-09-19T06:57:55.000Z</time>
      </trkpt>
      <trkpt lat="43.95394" lon="6.91002">
        <ele>402.433833</ele>
        <time>2021-09-19T06:57:58.000Z</time>
      </trkpt>
      <trkpt lat="43.95425" lon="6.91066">
        <ele>401.632212</ele>
        <time>2021-09-19T06:58:05.000Z</time>
      </trkpt>
      <trkpt lat="43.95439" lon="6.91093">
        <ele>401.30187</ele>
        <time>2021-09-19T06:58:08.000Z</time>
      </trkpt>
      <trkpt lat="43.95469" lon="6.91157">
        <ele>400.664565</ele>
        <time>2021-09-19T06:58:15.000Z</time>
      </trkpt>
      <trkpt lat="43.95478" lon="6.91175">
        <ele>400.485885</ele>
        <time>2021-09-19T06:58:17.000Z</time>
      </trkpt>
      <trkpt lat="43.95503" lon="6.91241">
        <ele>399.858836</ele>
        <time>2021-09-19T06:58:24.000Z</time>
      </trkpt>
      <trkpt lat="43.95515" lon="6.91302">
        <ele>399.3261</ele>
        <time>2021-09-19T06:58:30.000Z</time>
      </trkpt>
      <trkpt lat="43.9552" lon="6.91376">
        <ele>398.880541</ele>
        <time>2021-09-19T06:58:37.000Z</time>
      </trkpt>
      <trkpt lat="43.95515" lon="6.9146">
        <ele>398.383159</ele>
        <time>2021-09-19T06:58:45.000Z</time>
      </trkpt>
      <trkpt lat="43.95501" lon="6.91521">
        <ele>398.006287</ele>
        <time>2021-09-19T06:58:51.000Z</time>
      </trkpt>
      <trkpt lat="43.95477" lon="6.91579">
        <ele>397.60752</ele>
        <time>2021-09-19T06:58:57.000Z</time>
      </trkpt>
      <trkpt lat="43.95447" lon="6.91644">
        <ele>397.118435</ele>
        <time>2021-09-19T06:59:04.000Z</time>
      </trkpt>
      <trkpt lat="43.95416" lon="6.91709">
        <ele>396.622683</ele>
        <time>2021-09-19T06:59:11.000Z</time>
      </trkpt>
      <trkpt lat="43.95407" lon="6.91728">
        <ele>396.48184</ele>
        <time>2021-09-19T06:59:13.000Z</time>
      </trkpt>
      <trkpt lat="43.95377" lon="6.91792">
        <ele>395.993933</ele>
        <time>2021-09-19T06:59:20.000Z</time>
      </trkpt>
      <trkpt lat="43.95347" lon="6.91855">
        <ele>395.499549</ele>
        <time>2021-09-19T06:59:27.000Z</time>
      </trkpt>
      <trkpt lat="43.95343" lon="6.91864">
        <ele>395.428775</ele>
        <time>2021-09-19T06:59:28.000Z</time>
      </trkpt>
      <trkpt lat="43.9531" lon="6.91936">
        <ele>394.877034</ele>
        <time>2021-09-19T06:59:36.000Z</time>
      </trkpt>
      <trkpt lat="43.95295" lon="6.91983">
        <ele>394.516889</ele>
        <time>2021-09-19T06:59:41.000Z</time>
      </trkpt>
      <trkpt lat="43.95286" lon="6.92052">
        <ele>393.92364</ele>
        <time>2021-09-19T06:59:47.000Z</time>
      </trkpt>
      <trkpt lat="43.9529" lon="6.92113">
        <ele>393.410439</ele>
        <time>2021-09-19T06:59:54.000Z</time>
      </trkpt>
      <trkpt lat="43.95306" lon="6.92191">
        <ele>392.726979</ele>
        <time>2021-09-19T07:00:01.000Z</time>
      </trkpt>
      <trkpt lat="43.9531" lon="6.9221">
        <ele>392.555874</ele>
        <time>2021-09-19T07:00:03.000Z</time>
      </trkpt>
      <trkpt lat="43.95327" lon="6.92286">
        <ele>391.835087</ele>
        <time>2021-09-19T07:00:11.000Z</time>
      </trkpt>
      <trkpt lat="43.95352" lon="6.92357">
        <ele>391.12143</ele>
        <time>2021-09-19T07:00:19.000Z</time>
      </trkpt>
      <trkpt lat="43.95381" lon="6.92425">
        <ele>390.40588</ele>
        <time>2021-09-19T07:00:27.000Z</time>
      </trkpt>
      <trkpt lat="43.95384" lon="6.92434">
        <ele>390.316632</ele>
        <time>2021-09-19T07:00:28.000Z</time>
      </trkpt>
      <trkpt lat="43.95409" lon="6.92492">
        <ele>389.872798</ele>
        <time>2021-09-19T07:00:35.000Z</time>
      </trkpt>
      <trkpt lat="43.95431" lon="6.92565">
        <ele>389.372334</ele>
        <time>2021-09-19T07:00:43.000Z</time>
      </trkpt>
      <trkpt lat="43.95441" lon="6.92633">
        <ele>388.935527</ele>
        <time>2021-09-19T07:00:50.000Z</time>
      </trkpt>
      <trkpt lat="43.95441" lon="6.92643">
        <ele>388.871901</ele>
        <time>2021-09-19T07:00:51.000Z</time>
      </trkpt>
      <trkpt lat="43.95437" lon="6.92672">
        <ele>388.687241</ele>
        <time>2021-09-19T07:00:54.000Z</time>
      </trkpt>
      <trkpt lat="43.95424" lon="6.92748">
        <ele>388.335256</ele>
        <time>2021-09-19T07:01:02.000Z</time>
      </trkpt>
      <trkpt lat="43.95412" lon="6.92815">
        <ele>388.032602</ele>
        <time>2021-09-19T07:01:09.000Z</time>
      </trkpt>
      <trkpt lat="43.95398" lon="6.92889">
        <ele>387.692789</ele>
        <time>2021-09-19T07:01:17.000Z</time>
      </trkpt>
      <trkpt lat="43.95394" lon="6.92907">
        <ele>387.607353</ele>
        <time>2021-09-19T07:01:19.000Z</time>
      </trkpt>
      <trkpt lat="43.95383" lon="6.92983">
        <ele>387.365489</ele>
        <time>2021-09-19T07:01:27.000Z</time>
      </trkpt>
      <trkpt lat="43.95382" lon="6.92992">
        <ele>387.335999</ele>
        <time>2021-09-19T07:01:28.000Z</time>
      </trkpt>
      <trkpt lat="43.95376" lon="6.9306">
        <ele>387.136105</ele>
        <time>2021-09-19T07:01:35.000Z</time>
      </trkpt>
      <trkpt lat="43.95374" lon="6.93137">
        <ele>386.909344</ele>
        <time>2021-09-19T07:01:43.000Z</time>
      </trkpt>
      <trkpt lat="43.95372" lon="6.9322">
        <ele>386.714467</ele>
        <time>2021-09-19T07:01:52.000Z</time>
      </trkpt>
      <trkpt lat="43.95372" lon="6.93229">
        <ele>386.696138</ele>
        <time>2021-09-19T07:01:53.000Z</time>
      </trkpt>
      <trkpt lat="43.95372" lon="6.93294">
        <ele>386.566428</ele>
        <time>2021-09-19T07:02:00.000Z</time>
      </trkpt>
      <trkpt lat="43.95372" lon="6.93375">
        <ele>386.402491</ele>
        <time>2021-09-19T07:02:09.000Z</time>
      </trkpt>
      <trkpt lat="43.95379" lon="6.93451">
        <ele>386.147821</ele>
        <time>2021-09-19T07:02:17.000Z</time>
      </trkpt>
      <trkpt lat="43.95384" lon="6.93532">
        <ele>385.762207</ele>
        <time>2021-09-19T07:02:25.000Z</time>
      </trkpt>
      <trkpt lat="43.9538" lon="6.93584">
        <ele>385.517074</ele>
        <time>2021-09-19T07:02:30.000Z</time>
      </trkpt>
      <trkpt lat="43.95368" lon="6.93658">
        <ele>385.159832</ele>
        <time>2021-09-19T07:02:37.000Z</time>
      </trkpt>
      <trkpt lat="43.95366" lon="6.93669">
        <ele>385.069376</ele>
        <time>2021-09-19T07:02:38.000Z</time>
      </trkpt>
      <trkpt lat="43.95352" lon="6.93744">
        <ele>384.301755</ele>
        <time>2021-09-19T07:02:45.000Z</time>
      </trkpt>
      <trkpt lat="43.95349" lon="6.93755">
        <ele>384.186724</ele>
        <time>2021-09-19T07:02:46.000Z</time>
      </trkpt>
      <trkpt lat="43.95329" lon="6.93834">
        <ele>383.3592</ele>
        <time>2021-09-19T07:02:53.000Z</time>
      </trkpt>
      <trkpt lat="43.95325" lon="6.93846">
        <ele>383.23945</ele>
        <time>2021-09-19T07:02:54.000Z</time>
      </trkpt>
      <trkpt lat="43.95305" lon="6.93924">
        <ele>382.404673</ele>
        <time>2021-09-19T07:03:01.000Z</time>
      </trkpt>
      <trkpt lat="43.95302" lon="6.93935">
        <ele>382.283448</ele>
        <time>2021-09-19T07:03:02.000Z</time>
      </trkpt>
      <trkpt lat="43.95282" lon="6.94013">
        <ele>381.432924</ele>
        <time>2021-09-19T07:03:09.000Z</time>
      </trkpt>
      <trkpt lat="43.95266" lon="6.94078">
        <ele>380.724472</ele>
        <time>2021-09-19T07:03:15.000Z</time>
      </trkpt>
      <trkpt lat="43.95248" lon="6.94139">
        <ele>380.055003</ele>
        <time>2021-09-19T07:03:21.000Z</time>
      </trkpt>
      <trkpt lat="43.9523" lon="6.94211">
        <ele>379.393052</ele>
        <time>2021-09-19T07:03:28.000Z</time>
      </trkpt>
      <trkpt lat="43.95222" lon="6.94243">
        <ele>379.10393</ele>
        <time>2021-09-19T07:03:31.000Z</time>
      </trkpt>
      <trkpt lat="43.95205" lon="6.94316">
        <ele>378.434857</ele>
        <time>2021-09-19T07:03:38.000Z</time>
      </trkpt>
      <trkpt lat="43.95198" lon="6.94346">
        <ele>378.159951</ele>
        <time>2021-09-19T07:03:41.000Z</time>
      </trkpt>
      <trkpt lat="43.95191" lon="6.94409">
        <ele>377.770487</ele>
        <time>2021-09-19T07:03:47.000Z</time>
      </trkpt>
      <trkpt lat="43.95189" lon="6.9449">
        <ele>377.400383</ele>
        <time>2021-09-19T07:03:55.000Z</time>
      </trkpt>
      <trkpt lat="43.95186" lon="6.94567">
        <ele>377.048372</ele>
        <time>2021-09-19T07:04:03.000Z</time>
      </trkpt>
      <trkpt lat="43.95185" lon="6.94576">
        <ele>377.006796</ele>
        <time>2021-09-19T07:04:04.000Z</time>
      </trkpt>
      <trkpt lat="43.95181" lon="6.94638">
        <ele>376.834198</ele>
        <time>2021-09-19T07:04:11.000Z</time>
      </trkpt>
      <trkpt lat="43.95174" lon="6.94704">
        <ele>376.929325</ele>
        <time>2021-09-19T07:04:19.000Z</time>
      </trkpt>
      <trkpt lat="43.95173" lon="6.94712">
        <ele>376.941022</ele>
        <time>2021-09-19T07:04:20.000Z</time>
      </trkpt>
      <trkpt lat="43.95171" lon="6.94744">
        <ele>376.987203</ele>
        <time>2021-09-19T07:04:24.000Z</time>
      </trkpt>
      <trkpt lat="43.95166" lon="6.94809">
        <ele>377.079544</ele>
        <time>2021-09-19T07:04:32.000Z</time>
      </trkpt>
      <trkpt lat="43.95161" lon="6.94881">
        <ele>377.174196</ele>
        <time>2021-09-19T07:04:41.000Z</time>
      </trkpt>
      <trkpt lat="43.95156" lon="6.94952">
        <ele>377.22882</ele>
        <time>2021-09-19T07:04:50.000Z</time>
      </trkpt>
      <trkpt lat="43.95152" lon="6.95011">
        <ele>377.274265</ele>
        <time>2021-09-19T07:04:57.000Z</time>
      </trkpt>
      <trkpt lat="43.9515" lon="6.95087">
        <ele>377.333051</ele>
        <time>2021-09-19T07:05:05.000Z</time>
      </trkpt>
      <trkpt lat="43.9515" lon="6.95097">
        <ele>377.340884</ele>
        <time>2021-09-19T07:05:06.000Z</time>
      </trkpt>
      <trkpt lat="43.95156" lon="6.95169">
        <ele>377.126991</ele>
        <time>2021-09-19T07:05:14.000Z</time>
      </trkpt>
      <trkpt lat="43.95161" lon="6.95244">
        <ele>376.794396</ele>
        <time>2021-09-19T07:05:20.000Z</time>
      </trkpt>
      <trkpt lat="43.95162" lon="6.95255">
        <ele>376.745154</ele>
        <time>2021-09-19T07:05:21.000Z</time>
      </trkpt>
      <trkpt lat="43.95159" lon="6.95323">
        <ele>376.445972</ele>
        <time>2021-09-19T07:05:27.000Z</time>
      </trkpt>
      <trkpt lat="43.95153" lon="6.95401">
        <ele>375.874527</ele>
        <time>2021-09-19T07:05:34.000Z</time>
      </trkpt>
      <trkpt lat="43.95152" lon="6.95412">
        <ele>375.750734</ele>
        <time>2021-09-19T07:05:35.000Z</time>
      </trkpt>
      <trkpt lat="43.95146" lon="6.95468">
        <ele>375.124194</ele>
        <time>2021-09-19T07:05:40.000Z</time>
      </trkpt>
      <trkpt lat="43.95145" lon="6.95479">
        <ele>375.003655</ele>
        <time>2021-09-19T07:05:41.000Z</time>
      </trkpt>
      <trkpt lat="43.95128" lon="6.95558">
        <ele>374.103652</ele>
        <time>2021-09-19T07:05:48.000Z</time>
      </trkpt>
      <trkpt lat="43.95106" lon="6.95619">
        <ele>373.335169</ele>
        <time>2021-09-19T07:05:54.000Z</time>
      </trkpt>
      <trkpt lat="43.95072" lon="6.95698">
        <ele>372.221195</ele>
        <time>2021-09-19T07:06:02.000Z</time>
      </trkpt>
      <trkpt lat="43.95064" lon="6.95717">
        <ele>371.950446</ele>
        <time>2021-09-19T07:06:05.000Z</time>
      </trkpt>
      <trkpt lat="43.95034" lon="6.95783">
        <ele>371.005145</ele>
        <time>2021-09-19T07:06:12.000Z</time>
      </trkpt>
      <trkpt lat="43.95013" lon="6.9583">
        <ele>370.356175</ele>
        <time>2021-09-19T07:06:16.000Z</time>
      </trkpt>
      <trkpt lat="43.94984" lon="6.95896">
        <ele>369.571041</ele>
        <time>2021-09-19T07:06:23.000Z</time>
      </trkpt>
      <trkpt lat="43.94972" lon="6.95924">
        <ele>369.239018</ele>
        <time>2021-09-19T07:06:26.000Z</time>
      </trkpt>
      <trkpt lat="43.94943" lon="6.9599">
        <ele>368.454927</ele>
        <time>2021-09-19T07:06:33.000Z</time>
      </trkpt>
      <trkpt lat="43.94915" lon="6.96057">
        <ele>367.697867</ele>
        <time>2021-09-19T07:06:40.000Z</time>
      </trkpt>
      <trkpt lat="43.94903" lon="6.96085">
        <ele>367.391158</ele>
        <time>2021-09-19T07:06:43.000Z</time>
      </trkpt>
      <trkpt lat="43.94878" lon="6.96152">
        <ele>366.687328</ele>
        <time>2021-09-19T07:06:50.000Z</time>
      </trkpt>
      <trkpt lat="43.94872" lon="6.96172">
        <ele>366.485384</ele>
        <time>2021-09-19T07:06:52.000Z</time>
      </trkpt>
      <trkpt lat="43.94854" lon="6.96244">
        <ele>365.782202</ele>
        <time>2021-09-19T07:06:59.000Z</time>
      </trkpt>
      <trkpt lat="43.94849" lon="6.96265">
        <ele>365.572077</ele>
        <time>2021-09-19T07:07:01.000Z</time>
      </trkpt>
      <trkpt lat="43.94834" lon="6.96337">
        <ele>364.72929</ele>
        <time>2021-09-19T07:07:08.000Z</time>
      </trkpt>
      <trkpt lat="43.94829" lon="6.96369">
        <ele>364.370297</ele>
        <time>2021-09-19T07:07:11.000Z</time>
      </trkpt>
      <trkpt lat="43.94819" lon="6.96452">
        <ele>363.430657</ele>
        <time>2021-09-19T07:07:19.000Z</time>
      </trkpt>
      <trkpt lat="43.94817" lon="6.96483">
        <ele>363.079766</ele>
        <time>2021-09-19T07:07:22.000Z</time>
      </trkpt>
      <trkpt lat="43.94813" lon="6.96567">
        <ele>362.129968</ele>
        <time>2021-09-19T07:07:30.000Z</time>
      </trkpt>
      <trkpt lat="43.94813" lon="6.96588">
        <ele>361.892803</ele>
        <time>2021-09-19T07:07:32.000Z</time>
      </trkpt>
      <trkpt lat="43.94816" lon="6.96671">
        <ele>360.952553</ele>
        <time>2021-09-19T07:07:40.000Z</time>
      </trkpt>
      <trkpt lat="43.94816" lon="6.96692">
        <ele>360.719728</ele>
        <time>2021-09-19T07:07:42.000Z</time>
      </trkpt>
      <trkpt lat="43.94819" lon="6.96775">
        <ele>359.794325</ele>
        <time>2021-09-19T07:07:50.000Z</time>
      </trkpt>
      <trkpt lat="43.9482" lon="6.96796">
        <ele>359.575601</ele>
        <time>2021-09-19T07:07:52.000Z</time>
      </trkpt>
      <trkpt lat="43.94823" lon="6.96878">
        <ele>358.699576</ele>
        <time>2021-09-19T07:08:00.000Z</time>
      </trkpt>
      <trkpt lat="43.94824" lon="6.96899">
        <ele>358.480852</ele>
        <time>2021-09-19T07:08:02.000Z</time>
      </trkpt>
      <trkpt lat="43.94827" lon="6.96983">
        <ele>357.592043</ele>
        <time>2021-09-19T07:08:10.000Z</time>
      </trkpt>
      <trkpt lat="43.94828" lon="6.97025">
        <ele>357.170751</ele>
        <time>2021-09-19T07:08:14.000Z</time>
      </trkpt>
      <trkpt lat="43.9483" lon="6.97096">
        <ele>356.485499</ele>
        <time>2021-09-19T07:08:22.000Z</time>
      </trkpt>
      <trkpt lat="43.94833" lon="6.97177">
        <ele>355.713465</ele>
        <time>2021-09-19T07:08:29.000Z</time>
      </trkpt>
      <trkpt lat="43.94834" lon="6.97198">
        <ele>355.519997</ele>
        <time>2021-09-19T07:08:31.000Z</time>
      </trkpt>
      <trkpt lat="43.94836" lon="6.97259">
        <ele>354.951859</ele>
        <time>2021-09-19T07:08:38.000Z</time>
      </trkpt>
      <trkpt lat="43.9484" lon="6.9735">
        <ele>354.306688</ele>
        <time>2021-09-19T07:08:46.000Z</time>
      </trkpt>
      <trkpt lat="43.94847" lon="6.97428">
        <ele>353.743592</ele>
        <time>2021-09-19T07:08:54.000Z</time>
      </trkpt>
      <trkpt lat="43.94849" lon="6.97449">
        <ele>353.597294</ele>
        <time>2021-09-19T07:08:56.000Z</time>
      </trkpt>
      <trkpt lat="43.94858" lon="6.97527">
        <ele>353.021957</ele>
        <time>2021-09-19T07:09:04.000Z</time>
      </trkpt>
      <trkpt lat="43.9486" lon="6.97547">
        <ele>352.875401</ele>
        <time>2021-09-19T07:09:06.000Z</time>
      </trkpt>
      <trkpt lat="43.94865" lon="6.97622">
        <ele>352.309491</ele>
        <time>2021-09-19T07:09:14.000Z</time>
      </trkpt>
      <trkpt lat="43.94866" lon="6.9764">
        <ele>352.171875</ele>
        <time>2021-09-19T07:09:16.000Z</time>
      </trkpt>
      <trkpt lat="43.94873" lon="6.97714">
        <ele>351.614068</ele>
        <time>2021-09-19T07:09:24.000Z</time>
      </trkpt>
      <trkpt lat="43.94884" lon="6.97788">
        <ele>351.011876</ele>
        <time>2021-09-19T07:09:32.000Z</time>
      </trkpt>
      <trkpt lat="43.94885" lon="6.97797">
        <ele>350.933809</ele>
        <time>2021-09-19T07:09:33.000Z</time>
      </trkpt>
      <trkpt lat="43.94896" lon="6.97871">
        <ele>350.305014</ele>
        <time>2021-09-19T07:09:41.000Z</time>
      </trkpt>
      <trkpt lat="43.94897" lon="6.9788">
        <ele>350.224517</ele>
        <time>2021-09-19T07:09:42.000Z</time>
      </trkpt>
      <trkpt lat="43.94914" lon="6.97949">
        <ele>349.616245</ele>
        <time>2021-09-19T07:09:50.000Z</time>
      </trkpt>
      <trkpt lat="43.94931" lon="6.98">
        <ele>349.190954</ele>
        <time>2021-09-19T07:09:56.000Z</time>
      </trkpt>
      <trkpt lat="43.94958" lon="6.98074">
        <ele>348.761167</ele>
        <time>2021-09-19T07:10:04.000Z</time>
      </trkpt>
      <trkpt lat="43.94987" lon="6.98139">
        <ele>348.366161</ele>
        <time>2021-09-19T07:10:11.000Z</time>
      </trkpt>
      <trkpt lat="43.94991" lon="6.9815">
        <ele>348.307366</ele>
        <time>2021-09-19T07:10:12.000Z</time>
      </trkpt>
      <trkpt lat="43.95011" lon="6.9822">
        <ele>347.998017</ele>
        <time>2021-09-19T07:10:19.000Z</time>
      </trkpt>
      <trkpt lat="43.9502" lon="6.98282">
        <ele>348.139523</ele>
        <time>2021-09-19T07:10:25.000Z</time>
      </trkpt>
      <trkpt lat="43.95022" lon="6.98343">
        <ele>348.277124</ele>
        <time>2021-09-19T07:10:31.000Z</time>
      </trkpt>
      <trkpt lat="43.95022" lon="6.98423">
        <ele>348.45737</ele>
        <time>2021-09-19T07:10:39.000Z</time>
      </trkpt>
      <trkpt lat="43.95021" lon="6.98442">
        <ele>348.499622</ele>
        <time>2021-09-19T07:10:41.000Z</time>
      </trkpt>
      <trkpt lat="43.95021" lon="6.98491">
        <ele>348.637655</ele>
        <time>2021-09-19T07:10:46.000Z</time>
      </trkpt>
      <trkpt lat="43.95021" lon="6.98501">
        <ele>348.669422</ele>
        <time>2021-09-19T07:10:47.000Z</time>
      </trkpt>
      <trkpt lat="43.9502" lon="6.98569">
        <ele>348.883301</ele>
        <time>2021-09-19T07:10:54.000Z</time>
      </trkpt>
      <trkpt lat="43.95019" lon="6.98626">
        <ele>349.063886</ele>
        <time>2021-09-19T07:11:00.000Z</time>
      </trkpt>
      <trkpt lat="43.95012" lon="6.98693">
        <ele>349.275561</ele>
        <time>2021-09-19T07:11:07.000Z</time>
      </trkpt>
      <trkpt lat="43.94999" lon="6.98746">
        <ele>349.201327</ele>
        <time>2021-09-19T07:11:13.000Z</time>
      </trkpt>
      <trkpt lat="43.94996" lon="6.98754">
        <ele>349.175054</ele>
        <time>2021-09-19T07:11:14.000Z</time>
      </trkpt>
      <trkpt lat="43.94974" lon="6.98818">
        <ele>348.977479</ele>
        <time>2021-09-19T07:11:22.000Z</time>
      </trkpt>
      <trkpt lat="43.94959" lon="6.98863">
        <ele>348.836</ele>
        <time>2021-09-19T07:11:28.000Z</time>
      </trkpt>
      <trkpt lat="43.94935" lon="6.98931">
        <ele>348.624149</ele>
        <time>2021-09-19T07:11:37.000Z</time>
      </trkpt>
      <trkpt lat="43.94932" lon="6.98938">
        <ele>348.605511</ele>
        <time>2021-09-19T07:11:38.000Z</time>
      </trkpt>
      <trkpt lat="43.94918" lon="6.98976">
        <ele>348.515389</ele>
        <time>2021-09-19T07:11:43.000Z</time>
      </trkpt>
      <trkpt lat="43.94911" lon="6.9899">
        <ele>348.478672</ele>
        <time>2021-09-19T07:11:45.000Z</time>
      </trkpt>
      <trkpt lat="43.94883" lon="6.99037">
        <ele>348.351005</ele>
        <time>2021-09-19T07:11:52.000Z</time>
      </trkpt>
      <trkpt lat="43.94852" lon="6.99092">
        <ele>348.202702</ele>
        <time>2021-09-19T07:12:00.000Z</time>
      </trkpt>
      <trkpt lat="43.94828" lon="6.99132">
        <ele>348.093469</ele>
        <time>2021-09-19T07:12:06.000Z</time>
      </trkpt>
      <trkpt lat="43.9481" lon="6.99176">
        <ele>347.933636</ele>
        <time>2021-09-19T07:12:12.000Z</time>
      </trkpt>
      <trkpt lat="43.94788" lon="6.99248">
        <ele>347.688886</ele>
        <time>2021-09-19T07:12:21.000Z</time>
      </trkpt>
      <trkpt lat="43.94785" lon="6.99256">
        <ele>347.659761</ele>
        <time>2021-09-19T07:12:22.000Z</time>
      </trkpt>
      <trkpt lat="43.94766" lon="6.99322">
        <ele>347.437027</ele>
        <time>2021-09-19T07:12:30.000Z</time>
      </trkpt>
      <trkpt lat="43.94744" lon="6.99397">
        <ele>347.117659</ele>
        <time>2021-09-19T07:12:39.000Z</time>
      </trkpt>
      <trkpt lat="43.94721" lon="6.99475">
        <ele>346.71589</ele>
        <time>2021-09-19T07:12:48.000Z</time>
      </trkpt>
      <trkpt lat="43.94716" lon="6.99491">
        <ele>346.628843</ele>
        <time>2021-09-19T07:12:50.000Z</time>
      </trkpt>
      <trkpt lat="43.94701" lon="6.99543">
        <ele>346.359415</ele>
        <time>2021-09-19T07:12:56.000Z</time>
      </trkpt>
      <trkpt lat="43.94686" lon="6.99606">
        <ele>346.056412</ele>
        <time>2021-09-19T07:13:03.000Z</time>
      </trkpt>
      <trkpt lat="43.9468" lon="6.99635">
        <ele>345.947325</ele>
        <time>2021-09-19T07:13:06.000Z</time>
      </trkpt>
      <trkpt lat="43.94679" lon="6.99662">
        <ele>345.844194</ele>
        <time>2021-09-19T07:13:09.000Z</time>
      </trkpt>
      <trkpt lat="43.94675" lon="6.99726">
        <ele>345.604786</ele>
        <time>2021-09-19T07:13:16.000Z</time>
      </trkpt>
      <trkpt lat="43.94669" lon="6.9978">
        <ele>345.402315</ele>
        <time>2021-09-19T07:13:22.000Z</time>
      </trkpt>
      <trkpt lat="43.94652" lon="6.99855">
        <ele>345.154474</ele>
        <time>2021-09-19T07:13:31.000Z</time>
      </trkpt>
      <trkpt lat="43.94644" lon="6.99908">
        <ele>345.094179</ele>
        <time>2021-09-19T07:13:37.000Z</time>
      </trkpt>
      <trkpt lat="43.94643" lon="6.99917">
        <ele>345.084242</ele>
        <time>2021-09-19T07:13:38.000Z</time>
      </trkpt>
      <trkpt lat="43.94644" lon="6.99954">
        <ele>345.042485</ele>
        <time>2021-09-19T07:13:42.000Z</time>
      </trkpt>
      <trkpt lat="43.94651" lon="6.99998">
        <ele>344.991274</ele>
        <time>2021-09-19T07:13:47.000Z</time>
      </trkpt>
      <trkpt lat="43.94654" lon="7.00016">
        <ele>344.970597</ele>
        <time>2021-09-19T07:13:49.000Z</time>
      </trkpt>
      <trkpt lat="43.94665" lon="7.00068">
        <ele>344.909948</ele>
        <time>2021-09-19T07:13:55.000Z</time>
      </trkpt>
      <trkpt lat="43.94668" lon="7.00076">
        <ele>344.899298</ele>
        <time>2021-09-19T07:13:56.000Z</time>
      </trkpt>
      <trkpt lat="43.94682" lon="7.0012">
        <ele>345.062677</ele>
        <time>2021-09-19T07:14:01.000Z</time>
      </trkpt>
      <trkpt lat="43.94687" lon="7.00137">
        <ele>345.135136</ele>
        <time>2021-09-19T07:14:03.000Z</time>
      </trkpt>
      <trkpt lat="43.94693" lon="7.00163">
        <ele>345.244603</ele>
        <time>2021-09-19T07:14:06.000Z</time>
      </trkpt>
      <trkpt lat="43.94705" lon="7.00245">
        <ele>345.572414</ele>
        <time>2021-09-19T07:14:15.000Z</time>
      </trkpt>
      <trkpt lat="43.94719" lon="7.00324">
        <ele>345.889452</ele>
        <time>2021-09-19T07:14:24.000Z</time>
      </trkpt>
      <trkpt lat="43.94721" lon="7.00331">
        <ele>345.912853</ele>
        <time>2021-09-19T07:14:25.000Z</time>
      </trkpt>
      <trkpt lat="43.94726" lon="7.00346">
        <ele>345.960369</ele>
        <time>2021-09-19T07:14:28.000Z</time>
      </trkpt>
      <trkpt lat="43.94726" lon="7.00347">
        <ele>345.965187</ele>
        <time>2021-09-19T07:14:29.000Z</time>
      </trkpt>
      <trkpt lat="43.94726" lon="7.00347">
        <ele>345.965187</ele>
        <time>2021-09-19T07:14:31.000Z</time>
      </trkpt>
      <trkpt lat="43.94728" lon="7.00353">
        <ele>345.983772</ele>
        <time>2021-09-19T07:19:40.000Z</time>
      </trkpt>
      <trkpt lat="43.94734" lon="7.00369">
        <ele>346.039643</ele>
        <time>2021-09-19T07:19:45.000Z</time>
      </trkpt>
      <trkpt lat="43.9474" lon="7.00384">
        <ele>346.089407</ele>
        <time>2021-09-19T07:19:48.000Z</time>
      </trkpt>
      <trkpt lat="43.94746" lon="7.004">
        <ele>346.14361</ele>
        <time>2021-09-19T07:19:51.000Z</time>
      </trkpt>
      <trkpt lat="43.94751" lon="7.0044">
        <ele>346.268494</ele>
        <time>2021-09-19T07:19:57.000Z</time>
      </trkpt>
      <trkpt lat="43.94758" lon="7.00501">
        <ele>346.453708</ele>
        <time>2021-09-19T07:20:05.000Z</time>
      </trkpt>
      <trkpt lat="43.94763" lon="7.00548">
        <ele>346.596286</ele>
        <time>2021-09-19T07:20:11.000Z</time>
      </trkpt>
      <trkpt lat="43.94764" lon="7.00556">
        <ele>346.620317</ele>
        <time>2021-09-19T07:20:12.000Z</time>
      </trkpt>
      <trkpt lat="43.94767" lon="7.00588">
        <ele>346.542931</ele>
        <time>2021-09-19T07:20:16.000Z</time>
      </trkpt>
      <trkpt lat="43.94772" lon="7.00644">
        <ele>346.369814</ele>
        <time>2021-09-19T07:20:23.000Z</time>
      </trkpt>
      <trkpt lat="43.94778" lon="7.00721">
        <ele>346.13352</ele>
        <time>2021-09-19T07:20:32.000Z</time>
      </trkpt>
      <trkpt lat="43.94778" lon="7.0073">
        <ele>346.105748</ele>
        <time>2021-09-19T07:20:33.000Z</time>
      </trkpt>
      <trkpt lat="43.94778" lon="7.00747">
        <ele>346.052647</ele>
        <time>2021-09-19T07:20:35.000Z</time>
      </trkpt>
      <trkpt lat="43.94778" lon="7.00766">
        <ele>345.99526</ele>
        <time>2021-09-19T07:20:37.000Z</time>
      </trkpt>
      <trkpt lat="43.94779" lon="7.00775">
        <ele>345.968072</ele>
        <time>2021-09-19T07:20:38.000Z</time>
      </trkpt>
      <trkpt lat="43.9478" lon="7.00784">
        <ele>345.939912</ele>
        <time>2021-09-19T07:20:39.000Z</time>
      </trkpt>
      <trkpt lat="43.94785" lon="7.00811">
        <ele>345.841623</ele>
        <time>2021-09-19T07:20:42.000Z</time>
      </trkpt>
      <trkpt lat="43.94786" lon="7.00821">
        <ele>345.78195</ele>
        <time>2021-09-19T07:20:43.000Z</time>
      </trkpt>
      <trkpt lat="43.94796" lon="7.00869">
        <ele>345.483502</ele>
        <time>2021-09-19T07:20:48.000Z</time>
      </trkpt>
      <trkpt lat="43.94802" lon="7.00898">
        <ele>345.304827</ele>
        <time>2021-09-19T07:20:51.000Z</time>
      </trkpt>
      <trkpt lat="43.948" lon="7.00918">
        <ele>345.185464</ele>
        <time>2021-09-19T07:20:53.000Z</time>
      </trkpt>
      <trkpt lat="43.94787" lon="7.00969">
        <ele>344.862646</ele>
        <time>2021-09-19T07:20:58.000Z</time>
      </trkpt>
      <trkpt lat="43.9477" lon="7.01032">
        <ele>344.461031</ele>
        <time>2021-09-19T07:21:04.000Z</time>
      </trkpt>
      <trkpt lat="43.94767" lon="7.01064">
        <ele>344.200329</ele>
        <time>2021-09-19T07:21:07.000Z</time>
      </trkpt>
      <trkpt lat="43.94767" lon="7.01087">
        <ele>343.987935</ele>
        <time>2021-09-19T07:21:09.000Z</time>
      </trkpt>
      <trkpt lat="43.94766" lon="7.01167">
        <ele>343.241758</ele>
        <time>2021-09-19T07:21:16.000Z</time>
      </trkpt>
      <trkpt lat="43.94761" lon="7.01225">
        <ele>342.700176</ele>
        <time>2021-09-19T07:21:21.000Z</time>
      </trkpt>
      <trkpt lat="43.94743" lon="7.01277">
        <ele>342.166081</ele>
        <time>2021-09-19T07:21:26.000Z</time>
      </trkpt>
      <trkpt lat="43.94718" lon="7.0135">
        <ele>341.263057</ele>
        <time>2021-09-19T07:21:33.000Z</time>
      </trkpt>
      <trkpt lat="43.94713" lon="7.01396">
        <ele>340.73064</ele>
        <time>2021-09-19T07:21:37.000Z</time>
      </trkpt>
      <trkpt lat="43.94715" lon="7.01477">
        <ele>339.796185</ele>
        <time>2021-09-19T07:21:44.000Z</time>
      </trkpt>
      <trkpt lat="43.94714" lon="7.01501">
        <ele>339.517818</ele>
        <time>2021-09-19T07:21:46.000Z</time>
      </trkpt>
      <trkpt lat="43.94711" lon="7.01585">
        <ele>338.430306</ele>
        <time>2021-09-19T07:21:53.000Z</time>
      </trkpt>
      <trkpt lat="43.94699" lon="7.01631">
        <ele>337.76466</ele>
        <time>2021-09-19T07:21:57.000Z</time>
      </trkpt>
      <trkpt lat="43.94693" lon="7.01653">
        <ele>337.431369</ele>
        <time>2021-09-19T07:21:59.000Z</time>
      </trkpt>
      <trkpt lat="43.94686" lon="7.01675">
        <ele>337.100602</ele>
        <time>2021-09-19T07:22:01.000Z</time>
      </trkpt>
      <trkpt lat="43.94667" lon="7.01744">
        <ele>336.090508</ele>
        <time>2021-09-19T07:22:07.000Z</time>
      </trkpt>
      <trkpt lat="43.94656" lon="7.01829">
        <ele>334.850573</ele>
        <time>2021-09-19T07:22:14.000Z</time>
      </trkpt>
      <trkpt lat="43.94642" lon="7.01912">
        <ele>333.578494</ele>
        <time>2021-09-19T07:22:21.000Z</time>
      </trkpt>
      <trkpt lat="43.94622" lon="7.01992">
        <ele>332.330174</ele>
        <time>2021-09-19T07:22:28.000Z</time>
      </trkpt>
      <trkpt lat="43.94601" lon="7.02073">
        <ele>330.953421</ele>
        <time>2021-09-19T07:22:35.000Z</time>
      </trkpt>
      <trkpt lat="43.94592" lon="7.02108">
        <ele>330.351243</ele>
        <time>2021-09-19T07:22:38.000Z</time>
      </trkpt>
      <trkpt lat="43.94571" lon="7.02189">
        <ele>328.959892</ele>
        <time>2021-09-19T07:22:45.000Z</time>
      </trkpt>
      <trkpt lat="43.94561" lon="7.02224">
        <ele>328.350072</ele>
        <time>2021-09-19T07:22:48.000Z</time>
      </trkpt>
      <trkpt lat="43.94543" lon="7.02307">
        <ele>326.915821</ele>
        <time>2021-09-19T07:22:55.000Z</time>
      </trkpt>
      <trkpt lat="43.94538" lon="7.0233">
        <ele>326.498783</ele>
        <time>2021-09-19T07:22:57.000Z</time>
      </trkpt>
      <trkpt lat="43.94524" lon="7.02414">
        <ele>325.065741</ele>
        <time>2021-09-19T07:23:04.000Z</time>
      </trkpt>
      <trkpt lat="43.94517" lon="7.02477">
        <ele>324.006923</ele>
        <time>2021-09-19T07:23:09.000Z</time>
      </trkpt>
      <trkpt lat="43.94507" lon="7.02563">
        <ele>322.602084</ele>
        <time>2021-09-19T07:23:16.000Z</time>
      </trkpt>
      <trkpt lat="43.94505" lon="7.02587">
        <ele>322.201947</ele>
        <time>2021-09-19T07:23:18.000Z</time>
      </trkpt>
      <trkpt lat="43.94497" lon="7.02672">
        <ele>320.819156</ele>
        <time>2021-09-19T07:23:25.000Z</time>
      </trkpt>
      <trkpt lat="43.94494" lon="7.0271">
        <ele>320.207368</ele>
        <time>2021-09-19T07:23:28.000Z</time>
      </trkpt>
      <trkpt lat="43.94488" lon="7.02785">
        <ele>319.03067</ele>
        <time>2021-09-19T07:23:34.000Z</time>
      </trkpt>
      <trkpt lat="43.94487" lon="7.02823">
        <ele>318.449471</ele>
        <time>2021-09-19T07:23:37.000Z</time>
      </trkpt>
      <trkpt lat="43.94481" lon="7.02909">
        <ele>317.118352</ele>
        <time>2021-09-19T07:23:44.000Z</time>
      </trkpt>
      <trkpt lat="43.94474" lon="7.02992">
        <ele>315.861069</ele>
        <time>2021-09-19T07:23:51.000Z</time>
      </trkpt>
      <trkpt lat="43.94471" lon="7.03027">
        <ele>315.400042</ele>
        <time>2021-09-19T07:23:54.000Z</time>
      </trkpt>
      <trkpt lat="43.94464" lon="7.03109">
        <ele>314.308613</ele>
        <time>2021-09-19T07:24:01.000Z</time>
      </trkpt>
      <trkpt lat="43.9446" lon="7.03157">
        <ele>313.683635</ele>
        <time>2021-09-19T07:24:05.000Z</time>
      </trkpt>
      <trkpt lat="43.94447" lon="7.0324">
        <ele>312.595658</ele>
        <time>2021-09-19T07:24:12.000Z</time>
      </trkpt>
      <trkpt lat="43.94441" lon="7.03275">
        <ele>312.232247</ele>
        <time>2021-09-19T07:24:15.000Z</time>
      </trkpt>
      <trkpt lat="43.9443" lon="7.03356">
        <ele>311.40191</ele>
        <time>2021-09-19T07:24:22.000Z</time>
      </trkpt>
      <trkpt lat="43.94422" lon="7.03432">
        <ele>310.634125</ele>
        <time>2021-09-19T07:24:29.000Z</time>
      </trkpt>
      <trkpt lat="43.94421" lon="7.03442">
        <ele>310.537754</ele>
        <time>2021-09-19T07:24:30.000Z</time>
      </trkpt>
      <trkpt lat="43.94416" lon="7.03502">
        <ele>310.029025</ele>
        <time>2021-09-19T07:24:37.000Z</time>
      </trkpt>
      <trkpt lat="43.94413" lon="7.03564">
        <ele>309.656658</ele>
        <time>2021-09-19T07:24:45.000Z</time>
      </trkpt>
      <trkpt lat="43.94409" lon="7.03646">
        <ele>309.1686</ele>
        <time>2021-09-19T07:24:55.000Z</time>
      </trkpt>
      <trkpt lat="43.94406" lon="7.03707">
        <ele>308.803401</ele>
        <time>2021-09-19T07:25:02.000Z</time>
      </trkpt>
      <trkpt lat="43.94404" lon="7.03789">
        <ele>308.376667</ele>
        <time>2021-09-19T07:25:11.000Z</time>
      </trkpt>
      <trkpt lat="43.94406" lon="7.03855">
        <ele>308.051324</ele>
        <time>2021-09-19T07:25:18.000Z</time>
      </trkpt>
      <trkpt lat="43.94416" lon="7.03922">
        <ele>307.71491</ele>
        <time>2021-09-19T07:25:25.000Z</time>
      </trkpt>
      <trkpt lat="43.94418" lon="7.03989">
        <ele>307.370451</ele>
        <time>2021-09-19T07:25:32.000Z</time>
      </trkpt>
      <trkpt lat="43.94414" lon="7.04048">
        <ele>307.021327</ele>
        <time>2021-09-19T07:25:38.000Z</time>
      </trkpt>
      <trkpt lat="43.94398" lon="7.04125">
        <ele>306.552773</ele>
        <time>2021-09-19T07:25:46.000Z</time>
      </trkpt>
      <trkpt lat="43.94381" lon="7.04205">
        <ele>306.064977</ele>
        <time>2021-09-19T07:25:54.000Z</time>
      </trkpt>
      <trkpt lat="43.94378" lon="7.04215">
        <ele>306.001852</ele>
        <time>2021-09-19T07:25:55.000Z</time>
      </trkpt>
      <trkpt lat="43.94361" lon="7.04296">
        <ele>305.360287</ele>
        <time>2021-09-19T07:26:03.000Z</time>
      </trkpt>
      <trkpt lat="43.94358" lon="7.04307">
        <ele>305.280231</ele>
        <time>2021-09-19T07:26:04.000Z</time>
      </trkpt>
      <trkpt lat="43.94352" lon="7.04337">
        <ele>305.038721</ele>
        <time>2021-09-19T07:26:07.000Z</time>
      </trkpt>
      <trkpt lat="43.94347" lon="7.04358">
        <ele>304.875399</ele>
        <time>2021-09-19T07:26:09.000Z</time>
      </trkpt>
      <trkpt lat="43.94332" lon="7.04425">
        <ele>304.342977</ele>
        <time>2021-09-19T07:26:16.000Z</time>
      </trkpt>
      <trkpt lat="43.94316" lon="7.04497">
        <ele>303.810285</ele>
        <time>2021-09-19T07:26:24.000Z</time>
      </trkpt>
      <trkpt lat="43.94314" lon="7.04507">
        <ele>303.747195</ele>
        <time>2021-09-19T07:26:25.000Z</time>
      </trkpt>
      <trkpt lat="43.943" lon="7.04573">
        <ele>303.290831</ele>
        <time>2021-09-19T07:26:32.000Z</time>
      </trkpt>
      <trkpt lat="43.94291" lon="7.04622">
        <ele>302.962201</ele>
        <time>2021-09-19T07:26:37.000Z</time>
      </trkpt>
      <trkpt lat="43.9429" lon="7.04632">
        <ele>302.895738</ele>
        <time>2021-09-19T07:26:38.000Z</time>
      </trkpt>
      <trkpt lat="43.94292" lon="7.04662">
        <ele>302.694976</ele>
        <time>2021-09-19T07:26:41.000Z</time>
      </trkpt>
      <trkpt lat="43.94297" lon="7.04723">
        <ele>302.358427</ele>
        <time>2021-09-19T07:26:47.000Z</time>
      </trkpt>
      <trkpt lat="43.94303" lon="7.04786">
        <ele>302.109061</ele>
        <time>2021-09-19T07:26:53.000Z</time>
      </trkpt>
      <trkpt lat="43.94308" lon="7.0487">
        <ele>301.774091</ele>
        <time>2021-09-19T07:27:01.000Z</time>
      </trkpt>
      <trkpt lat="43.94309" lon="7.0488">
        <ele>301.733926</ele>
        <time>2021-09-19T07:27:02.000Z</time>
      </trkpt>
      <trkpt lat="43.9431" lon="7.04933">
        <ele>301.521656</ele>
        <time>2021-09-19T07:27:07.000Z</time>
      </trkpt>
      <trkpt lat="43.94312" lon="7.05009">
        <ele>301.211614</ele>
        <time>2021-09-19T07:27:14.000Z</time>
      </trkpt>
      <trkpt lat="43.94312" lon="7.0502">
        <ele>301.167342</ele>
        <time>2021-09-19T07:27:15.000Z</time>
      </trkpt>
      <trkpt lat="43.94312" lon="7.05086">
        <ele>300.8972</ele>
        <time>2021-09-19T07:27:21.000Z</time>
      </trkpt>
      <trkpt lat="43.94312" lon="7.05097">
        <ele>300.851699</ele>
        <time>2021-09-19T07:27:22.000Z</time>
      </trkpt>
      <trkpt lat="43.94306" lon="7.05165">
        <ele>300.569837</ele>
        <time>2021-09-19T07:27:28.000Z</time>
      </trkpt>
      <trkpt lat="43.94297" lon="7.05221">
        <ele>300.366851</ele>
        <time>2021-09-19T07:27:33.000Z</time>
      </trkpt>
      <trkpt lat="43.94277" lon="7.05292">
        <ele>300.144022</ele>
        <time>2021-09-19T07:27:40.000Z</time>
      </trkpt>
      <trkpt lat="43.94256" lon="7.05366">
        <ele>299.910181</ele>
        <time>2021-09-19T07:27:48.000Z</time>
      </trkpt>
      <trkpt lat="43.94237" lon="7.05445">
        <ele>299.72126</ele>
        <time>2021-09-19T07:27:57.000Z</time>
      </trkpt>
      <trkpt lat="43.94225" lon="7.05505">
        <ele>299.75143</ele>
        <time>2021-09-19T07:28:04.000Z</time>
      </trkpt>
      <trkpt lat="43.94216" lon="7.05553">
        <ele>299.775026</ele>
        <time>2021-09-19T07:28:10.000Z</time>
      </trkpt>
      <trkpt lat="43.94201" lon="7.05602">
        <ele>299.800641</ele>
        <time>2021-09-19T07:28:17.000Z</time>
      </trkpt>
      <trkpt lat="43.94176" lon="7.05669">
        <ele>299.886995</ele>
        <time>2021-09-19T07:28:27.000Z</time>
      </trkpt>
      <trkpt lat="43.94156" lon="7.05724">
        <ele>300.359552</ele>
        <time>2021-09-19T07:28:35.000Z</time>
      </trkpt>
      <trkpt lat="43.94154" lon="7.0573">
        <ele>300.416124</ele>
        <time>2021-09-19T07:28:36.000Z</time>
      </trkpt>
      <trkpt lat="43.94149" lon="7.05743">
        <ele>300.529959</ele>
        <time>2021-09-19T07:28:38.000Z</time>
      </trkpt>
      <trkpt lat="43.94144" lon="7.05756">
        <ele>300.643104</ele>
        <time>2021-09-19T07:28:40.000Z</time>
      </trkpt>
      <trkpt lat="43.94142" lon="7.05763">
        <ele>300.701546</ele>
        <time>2021-09-19T07:28:41.000Z</time>
      </trkpt>
      <trkpt lat="43.94132" lon="7.0579">
        <ele>300.935023</ele>
        <time>2021-09-19T07:28:45.000Z</time>
      </trkpt>
      <trkpt lat="43.94117" lon="7.0583">
        <ele>301.282133</ele>
        <time>2021-09-19T07:28:51.000Z</time>
      </trkpt>
      <trkpt lat="43.94115" lon="7.05836">
        <ele>301.336838</ele>
        <time>2021-09-19T07:28:52.000Z</time>
      </trkpt>
      <trkpt lat="43.94106" lon="7.05855">
        <ele>301.508029</ele>
        <time>2021-09-19T07:28:55.000Z</time>
      </trkpt>
      <trkpt lat="43.941" lon="7.05865">
        <ele>301.615163</ele>
        <time>2021-09-19T07:28:57.000Z</time>
      </trkpt>
      <trkpt lat="43.9409" lon="7.05882">
        <ele>301.787524</ele>
        <time>2021-09-19T07:29:00.000Z</time>
      </trkpt>
      <trkpt lat="43.94086" lon="7.05887">
        <ele>301.865929</ele>
        <time>2021-09-19T07:29:01.000Z</time>
      </trkpt>
      <trkpt lat="43.9407" lon="7.05896">
        <ele>302.127623</ele>
        <time>2021-09-19T07:29:04.000Z</time>
      </trkpt>
      <trkpt lat="43.94032" lon="7.05913">
        <ele>302.732855</ele>
        <time>2021-09-19T07:29:12.000Z</time>
      </trkpt>
      <trkpt lat="43.94003" lon="7.05925">
        <ele>303.179724</ele>
        <time>2021-09-19T07:29:18.000Z</time>
      </trkpt>
      <trkpt lat="43.93999" lon="7.05929">
        <ele>303.262188</ele>
        <time>2021-09-19T07:29:19.000Z</time>
      </trkpt>
      <trkpt lat="43.93991" lon="7.05939">
        <ele>303.413321</ele>
        <time>2021-09-19T07:29:21.000Z</time>
      </trkpt>
      <trkpt lat="43.93981" lon="7.05954">
        <ele>303.639596</ele>
        <time>2021-09-19T07:29:24.000Z</time>
      </trkpt>
      <trkpt lat="43.93956" lon="7.05994">
        <ele>304.221991</ele>
        <time>2021-09-19T07:29:31.000Z</time>
      </trkpt>
      <trkpt lat="43.93928" lon="7.06052">
        <ele>304.866284</ele>
        <time>2021-09-19T07:29:40.000Z</time>
      </trkpt>
      <trkpt lat="43.939" lon="7.06106">
        <ele>305.422028</ele>
        <time>2021-09-19T07:29:49.000Z</time>
      </trkpt>
      <trkpt lat="43.93878" lon="7.06146">
        <ele>305.854458</ele>
        <time>2021-09-19T07:29:56.000Z</time>
      </trkpt>
      <trkpt lat="43.93875" lon="7.06152">
        <ele>305.91358</ele>
        <time>2021-09-19T07:29:57.000Z</time>
      </trkpt>
      <trkpt lat="43.93859" lon="7.0618">
        <ele>306.216088</ele>
        <time>2021-09-19T07:30:02.000Z</time>
      </trkpt>
      <trkpt lat="43.93825" lon="7.06215">
        <ele>306.712566</ele>
        <time>2021-09-19T07:30:10.000Z</time>
      </trkpt>
      <trkpt lat="43.93806" lon="7.06235">
        <ele>307.011774</ele>
        <time>2021-09-19T07:30:15.000Z</time>
      </trkpt>
      <trkpt lat="43.93797" lon="7.06244">
        <ele>307.136931</ele>
        <time>2021-09-19T07:30:17.000Z</time>
      </trkpt>
      <trkpt lat="43.93755" lon="7.0628">
        <ele>307.739483</ele>
        <time>2021-09-19T07:30:26.000Z</time>
      </trkpt>
      <trkpt lat="43.93732" lon="7.06306">
        <ele>308.099515</ele>
        <time>2021-09-19T07:30:31.000Z</time>
      </trkpt>
      <trkpt lat="43.93728" lon="7.06312">
        <ele>308.170971</ele>
        <time>2021-09-19T07:30:32.000Z</time>
      </trkpt>
      <trkpt lat="43.93724" lon="7.06318">
        <ele>308.243072</ele>
        <time>2021-09-19T07:30:34.000Z</time>
      </trkpt>
      <trkpt lat="43.93714" lon="7.06348">
        <ele>308.530965</ele>
        <time>2021-09-19T07:30:37.000Z</time>
      </trkpt>
      <trkpt lat="43.93707" lon="7.06391">
        <ele>308.790669</ele>
        <time>2021-09-19T07:30:42.000Z</time>
      </trkpt>
      <trkpt lat="43.93696" lon="7.06458">
        <ele>308.885352</ele>
        <time>2021-09-19T07:30:49.000Z</time>
      </trkpt>
      <trkpt lat="43.93693" lon="7.06467">
        <ele>308.899131</ele>
        <time>2021-09-19T07:30:50.000Z</time>
      </trkpt>
      <trkpt lat="43.93681" lon="7.06495">
        <ele>308.942899</ele>
        <time>2021-09-19T07:30:53.000Z</time>
      </trkpt>
      <trkpt lat="43.93649" lon="7.06566">
        <ele>309.057497</ele>
        <time>2021-09-19T07:31:01.000Z</time>
      </trkpt>
      <trkpt lat="43.93623" lon="7.06606">
        <ele>309.067856</ele>
        <time>2021-09-19T07:31:06.000Z</time>
      </trkpt>
      <trkpt lat="43.93577" lon="7.06656">
        <ele>308.8682</ele>
        <time>2021-09-19T07:31:14.000Z</time>
      </trkpt>
      <trkpt lat="43.93566" lon="7.06669">
        <ele>308.819555</ele>
        <time>2021-09-19T07:31:16.000Z</time>
      </trkpt>
      <trkpt lat="43.93556" lon="7.06694">
        <ele>308.748214</ele>
        <time>2021-09-19T07:31:19.000Z</time>
      </trkpt>
      <trkpt lat="43.93546" lon="7.06731">
        <ele>308.65213</ele>
        <time>2021-09-19T07:31:23.000Z</time>
      </trkpt>
      <trkpt lat="43.93545" lon="7.0674">
        <ele>308.628489</ele>
        <time>2021-09-19T07:31:24.000Z</time>
      </trkpt>
      <trkpt lat="43.93548" lon="7.0677">
        <ele>308.554051</ele>
        <time>2021-09-19T07:31:27.000Z</time>
      </trkpt>
      <trkpt lat="43.93551" lon="7.0679">
        <ele>308.505322</ele>
        <time>2021-09-19T07:31:29.000Z</time>
      </trkpt>
      <trkpt lat="43.93568" lon="7.06857">
        <ele>307.974758</ele>
        <time>2021-09-19T07:31:36.000Z</time>
      </trkpt>
      <trkpt lat="43.93587" lon="7.06929">
        <ele>307.386107</ele>
        <time>2021-09-19T07:31:43.000Z</time>
      </trkpt>
      <trkpt lat="43.93592" lon="7.0695">
        <ele>307.215737</ele>
        <time>2021-09-19T07:31:45.000Z</time>
      </trkpt>
      <trkpt lat="43.93595" lon="7.06971">
        <ele>307.044331</ele>
        <time>2021-09-19T07:31:47.000Z</time>
      </trkpt>
      <trkpt lat="43.93596" lon="7.06993">
        <ele>306.873098</ele>
        <time>2021-09-19T07:31:49.000Z</time>
      </trkpt>
      <trkpt lat="43.9359" lon="7.07053">
        <ele>306.370252</ele>
        <time>2021-09-19T07:31:54.000Z</time>
      </trkpt>
      <trkpt lat="43.93585" lon="7.07101">
        <ele>305.894122</ele>
        <time>2021-09-19T07:31:58.000Z</time>
      </trkpt>
      <trkpt lat="43.93586" lon="7.07113">
        <ele>305.774715</ele>
        <time>2021-09-19T07:31:59.000Z</time>
      </trkpt>
      <trkpt lat="43.93586" lon="7.07125">
        <ele>305.656215</ele>
        <time>2021-09-19T07:32:00.000Z</time>
      </trkpt>
      <trkpt lat="43.93592" lon="7.07148">
        <ele>305.425305</ele>
        <time>2021-09-19T07:32:02.000Z</time>
      </trkpt>
      <trkpt lat="43.93595" lon="7.07159">
        <ele>305.307552</ele>
        <time>2021-09-19T07:32:03.000Z</time>
      </trkpt>
      <trkpt lat="43.93607" lon="7.07191">
        <ele>304.948797</ele>
        <time>2021-09-19T07:32:06.000Z</time>
      </trkpt>
      <trkpt lat="43.93609" lon="7.07202">
        <ele>304.839754</ele>
        <time>2021-09-19T07:32:07.000Z</time>
      </trkpt>
      <trkpt lat="43.93613" lon="7.07225">
        <ele>304.609626</ele>
        <time>2021-09-19T07:32:09.000Z</time>
      </trkpt>
      <trkpt lat="43.93615" lon="7.07237">
        <ele>304.489496</ele>
        <time>2021-09-19T07:32:10.000Z</time>
      </trkpt>
      <trkpt lat="43.93616" lon="7.07249">
        <ele>304.371564</ele>
        <time>2021-09-19T07:32:11.000Z</time>
      </trkpt>
      <trkpt lat="43.93615" lon="7.07284">
        <ele>303.962423</ele>
        <time>2021-09-19T07:32:14.000Z</time>
      </trkpt>
      <trkpt lat="43.93607" lon="7.07369">
        <ele>302.573545</ele>
        <time>2021-09-19T07:32:21.000Z</time>
      </trkpt>
      <trkpt lat="43.93598" lon="7.07452">
        <ele>301.199585</ele>
        <time>2021-09-19T07:32:28.000Z</time>
      </trkpt>
      <trkpt lat="43.93593" lon="7.075">
        <ele>300.412592</ele>
        <time>2021-09-19T07:32:32.000Z</time>
      </trkpt>
      <trkpt lat="43.93593" lon="7.07559">
        <ele>299.428845</ele>
        <time>2021-09-19T07:32:37.000Z</time>
      </trkpt>
      <trkpt lat="43.93596" lon="7.07641">
        <ele>298.007931</ele>
        <time>2021-09-19T07:32:44.000Z</time>
      </trkpt>
      <trkpt lat="43.93599" lon="7.07724">
        <ele>296.558145</ele>
        <time>2021-09-19T07:32:51.000Z</time>
      </trkpt>
      <trkpt lat="43.93604" lon="7.07758">
        <ele>295.966329</ele>
        <time>2021-09-19T07:32:54.000Z</time>
      </trkpt>
      <trkpt lat="43.93606" lon="7.07769">
        <ele>295.772905</ele>
        <time>2021-09-19T07:32:55.000Z</time>
      </trkpt>
      <trkpt lat="43.93624" lon="7.07828">
        <ele>294.99136</ele>
        <time>2021-09-19T07:33:01.000Z</time>
      </trkpt>
      <trkpt lat="43.93642" lon="7.07882">
        <ele>294.283081</ele>
        <time>2021-09-19T07:33:07.000Z</time>
      </trkpt>
      <trkpt lat="43.93668" lon="7.07941">
        <ele>293.451296</ele>
        <time>2021-09-19T07:33:14.000Z</time>
      </trkpt>
      <trkpt lat="43.93703" lon="7.08012">
        <ele>292.302706</ele>
        <time>2021-09-19T07:33:22.000Z</time>
      </trkpt>
      <trkpt lat="43.93736" lon="7.08089">
        <ele>290.798149</ele>
        <time>2021-09-19T07:33:30.000Z</time>
      </trkpt>
      <trkpt lat="43.9374" lon="7.08099">
        <ele>290.611053</ele>
        <time>2021-09-19T07:33:31.000Z</time>
      </trkpt>
      <trkpt lat="43.93767" lon="7.08172">
        <ele>289.249811</ele>
        <time>2021-09-19T07:33:38.000Z</time>
      </trkpt>
      <trkpt lat="43.93778" lon="7.08228">
        <ele>288.231865</ele>
        <time>2021-09-19T07:33:43.000Z</time>
      </trkpt>
      <trkpt lat="43.93775" lon="7.08274">
        <ele>287.345864</ele>
        <time>2021-09-19T07:33:47.000Z</time>
      </trkpt>
      <trkpt lat="43.93763" lon="7.08327">
        <ele>286.281463</ele>
        <time>2021-09-19T07:33:52.000Z</time>
      </trkpt>
      <trkpt lat="43.93745" lon="7.08385">
        <ele>285.058428</ele>
        <time>2021-09-19T07:33:58.000Z</time>
      </trkpt>
      <trkpt lat="43.93734" lon="7.08434">
        <ele>284.07623</ele>
        <time>2021-09-19T07:34:03.000Z</time>
      </trkpt>
      <trkpt lat="43.93723" lon="7.08514">
        <ele>282.689437</ele>
        <time>2021-09-19T07:34:11.000Z</time>
      </trkpt>
      <trkpt lat="43.9372" lon="7.08534">
        <ele>282.35144</ele>
        <time>2021-09-19T07:34:13.000Z</time>
      </trkpt>
      <trkpt lat="43.93706" lon="7.08603">
        <ele>281.170122</ele>
        <time>2021-09-19T07:34:20.000Z</time>
      </trkpt>
      <trkpt lat="43.93689" lon="7.08648">
        <ele>280.324635</ele>
        <time>2021-09-19T07:34:25.000Z</time>
      </trkpt>
      <trkpt lat="43.93665" lon="7.08687">
        <ele>279.510574</ele>
        <time>2021-09-19T07:34:30.000Z</time>
      </trkpt>
      <trkpt lat="43.93628" lon="7.08725">
        <ele>278.633849</ele>
        <time>2021-09-19T07:34:36.000Z</time>
      </trkpt>
      <trkpt lat="43.93594" lon="7.08748">
        <ele>277.891693</ele>
        <time>2021-09-19T07:34:41.000Z</time>
      </trkpt>
      <trkpt lat="43.93544" lon="7.08775">
        <ele>276.869022</ele>
        <time>2021-09-19T07:34:48.000Z</time>
      </trkpt>
      <trkpt lat="43.93494" lon="7.08802">
        <ele>275.920898</ele>
        <time>2021-09-19T07:34:55.000Z</time>
      </trkpt>
      <trkpt lat="43.93465" lon="7.08818">
        <ele>275.475039</ele>
        <time>2021-09-19T07:34:59.000Z</time>
      </trkpt>
      <trkpt lat="43.93414" lon="7.08847">
        <ele>274.695906</ele>
        <time>2021-09-19T07:35:06.000Z</time>
      </trkpt>
      <trkpt lat="43.93399" lon="7.08855">
        <ele>274.465554</ele>
        <time>2021-09-19T07:35:08.000Z</time>
      </trkpt>
      <trkpt lat="43.93347" lon="7.08885">
        <ele>273.655271</ele>
        <time>2021-09-19T07:35:15.000Z</time>
      </trkpt>
      <trkpt lat="43.93325" lon="7.08897">
        <ele>273.350945</ele>
        <time>2021-09-19T07:35:18.000Z</time>
      </trkpt>
      <trkpt lat="43.93272" lon="7.08927">
        <ele>272.629058</ele>
        <time>2021-09-19T07:35:25.000Z</time>
      </trkpt>
      <trkpt lat="43.93249" lon="7.08939">
        <ele>272.318955</ele>
        <time>2021-09-19T07:35:28.000Z</time>
      </trkpt>
      <trkpt lat="43.93199" lon="7.08969">
        <ele>271.617059</ele>
        <time>2021-09-19T07:35:35.000Z</time>
      </trkpt>
      <trkpt lat="43.93177" lon="7.08982">
        <ele>271.317673</ele>
        <time>2021-09-19T07:35:38.000Z</time>
      </trkpt>
      <trkpt lat="43.93143" lon="7.09006">
        <ele>270.864956</ele>
        <time>2021-09-19T07:35:43.000Z</time>
      </trkpt>
      <trkpt lat="43.93137" lon="7.09013">
        <ele>270.774519</ele>
        <time>2021-09-19T07:35:44.000Z</time>
      </trkpt>
      <trkpt lat="43.93095" lon="7.09058">
        <ele>270.143328</ele>
        <time>2021-09-19T07:35:51.000Z</time>
      </trkpt>
      <trkpt lat="43.93061" lon="7.09099">
        <ele>269.611732</ele>
        <time>2021-09-19T07:35:57.000Z</time>
      </trkpt>
      <trkpt lat="43.93039" lon="7.09128">
        <ele>269.246293</ele>
        <time>2021-09-19T07:36:01.000Z</time>
      </trkpt>
      <trkpt lat="43.93012" lon="7.09175">
        <ele>268.671325</ele>
        <time>2021-09-19T07:36:07.000Z</time>
      </trkpt>
      <trkpt lat="43.92984" lon="7.09233">
        <ele>267.99621</ele>
        <time>2021-09-19T07:36:14.000Z</time>
      </trkpt>
      <trkpt lat="43.92954" lon="7.09302">
        <ele>267.207914</ele>
        <time>2021-09-19T07:36:22.000Z</time>
      </trkpt>
      <trkpt lat="43.92946" lon="7.0932">
        <ele>267.007743</ele>
        <time>2021-09-19T07:36:24.000Z</time>
      </trkpt>
      <trkpt lat="43.92914" lon="7.09392">
        <ele>266.146063</ele>
        <time>2021-09-19T07:36:32.000Z</time>
      </trkpt>
      <trkpt lat="43.92885" lon="7.09461">
        <ele>265.312239</ele>
        <time>2021-09-19T07:36:40.000Z</time>
      </trkpt>
      <trkpt lat="43.92882" lon="7.0947">
        <ele>265.213334</ele>
        <time>2021-09-19T07:36:41.000Z</time>
      </trkpt>
      <trkpt lat="43.92864" lon="7.09544">
        <ele>264.404804</ele>
        <time>2021-09-19T07:36:49.000Z</time>
      </trkpt>
      <trkpt lat="43.92856" lon="7.09622">
        <ele>263.559384</ele>
        <time>2021-09-19T07:36:57.000Z</time>
      </trkpt>
      <trkpt lat="43.92849" lon="7.0969">
        <ele>262.822611</ele>
        <time>2021-09-19T07:37:04.000Z</time>
      </trkpt>
      <trkpt lat="43.92836" lon="7.09757">
        <ele>262.082865</ele>
        <time>2021-09-19T07:37:11.000Z</time>
      </trkpt>
      <trkpt lat="43.92821" lon="7.09815">
        <ele>261.390397</ele>
        <time>2021-09-19T07:37:17.000Z</time>
      </trkpt>
      <trkpt lat="43.92798" lon="7.09895">
        <ele>260.261362</ele>
        <time>2021-09-19T07:37:25.000Z</time>
      </trkpt>
      <trkpt lat="43.92792" lon="7.09916">
        <ele>259.966019</ele>
        <time>2021-09-19T07:37:27.000Z</time>
      </trkpt>
      <trkpt lat="43.92776" lon="7.09991">
        <ele>258.924033</ele>
        <time>2021-09-19T07:37:34.000Z</time>
      </trkpt>
      <trkpt lat="43.92776" lon="7.10048">
        <ele>258.174817</ele>
        <time>2021-09-19T07:37:39.000Z</time>
      </trkpt>
      <trkpt lat="43.92788" lon="7.10114">
        <ele>257.205913</ele>
        <time>2021-09-19T07:37:45.000Z</time>
      </trkpt>
      <trkpt lat="43.92806" lon="7.10164">
        <ele>256.404789</ele>
        <time>2021-09-19T07:37:50.000Z</time>
      </trkpt>
      <trkpt lat="43.92836" lon="7.10216">
        <ele>255.452138</ele>
        <time>2021-09-19T07:37:56.000Z</time>
      </trkpt>
      <trkpt lat="43.92871" lon="7.10274">
        <ele>254.412857</ele>
        <time>2021-09-19T07:38:03.000Z</time>
      </trkpt>
      <trkpt lat="43.9288" lon="7.10292">
        <ele>254.15446</ele>
        <time>2021-09-19T07:38:05.000Z</time>
      </trkpt>
      <trkpt lat="43.92898" lon="7.10337">
        <ele>253.523766</ele>
        <time>2021-09-19T07:38:10.000Z</time>
      </trkpt>
      <trkpt lat="43.92912" lon="7.10394">
        <ele>252.786203</ele>
        <time>2021-09-19T07:38:16.000Z</time>
      </trkpt>
      <trkpt lat="43.92917" lon="7.1046">
        <ele>251.978354</ele>
        <time>2021-09-19T07:38:23.000Z</time>
      </trkpt>
      <trkpt lat="43.92918" lon="7.1047">
        <ele>251.865937</ele>
        <time>2021-09-19T07:38:24.000Z</time>
      </trkpt>
      <trkpt lat="43.92919" lon="7.10497">
        <ele>251.561177</ele>
        <time>2021-09-19T07:38:27.000Z</time>
      </trkpt>
      <trkpt lat="43.92922" lon="7.10562">
        <ele>251.07092</ele>
        <time>2021-09-19T07:38:34.000Z</time>
      </trkpt>
      <trkpt lat="43.92925" lon="7.10617">
        <ele>250.646316</ele>
        <time>2021-09-19T07:38:40.000Z</time>
      </trkpt>
      <trkpt lat="43.92926" lon="7.10627">
        <ele>250.574963</ele>
        <time>2021-09-19T07:38:41.000Z</time>
      </trkpt>
      <trkpt lat="43.92933" lon="7.10693">
        <ele>250.063096</ele>
        <time>2021-09-19T07:38:48.000Z</time>
      </trkpt>
      <trkpt lat="43.9294" lon="7.1073">
        <ele>249.770715</ele>
        <time>2021-09-19T07:38:52.000Z</time>
      </trkpt>
      <trkpt lat="43.92944" lon="7.10749">
        <ele>249.637743</ele>
        <time>2021-09-19T07:38:54.000Z</time>
      </trkpt>
      <trkpt lat="43.92956" lon="7.10806">
        <ele>249.261118</ele>
        <time>2021-09-19T07:39:00.000Z</time>
      </trkpt>
      <trkpt lat="43.92977" lon="7.10881">
        <ele>248.749184</ele>
        <time>2021-09-19T07:39:08.000Z</time>
      </trkpt>
      <trkpt lat="43.9298" lon="7.1089">
        <ele>248.68601</ele>
        <time>2021-09-19T07:39:09.000Z</time>
      </trkpt>
      <trkpt lat="43.92982" lon="7.10899">
        <ele>248.62377</ele>
        <time>2021-09-19T07:39:10.000Z</time>
      </trkpt>
      <trkpt lat="43.92988" lon="7.10917">
        <ele>248.501618</ele>
        <time>2021-09-19T07:39:12.000Z</time>
      </trkpt>
      <trkpt lat="43.92991" lon="7.10926">
        <ele>248.439961</ele>
        <time>2021-09-19T07:39:13.000Z</time>
      </trkpt>
      <trkpt lat="43.93009" lon="7.10978">
        <ele>248.113342</ele>
        <time>2021-09-19T07:39:19.000Z</time>
      </trkpt>
      <trkpt lat="43.93013" lon="7.10987">
        <ele>248.094507</ele>
        <time>2021-09-19T07:39:20.000Z</time>
      </trkpt>
      <trkpt lat="43.93022" lon="7.11013">
        <ele>248.040212</ele>
        <time>2021-09-19T07:39:23.000Z</time>
      </trkpt>
      <trkpt lat="43.93029" lon="7.11031">
        <ele>248.002163</ele>
        <time>2021-09-19T07:39:25.000Z</time>
      </trkpt>
      <trkpt lat="43.93045" lon="7.11074">
        <ele>247.911554</ele>
        <time>2021-09-19T07:39:30.000Z</time>
      </trkpt>
      <trkpt lat="43.93061" lon="7.11117">
        <ele>247.820612</ele>
        <time>2021-09-19T07:39:35.000Z</time>
      </trkpt>
      <trkpt lat="43.93084" lon="7.11181">
        <ele>247.687911</ele>
        <time>2021-09-19T07:39:42.000Z</time>
      </trkpt>
      <trkpt lat="43.93087" lon="7.1119">
        <ele>247.668581</ele>
        <time>2021-09-19T07:39:43.000Z</time>
      </trkpt>
      <trkpt lat="43.93103" lon="7.1125">
        <ele>247.308225</ele>
        <time>2021-09-19T07:39:49.000Z</time>
      </trkpt>
      <trkpt lat="43.93114" lon="7.11321">
        <ele>246.886486</ele>
        <time>2021-09-19T07:39:56.000Z</time>
      </trkpt>
      <trkpt lat="43.93117" lon="7.11399">
        <ele>246.429264</ele>
        <time>2021-09-19T07:40:04.000Z</time>
      </trkpt>
      <trkpt lat="43.93113" lon="7.11466">
        <ele>246.110564</ele>
        <time>2021-09-19T07:40:11.000Z</time>
      </trkpt>
      <trkpt lat="43.93106" lon="7.11532">
        <ele>245.884147</ele>
        <time>2021-09-19T07:40:18.000Z</time>
      </trkpt>
      <trkpt lat="43.93104" lon="7.11551">
        <ele>245.820601</ele>
        <time>2021-09-19T07:40:20.000Z</time>
      </trkpt>
      <trkpt lat="43.93103" lon="7.1157">
        <ele>245.75503</ele>
        <time>2021-09-19T07:40:22.000Z</time>
      </trkpt>
      <trkpt lat="43.93102" lon="7.1158">
        <ele>245.722008</ele>
        <time>2021-09-19T07:40:23.000Z</time>
      </trkpt>
      <trkpt lat="43.93103" lon="7.11599">
        <ele>245.656249</ele>
        <time>2021-09-19T07:40:25.000Z</time>
      </trkpt>
      <trkpt lat="43.93103" lon="7.11609">
        <ele>245.62252</ele>
        <time>2021-09-19T07:40:26.000Z</time>
      </trkpt>
      <trkpt lat="43.93104" lon="7.11618">
        <ele>245.589839</ele>
        <time>2021-09-19T07:40:27.000Z</time>
      </trkpt>
      <trkpt lat="43.93106" lon="7.11638">
        <ele>245.522386</ele>
        <time>2021-09-19T07:40:29.000Z</time>
      </trkpt>
      <trkpt lat="43.9312" lon="7.11694">
        <ele>245.311222</ele>
        <time>2021-09-19T07:40:35.000Z</time>
      </trkpt>
      <trkpt lat="43.93126" lon="7.11712">
        <ele>245.232584</ele>
        <time>2021-09-19T07:40:37.000Z</time>
      </trkpt>
      <trkpt lat="43.93133" lon="7.11729">
        <ele>245.152534</ele>
        <time>2021-09-19T07:40:39.000Z</time>
      </trkpt>
      <trkpt lat="43.93141" lon="7.11744">
        <ele>245.078292</ele>
        <time>2021-09-19T07:40:41.000Z</time>
      </trkpt>
      <trkpt lat="43.93149" lon="7.11759">
        <ele>245.00242</ele>
        <time>2021-09-19T07:40:43.000Z</time>
      </trkpt>
      <trkpt lat="43.9318" lon="7.11795">
        <ele>244.777737</ele>
        <time>2021-09-19T07:40:49.000Z</time>
      </trkpt>
      <trkpt lat="43.93213" lon="7.11825">
        <ele>244.553761</ele>
        <time>2021-09-19T07:40:56.000Z</time>
      </trkpt>
      <trkpt lat="43.93251" lon="7.11862">
        <ele>244.293336</ele>
        <time>2021-09-19T07:41:02.000Z</time>
      </trkpt>
      <trkpt lat="43.93273" lon="7.11903">
        <ele>244.064065</ele>
        <time>2021-09-19T07:41:08.000Z</time>
      </trkpt>
      <trkpt lat="43.93283" lon="7.11925">
        <ele>243.945898</ele>
        <time>2021-09-19T07:41:11.000Z</time>
      </trkpt>
      <trkpt lat="43.93284" lon="7.11934">
        <ele>243.904965</ele>
        <time>2021-09-19T07:41:12.000Z</time>
      </trkpt>
      <trkpt lat="43.93285" lon="7.11943">
        <ele>243.865303</ele>
        <time>2021-09-19T07:41:13.000Z</time>
      </trkpt>
      <trkpt lat="43.93287" lon="7.11961">
        <ele>243.78324</ele>
        <time>2021-09-19T07:41:15.000Z</time>
      </trkpt>
      <trkpt lat="43.93288" lon="7.11971">
        <ele>243.741722</ele>
        <time>2021-09-19T07:41:16.000Z</time>
      </trkpt>
      <trkpt lat="43.93289" lon="7.1198">
        <ele>243.701176</ele>
        <time>2021-09-19T07:41:17.000Z</time>
      </trkpt>
      <trkpt lat="43.93293" lon="7.11995">
        <ele>243.626859</ele>
        <time>2021-09-19T07:41:19.000Z</time>
      </trkpt>
      <trkpt lat="43.93297" lon="7.12001">
        <ele>243.590125</ele>
        <time>2021-09-19T07:41:20.000Z</time>
      </trkpt>
      <trkpt lat="43.93301" lon="7.12008">
        <ele>243.552647</ele>
        <time>2021-09-19T07:41:21.000Z</time>
      </trkpt>
      <trkpt lat="43.93315" lon="7.12025">
        <ele>243.436389</ele>
        <time>2021-09-19T07:41:24.000Z</time>
      </trkpt>
      <trkpt lat="43.93343" lon="7.12059">
        <ele>243.213847</ele>
        <time>2021-09-19T07:41:30.000Z</time>
      </trkpt>
      <trkpt lat="43.93374" lon="7.1209">
        <ele>243.024935</ele>
        <time>2021-09-19T07:41:36.000Z</time>
      </trkpt>
      <trkpt lat="43.93418" lon="7.12133">
        <ele>242.756942</ele>
        <time>2021-09-19T07:41:44.000Z</time>
      </trkpt>
      <trkpt lat="43.93466" lon="7.12181">
        <ele>242.463328</ele>
        <time>2021-09-19T07:41:53.000Z</time>
      </trkpt>
      <trkpt lat="43.93477" lon="7.12192">
        <ele>242.397345</ele>
        <time>2021-09-19T07:41:55.000Z</time>
      </trkpt>
      <trkpt lat="43.93495" lon="7.12219">
        <ele>242.217888</ele>
        <time>2021-09-19T07:41:59.000Z</time>
      </trkpt>
      <trkpt lat="43.93532" lon="7.12283">
        <ele>241.76275</ele>
        <time>2021-09-19T07:42:08.000Z</time>
      </trkpt>
      <trkpt lat="43.93554" lon="7.12342">
        <ele>241.387358</ele>
        <time>2021-09-19T07:42:15.000Z</time>
      </trkpt>
      <trkpt lat="43.93565" lon="7.12399">
        <ele>241.06282</ele>
        <time>2021-09-19T07:42:21.000Z</time>
      </trkpt>
      <trkpt lat="43.9357" lon="7.12457">
        <ele>240.800422</ele>
        <time>2021-09-19T07:42:27.000Z</time>
      </trkpt>
      <trkpt lat="43.93569" lon="7.12467">
        <ele>240.761641</ele>
        <time>2021-09-19T07:42:28.000Z</time>
      </trkpt>
      <trkpt lat="43.93563" lon="7.12525">
        <ele>240.528495</ele>
        <time>2021-09-19T07:42:34.000Z</time>
      </trkpt>
      <trkpt lat="43.93555" lon="7.12572">
        <ele>240.336735</ele>
        <time>2021-09-19T07:42:39.000Z</time>
      </trkpt>
      <trkpt lat="43.93553" lon="7.12582">
        <ele>240.297177</ele>
        <time>2021-09-19T07:42:40.000Z</time>
      </trkpt>
      <trkpt lat="43.93529" lon="7.12642">
        <ele>240.025655</ele>
        <time>2021-09-19T07:42:47.000Z</time>
      </trkpt>
      <trkpt lat="43.93512" lon="7.12693">
        <ele>239.846927</ele>
        <time>2021-09-19T07:42:53.000Z</time>
      </trkpt>
      <trkpt lat="43.93495" lon="7.12773">
        <ele>239.603453</ele>
        <time>2021-09-19T07:43:02.000Z</time>
      </trkpt>
      <trkpt lat="43.93491" lon="7.12791">
        <ele>239.549853</ele>
        <time>2021-09-19T07:43:04.000Z</time>
      </trkpt>
      <trkpt lat="43.93474" lon="7.12841">
        <ele>239.387918</ele>
        <time>2021-09-19T07:43:10.000Z</time>
      </trkpt>
      <trkpt lat="43.93447" lon="7.12885">
        <ele>239.218414</ele>
        <time>2021-09-19T07:43:16.000Z</time>
      </trkpt>
      <trkpt lat="43.93424" lon="7.12917">
        <ele>239.072055</ele>
        <time>2021-09-19T07:43:21.000Z</time>
      </trkpt>
      <trkpt lat="43.93394" lon="7.12955">
        <ele>238.889839</ele>
        <time>2021-09-19T07:43:27.000Z</time>
      </trkpt>
      <trkpt lat="43.93369" lon="7.12987">
        <ele>238.73845</ele>
        <time>2021-09-19T07:43:32.000Z</time>
      </trkpt>
      <trkpt lat="43.93345" lon="7.13018">
        <ele>238.587938</ele>
        <time>2021-09-19T07:43:37.000Z</time>
      </trkpt>
      <trkpt lat="43.93308" lon="7.13059">
        <ele>238.332775</ele>
        <time>2021-09-19T07:43:44.000Z</time>
      </trkpt>
      <trkpt lat="43.93279" lon="7.13096">
        <ele>238.020822</ele>
        <time>2021-09-19T07:43:50.000Z</time>
      </trkpt>
      <trkpt lat="43.93238" lon="7.13151">
        <ele>237.566739</ele>
        <time>2021-09-19T07:43:58.000Z</time>
      </trkpt>
      <trkpt lat="43.93233" lon="7.13158">
        <ele>237.511168</ele>
        <time>2021-09-19T07:43:59.000Z</time>
      </trkpt>
      <trkpt lat="43.93215" lon="7.13183">
        <ele>237.310527</ele>
        <time>2021-09-19T07:44:03.000Z</time>
      </trkpt>
      <trkpt lat="43.9321" lon="7.13189">
        <ele>237.260501</ele>
        <time>2021-09-19T07:44:04.000Z</time>
      </trkpt>
      <trkpt lat="43.93191" lon="7.13203">
        <ele>237.087779</ele>
        <time>2021-09-19T07:44:07.000Z</time>
      </trkpt>
      <trkpt lat="43.93174" lon="7.13212">
        <ele>237.005086</ele>
        <time>2021-09-19T07:44:10.000Z</time>
      </trkpt>
      <trkpt lat="43.93169" lon="7.13216">
        <ele>236.999317</ele>
        <time>2021-09-19T07:44:11.000Z</time>
      </trkpt>
      <trkpt lat="43.93164" lon="7.13221">
        <ele>236.993097</ele>
        <time>2021-09-19T07:44:12.000Z</time>
      </trkpt>
      <trkpt lat="43.93153" lon="7.13234">
        <ele>236.978278</ele>
        <time>2021-09-19T07:44:14.000Z</time>
      </trkpt>
      <trkpt lat="43.93144" lon="7.13252">
        <ele>236.96234</ele>
        <time>2021-09-19T07:44:16.000Z</time>
      </trkpt>
      <trkpt lat="43.93139" lon="7.13273">
        <ele>236.946858</ele>
        <time>2021-09-19T07:44:18.000Z</time>
      </trkpt>
      <trkpt lat="43.93134" lon="7.13321">
        <ele>236.91208</ele>
        <time>2021-09-19T07:44:23.000Z</time>
      </trkpt>
      <trkpt lat="43.93133" lon="7.1333">
        <ele>236.905212</ele>
        <time>2021-09-19T07:44:24.000Z</time>
      </trkpt>
      <trkpt lat="43.93128" lon="7.13389">
        <ele>236.862997</ele>
        <time>2021-09-19T07:44:30.000Z</time>
      </trkpt>
      <trkpt lat="43.93122" lon="7.13445">
        <ele>236.923345</ele>
        <time>2021-09-19T07:44:36.000Z</time>
      </trkpt>
      <trkpt lat="43.93121" lon="7.13454">
        <ele>236.970054</ele>
        <time>2021-09-19T07:44:37.000Z</time>
      </trkpt>
      <trkpt lat="43.93118" lon="7.1349">
        <ele>237.163419</ele>
        <time>2021-09-19T07:44:41.000Z</time>
      </trkpt>
      <trkpt lat="43.93116" lon="7.13507">
        <ele>237.255782</ele>
        <time>2021-09-19T07:44:43.000Z</time>
      </trkpt>
      <trkpt lat="43.93118" lon="7.13525">
        <ele>237.351408</ele>
        <time>2021-09-19T07:44:45.000Z</time>
      </trkpt>
      <trkpt lat="43.93119" lon="7.13533">
        <ele>237.397277</ele>
        <time>2021-09-19T07:44:46.000Z</time>
      </trkpt>
      <trkpt lat="43.93122" lon="7.13559">
        <ele>237.534078</ele>
        <time>2021-09-19T07:44:49.000Z</time>
      </trkpt>
      <trkpt lat="43.93149" lon="7.13633">
        <ele>237.979012</ele>
        <time>2021-09-19T07:44:58.000Z</time>
      </trkpt>
      <trkpt lat="43.93173" lon="7.13688">
        <ele>238.237806</ele>
        <time>2021-09-19T07:45:05.000Z</time>
      </trkpt>
      <trkpt lat="43.93176" lon="7.13695">
        <ele>238.259769</ele>
        <time>2021-09-19T07:45:06.000Z</time>
      </trkpt>
      <trkpt lat="43.93186" lon="7.1371">
        <ele>238.311353</ele>
        <time>2021-09-19T07:45:08.000Z</time>
      </trkpt>
      <trkpt lat="43.93195" lon="7.13718">
        <ele>238.349439</ele>
        <time>2021-09-19T07:45:10.000Z</time>
      </trkpt>
      <trkpt lat="43.93227" lon="7.13745">
        <ele>238.482343</ele>
        <time>2021-09-19T07:45:16.000Z</time>
      </trkpt>
      <trkpt lat="43.93265" lon="7.13776">
        <ele>238.636327</ele>
        <time>2021-09-19T07:45:22.000Z</time>
      </trkpt>
      <trkpt lat="43.93294" lon="7.13819">
        <ele>238.786829</ele>
        <time>2021-09-19T07:45:28.000Z</time>
      </trkpt>
      <trkpt lat="43.89163" lon="7.18913">
        <ele>176.37684</ele>
        <time>2021-09-19T07:59:56.000Z</time>
      </trkpt>
      <trkpt lat="43.89142" lon="7.18919">
        <ele>175.99629</ele>
        <time>2021-09-19T07:59:59.000Z</time>
      </trkpt>
      <trkpt lat="43.89129" lon="7.18921">
        <ele>175.757752</ele>
        <time>2021-09-19T08:00:01.000Z</time>
      </trkpt>
      <trkpt lat="43.89102" lon="7.18916">
        <ele>175.175795</ele>
        <time>2021-09-19T08:00:05.000Z</time>
      </trkpt>
      <trkpt lat="43.89095" lon="7.18914">
        <ele>174.993206</ele>
        <time>2021-09-19T08:00:06.000Z</time>
      </trkpt>
      <trkpt lat="43.89058" lon="7.18894">
        <ele>173.852518</ele>
        <time>2021-09-19T08:00:12.000Z</time>
      </trkpt>
      <trkpt lat="43.89021" lon="7.18871">
        <ele>172.712016</ele>
        <time>2021-09-19T08:00:21.000Z</time>
      </trkpt>
      <trkpt lat="43.88969" lon="7.18839">
        <ele>171.118614</ele>
        <time>2021-09-19T08:00:25.000Z</time>
      </trkpt>
      <trkpt lat="43.88943" lon="7.18864">
        <ele>170.310491</ele>
        <time>2021-09-19T08:00:30.000Z</time>
      </trkpt>
      <trkpt lat="43.88924" lon="7.18865">
        <ele>170.221111</ele>
        <time>2021-09-19T08:00:33.000Z</time>
      </trkpt>
      <trkpt lat="43.88906" lon="7.18871">
        <ele>170.127611</ele>
        <time>2021-09-19T08:00:37.000Z</time>
      </trkpt>
      <trkpt lat="43.88878" lon="7.18886">
        <ele>169.982178</ele>
        <time>2021-09-19T08:00:43.000Z</time>
      </trkpt>
      <trkpt lat="43.88832" lon="7.18914">
        <ele>169.734063</ele>
        <time>2021-09-19T08:00:50.000Z</time>
      </trkpt>
      <trkpt lat="43.888" lon="7.18933">
        <ele>169.564874</ele>
        <time>2021-09-19T08:00:57.000Z</time>
      </trkpt>
      <trkpt lat="43.88745" lon="7.18961">
        <ele>169.331057</ele>
        <time>2021-09-19T08:01:05.000Z</time>
      </trkpt>
      <trkpt lat="43.88739" lon="7.18964">
        <ele>169.309251</ele>
        <time>2021-09-19T08:01:07.000Z</time>
      </trkpt>
      <trkpt lat="43.88729" lon="7.18969">
        <ele>169.273651</ele>
        <time>2021-09-19T08:01:14.000Z</time>
      </trkpt>
      <trkpt lat="43.88645" lon="7.1895">
        <ele>168.987469</ele>
        <time>2021-09-19T08:01:17.000Z</time>
      </trkpt>
      <trkpt lat="43.88618" lon="7.18967">
        <ele>168.886217</ele>
        <time>2021-09-19T08:01:21.000Z</time>
      </trkpt>
      <trkpt lat="43.88593" lon="7.19024">
        <ele>168.561405</ele>
        <time>2021-09-19T08:01:26.000Z</time>
      </trkpt>
      <trkpt lat="43.88546" lon="7.19037">
        <ele>168.170369</ele>
        <time>2021-09-19T08:01:33.000Z</time>
      </trkpt>
      <trkpt lat="43.88502" lon="7.19056">
        <ele>167.801406</ele>
        <time>2021-09-19T08:01:39.000Z</time>
      </trkpt>
      <trkpt lat="43.88445" lon="7.19083">
        <ele>167.355437</ele>
        <time>2021-09-19T08:01:47.000Z</time>
      </trkpt>
      <trkpt lat="43.88429" lon="7.19084">
        <ele>167.29416</ele>
        <time>2021-09-19T08:01:49.000Z</time>
      </trkpt>
      <trkpt lat="43.88412" lon="7.1908">
        <ele>167.230349</ele>
        <time>2021-09-19T08:01:51.000Z</time>
      </trkpt>
      <trkpt lat="43.88367" lon="7.19065">
        <ele>167.054</ele>
        <time>2021-09-19T08:01:57.000Z</time>
      </trkpt>
      <trkpt lat="43.88314" lon="7.19056">
        <ele>166.852061</ele>
        <time>2021-09-19T08:02:04.000Z</time>
      </trkpt>
      <trkpt lat="43.88257" lon="7.19056">
        <ele>166.579672</ele>
        <time>2021-09-19T08:02:11.000Z</time>
      </trkpt>
      <trkpt lat="43.88204" lon="7.19039">
        <ele>166.224967</ele>
        <time>2021-09-19T08:02:18.000Z</time>
      </trkpt>
      <trkpt lat="43.88138" lon="7.19019">
        <ele>165.78478</ele>
        <time>2021-09-19T08:02:28.000Z</time>
      </trkpt>
      <trkpt lat="43.88078" lon="7.19003">
        <ele>165.377397</ele>
        <time>2021-09-19T08:02:36.000Z</time>
      </trkpt>
      <trkpt lat="43.88071" lon="7.19">
        <ele>165.326078</ele>
        <time>2021-09-19T08:02:37.000Z</time>
      </trkpt>
      <trkpt lat="43.88028" lon="7.18993">
        <ele>165.020208</ele>
        <time>2021-09-19T08:02:43.000Z</time>
      </trkpt>
      <trkpt lat="43.87978" lon="7.19004">
        <ele>164.665916</ele>
        <time>2021-09-19T08:02:50.000Z</time>
      </trkpt>
      <trkpt lat="43.87935" lon="7.19026">
        <ele>164.339101</ele>
        <time>2021-09-19T08:02:57.000Z</time>
      </trkpt>
      <trkpt lat="43.87891" lon="7.19063">
        <ele>164.084678</ele>
        <time>2021-09-19T08:03:04.000Z</time>
      </trkpt>
      <trkpt lat="43.87848" lon="7.191">
        <ele>163.854019</ele>
        <time>2021-09-19T08:03:14.000Z</time>
      </trkpt>
      <trkpt lat="43.87809" lon="7.19164">
        <ele>163.579852</ele>
        <time>2021-09-19T08:03:24.000Z</time>
      </trkpt>
      <trkpt lat="43.87773" lon="7.19218">
        <ele>163.330941</ele>
        <time>2021-09-19T08:03:33.000Z</time>
      </trkpt>
      <trkpt lat="43.87736" lon="7.19266">
        <ele>163.087906</ele>
        <time>2021-09-19T08:03:41.000Z</time>
      </trkpt>
      <trkpt lat="43.87681" lon="7.19302">
        <ele>162.796983</ele>
        <time>2021-09-19T08:03:50.000Z</time>
      </trkpt>
      <trkpt lat="43.87674" lon="7.19304">
        <ele>162.765148</ele>
        <time>2021-09-19T08:03:52.000Z</time>
      </trkpt>
      <trkpt lat="43.87648" lon="7.19312">
        <ele>162.637266</ele>
        <time>2021-09-19T08:03:56.000Z</time>
      </trkpt>
      <trkpt lat="43.87608" lon="7.19316">
        <ele>162.240138</ele>
        <time>2021-09-19T08:04:02.000Z</time>
      </trkpt>
      <trkpt lat="43.87562" lon="7.19315">
        <ele>161.713263</ele>
        <time>2021-09-19T08:04:09.000Z</time>
      </trkpt>
      <trkpt lat="43.87505" lon="7.19297">
        <ele>161.046149</ele>
        <time>2021-09-19T08:04:17.000Z</time>
      </trkpt>
      <trkpt lat="43.8749" lon="7.19296">
        <ele>160.87115</ele>
        <time>2021-09-19T08:04:19.000Z</time>
      </trkpt>
      <trkpt lat="43.87467" lon="7.19299">
        <ele>160.603149</ele>
        <time>2021-09-19T08:04:22.000Z</time>
      </trkpt>
      <trkpt lat="43.87445" lon="7.1931">
        <ele>160.366064</ele>
        <time>2021-09-19T08:04:25.000Z</time>
      </trkpt>
      <trkpt lat="43.87433" lon="7.19322">
        <ele>160.228815</ele>
        <time>2021-09-19T08:04:27.000Z</time>
      </trkpt>
      <trkpt lat="43.87428" lon="7.19329">
        <ele>160.155206</ele>
        <time>2021-09-19T08:04:28.000Z</time>
      </trkpt>
      <trkpt lat="43.87416" lon="7.19357">
        <ele>159.926142</ele>
        <time>2021-09-19T08:04:31.000Z</time>
      </trkpt>
      <trkpt lat="43.87401" lon="7.19405">
        <ele>159.563283</ele>
        <time>2021-09-19T08:04:36.000Z</time>
      </trkpt>
      <trkpt lat="43.87368" lon="7.19469">
        <ele>159.003756</ele>
        <time>2021-09-19T08:04:42.000Z</time>
      </trkpt>
      <trkpt lat="43.87314" lon="7.19522">
        <ele>158.336345</ele>
        <time>2021-09-19T08:04:51.000Z</time>
      </trkpt>
      <trkpt lat="43.87307" lon="7.19525">
        <ele>158.262736</ele>
        <time>2021-09-19T08:04:52.000Z</time>
      </trkpt>
      <trkpt lat="43.87263" lon="7.19563">
        <ele>157.72456</ele>
        <time>2021-09-19T08:04:58.000Z</time>
      </trkpt>
      <trkpt lat="43.87217" lon="7.19608">
        <ele>157.148928</ele>
        <time>2021-09-19T08:05:05.000Z</time>
      </trkpt>
      <trkpt lat="43.87211" lon="7.19615">
        <ele>157.06543</ele>
        <time>2021-09-19T08:05:06.000Z</time>
      </trkpt>
      <trkpt lat="43.87168" lon="7.19659">
        <ele>156.514059</ele>
        <time>2021-09-19T08:05:13.000Z</time>
      </trkpt>
      <trkpt lat="43.87134" lon="7.19724">
        <ele>155.921491</ele>
        <time>2021-09-19T08:05:21.000Z</time>
      </trkpt>
      <trkpt lat="43.87129" lon="7.19732">
        <ele>155.844569</ele>
        <time>2021-09-19T08:05:22.000Z</time>
      </trkpt>
      <trkpt lat="43.87059" lon="7.19734">
        <ele>155.128097</ele>
        <time>2021-09-19T08:05:29.000Z</time>
      </trkpt>
      <trkpt lat="43.87053" lon="7.19739">
        <ele>155.045044</ele>
        <time>2021-09-19T08:05:30.000Z</time>
      </trkpt>
      <trkpt lat="43.87" lon="7.19772">
        <ele>154.307653</ele>
        <time>2021-09-19T08:05:38.000Z</time>
      </trkpt>
      <trkpt lat="43.86946" lon="7.19803">
        <ele>153.573395</ele>
        <time>2021-09-19T08:05:46.000Z</time>
      </trkpt>
      <trkpt lat="43.86939" lon="7.19807">
        <ele>153.48299</ele>
        <time>2021-09-19T08:05:47.000Z</time>
      </trkpt>
      <trkpt lat="43.86892" lon="7.19826">
        <ele>152.857273</ele>
        <time>2021-09-19T08:05:54.000Z</time>
      </trkpt>
      <trkpt lat="43.86837" lon="7.19846">
        <ele>151.978306</ele>
        <time>2021-09-19T08:06:02.000Z</time>
      </trkpt>
      <trkpt lat="43.8678" lon="7.19862">
        <ele>151.075313</ele>
        <time>2021-09-19T08:06:10.000Z</time>
      </trkpt>
      <trkpt lat="43.86723" lon="7.1987">
        <ele>150.175168</ele>
        <time>2021-09-19T08:06:18.000Z</time>
      </trkpt>
      <trkpt lat="43.86664" lon="7.19876">
        <ele>149.413161</ele>
        <time>2021-09-19T08:06:26.000Z</time>
      </trkpt>
      <trkpt lat="43.8665" lon="7.19877">
        <ele>149.24004</ele>
        <time>2021-09-19T08:06:28.000Z</time>
      </trkpt>
      <trkpt lat="43.86592" lon="7.19873">
        <ele>148.527958</ele>
        <time>2021-09-19T08:06:36.000Z</time>
      </trkpt>
      <trkpt lat="43.86585" lon="7.19871">
        <ele>148.435277</ele>
        <time>2021-09-19T08:06:37.000Z</time>
      </trkpt>
      <trkpt lat="43.86528" lon="7.19893">
        <ele>147.717543</ele>
        <time>2021-09-19T08:06:45.000Z</time>
      </trkpt>
      <trkpt lat="43.86516" lon="7.19894">
        <ele>147.581</ele>
        <time>2021-09-19T08:06:47.000Z</time>
      </trkpt>
      <trkpt lat="43.86465" lon="7.19897">
        <ele>147.007791</ele>
        <time>2021-09-19T08:06:54.000Z</time>
      </trkpt>
      <trkpt lat="43.86408" lon="7.199">
        <ele>146.369111</ele>
        <time>2021-09-19T08:07:02.000Z</time>
      </trkpt>
      <trkpt lat="43.86401" lon="7.199">
        <ele>146.291247</ele>
        <time>2021-09-19T08:07:03.000Z</time>
      </trkpt>
      <trkpt lat="43.86394" lon="7.19901">
        <ele>146.206624</ele>
        <time>2021-09-19T08:07:04.000Z</time>
      </trkpt>
      <trkpt lat="43.86366" lon="7.19898">
        <ele>145.892676</ele>
        <time>2021-09-19T08:07:08.000Z</time>
      </trkpt>
      <trkpt lat="43.86308" lon="7.19893">
        <ele>145.330873</ele>
        <time>2021-09-19T08:07:16.000Z</time>
      </trkpt>
      <trkpt lat="43.86248" lon="7.19885">
        <ele>144.781365</ele>
        <time>2021-09-19T08:07:24.000Z</time>
      </trkpt>
      <trkpt lat="43.86233" lon="7.19882">
        <ele>144.641855</ele>
        <time>2021-09-19T08:07:26.000Z</time>
      </trkpt>
      <trkpt lat="43.86174" lon="7.19874">
        <ele>144.103029</ele>
        <time>2021-09-19T08:07:34.000Z</time>
      </trkpt>
      <trkpt lat="43.86152" lon="7.19875">
        <ele>144.054837</ele>
        <time>2021-09-19T08:07:37.000Z</time>
      </trkpt>
      <trkpt lat="43.86106" lon="7.1988">
        <ele>143.956523</ele>
        <time>2021-09-19T08:07:44.000Z</time>
      </trkpt>
      <trkpt lat="43.86067" lon="7.19875">
        <ele>143.873019</ele>
        <time>2021-09-19T08:07:51.000Z</time>
      </trkpt>
      <trkpt lat="43.86029" lon="7.19795">
        <ele>143.724314</ele>
        <time>2021-09-19T08:07:58.000Z</time>
      </trkpt>
      <trkpt lat="43.86019" lon="7.19789">
        <ele>143.693281</ele>
        <time>2021-09-19T08:08:00.000Z</time>
      </trkpt>
      <trkpt lat="43.85972" lon="7.1975">
        <ele>143.526852</ele>
        <time>2021-09-19T08:08:09.000Z</time>
      </trkpt>
      <trkpt lat="43.8593" lon="7.19714">
        <ele>143.377231</ele>
        <time>2021-09-19T08:08:16.000Z</time>
      </trkpt>
      <trkpt lat="43.85881" lon="7.19673">
        <ele>143.204683</ele>
        <time>2021-09-19T08:08:23.000Z</time>
      </trkpt>
      <trkpt lat="43.8583" lon="7.19632">
        <ele>142.840328</ele>
        <time>2021-09-19T08:08:30.000Z</time>
      </trkpt>
      <trkpt lat="43.85784" lon="7.19607">
        <ele>142.500528</ele>
        <time>2021-09-19T08:08:36.000Z</time>
      </trkpt>
      <trkpt lat="43.85737" lon="7.19595">
        <ele>142.17335</ele>
        <time>2021-09-19T08:08:42.000Z</time>
      </trkpt>
      <trkpt lat="43.8569" lon="7.19594">
        <ele>141.881551</ele>
        <time>2021-09-19T08:08:48.000Z</time>
      </trkpt>
      <trkpt lat="43.85645" lon="7.19605">
        <ele>141.675965</ele>
        <time>2021-09-19T08:08:54.000Z</time>
      </trkpt>
      <trkpt lat="43.85603" lon="7.19625">
        <ele>141.473695</ele>
        <time>2021-09-19T08:09:00.000Z</time>
      </trkpt>
      <trkpt lat="43.85559" lon="7.1966">
        <ele>141.24513</ele>
        <time>2021-09-19T08:09:07.000Z</time>
      </trkpt>
      <trkpt lat="43.85512" lon="7.19703">
        <ele>140.95915</ele>
        <time>2021-09-19T08:09:15.000Z</time>
      </trkpt>
      <trkpt lat="43.85506" lon="7.19708">
        <ele>140.919559</ele>
        <time>2021-09-19T08:09:16.000Z</time>
      </trkpt>
      <trkpt lat="43.85456" lon="7.19748">
        <ele>140.601673</ele>
        <time>2021-09-19T08:09:24.000Z</time>
      </trkpt>
      <trkpt lat="43.85449" lon="7.19752">
        <ele>140.561739</ele>
        <time>2021-09-19T08:09:25.000Z</time>
      </trkpt>
      <trkpt lat="43.85396" lon="7.19775">
        <ele>140.251745</ele>
        <time>2021-09-19T08:09:33.000Z</time>
      </trkpt>
      <trkpt lat="43.85389" lon="7.19778">
        <ele>140.212685</ele>
        <time>2021-09-19T08:09:34.000Z</time>
      </trkpt>
      <trkpt lat="43.85335" lon="7.19795">
        <ele>139.975887</ele>
        <time>2021-09-19T08:09:42.000Z</time>
      </trkpt>
      <trkpt lat="43.85328" lon="7.19796">
        <ele>139.947974</ele>
        <time>2021-09-19T08:09:43.000Z</time>
      </trkpt>
      <trkpt lat="43.85285" lon="7.19791">
        <ele>139.785693</ele>
        <time>2021-09-19T08:09:49.000Z</time>
      </trkpt>
      <trkpt lat="43.85226" lon="7.19828">
        <ele>139.539293</ele>
        <time>2021-09-19T08:09:58.000Z</time>
      </trkpt>
      <trkpt lat="43.85219" lon="7.1983">
        <ele>139.511588</ele>
        <time>2021-09-19T08:09:59.000Z</time>
      </trkpt>
      <trkpt lat="43.85163" lon="7.19835">
        <ele>139.152071</ele>
        <time>2021-09-19T08:10:06.000Z</time>
      </trkpt>
      <trkpt lat="43.85156" lon="7.19834">
        <ele>139.095641</ele>
        <time>2021-09-19T08:10:07.000Z</time>
      </trkpt>
      <trkpt lat="43.85096" lon="7.19839">
        <ele>138.649195</ele>
        <time>2021-09-19T08:10:15.000Z</time>
      </trkpt>
      <trkpt lat="43.8504" lon="7.19827">
        <ele>138.218144</ele>
        <time>2021-09-19T08:10:22.000Z</time>
      </trkpt>
      <trkpt lat="43.84981" lon="7.19816">
        <ele>137.738557</ele>
        <time>2021-09-19T08:10:30.000Z</time>
      </trkpt>
      <trkpt lat="43.84966" lon="7.19816">
        <ele>137.620211</ele>
        <time>2021-09-19T08:10:32.000Z</time>
      </trkpt>
      <trkpt lat="43.84912" lon="7.1981">
        <ele>137.16867</ele>
        <time>2021-09-19T08:10:39.000Z</time>
      </trkpt>
      <trkpt lat="43.84885" lon="7.19795">
        <ele>136.926648</ele>
        <time>2021-09-19T08:10:43.000Z</time>
      </trkpt>
      <trkpt lat="43.84829" lon="7.19779">
        <ele>136.499217</ele>
        <time>2021-09-19T08:10:51.000Z</time>
      </trkpt>
      <trkpt lat="43.84815" lon="7.19779">
        <ele>136.415768</ele>
        <time>2021-09-19T08:10:53.000Z</time>
      </trkpt>
      <trkpt lat="43.84757" lon="7.19768">
        <ele>136.074952</ele>
        <time>2021-09-19T08:11:01.000Z</time>
      </trkpt>
      <trkpt lat="43.8475" lon="7.19767">
        <ele>136.032272</ele>
        <time>2021-09-19T08:11:02.000Z</time>
      </trkpt>
      <trkpt lat="43.84691" lon="7.19752">
        <ele>135.681845</ele>
        <time>2021-09-19T08:11:10.000Z</time>
      </trkpt>
      <trkpt lat="43.84683" lon="7.1975">
        <ele>135.637942</ele>
        <time>2021-09-19T08:11:11.000Z</time>
      </trkpt>
      <trkpt lat="43.84639" lon="7.19734">
        <ele>135.421172</ele>
        <time>2021-09-19T08:11:17.000Z</time>
      </trkpt>
      <trkpt lat="43.84632" lon="7.19731">
        <ele>135.391243</ele>
        <time>2021-09-19T08:11:18.000Z</time>
      </trkpt>
      <trkpt lat="43.84625" lon="7.19729">
        <ele>135.361315</ele>
        <time>2021-09-19T08:11:19.000Z</time>
      </trkpt>
      <trkpt lat="43.84607" lon="7.19722">
        <ele>135.281127</ele>
        <time>2021-09-19T08:11:22.000Z</time>
      </trkpt>
      <trkpt lat="43.84582" lon="7.19713">
        <ele>135.173714</ele>
        <time>2021-09-19T08:11:26.000Z</time>
      </trkpt>
      <trkpt lat="43.84576" lon="7.19711">
        <ele>135.144197</ele>
        <time>2021-09-19T08:11:27.000Z</time>
      </trkpt>
      <trkpt lat="43.84569" lon="7.19708">
        <ele>135.113446</ele>
        <time>2021-09-19T08:11:28.000Z</time>
      </trkpt>
      <trkpt lat="43.84541" lon="7.19698">
        <ele>134.989874</ele>
        <time>2021-09-19T08:11:32.000Z</time>
      </trkpt>
      <trkpt lat="43.84485" lon="7.19678">
        <ele>134.732403</ele>
        <time>2021-09-19T08:11:40.000Z</time>
      </trkpt>
      <trkpt lat="43.84472" lon="7.19673">
        <ele>134.654476</ele>
        <time>2021-09-19T08:11:42.000Z</time>
      </trkpt>
      <trkpt lat="43.84415" lon="7.19651">
        <ele>134.330941</ele>
        <time>2021-09-19T08:11:50.000Z</time>
      </trkpt>
      <trkpt lat="43.84408" lon="7.19649">
        <ele>134.290857</ele>
        <time>2021-09-19T08:11:51.000Z</time>
      </trkpt>
      <trkpt lat="43.84353" lon="7.19627">
        <ele>133.970839</ele>
        <time>2021-09-19T08:11:59.000Z</time>
      </trkpt>
      <trkpt lat="43.84339" lon="7.19622">
        <ele>133.89174</ele>
        <time>2021-09-19T08:12:01.000Z</time>
      </trkpt>
      <trkpt lat="43.84286" lon="7.19604">
        <ele>133.533428</ele>
        <time>2021-09-19T08:12:09.000Z</time>
      </trkpt>
      <trkpt lat="43.84231" lon="7.19584">
        <ele>133.134515</ele>
        <time>2021-09-19T08:12:17.000Z</time>
      </trkpt>
      <trkpt lat="43.84224" lon="7.19582">
        <ele>133.085392</ele>
        <time>2021-09-19T08:12:18.000Z</time>
      </trkpt>
      <trkpt lat="43.84167" lon="7.19561">
        <ele>132.67691</ele>
        <time>2021-09-19T08:12:26.000Z</time>
      </trkpt>
      <trkpt lat="43.84153" lon="7.19556">
        <ele>132.577056</ele>
        <time>2021-09-19T08:12:28.000Z</time>
      </trkpt>
      <trkpt lat="43.841" lon="7.19537">
        <ele>132.150106</ele>
        <time>2021-09-19T08:12:36.000Z</time>
      </trkpt>
      <trkpt lat="43.84086" lon="7.19532">
        <ele>132.043856</ele>
        <time>2021-09-19T08:12:38.000Z</time>
      </trkpt>
      <trkpt lat="43.84034" lon="7.19513">
        <ele>131.624232</ele>
        <time>2021-09-19T08:12:46.000Z</time>
      </trkpt>
      <trkpt lat="43.83981" lon="7.19494">
        <ele>131.200727</ele>
        <time>2021-09-19T08:12:54.000Z</time>
      </trkpt>
      <trkpt lat="43.83974" lon="7.19491">
        <ele>131.147497</ele>
        <time>2021-09-19T08:12:55.000Z</time>
      </trkpt>
      <trkpt lat="43.8393" lon="7.19478">
        <ele>130.854435</ele>
        <time>2021-09-19T08:13:02.000Z</time>
      </trkpt>
      <trkpt lat="43.83917" lon="7.19468">
        <ele>130.759702</ele>
        <time>2021-09-19T08:13:05.000Z</time>
      </trkpt>
      <trkpt lat="43.83905" lon="7.19469">
        <ele>130.680738</ele>
        <time>2021-09-19T08:13:07.000Z</time>
      </trkpt>
      <trkpt lat="43.83894" lon="7.19464">
        <ele>130.606409</ele>
        <time>2021-09-19T08:13:09.000Z</time>
      </trkpt>
      <trkpt lat="43.83864" lon="7.19452">
        <ele>130.408815</ele>
        <time>2021-09-19T08:13:14.000Z</time>
      </trkpt>
      <trkpt lat="43.83809" lon="7.19431">
        <ele>130.036194</ele>
        <time>2021-09-19T08:13:23.000Z</time>
      </trkpt>
      <trkpt lat="43.83802" lon="7.19429">
        <ele>129.995064</ele>
        <time>2021-09-19T08:13:24.000Z</time>
      </trkpt>
      <trkpt lat="43.83758" lon="7.19414">
        <ele>129.587068</ele>
        <time>2021-09-19T08:13:31.000Z</time>
      </trkpt>
      <trkpt lat="43.83745" lon="7.19411">
        <ele>129.466637</ele>
        <time>2021-09-19T08:13:33.000Z</time>
      </trkpt>
      <trkpt lat="43.83738" lon="7.19408">
        <ele>129.405367</ele>
        <time>2021-09-19T08:13:34.000Z</time>
      </trkpt>
      <trkpt lat="43.83711" lon="7.19397">
        <ele>129.155819</ele>
        <time>2021-09-19T08:13:38.000Z</time>
      </trkpt>
      <trkpt lat="43.83659" lon="7.19379">
        <ele>128.677835</ele>
        <time>2021-09-19T08:13:46.000Z</time>
      </trkpt>
      <trkpt lat="43.83608" lon="7.1936">
        <ele>128.231587</ele>
        <time>2021-09-19T08:13:54.000Z</time>
      </trkpt>
      <trkpt lat="43.83563" lon="7.19344">
        <ele>127.887533</ele>
        <time>2021-09-19T08:14:01.000Z</time>
      </trkpt>
      <trkpt lat="43.83557" lon="7.19341">
        <ele>127.838651</ele>
        <time>2021-09-19T08:14:02.000Z</time>
      </trkpt>
      <trkpt lat="43.83538" lon="7.19333">
        <ele>127.6885</ele>
        <time>2021-09-19T08:14:05.000Z</time>
      </trkpt>
      <trkpt lat="43.83525" lon="7.19333">
        <ele>127.591201</ele>
        <time>2021-09-19T08:14:07.000Z</time>
      </trkpt>
      <trkpt lat="43.83493" lon="7.19316">
        <ele>127.334685</ele>
        <time>2021-09-19T08:14:12.000Z</time>
      </trkpt>
      <trkpt lat="43.8344" lon="7.19293">
        <ele>126.916479</ele>
        <time>2021-09-19T08:14:20.000Z</time>
      </trkpt>
      <trkpt lat="43.83386" lon="7.19273">
        <ele>126.485951</ele>
        <time>2021-09-19T08:14:28.000Z</time>
      </trkpt>
      <trkpt lat="43.83379" lon="7.1927">
        <ele>126.43332</ele>
        <time>2021-09-19T08:14:29.000Z</time>
      </trkpt>
      <trkpt lat="43.83325" lon="7.1925">
        <ele>125.999667</ele>
        <time>2021-09-19T08:14:37.000Z</time>
      </trkpt>
      <trkpt lat="43.83305" lon="7.19243">
        <ele>125.836876</ele>
        <time>2021-09-19T08:14:40.000Z</time>
      </trkpt>
      <trkpt lat="43.83249" lon="7.19222">
        <ele>125.368873</ele>
        <time>2021-09-19T08:14:48.000Z</time>
      </trkpt>
      <trkpt lat="43.83221" lon="7.19212">
        <ele>125.127033</ele>
        <time>2021-09-19T08:14:52.000Z</time>
      </trkpt>
      <trkpt lat="43.83165" lon="7.19193">
        <ele>124.644346</ele>
        <time>2021-09-19T08:15:00.000Z</time>
      </trkpt>
      <trkpt lat="43.83129" lon="7.19184">
        <ele>124.346462</ele>
        <time>2021-09-19T08:15:05.000Z</time>
      </trkpt>
      <trkpt lat="43.83075" lon="7.19163">
        <ele>123.972503</ele>
        <time>2021-09-19T08:15:13.000Z</time>
      </trkpt>
      <trkpt lat="43.83061" lon="7.19158">
        <ele>123.898653</ele>
        <time>2021-09-19T08:15:15.000Z</time>
      </trkpt>
      <trkpt lat="43.83006" lon="7.19138">
        <ele>123.594184</ele>
        <time>2021-09-19T08:15:23.000Z</time>
      </trkpt>
      <trkpt lat="43.82964" lon="7.19123">
        <ele>123.362338</ele>
        <time>2021-09-19T08:15:29.000Z</time>
      </trkpt>
      <trkpt lat="43.8291" lon="7.19104">
        <ele>123.0453</ele>
        <time>2021-09-19T08:15:37.000Z</time>
      </trkpt>
      <trkpt lat="43.82889" lon="7.19097">
        <ele>122.914792</ele>
        <time>2021-09-19T08:15:40.000Z</time>
      </trkpt>
      <trkpt lat="43.82836" lon="7.19078">
        <ele>122.57795</ele>
        <time>2021-09-19T08:15:48.000Z</time>
      </trkpt>
      <trkpt lat="43.82809" lon="7.19068">
        <ele>122.402163</ele>
        <time>2021-09-19T08:15:52.000Z</time>
      </trkpt>
      <trkpt lat="43.82753" lon="7.19048">
        <ele>122.048002</ele>
        <time>2021-09-19T08:16:00.000Z</time>
      </trkpt>
      <trkpt lat="43.8274" lon="7.19043">
        <ele>121.958836</ele>
        <time>2021-09-19T08:16:02.000Z</time>
      </trkpt>
      <trkpt lat="43.82685" lon="7.19022">
        <ele>121.595361</ele>
        <time>2021-09-19T08:16:10.000Z</time>
      </trkpt>
      <trkpt lat="43.82665" lon="7.19015">
        <ele>121.461611</ele>
        <time>2021-09-19T08:16:13.000Z</time>
      </trkpt>
      <trkpt lat="43.82618" lon="7.18997">
        <ele>121.149527</ele>
        <time>2021-09-19T08:16:20.000Z</time>
      </trkpt>
      <trkpt lat="43.82562" lon="7.18979">
        <ele>120.752496</ele>
        <time>2021-09-19T08:16:28.000Z</time>
      </trkpt>
      <trkpt lat="43.82555" lon="7.18976">
        <ele>120.696222</ele>
        <time>2021-09-19T08:16:29.000Z</time>
      </trkpt>
      <trkpt lat="43.82501" lon="7.18955">
        <ele>120.266657</ele>
        <time>2021-09-19T08:16:37.000Z</time>
      </trkpt>
      <trkpt lat="43.82486" lon="7.18951">
        <ele>120.155455</ele>
        <time>2021-09-19T08:16:39.000Z</time>
      </trkpt>
      <trkpt lat="43.8243" lon="7.18931">
        <ele>119.711044</ele>
        <time>2021-09-19T08:16:47.000Z</time>
      </trkpt>
      <trkpt lat="43.82415" lon="7.18927">
        <ele>119.600103</ele>
        <time>2021-09-19T08:16:49.000Z</time>
      </trkpt>
      <trkpt lat="43.82357" lon="7.18907">
        <ele>119.103846</ele>
        <time>2021-09-19T08:16:57.000Z</time>
      </trkpt>
      <trkpt lat="43.82335" lon="7.18901">
        <ele>118.915517</ele>
        <time>2021-09-19T08:17:00.000Z</time>
      </trkpt>
      <trkpt lat="43.82276" lon="7.18885">
        <ele>118.420609</ele>
        <time>2021-09-19T08:17:08.000Z</time>
      </trkpt>
      <trkpt lat="43.8223" lon="7.18867">
        <ele>118.018761</ele>
        <time>2021-09-19T08:17:15.000Z</time>
      </trkpt>
      <trkpt lat="43.82183" lon="7.18858">
        <ele>117.633697</ele>
        <time>2021-09-19T08:17:21.000Z</time>
      </trkpt>
      <trkpt lat="43.82147" lon="7.18856">
        <ele>117.334583</ele>
        <time>2021-09-19T08:17:26.000Z</time>
      </trkpt>
      <trkpt lat="43.82102" lon="7.18852">
        <ele>116.973106</ele>
        <time>2021-09-19T08:17:32.000Z</time>
      </trkpt>
      <trkpt lat="43.82056" lon="7.18847">
        <ele>116.592172</ele>
        <time>2021-09-19T08:17:38.000Z</time>
      </trkpt>
      <trkpt lat="43.81998" lon="7.18831">
        <ele>116.149226</ele>
        <time>2021-09-19T08:17:46.000Z</time>
      </trkpt>
      <trkpt lat="43.81946" lon="7.18816">
        <ele>115.759868</ele>
        <time>2021-09-19T08:17:53.000Z</time>
      </trkpt>
      <trkpt lat="43.81902" lon="7.18805">
        <ele>115.426751</ele>
        <time>2021-09-19T08:17:59.000Z</time>
      </trkpt>
      <trkpt lat="43.81847" lon="7.18802">
        <ele>115.004142</ele>
        <time>2021-09-19T08:18:06.000Z</time>
      </trkpt>
      <trkpt lat="43.81789" lon="7.18804">
        <ele>114.548403</ele>
        <time>2021-09-19T08:18:13.000Z</time>
      </trkpt>
      <trkpt lat="43.81772" lon="7.18805">
        <ele>114.419389</ele>
        <time>2021-09-19T08:18:15.000Z</time>
      </trkpt>
      <trkpt lat="43.81717" lon="7.1881">
        <ele>113.985488</ele>
        <time>2021-09-19T08:18:22.000Z</time>
      </trkpt>
      <trkpt lat="43.81709" lon="7.18811">
        <ele>113.923386</ele>
        <time>2021-09-19T08:18:23.000Z</time>
      </trkpt>
      <trkpt lat="43.81652" lon="7.18821">
        <ele>113.465677</ele>
        <time>2021-09-19T08:18:30.000Z</time>
      </trkpt>
      <trkpt lat="43.81644" lon="7.18822">
        <ele>113.397922</ele>
        <time>2021-09-19T08:18:31.000Z</time>
      </trkpt>
      <trkpt lat="43.81588" lon="7.18833">
        <ele>112.939419</ele>
        <time>2021-09-19T08:18:38.000Z</time>
      </trkpt>
      <trkpt lat="43.81557" lon="7.1884">
        <ele>112.680914</ele>
        <time>2021-09-19T08:18:42.000Z</time>
      </trkpt>
      <trkpt lat="43.81502" lon="7.18857">
        <ele>112.208386</ele>
        <time>2021-09-19T08:18:49.000Z</time>
      </trkpt>
      <trkpt lat="43.81486" lon="7.18862">
        <ele>112.068053</ele>
        <time>2021-09-19T08:18:51.000Z</time>
      </trkpt>
      <trkpt lat="43.81432" lon="7.18881">
        <ele>111.574266</ele>
        <time>2021-09-19T08:18:58.000Z</time>
      </trkpt>
      <trkpt lat="43.81395" lon="7.18898">
        <ele>111.226822</ele>
        <time>2021-09-19T08:19:03.000Z</time>
      </trkpt>
      <trkpt lat="43.81344" lon="7.18922">
        <ele>110.744</ele>
        <time>2021-09-19T08:19:10.000Z</time>
      </trkpt>
      <trkpt lat="43.81308" lon="7.18939">
        <ele>110.39523</ele>
        <time>2021-09-19T08:19:15.000Z</time>
      </trkpt>
      <trkpt lat="43.81255" lon="7.18967">
        <ele>109.889562</ele>
        <time>2021-09-19T08:19:22.000Z</time>
      </trkpt>
      <trkpt lat="43.8124" lon="7.18976">
        <ele>109.743824</ele>
        <time>2021-09-19T08:19:24.000Z</time>
      </trkpt>
      <trkpt lat="43.81188" lon="7.19007">
        <ele>109.231983</ele>
        <time>2021-09-19T08:19:31.000Z</time>
      </trkpt>
      <trkpt lat="43.8116" lon="7.19028">
        <ele>108.992208</ele>
        <time>2021-09-19T08:19:35.000Z</time>
      </trkpt>
      <trkpt lat="43.81112" lon="7.19064">
        <ele>108.59528</ele>
        <time>2021-09-19T08:19:42.000Z</time>
      </trkpt>
      <trkpt lat="43.81077" lon="7.19091">
        <ele>108.314308</ele>
        <time>2021-09-19T08:19:47.000Z</time>
      </trkpt>
      <trkpt lat="43.81032" lon="7.19132">
        <ele>107.926835</ele>
        <time>2021-09-19T08:19:54.000Z</time>
      </trkpt>
      <trkpt lat="43.81026" lon="7.19139">
        <ele>107.870694</ele>
        <time>2021-09-19T08:19:55.000Z</time>
      </trkpt>
      <trkpt lat="43.80983" lon="7.19187">
        <ele>107.45039</ele>
        <time>2021-09-19T08:20:02.000Z</time>
      </trkpt>
      <trkpt lat="43.80958" lon="7.19214">
        <ele>107.207622</ele>
        <time>2021-09-19T08:20:06.000Z</time>
      </trkpt>
      <trkpt lat="43.80915" lon="7.19264">
        <ele>106.783419</ele>
        <time>2021-09-19T08:20:13.000Z</time>
      </trkpt>
      <trkpt lat="43.80878" lon="7.19307">
        <ele>106.410925</ele>
        <time>2021-09-19T08:20:19.000Z</time>
      </trkpt>
      <trkpt lat="43.80837" lon="7.19356">
        <ele>105.956726</ele>
        <time>2021-09-19T08:20:26.000Z</time>
      </trkpt>
      <trkpt lat="43.80807" lon="7.19391">
        <ele>105.632438</ele>
        <time>2021-09-19T08:20:31.000Z</time>
      </trkpt>
      <trkpt lat="43.80765" lon="7.1944">
        <ele>105.178126</ele>
        <time>2021-09-19T08:20:38.000Z</time>
      </trkpt>
      <trkpt lat="43.80722" lon="7.19489">
        <ele>104.690507</ele>
        <time>2021-09-19T08:20:45.000Z</time>
      </trkpt>
      <trkpt lat="43.8068" lon="7.19538">
        <ele>104.192587</ele>
        <time>2021-09-19T08:20:52.000Z</time>
      </trkpt>
      <trkpt lat="43.80638" lon="7.19587">
        <ele>103.695778</ele>
        <time>2021-09-19T08:20:59.000Z</time>
      </trkpt>
      <trkpt lat="43.80596" lon="7.19636">
        <ele>103.187335</ele>
        <time>2021-09-19T08:21:06.000Z</time>
      </trkpt>
      <trkpt lat="43.80583" lon="7.1965">
        <ele>103.036687</ele>
        <time>2021-09-19T08:21:08.000Z</time>
      </trkpt>
      <trkpt lat="43.80542" lon="7.19698">
        <ele>102.519973</ele>
        <time>2021-09-19T08:21:15.000Z</time>
      </trkpt>
      <trkpt lat="43.8053" lon="7.19712">
        <ele>102.376067</ele>
        <time>2021-09-19T08:21:17.000Z</time>
      </trkpt>
      <trkpt lat="43.80485" lon="7.19764">
        <ele>101.816853</ele>
        <time>2021-09-19T08:21:25.000Z</time>
      </trkpt>
      <trkpt lat="43.80474" lon="7.19776">
        <ele>101.682154</ele>
        <time>2021-09-19T08:21:27.000Z</time>
      </trkpt>
      <trkpt lat="43.80431" lon="7.19827">
        <ele>101.305551</ele>
        <time>2021-09-19T08:21:35.000Z</time>
      </trkpt>
      <trkpt lat="43.80415" lon="7.19846">
        <ele>101.165627</ele>
        <time>2021-09-19T08:21:38.000Z</time>
      </trkpt>
      <trkpt lat="43.80372" lon="7.19895">
        <ele>100.79586</ele>
        <time>2021-09-19T08:21:46.000Z</time>
      </trkpt>
      <trkpt lat="43.80361" lon="7.19908">
        <ele>100.704107</ele>
        <time>2021-09-19T08:21:48.000Z</time>
      </trkpt>
      <trkpt lat="43.80318" lon="7.19958">
        <ele>100.360176</ele>
        <time>2021-09-19T08:21:56.000Z</time>
      </trkpt>
      <trkpt lat="43.80302" lon="7.19977">
        <ele>100.246816</ele>
        <time>2021-09-19T08:21:59.000Z</time>
      </trkpt>
      <trkpt lat="43.80259" lon="7.20026">
        <ele>99.947245</ele>
        <time>2021-09-19T08:22:07.000Z</time>
      </trkpt>
      <trkpt lat="43.80254" lon="7.20033">
        <ele>99.908964</ele>
        <time>2021-09-19T08:22:08.000Z</time>
      </trkpt>
      <trkpt lat="43.8021" lon="7.20083">
        <ele>99.602296</ele>
        <time>2021-09-19T08:22:16.000Z</time>
      </trkpt>
      <trkpt lat="43.80193" lon="7.20103">
        <ele>99.48232</ele>
        <time>2021-09-19T08:22:19.000Z</time>
      </trkpt>
      <trkpt lat="43.80149" lon="7.20154">
        <ele>99.138548</ele>
        <time>2021-09-19T08:22:27.000Z</time>
      </trkpt>
      <trkpt lat="43.80133" lon="7.20173">
        <ele>99.011172</ele>
        <time>2021-09-19T08:22:30.000Z</time>
      </trkpt>
      <trkpt lat="43.80091" lon="7.20221">
        <ele>98.684593</ele>
        <time>2021-09-19T08:22:38.000Z</time>
      </trkpt>
      <trkpt lat="43.80086" lon="7.20227">
        <ele>98.64532</ele>
        <time>2021-09-19T08:22:39.000Z</time>
      </trkpt>
      <trkpt lat="43.80045" lon="7.20276">
        <ele>98.299138</ele>
        <time>2021-09-19T08:22:47.000Z</time>
      </trkpt>
      <trkpt lat="43.8004" lon="7.20281">
        <ele>98.254441</ele>
        <time>2021-09-19T08:22:48.000Z</time>
      </trkpt>
      <trkpt lat="43.80007" lon="7.20324">
        <ele>97.937272</ele>
        <time>2021-09-19T08:22:55.000Z</time>
      </trkpt>
      <trkpt lat="43.79976" lon="7.2037">
        <ele>97.617229</ele>
        <time>2021-09-19T08:23:02.000Z</time>
      </trkpt>
      <trkpt lat="43.79971" lon="7.20374">
        <ele>97.572766</ele>
        <time>2021-09-19T08:23:03.000Z</time>
      </trkpt>
      <trkpt lat="43.79966" lon="7.20379">
        <ele>97.527431</ele>
        <time>2021-09-19T08:23:04.000Z</time>
      </trkpt>
      <trkpt lat="43.79948" lon="7.20387">
        <ele>97.394387</ele>
        <time>2021-09-19T08:23:07.000Z</time>
      </trkpt>
      <trkpt lat="43.79941" lon="7.20405">
        <ele>97.290704</ele>
        <time>2021-09-19T08:23:09.000Z</time>
      </trkpt>
      <trkpt lat="43.79931" lon="7.20418">
        <ele>97.196204</ele>
        <time>2021-09-19T08:23:11.000Z</time>
      </trkpt>
      <trkpt lat="43.79922" lon="7.2043">
        <ele>97.097507</ele>
        <time>2021-09-19T08:23:13.000Z</time>
      </trkpt>
      <trkpt lat="43.79911" lon="7.2044">
        <ele>96.994585</ele>
        <time>2021-09-19T08:23:15.000Z</time>
      </trkpt>
      <trkpt lat="43.79865" lon="7.20484">
        <ele>96.561618</ele>
        <time>2021-09-19T08:23:23.000Z</time>
      </trkpt>
      <trkpt lat="43.79823" lon="7.20533">
        <ele>96.12616</ele>
        <time>2021-09-19T08:23:31.000Z</time>
      </trkpt>
      <trkpt lat="43.79812" lon="7.20545">
        <ele>96.018593</ele>
        <time>2021-09-19T08:23:33.000Z</time>
      </trkpt>
      <trkpt lat="43.7977" lon="7.20595">
        <ele>95.582225</ele>
        <time>2021-09-19T08:23:41.000Z</time>
      </trkpt>
      <trkpt lat="43.79754" lon="7.20613">
        <ele>95.419463</ele>
        <time>2021-09-19T08:23:44.000Z</time>
      </trkpt>
      <trkpt lat="43.79708" lon="7.20667">
        <ele>94.947186</ele>
        <time>2021-09-19T08:23:53.000Z</time>
      </trkpt>
      <trkpt lat="43.79698" lon="7.20679">
        <ele>94.845176</ele>
        <time>2021-09-19T08:23:55.000Z</time>
      </trkpt>
      <trkpt lat="43.79653" lon="7.20731">
        <ele>94.386129</ele>
        <time>2021-09-19T08:24:04.000Z</time>
      </trkpt>
      <trkpt lat="43.79607" lon="7.20784">
        <ele>93.879492</ele>
        <time>2021-09-19T08:24:13.000Z</time>
      </trkpt>
      <trkpt lat="43.79592" lon="7.20801">
        <ele>93.714205</ele>
        <time>2021-09-19T08:24:16.000Z</time>
      </trkpt>
      <trkpt lat="43.79547" lon="7.20854">
        <ele>93.209294</ele>
        <time>2021-09-19T08:24:25.000Z</time>
      </trkpt>
      <trkpt lat="43.79537" lon="7.20866">
        <ele>93.096917</ele>
        <time>2021-09-19T08:24:27.000Z</time>
      </trkpt>
      <trkpt lat="43.79491" lon="7.20918">
        <ele>92.599339</ele>
        <time>2021-09-19T08:24:36.000Z</time>
      </trkpt>
      <trkpt lat="43.79486" lon="7.20924">
        <ele>92.546781</ele>
        <time>2021-09-19T08:24:37.000Z</time>
      </trkpt>
      <trkpt lat="43.79441" lon="7.20977">
        <ele>92.056451</ele>
        <time>2021-09-19T08:24:46.000Z</time>
      </trkpt>
      <trkpt lat="43.79425" lon="7.20995">
        <ele>91.892715</ele>
        <time>2021-09-19T08:24:49.000Z</time>
      </trkpt>
      <trkpt lat="43.7938" lon="7.21048">
        <ele>91.401372</ele>
        <time>2021-09-19T08:24:58.000Z</time>
      </trkpt>
      <trkpt lat="43.79369" lon="7.21061">
        <ele>91.293026</ele>
        <time>2021-09-19T08:25:00.000Z</time>
      </trkpt>
      <trkpt lat="43.79327" lon="7.21109">
        <ele>90.872137</ele>
        <time>2021-09-19T08:25:08.000Z</time>
      </trkpt>
      <trkpt lat="43.79312" lon="7.21127">
        <ele>90.715547</ele>
        <time>2021-09-19T08:25:11.000Z</time>
      </trkpt>
      <trkpt lat="43.79266" lon="7.21181">
        <ele>90.252045</ele>
        <time>2021-09-19T08:25:20.000Z</time>
      </trkpt>
      <trkpt lat="43.79251" lon="7.21198">
        <ele>90.10433</ele>
        <time>2021-09-19T08:25:23.000Z</time>
      </trkpt>
      <trkpt lat="43.79207" lon="7.21249">
        <ele>89.704047</ele>
        <time>2021-09-19T08:25:32.000Z</time>
      </trkpt>
      <trkpt lat="43.79183" lon="7.21277">
        <ele>89.490784</ele>
        <time>2021-09-19T08:25:37.000Z</time>
      </trkpt>
      <trkpt lat="43.79143" lon="7.21331">
        <ele>89.11875</ele>
        <time>2021-09-19T08:25:46.000Z</time>
      </trkpt>
      <trkpt lat="43.79104" lon="7.2138">
        <ele>88.766431</ele>
        <time>2021-09-19T08:25:55.000Z</time>
      </trkpt>
      <trkpt lat="43.79092" lon="7.21383">
        <ele>88.688663</ele>
        <time>2021-09-19T08:25:57.000Z</time>
      </trkpt>
      <trkpt lat="43.79082" lon="7.21395">
        <ele>88.608152</ele>
        <time>2021-09-19T08:25:59.000Z</time>
      </trkpt>
      <trkpt lat="43.7907" lon="7.21416">
        <ele>88.490498</ele>
        <time>2021-09-19T08:26:02.000Z</time>
      </trkpt>
      <trkpt lat="43.79055" lon="7.2143">
        <ele>88.376871</ele>
        <time>2021-09-19T08:26:05.000Z</time>
      </trkpt>
      <trkpt lat="43.79007" lon="7.21472">
        <ele>88.027246</ele>
        <time>2021-09-19T08:26:14.000Z</time>
      </trkpt>
      <trkpt lat="43.78991" lon="7.21487">
        <ele>87.907345</ele>
        <time>2021-09-19T08:26:17.000Z</time>
      </trkpt>
      <trkpt lat="43.78938" lon="7.21526">
        <ele>87.499263</ele>
        <time>2021-09-19T08:26:26.000Z</time>
      </trkpt>
      <trkpt lat="43.78884" lon="7.21564">
        <ele>87.00397</ele>
        <time>2021-09-19T08:26:35.000Z</time>
      </trkpt>
      <trkpt lat="43.78835" lon="7.21596">
        <ele>86.560012</ele>
        <time>2021-09-19T08:26:43.000Z</time>
      </trkpt>
      <trkpt lat="43.78816" lon="7.21607">
        <ele>86.39181</ele>
        <time>2021-09-19T08:26:46.000Z</time>
      </trkpt>
      <trkpt lat="43.78766" lon="7.21635">
        <ele>85.94327</ele>
        <time>2021-09-19T08:26:54.000Z</time>
      </trkpt>
      <trkpt lat="43.78753" lon="7.21642">
        <ele>85.827223</ele>
        <time>2021-09-19T08:26:56.000Z</time>
      </trkpt>
      <trkpt lat="43.78696" lon="7.21669">
        <ele>85.321925</ele>
        <time>2021-09-19T08:27:05.000Z</time>
      </trkpt>
      <trkpt lat="43.7869" lon="7.21672">
        <ele>85.265486</ele>
        <time>2021-09-19T08:27:06.000Z</time>
      </trkpt>
      <trkpt lat="43.78632" lon="7.21698">
        <ele>84.761711</ele>
        <time>2021-09-19T08:27:15.000Z</time>
      </trkpt>
      <trkpt lat="43.78579" lon="7.21717">
        <ele>84.284574</ele>
        <time>2021-09-19T08:27:23.000Z</time>
      </trkpt>
      <trkpt lat="43.78559" lon="7.21723">
        <ele>84.105445</ele>
        <time>2021-09-19T08:27:26.000Z</time>
      </trkpt>
      <trkpt lat="43.78504" lon="7.21741">
        <ele>83.618935</ele>
        <time>2021-09-19T08:27:34.000Z</time>
      </trkpt>
      <trkpt lat="43.78449" lon="7.21757">
        <ele>83.132179</ele>
        <time>2021-09-19T08:27:42.000Z</time>
      </trkpt>
      <trkpt lat="43.78428" lon="7.21761">
        <ele>82.918278</ele>
        <time>2021-09-19T08:27:45.000Z</time>
      </trkpt>
      <trkpt lat="43.78373" lon="7.21773">
        <ele>82.346701</ele>
        <time>2021-09-19T08:27:53.000Z</time>
      </trkpt>
      <trkpt lat="43.78347" lon="7.21778">
        <ele>82.067254</ele>
        <time>2021-09-19T08:27:57.000Z</time>
      </trkpt>
      <trkpt lat="43.78287" lon="7.21784">
        <ele>81.453747</ele>
        <time>2021-09-19T08:28:06.000Z</time>
      </trkpt>
      <trkpt lat="43.78281" lon="7.21785">
        <ele>81.38454</ele>
        <time>2021-09-19T08:28:07.000Z</time>
      </trkpt>
      <trkpt lat="43.78229" lon="7.21788">
        <ele>80.907548</ele>
        <time>2021-09-19T08:28:15.000Z</time>
      </trkpt>
      <trkpt lat="43.7817" lon="7.21791">
        <ele>80.386667</ele>
        <time>2021-09-19T08:28:24.000Z</time>
      </trkpt>
      <trkpt lat="43.78157" lon="7.21791">
        <ele>80.270485</ele>
        <time>2021-09-19T08:28:26.000Z</time>
      </trkpt>
      <trkpt lat="43.78099" lon="7.21789">
        <ele>79.756054</ele>
        <time>2021-09-19T08:28:35.000Z</time>
      </trkpt>
      <trkpt lat="43.7808" lon="7.21788">
        <ele>79.589751</ele>
        <time>2021-09-19T08:28:38.000Z</time>
      </trkpt>
      <trkpt lat="43.78023" lon="7.21783">
        <ele>79.130689</ele>
        <time>2021-09-19T08:28:47.000Z</time>
      </trkpt>
      <trkpt lat="43.78004" lon="7.21781">
        <ele>78.973301</ele>
        <time>2021-09-19T08:28:50.000Z</time>
      </trkpt>
      <trkpt lat="43.77946" lon="7.21772">
        <ele>78.499464</ele>
        <time>2021-09-19T08:28:59.000Z</time>
      </trkpt>
      <trkpt lat="43.7792" lon="7.21766">
        <ele>78.287171</ele>
        <time>2021-09-19T08:29:03.000Z</time>
      </trkpt>
      <trkpt lat="43.77869" lon="7.21755">
        <ele>77.94933</ele>
        <time>2021-09-19T08:29:11.000Z</time>
      </trkpt>
      <trkpt lat="43.77812" lon="7.21738">
        <ele>77.587285</ele>
        <time>2021-09-19T08:29:20.000Z</time>
      </trkpt>
      <trkpt lat="43.77753" lon="7.21719">
        <ele>77.220127</ele>
        <time>2021-09-19T08:29:29.000Z</time>
      </trkpt>
      <trkpt lat="43.77696" lon="7.21698">
        <ele>76.901278</ele>
        <time>2021-09-19T08:29:38.000Z</time>
      </trkpt>
      <trkpt lat="43.77683" lon="7.21692">
        <ele>76.834479</ele>
        <time>2021-09-19T08:29:40.000Z</time>
      </trkpt>
      <trkpt lat="43.77631" lon="7.2167">
        <ele>76.557633</ele>
        <time>2021-09-19T08:29:48.000Z</time>
      </trkpt>
      <trkpt lat="43.77618" lon="7.21663">
        <ele>76.488371</ele>
        <time>2021-09-19T08:29:50.000Z</time>
      </trkpt>
      <trkpt lat="43.77566" lon="7.21637">
        <ele>76.21103</ele>
        <time>2021-09-19T08:29:58.000Z</time>
      </trkpt>
      <trkpt lat="43.77514" lon="7.21608">
        <ele>76.050004</ele>
        <time>2021-09-19T08:30:06.000Z</time>
      </trkpt>
      <trkpt lat="43.77494" lon="7.21596">
        <ele>75.992086</ele>
        <time>2021-09-19T08:30:09.000Z</time>
      </trkpt>
      <trkpt lat="43.77444" lon="7.21566">
        <ele>75.844134</ele>
        <time>2021-09-19T08:30:17.000Z</time>
      </trkpt>
      <trkpt lat="43.77395" lon="7.2153">
        <ele>75.695736</ele>
        <time>2021-09-19T08:30:25.000Z</time>
      </trkpt>
      <trkpt lat="43.77383" lon="7.2152">
        <ele>75.663295</ele>
        <time>2021-09-19T08:30:27.000Z</time>
      </trkpt>
      <trkpt lat="43.77335" lon="7.21482">
        <ele>75.533331</ele>
        <time>2021-09-19T08:30:35.000Z</time>
      </trkpt>
      <trkpt lat="43.77305" lon="7.21459">
        <ele>75.451183</ele>
        <time>2021-09-19T08:30:40.000Z</time>
      </trkpt>
      <trkpt lat="43.77256" lon="7.21419">
        <ele>75.31769</ele>
        <time>2021-09-19T08:30:48.000Z</time>
      </trkpt>
      <trkpt lat="43.77232" lon="7.21398">
        <ele>75.253191</ele>
        <time>2021-09-19T08:30:52.000Z</time>
      </trkpt>
      <trkpt lat="43.77189" lon="7.21367">
        <ele>75.146603</ele>
        <time>2021-09-19T08:30:59.000Z</time>
      </trkpt>
      <trkpt lat="43.77165" lon="7.21347">
        <ele>75.084346</ele>
        <time>2021-09-19T08:31:03.000Z</time>
      </trkpt>
      <trkpt lat="43.7716" lon="7.2134">
        <ele>75.067785</ele>
        <time>2021-09-19T08:31:04.000Z</time>
      </trkpt>
      <trkpt lat="43.77144" lon="7.21319">
        <ele>75.019988</ele>
        <time>2021-09-19T08:31:07.000Z</time>
      </trkpt>
      <trkpt lat="43.77139" lon="7.21312">
        <ele>75.004613</ele>
        <time>2021-09-19T08:31:08.000Z</time>
      </trkpt>
      <trkpt lat="43.7711" lon="7.21282">
        <ele>74.92469</ele>
        <time>2021-09-19T08:31:13.000Z</time>
      </trkpt>
      <trkpt lat="43.77064" lon="7.21233">
        <ele>74.690065</ele>
        <time>2021-09-19T08:31:21.000Z</time>
      </trkpt>
      <trkpt lat="43.77029" lon="7.21196">
        <ele>74.479825</ele>
        <time>2021-09-19T08:31:27.000Z</time>
      </trkpt>
      <trkpt lat="43.76983" lon="7.21149">
        <ele>74.20378</ele>
        <time>2021-09-19T08:31:35.000Z</time>
      </trkpt>
      <trkpt lat="43.76961" lon="7.21125">
        <ele>74.068455</ele>
        <time>2021-09-19T08:31:39.000Z</time>
      </trkpt>
      <trkpt lat="43.76915" lon="7.21078">
        <ele>73.690013</ele>
        <time>2021-09-19T08:31:47.000Z</time>
      </trkpt>
      <trkpt lat="43.76909" lon="7.21072">
        <ele>73.640465</ele>
        <time>2021-09-19T08:31:48.000Z</time>
      </trkpt>
      <trkpt lat="43.76865" lon="7.21026">
        <ele>73.248218</ele>
        <time>2021-09-19T08:31:56.000Z</time>
      </trkpt>
      <trkpt lat="43.76849" lon="7.21009">
        <ele>73.105397</ele>
        <time>2021-09-19T08:31:59.000Z</time>
      </trkpt>
      <trkpt lat="43.76812" lon="7.20969">
        <ele>72.776231</ele>
        <time>2021-09-19T08:32:06.000Z</time>
      </trkpt>
      <trkpt lat="43.76764" lon="7.20919">
        <ele>72.408213</ele>
        <time>2021-09-19T08:32:15.000Z</time>
      </trkpt>
      <trkpt lat="43.76749" lon="7.20902">
        <ele>72.288338</ele>
        <time>2021-09-19T08:32:18.000Z</time>
      </trkpt>
      <trkpt lat="43.76704" lon="7.20849">
        <ele>71.928663</ele>
        <time>2021-09-19T08:32:27.000Z</time>
      </trkpt>
      <trkpt lat="43.76699" lon="7.20843">
        <ele>71.889117</ele>
        <time>2021-09-19T08:32:28.000Z</time>
      </trkpt>
      <trkpt lat="43.76663" lon="7.20802">
        <ele>71.588045</ele>
        <time>2021-09-19T08:32:35.000Z</time>
      </trkpt>
      <trkpt lat="43.76619" lon="7.20755">
        <ele>71.158015</ele>
        <time>2021-09-19T08:32:43.000Z</time>
      </trkpt>
      <trkpt lat="43.76613" lon="7.20749">
        <ele>71.102148</ele>
        <time>2021-09-19T08:32:44.000Z</time>
      </trkpt>
      <trkpt lat="43.76571" lon="7.20704">
        <ele>70.684623</ele>
        <time>2021-09-19T08:32:52.000Z</time>
      </trkpt>
      <trkpt lat="43.76532" lon="7.20663">
        <ele>70.303789</ele>
        <time>2021-09-19T08:33:00.000Z</time>
      </trkpt>
      <trkpt lat="43.76491" lon="7.20614">
        <ele>69.950616</ele>
        <time>2021-09-19T08:33:09.000Z</time>
      </trkpt>
      <trkpt lat="43.76456" lon="7.20562">
        <ele>69.622463</ele>
        <time>2021-09-19T08:33:17.000Z</time>
      </trkpt>
      <trkpt lat="43.76419" lon="7.20526">
        <ele>69.336263</ele>
        <time>2021-09-19T08:33:25.000Z</time>
      </trkpt>
      <trkpt lat="43.76414" lon="7.20522">
        <ele>69.303595</ele>
        <time>2021-09-19T08:33:28.000Z</time>
      </trkpt>
      <trkpt lat="43.7641" lon="7.20519">
        <ele>69.2735</ele>
        <time>2021-09-19T08:33:31.000Z</time>
      </trkpt>
      <trkpt lat="43.76409" lon="7.20515">
        <ele>69.256673</ele>
        <time>2021-09-19T08:33:33.000Z</time>
      </trkpt>
      <trkpt lat="43.76399" lon="7.20504">
        <ele>69.175337</ele>
        <time>2021-09-19T08:33:37.000Z</time>
      </trkpt>
      <trkpt lat="43.76379" lon="7.20485">
        <ele>68.999245</ele>
        <time>2021-09-19T08:33:42.000Z</time>
      </trkpt>
      <trkpt lat="43.76345" lon="7.20451">
        <ele>68.676848</ele>
        <time>2021-09-19T08:33:49.000Z</time>
      </trkpt>
      <trkpt lat="43.76303" lon="7.20409">
        <ele>68.273303</ele>
        <time>2021-09-19T08:33:57.000Z</time>
      </trkpt>
      <trkpt lat="43.76258" lon="7.20365">
        <ele>67.846498</ele>
        <time>2021-09-19T08:34:05.000Z</time>
      </trkpt>
      <trkpt lat="43.76253" lon="7.20359">
        <ele>67.793895</ele>
        <time>2021-09-19T08:34:06.000Z</time>
      </trkpt>
      <trkpt lat="43.76207" lon="7.20312">
        <ele>67.356026</ele>
        <time>2021-09-19T08:34:14.000Z</time>
      </trkpt>
      <trkpt lat="43.76184" lon="7.20288">
        <ele>67.130989</ele>
        <time>2021-09-19T08:34:18.000Z</time>
      </trkpt>
      <trkpt lat="43.7614" lon="7.20242">
        <ele>66.702529</ele>
        <time>2021-09-19T08:34:26.000Z</time>
      </trkpt>
      <trkpt lat="43.76134" lon="7.20236">
        <ele>66.648417</ele>
        <time>2021-09-19T08:34:27.000Z</time>
      </trkpt>
      <trkpt lat="43.76095" lon="7.20195">
        <ele>66.271935</ele>
        <time>2021-09-19T08:34:34.000Z</time>
      </trkpt>
      <trkpt lat="43.76048" lon="7.20146">
        <ele>65.83614</ele>
        <time>2021-09-19T08:34:42.000Z</time>
      </trkpt>
      <trkpt lat="43.76036" lon="7.20133">
        <ele>65.724682</ele>
        <time>2021-09-19T08:34:44.000Z</time>
      </trkpt>
      <trkpt lat="43.75988" lon="7.20085">
        <ele>65.288065</ele>
        <time>2021-09-19T08:34:52.000Z</time>
      </trkpt>
      <trkpt lat="43.75942" lon="7.20039">
        <ele>64.890624</ele>
        <time>2021-09-19T08:35:00.000Z</time>
      </trkpt>
      <trkpt lat="43.75936" lon="7.20033">
        <ele>64.848313</ele>
        <time>2021-09-19T08:35:01.000Z</time>
      </trkpt>
      <trkpt lat="43.75891" lon="7.19988">
        <ele>64.49883</ele>
        <time>2021-09-19T08:35:09.000Z</time>
      </trkpt>
      <trkpt lat="43.75885" lon="7.19983">
        <ele>64.454211</ele>
        <time>2021-09-19T08:35:10.000Z</time>
      </trkpt>
      <trkpt lat="43.75839" lon="7.19937">
        <ele>64.100618</ele>
        <time>2021-09-19T08:35:18.000Z</time>
      </trkpt>
      <trkpt lat="43.75828" lon="7.19926">
        <ele>64.014457</ele>
        <time>2021-09-19T08:35:20.000Z</time>
      </trkpt>
      <trkpt lat="43.75781" lon="7.1988">
        <ele>63.703769</ele>
        <time>2021-09-19T08:35:28.000Z</time>
      </trkpt>
      <trkpt lat="43.7577" lon="7.19868">
        <ele>63.633094</ele>
        <time>2021-09-19T08:35:30.000Z</time>
      </trkpt>
      <trkpt lat="43.75723" lon="7.19826">
        <ele>63.353248</ele>
        <time>2021-09-19T08:35:38.000Z</time>
      </trkpt>
      <trkpt lat="43.75711" lon="7.19816">
        <ele>63.282336</ele>
        <time>2021-09-19T08:35:40.000Z</time>
      </trkpt>
      <trkpt lat="43.75669" lon="7.19786">
        <ele>63.045831</ele>
        <time>2021-09-19T08:35:47.000Z</time>
      </trkpt>
      <trkpt lat="43.75663" lon="7.19782">
        <ele>63.015379</ele>
        <time>2021-09-19T08:35:48.000Z</time>
      </trkpt>
      <trkpt lat="43.7565" lon="7.19763">
        <ele>62.899108</ele>
        <time>2021-09-19T08:35:51.000Z</time>
      </trkpt>
      <trkpt lat="43.75639" lon="7.19755">
        <ele>62.809212</ele>
        <time>2021-09-19T08:35:53.000Z</time>
      </trkpt>
      <trkpt lat="43.75626" lon="7.19747">
        <ele>62.713148</ele>
        <time>2021-09-19T08:35:55.000Z</time>
      </trkpt>
      <trkpt lat="43.75606" lon="7.1972">
        <ele>62.520248</ele>
        <time>2021-09-19T08:35:59.000Z</time>
      </trkpt>
      <trkpt lat="43.75574" lon="7.19682">
        <ele>62.226947</ele>
        <time>2021-09-19T08:36:05.000Z</time>
      </trkpt>
      <trkpt lat="43.75529" lon="7.19635">
        <ele>61.83642</ele>
        <time>2021-09-19T08:36:13.000Z</time>
      </trkpt>
      <trkpt lat="43.75517" lon="7.19623">
        <ele>61.739715</ele>
        <time>2021-09-19T08:36:15.000Z</time>
      </trkpt>
      <trkpt lat="43.75473" lon="7.19577">
        <ele>61.283854</ele>
        <time>2021-09-19T08:36:23.000Z</time>
      </trkpt>
      <trkpt lat="43.75468" lon="7.19572">
        <ele>61.228087</ele>
        <time>2021-09-19T08:36:24.000Z</time>
      </trkpt>
      <trkpt lat="43.75424" lon="7.19526">
        <ele>60.770379</ele>
        <time>2021-09-19T08:36:32.000Z</time>
      </trkpt>
      <trkpt lat="43.75418" lon="7.1952">
        <ele>60.711554</ele>
        <time>2021-09-19T08:36:33.000Z</time>
      </trkpt>
      <trkpt lat="43.75373" lon="7.19473">
        <ele>60.242478</ele>
        <time>2021-09-19T08:36:41.000Z</time>
      </trkpt>
      <trkpt lat="43.75356" lon="7.19455">
        <ele>60.027732</ele>
        <time>2021-09-19T08:36:44.000Z</time>
      </trkpt>
      <trkpt lat="43.75309" lon="7.19407">
        <ele>59.439693</ele>
        <time>2021-09-19T08:36:52.000Z</time>
      </trkpt>
      <trkpt lat="43.75303" lon="7.19401">
        <ele>59.365048</ele>
        <time>2021-09-19T08:36:53.000Z</time>
      </trkpt>
      <trkpt lat="43.75258" lon="7.19354">
        <ele>58.786198</ele>
        <time>2021-09-19T08:37:01.000Z</time>
      </trkpt>
      <trkpt lat="43.75252" lon="7.19348">
        <ele>58.712803</ele>
        <time>2021-09-19T08:37:02.000Z</time>
      </trkpt>
      <trkpt lat="43.75207" lon="7.19301">
        <ele>58.160869</ele>
        <time>2021-09-19T08:37:10.000Z</time>
      </trkpt>
      <trkpt lat="43.75201" lon="7.19295">
        <ele>58.093935</ele>
        <time>2021-09-19T08:37:11.000Z</time>
      </trkpt>
      <trkpt lat="43.75158" lon="7.1925">
        <ele>57.576171</ele>
        <time>2021-09-19T08:37:19.000Z</time>
      </trkpt>
      <trkpt lat="43.75147" lon="7.19239">
        <ele>57.448205</ele>
        <time>2021-09-19T08:37:21.000Z</time>
      </trkpt>
      <trkpt lat="43.751" lon="7.1919">
        <ele>56.87649</ele>
        <time>2021-09-19T08:37:30.000Z</time>
      </trkpt>
      <trkpt lat="43.75084" lon="7.19173">
        <ele>56.693543</ele>
        <time>2021-09-19T08:37:33.000Z</time>
      </trkpt>
      <trkpt lat="43.75039" lon="7.19126">
        <ele>56.320406</ele>
        <time>2021-09-19T08:37:42.000Z</time>
      </trkpt>
      <trkpt lat="43.74995" lon="7.19079">
        <ele>55.956924</ele>
        <time>2021-09-19T08:37:51.000Z</time>
      </trkpt>
      <trkpt lat="43.7499" lon="7.19074">
        <ele>55.916125</ele>
        <time>2021-09-19T08:37:52.000Z</time>
      </trkpt>
      <trkpt lat="43.74945" lon="7.19027">
        <ele>55.550216</ele>
        <time>2021-09-19T08:38:01.000Z</time>
      </trkpt>
      <trkpt lat="43.74905" lon="7.18988">
        <ele>55.230444</ele>
        <time>2021-09-19T08:38:09.000Z</time>
      </trkpt>
      <trkpt lat="43.74861" lon="7.18944">
        <ele>54.87272</ele>
        <time>2021-09-19T08:38:18.000Z</time>
      </trkpt>
      <trkpt lat="43.74856" lon="7.18939">
        <ele>54.830977</ele>
        <time>2021-09-19T08:38:19.000Z</time>
      </trkpt>
      <trkpt lat="43.74807" lon="7.18897">
        <ele>54.456263</ele>
        <time>2021-09-19T08:38:28.000Z</time>
      </trkpt>
      <trkpt lat="43.74791" lon="7.18886">
        <ele>54.344107</ele>
        <time>2021-09-19T08:38:31.000Z</time>
      </trkpt>
      <trkpt lat="43.74782" lon="7.18874">
        <ele>54.319961</ele>
        <time>2021-09-19T08:38:33.000Z</time>
      </trkpt>
      <trkpt lat="43.74775" lon="7.18861">
        <ele>54.297308</ele>
        <time>2021-09-19T08:38:35.000Z</time>
      </trkpt>
      <trkpt lat="43.74763" lon="7.18856">
        <ele>54.273507</ele>
        <time>2021-09-19T08:38:37.000Z</time>
      </trkpt>
      <trkpt lat="43.74753" lon="7.18848">
        <ele>54.249258</ele>
        <time>2021-09-19T08:38:39.000Z</time>
      </trkpt>
      <trkpt lat="43.74747" lon="7.18842">
        <ele>54.236623</ele>
        <time>2021-09-19T08:38:40.000Z</time>
      </trkpt>
      <trkpt lat="43.74704" lon="7.18791">
        <ele>54.125908</ele>
        <time>2021-09-19T08:38:49.000Z</time>
      </trkpt>
      <trkpt lat="43.74659" lon="7.18753">
        <ele>54.024368</ele>
        <time>2021-09-19T08:38:57.000Z</time>
      </trkpt>
      <trkpt lat="43.74612" lon="7.18715">
        <ele>53.879493</ele>
        <time>2021-09-19T08:39:05.000Z</time>
      </trkpt>
      <trkpt lat="43.74594" lon="7.18701">
        <ele>53.819277</ele>
        <time>2021-09-19T08:39:08.000Z</time>
      </trkpt>
      <trkpt lat="43.74545" lon="7.18666">
        <ele>53.659469</ele>
        <time>2021-09-19T08:39:16.000Z</time>
      </trkpt>
      <trkpt lat="43.74533" lon="7.18658">
        <ele>53.619936</ele>
        <time>2021-09-19T08:39:18.000Z</time>
      </trkpt>
      <trkpt lat="43.74479" lon="7.18623">
        <ele>53.411953</ele>
        <time>2021-09-19T08:39:27.000Z</time>
      </trkpt>
      <trkpt lat="43.74466" lon="7.18616">
        <ele>53.327098</ele>
        <time>2021-09-19T08:39:29.000Z</time>
      </trkpt>
      <trkpt lat="43.74416" lon="7.18586">
        <ele>52.986585</ele>
        <time>2021-09-19T08:39:37.000Z</time>
      </trkpt>
      <trkpt lat="43.74365" lon="7.18559">
        <ele>52.647665</ele>
        <time>2021-09-19T08:39:45.000Z</time>
      </trkpt>
      <trkpt lat="43.74346" lon="7.1855">
        <ele>52.52211</ele>
        <time>2021-09-19T08:39:48.000Z</time>
      </trkpt>
      <trkpt lat="43.74308" lon="7.18531">
        <ele>52.284495</ele>
        <time>2021-09-19T08:39:54.000Z</time>
      </trkpt>
      <trkpt lat="43.74255" lon="7.18508">
        <ele>51.996908</ele>
        <time>2021-09-19T08:40:02.000Z</time>
      </trkpt>
      <trkpt lat="43.74235" lon="7.185">
        <ele>51.887522</ele>
        <time>2021-09-19T08:40:05.000Z</time>
      </trkpt>
      <trkpt lat="43.7418" lon="7.18479">
        <ele>51.594908</ele>
        <time>2021-09-19T08:40:13.000Z</time>
      </trkpt>
      <trkpt lat="43.7416" lon="7.18472">
        <ele>51.486589</ele>
        <time>2021-09-19T08:40:16.000Z</time>
      </trkpt>
      <trkpt lat="43.74107" lon="7.18456">
        <ele>51.203036</ele>
        <time>2021-09-19T08:40:24.000Z</time>
      </trkpt>
      <trkpt lat="43.74047" lon="7.18439">
        <ele>50.885862</ele>
        <time>2021-09-19T08:40:33.000Z</time>
      </trkpt>
      <trkpt lat="43.73988" lon="7.18425">
        <ele>50.571156</ele>
        <time>2021-09-19T08:40:42.000Z</time>
      </trkpt>
      <trkpt lat="43.73928" lon="7.18415">
        <ele>50.382083</ele>
        <time>2021-09-19T08:40:51.000Z</time>
      </trkpt>
      <trkpt lat="43.73922" lon="7.18414">
        <ele>50.36624</ele>
        <time>2021-09-19T08:40:52.000Z</time>
      </trkpt>
      <trkpt lat="43.73863" lon="7.18407">
        <ele>50.228981</ele>
        <time>2021-09-19T08:41:01.000Z</time>
      </trkpt>
      <trkpt lat="43.73857" lon="7.18406">
        <ele>50.213215</ele>
        <time>2021-09-19T08:41:02.000Z</time>
      </trkpt>
      <trkpt lat="43.738" lon="7.18403">
        <ele>50.078771</ele>
        <time>2021-09-19T08:41:11.000Z</time>
      </trkpt>
      <trkpt lat="43.73787" lon="7.18402">
        <ele>50.054411</ele>
        <time>2021-09-19T08:41:13.000Z</time>
      </trkpt>
      <trkpt lat="43.73729" lon="7.18401">
        <ele>49.975915</ele>
        <time>2021-09-19T08:41:22.000Z</time>
      </trkpt>
      <trkpt lat="43.73716" lon="7.18401">
        <ele>49.958757</ele>
        <time>2021-09-19T08:41:24.000Z</time>
      </trkpt>
      <trkpt lat="43.73659" lon="7.18403">
        <ele>49.881599</ele>
        <time>2021-09-19T08:41:33.000Z</time>
      </trkpt>
      <trkpt lat="43.73646" lon="7.18404">
        <ele>49.864278</ele>
        <time>2021-09-19T08:41:35.000Z</time>
      </trkpt>
      <trkpt lat="43.7359" lon="7.18408">
        <ele>49.815704</ele>
        <time>2021-09-19T08:41:44.000Z</time>
      </trkpt>
      <trkpt lat="43.73532" lon="7.18416">
        <ele>49.809881</ele>
        <time>2021-09-19T08:41:53.000Z</time>
      </trkpt>
      <trkpt lat="43.73526" lon="7.18417">
        <ele>49.809219</ele>
        <time>2021-09-19T08:41:54.000Z</time>
      </trkpt>
      <trkpt lat="43.73469" lon="7.18425">
        <ele>49.803525</ele>
        <time>2021-09-19T08:42:03.000Z</time>
      </trkpt>
      <trkpt lat="43.73457" lon="7.18426">
        <ele>49.802281</ele>
        <time>2021-09-19T08:42:05.000Z</time>
      </trkpt>
      <trkpt lat="43.73401" lon="7.18434">
        <ele>49.680725</ele>
        <time>2021-09-19T08:42:14.000Z</time>
      </trkpt>
      <trkpt lat="43.73388" lon="7.18435">
        <ele>49.63514</ele>
        <time>2021-09-19T08:42:16.000Z</time>
      </trkpt>
      <trkpt lat="43.73332" lon="7.18443">
        <ele>49.42895</ele>
        <time>2021-09-19T08:42:25.000Z</time>
      </trkpt>
      <trkpt lat="43.73326" lon="7.18444">
        <ele>49.405052</ele>
        <time>2021-09-19T08:42:26.000Z</time>
      </trkpt>
      <trkpt lat="43.7327" lon="7.18452">
        <ele>49.201615</ele>
        <time>2021-09-19T08:42:35.000Z</time>
      </trkpt>
      <trkpt lat="43.73258" lon="7.18454">
        <ele>49.155247</ele>
        <time>2021-09-19T08:42:37.000Z</time>
      </trkpt>
      <trkpt lat="43.73207" lon="7.18461">
        <ele>49.100684</ele>
        <time>2021-09-19T08:42:45.000Z</time>
      </trkpt>
      <trkpt lat="43.7315" lon="7.1847">
        <ele>49.050478</ele>
        <time>2021-09-19T08:42:54.000Z</time>
      </trkpt>
      <trkpt lat="43.73137" lon="7.18472">
        <ele>49.039156</ele>
        <time>2021-09-19T08:42:56.000Z</time>
      </trkpt>
      <trkpt lat="43.73088" lon="7.18479">
        <ele>48.995792</ele>
        <time>2021-09-19T08:43:04.000Z</time>
      </trkpt>
      <trkpt lat="43.73031" lon="7.18487">
        <ele>48.846927</ele>
        <time>2021-09-19T08:43:13.000Z</time>
      </trkpt>
      <trkpt lat="43.73025" lon="7.18489">
        <ele>48.826759</ele>
        <time>2021-09-19T08:43:14.000Z</time>
      </trkpt>
      <trkpt lat="43.72968" lon="7.18498">
        <ele>48.648716</ele>
        <time>2021-09-19T08:43:23.000Z</time>
      </trkpt>
      <trkpt lat="43.72913" lon="7.18506">
        <ele>48.473647</ele>
        <time>2021-09-19T08:43:32.000Z</time>
      </trkpt>
      <trkpt lat="43.72901" lon="7.18507">
        <ele>48.436289</ele>
        <time>2021-09-19T08:43:34.000Z</time>
      </trkpt>
      <trkpt lat="43.72883" lon="7.1851">
        <ele>48.302428</ele>
        <time>2021-09-19T08:43:37.000Z</time>
      </trkpt>
      <trkpt lat="43.72865" lon="7.18512">
        <ele>48.141801</ele>
        <time>2021-09-19T08:43:40.000Z</time>
      </trkpt>
      <trkpt lat="43.72808" lon="7.1852">
        <ele>47.634232</ele>
        <time>2021-09-19T08:43:49.000Z</time>
      </trkpt>
      <trkpt lat="43.72749" lon="7.18528">
        <ele>47.11139</ele>
        <time>2021-09-19T08:43:58.000Z</time>
      </trkpt>
      <trkpt lat="43.7269" lon="7.18536">
        <ele>46.648488</ele>
        <time>2021-09-19T08:44:07.000Z</time>
      </trkpt>
      <trkpt lat="43.72683" lon="7.18537">
        <ele>46.605862</ele>
        <time>2021-09-19T08:44:08.000Z</time>
      </trkpt>
      <trkpt lat="43.7263" lon="7.18544">
        <ele>46.2712</ele>
        <time>2021-09-19T08:44:16.000Z</time>
      </trkpt>
      <trkpt lat="43.72573" lon="7.18551">
        <ele>45.907955</ele>
        <time>2021-09-19T08:44:25.000Z</time>
      </trkpt>
      <trkpt lat="43.72567" lon="7.18552">
        <ele>45.867263</ele>
        <time>2021-09-19T08:44:26.000Z</time>
      </trkpt>
      <trkpt lat="43.7251" lon="7.1856">
        <ele>45.566241</ele>
        <time>2021-09-19T08:44:35.000Z</time>
      </trkpt>
      <trkpt lat="43.72452" lon="7.18568">
        <ele>45.31828</ele>
        <time>2021-09-19T08:44:44.000Z</time>
      </trkpt>
      <trkpt lat="43.72395" lon="7.18578">
        <ele>45.077074</ele>
        <time>2021-09-19T08:44:53.000Z</time>
      </trkpt>
      <trkpt lat="43.72384" lon="7.18581">
        <ele>45.026914</ele>
        <time>2021-09-19T08:44:55.000Z</time>
      </trkpt>
      <trkpt lat="43.72343" lon="7.18592">
        <ele>44.886494</ele>
        <time>2021-09-19T08:45:03.000Z</time>
      </trkpt>
      <trkpt lat="43.72296" lon="7.18605">
        <ele>44.778449</ele>
        <time>2021-09-19T08:45:13.000Z</time>
      </trkpt>
      <trkpt lat="43.72243" lon="7.18608">
        <ele>44.662189</ele>
        <time>2021-09-19T08:45:23.000Z</time>
      </trkpt>
      <trkpt lat="43.72193" lon="7.18612">
        <ele>44.549054</ele>
        <time>2021-09-19T08:45:32.000Z</time>
      </trkpt>
      <trkpt lat="43.72134" lon="7.18615">
        <ele>44.103692</ele>
        <time>2021-09-19T08:45:41.000Z</time>
      </trkpt>
      <trkpt lat="43.7208" lon="7.18618">
        <ele>43.617665</ele>
        <time>2021-09-19T08:45:49.000Z</time>
      </trkpt>
      <trkpt lat="43.72025" lon="7.18622">
        <ele>43.13211</ele>
        <time>2021-09-19T08:45:57.000Z</time>
      </trkpt>
      <trkpt lat="43.71983" lon="7.18627">
        <ele>42.742659</ele>
        <time>2021-09-19T08:46:03.000Z</time>
      </trkpt>
      <trkpt lat="43.71927" lon="7.18634">
        <ele>42.193982</ele>
        <time>2021-09-19T08:46:11.000Z</time>
      </trkpt>
      <trkpt lat="43.71912" lon="7.18636">
        <ele>42.055866</ele>
        <time>2021-09-19T08:46:13.000Z</time>
      </trkpt>
      <trkpt lat="43.71856" lon="7.18644">
        <ele>41.508152</ele>
        <time>2021-09-19T08:46:21.000Z</time>
      </trkpt>
      <trkpt lat="43.71802" lon="7.18651">
        <ele>40.987447</ele>
        <time>2021-09-19T08:46:29.000Z</time>
      </trkpt>
      <trkpt lat="43.71787" lon="7.18653">
        <ele>40.855019</ele>
        <time>2021-09-19T08:46:31.000Z</time>
      </trkpt>
      <trkpt lat="43.71733" lon="7.18661">
        <ele>40.343182</ele>
        <time>2021-09-19T08:46:39.000Z</time>
      </trkpt>
      <trkpt lat="43.71726" lon="7.18662">
        <ele>40.280727</ele>
        <time>2021-09-19T08:46:40.000Z</time>
      </trkpt>
      <trkpt lat="43.71667" lon="7.1867">
        <ele>39.72965</ele>
        <time>2021-09-19T08:46:49.000Z</time>
      </trkpt>
      <trkpt lat="43.71609" lon="7.18678">
        <ele>39.382531</ele>
        <time>2021-09-19T08:46:58.000Z</time>
      </trkpt>
      <trkpt lat="43.71602" lon="7.18679">
        <ele>39.357799</ele>
        <time>2021-09-19T08:46:59.000Z</time>
      </trkpt>
      <trkpt lat="43.71543" lon="7.18687">
        <ele>39.133331</ele>
        <time>2021-09-19T08:47:08.000Z</time>
      </trkpt>
      <trkpt lat="43.7153" lon="7.18689">
        <ele>39.083491</ele>
        <time>2021-09-19T08:47:10.000Z</time>
      </trkpt>
      <trkpt lat="43.71493" lon="7.18694">
        <ele>38.941587</ele>
        <time>2021-09-19T08:47:16.000Z</time>
      </trkpt>
      <trkpt lat="43.71448" lon="7.187">
        <ele>38.737824</ele>
        <time>2021-09-19T08:47:23.000Z</time>
      </trkpt>
      <trkpt lat="43.71389" lon="7.18708">
        <ele>38.405805</ele>
        <time>2021-09-19T08:47:32.000Z</time>
      </trkpt>
      <trkpt lat="43.71382" lon="7.18709">
        <ele>38.367936</ele>
        <time>2021-09-19T08:47:33.000Z</time>
      </trkpt>
      <trkpt lat="43.71329" lon="7.18716">
        <ele>38.06979</ele>
        <time>2021-09-19T08:47:41.000Z</time>
      </trkpt>
      <trkpt lat="43.71273" lon="7.18724">
        <ele>37.709914</ele>
        <time>2021-09-19T08:47:50.000Z</time>
      </trkpt>
      <trkpt lat="43.71234" lon="7.18732">
        <ele>37.378229</ele>
        <time>2021-09-19T08:47:57.000Z</time>
      </trkpt>
      <trkpt lat="43.71192" lon="7.18732">
        <ele>37.013853</ele>
        <time>2021-09-19T08:48:05.000Z</time>
      </trkpt>
      <trkpt lat="43.71157" lon="7.18737">
        <ele>36.715465</ele>
        <time>2021-09-19T08:48:10.000Z</time>
      </trkpt>
      <trkpt lat="43.71145" lon="7.18739">
        <ele>36.612162</ele>
        <time>2021-09-19T08:48:12.000Z</time>
      </trkpt>
      <trkpt lat="43.71102" lon="7.18746">
        <ele>36.236498</ele>
        <time>2021-09-19T08:48:19.000Z</time>
      </trkpt>
      <trkpt lat="43.71051" lon="7.18757">
        <ele>35.697883</ele>
        <time>2021-09-19T08:48:28.000Z</time>
      </trkpt>
      <trkpt lat="43.71039" lon="7.1876">
        <ele>35.574242</ele>
        <time>2021-09-19T08:48:32.000Z</time>
      </trkpt>
      <trkpt lat="43.71036" lon="7.18762">
        <ele>35.543322</ele>
        <time>2021-09-19T08:48:36.000Z</time>
      </trkpt>
      <trkpt lat="43.71023" lon="7.18776">
        <ele>35.371909</ele>
        <time>2021-09-19T08:48:41.000Z</time>
      </trkpt>
      <trkpt lat="43.71024" lon="7.18787">
        <ele>35.285109</ele>
        <time>2021-09-19T08:48:43.000Z</time>
      </trkpt>
      <trkpt lat="43.71025" lon="7.18791">
        <ele>35.250174</ele>
        <time>2021-09-19T08:48:44.000Z</time>
      </trkpt>
      <trkpt lat="43.71033" lon="7.18818">
        <ele>35.03939</ele>
        <time>2021-09-19T08:48:48.000Z</time>
      </trkpt>
      <trkpt lat="43.71034" lon="7.18832">
        <ele>34.929925</ele>
        <time>2021-09-19T08:48:50.000Z</time>
      </trkpt>
      <trkpt lat="43.71038" lon="7.18881">
        <ele>34.561792</ele>
        <time>2021-09-19T08:48:56.000Z</time>
      </trkpt>
      <trkpt lat="43.71042" lon="7.18939">
        <ele>34.15483</ele>
        <time>2021-09-19T08:49:03.000Z</time>
      </trkpt>
      <trkpt lat="43.71047" lon="7.18995">
        <ele>33.770153</ele>
        <time>2021-09-19T08:49:10.000Z</time>
      </trkpt>
      <trkpt lat="43.71047" lon="7.19003">
        <ele>33.714875</ele>
        <time>2021-09-19T08:49:11.000Z</time>
      </trkpt>
      <trkpt lat="43.7105" lon="7.19033">
        <ele>33.501588</ele>
        <time>2021-09-19T08:49:15.000Z</time>
      </trkpt>
      <trkpt lat="43.71055" lon="7.19105">
        <ele>33.009817</ele>
        <time>2021-09-19T08:49:24.000Z</time>
      </trkpt>
      <trkpt lat="43.71059" lon="7.19159">
        <ele>32.724362</ele>
        <time>2021-09-19T08:49:31.000Z</time>
      </trkpt>
      <trkpt lat="43.71061" lon="7.19186">
        <ele>32.723418</ele>
        <time>2021-09-19T08:49:35.000Z</time>
      </trkpt>
      <trkpt lat="43.71061" lon="7.19189">
        <ele>32.723311</ele>
        <time>2021-09-19T08:49:36.000Z</time>
      </trkpt>
      <trkpt lat="43.71056" lon="7.192">
        <ele>32.722857</ele>
        <time>2021-09-19T08:49:37.000Z</time>
      </trkpt>
      <trkpt lat="43.71059" lon="7.19212">
        <ele>32.722434</ele>
        <time>2021-09-19T08:49:39.000Z</time>
      </trkpt>
      <trkpt lat="43.71063" lon="7.19221">
        <ele>32.722058</ele>
        <time>2021-09-19T08:49:40.000Z</time>
      </trkpt>
      <trkpt lat="43.71067" lon="7.1928">
        <ele>32.720027</ele>
        <time>2021-09-19T08:49:48.000Z</time>
      </trkpt>
      <trkpt lat="43.71073" lon="7.19344">
        <ele>32.717791</ele>
        <time>2021-09-19T08:49:56.000Z</time>
      </trkpt>
      <trkpt lat="43.71077" lon="7.19391">
        <ele>32.70761</ele>
        <time>2021-09-19T08:50:03.000Z</time>
      </trkpt>
      <trkpt lat="43.71079" lon="7.19412">
        <ele>32.629186</ele>
        <time>2021-09-19T08:50:08.000Z</time>
      </trkpt>
      <trkpt lat="43.71072" lon="7.19434">
        <ele>32.543721</ele>
        <time>2021-09-19T08:50:12.000Z</time>
      </trkpt>
      <trkpt lat="43.71069" lon="7.19436">
        <ele>32.525886</ele>
        <time>2021-09-19T08:50:13.000Z</time>
      </trkpt>
      <trkpt lat="43.71043" lon="7.19451">
        <ele>32.387337</ele>
        <time>2021-09-19T08:50:19.000Z</time>
      </trkpt>
      <trkpt lat="43.71006" lon="7.19473">
        <ele>32.185428</ele>
        <time>2021-09-19T08:50:27.000Z</time>
      </trkpt>
      <trkpt lat="43.70968" lon="7.19494">
        <ele>31.981817</ele>
        <time>2021-09-19T08:50:35.000Z</time>
      </trkpt>
      <trkpt lat="43.70956" lon="7.19501">
        <ele>31.91817</ele>
        <time>2021-09-19T08:50:38.000Z</time>
      </trkpt>
      <trkpt lat="43.70946" lon="7.19498">
        <ele>31.864597</ele>
        <time>2021-09-19T08:50:40.000Z</time>
      </trkpt>
      <trkpt lat="43.70942" lon="7.195">
        <ele>31.84224</ele>
        <time>2021-09-19T08:50:41.000Z</time>
      </trkpt>
      <trkpt lat="43.70938" lon="7.19503">
        <ele>31.821396</ele>
        <time>2021-09-19T08:50:42.000Z</time>
      </trkpt>
      <trkpt lat="43.70925" lon="7.1951">
        <ele>31.597375</ele>
        <time>2021-09-19T08:50:45.000Z</time>
      </trkpt>
      <trkpt lat="43.70912" lon="7.19518">
        <ele>31.358458</ele>
        <time>2021-09-19T08:50:48.000Z</time>
      </trkpt>
      <trkpt lat="43.70906" lon="7.1952">
        <ele>31.26434</ele>
        <time>2021-09-19T08:50:49.000Z</time>
      </trkpt>
      <trkpt lat="43.70884" lon="7.19532">
        <ele>30.872023</ele>
        <time>2021-09-19T08:50:54.000Z</time>
      </trkpt>
      <trkpt lat="43.70876" lon="7.19537">
        <ele>30.729641</ele>
        <time>2021-09-19T08:50:59.000Z</time>
      </trkpt>
      <trkpt lat="43.7087" lon="7.19533">
        <ele>30.613217</ele>
        <time>2021-09-19T08:51:04.000Z</time>
      </trkpt>
      <trkpt lat="43.70861" lon="7.1952">
        <ele>30.390449</ele>
        <time>2021-09-19T08:51:09.000Z</time>
      </trkpt>
      <trkpt lat="43.70855" lon="7.19502">
        <ele>30.159591</ele>
        <time>2021-09-19T08:51:15.000Z</time>
      </trkpt>
      <trkpt lat="43.70855" lon="7.195">
        <ele>30.132512</ele>
        <time>2021-09-19T08:51:16.000Z</time>
      </trkpt>
      <trkpt lat="43.70862" lon="7.19493">
        <ele>29.984473</ele>
        <time>2021-09-19T08:51:18.000Z</time>
      </trkpt>
      <trkpt lat="43.70864" lon="7.19491">
        <ele>29.947627</ele>
        <time>2021-09-19T08:51:23.000Z</time>
      </trkpt>
      <trkpt lat="43.70855" lon="7.19496">
        <ele>29.792395</ele>
        <time>2021-09-19T08:52:29.000Z</time>
      </trkpt>
      <trkpt lat="43.70854" lon="7.195">
        <ele>29.743715</ele>
        <time>2021-09-19T08:52:31.000Z</time>
      </trkpt>
      <trkpt lat="43.70859" lon="7.19516">
        <ele>29.524732</ele>
        <time>2021-09-19T08:52:36.000Z</time>
      </trkpt>
      <trkpt lat="43.70863" lon="7.19529">
        <ele>29.358793</ele>
        <time>2021-09-19T08:52:39.000Z</time>
      </trkpt>
      <trkpt lat="43.70855" lon="7.19547">
        <ele>29.10287</ele>
        <time>2021-09-19T08:52:45.000Z</time>
      </trkpt>
      <trkpt lat="43.70845" lon="7.19551">
        <ele>28.940405</ele>
        <time>2021-09-19T08:52:49.000Z</time>
      </trkpt>
      <trkpt lat="43.70838" lon="7.19554">
        <ele>28.827796</ele>
        <time>2021-09-19T08:52:53.000Z</time>
      </trkpt>
      <trkpt lat="43.70836" lon="7.19555">
        <ele>28.812941</ele>
        <time>2021-09-19T08:52:54.000Z</time>
      </trkpt>
      <trkpt lat="43.7083" lon="7.19563">
        <ele>28.770099</ele>
        <time>2021-09-19T08:52:56.000Z</time>
      </trkpt>
      <trkpt lat="43.70822" lon="7.19566">
        <ele>28.725418</ele>
        <time>2021-09-19T08:52:58.000Z</time>
      </trkpt>
      <trkpt lat="43.70805" lon="7.19574">
        <ele>28.625725</ele>
        <time>2021-09-19T08:53:02.000Z</time>
      </trkpt>
      <trkpt lat="43.70769" lon="7.19584">
        <ele>28.427464</ele>
        <time>2021-09-19T08:53:09.000Z</time>
      </trkpt>
      <trkpt lat="43.70732" lon="7.19594">
        <ele>28.222859</ele>
        <time>2021-09-19T08:53:16.000Z</time>
      </trkpt>
      <trkpt lat="43.707" lon="7.19602">
        <ele>28.044293</ele>
        <time>2021-09-19T08:53:22.000Z</time>
      </trkpt>
      <trkpt lat="43.70667" lon="7.19605">
        <ele>27.864695</ele>
        <time>2021-09-19T08:53:28.000Z</time>
      </trkpt>
      <trkpt lat="43.70635" lon="7.19613">
        <ele>27.654407</ele>
        <time>2021-09-19T08:53:34.000Z</time>
      </trkpt>
      <trkpt lat="43.7063" lon="7.19615">
        <ele>27.619019</ele>
        <time>2021-09-19T08:53:35.000Z</time>
      </trkpt>
      <trkpt lat="43.70625" lon="7.19616">
        <ele>27.585007</ele>
        <time>2021-09-19T08:53:36.000Z</time>
      </trkpt>
      <trkpt lat="43.70599" lon="7.19622">
        <ele>27.412369</ele>
        <time>2021-09-19T08:53:41.000Z</time>
      </trkpt>
      <trkpt lat="43.70552" lon="7.19634">
        <ele>27.100374</ele>
        <time>2021-09-19T08:53:50.000Z</time>
      </trkpt>
      <trkpt lat="43.705" lon="7.19647">
        <ele>26.752683</ele>
        <time>2021-09-19T08:54:00.000Z</time>
      </trkpt>
      <trkpt lat="43.70485" lon="7.19651">
        <ele>26.658138</ele>
        <time>2021-09-19T08:54:03.000Z</time>
      </trkpt>
      <trkpt lat="43.70476" lon="7.19653">
        <ele>26.609396</ele>
        <time>2021-09-19T08:54:05.000Z</time>
      </trkpt>
      <trkpt lat="43.70462" lon="7.19656">
        <ele>26.531179</ele>
        <time>2021-09-19T08:54:09.000Z</time>
      </trkpt>
      <trkpt lat="43.70456" lon="7.19658">
        <ele>26.499517</ele>
        <time>2021-09-19T08:54:11.000Z</time>
      </trkpt>
      <trkpt lat="43.70449" lon="7.1966">
        <ele>26.45893</ele>
        <time>2021-09-19T08:54:13.000Z</time>
      </trkpt>
      <trkpt lat="43.70421" lon="7.19666">
        <ele>26.308297</ele>
        <time>2021-09-19T08:54:19.000Z</time>
      </trkpt>
      <trkpt lat="43.70412" lon="7.19668">
        <ele>26.259149</ele>
        <time>2021-09-19T08:54:21.000Z</time>
      </trkpt>
      <trkpt lat="43.70388" lon="7.19673">
        <ele>26.131588</ele>
        <time>2021-09-19T08:54:26.000Z</time>
      </trkpt>
      <trkpt lat="43.70348" lon="7.19679">
        <ele>25.917413</ele>
        <time>2021-09-19T08:54:34.000Z</time>
      </trkpt>
      <trkpt lat="43.70307" lon="7.19682">
        <ele>25.696728</ele>
        <time>2021-09-19T08:54:42.000Z</time>
      </trkpt>
      <trkpt lat="43.70272" lon="7.19684">
        <ele>25.491463</ele>
        <time>2021-09-19T08:54:49.000Z</time>
      </trkpt>
      <trkpt lat="43.70232" lon="7.19682">
        <ele>25.253892</ele>
        <time>2021-09-19T08:54:57.000Z</time>
      </trkpt>
      <trkpt lat="43.70202" lon="7.19679">
        <ele>25.078254</ele>
        <time>2021-09-19T08:55:03.000Z</time>
      </trkpt>
      <trkpt lat="43.70197" lon="7.19678">
        <ele>25.047625</ele>
        <time>2021-09-19T08:55:04.000Z</time>
      </trkpt>
      <trkpt lat="43.70171" lon="7.19675">
        <ele>24.895725</ele>
        <time>2021-09-19T08:55:09.000Z</time>
      </trkpt>
      <trkpt lat="43.70135" lon="7.19669">
        <ele>24.683195</ele>
        <time>2021-09-19T08:55:16.000Z</time>
      </trkpt>
      <trkpt lat="43.70087" lon="7.19658">
        <ele>24.311433</ele>
        <time>2021-09-19T08:55:25.000Z</time>
      </trkpt>
      <trkpt lat="43.70049" lon="7.19648">
        <ele>24.01014</ele>
        <time>2021-09-19T08:55:32.000Z</time>
      </trkpt>
      <trkpt lat="43.70004" lon="7.19636">
        <ele>23.652876</ele>
        <time>2021-09-19T08:55:40.000Z</time>
      </trkpt>
      <trkpt lat="43.69958" lon="7.19626">
        <ele>23.283667</ele>
        <time>2021-09-19T08:55:49.000Z</time>
      </trkpt>
      <trkpt lat="43.69916" lon="7.19622">
        <ele>23.08809</ele>
        <time>2021-09-19T08:55:57.000Z</time>
      </trkpt>
      <trkpt lat="43.6988" lon="7.1962">
        <ele>22.929167</ele>
        <time>2021-09-19T08:56:04.000Z</time>
      </trkpt>
      <trkpt lat="43.69838" lon="7.19622">
        <ele>22.747567</ele>
        <time>2021-09-19T08:56:12.000Z</time>
      </trkpt>
      <trkpt lat="43.69807" lon="7.19628">
        <ele>22.610036</ele>
        <time>2021-09-19T08:56:18.000Z</time>
      </trkpt>
      <trkpt lat="43.69802" lon="7.19629">
        <ele>22.587083</ele>
        <time>2021-09-19T08:56:19.000Z</time>
      </trkpt>
      <trkpt lat="43.69762" lon="7.19639">
        <ele>22.416753</ele>
        <time>2021-09-19T08:56:27.000Z</time>
      </trkpt>
      <trkpt lat="43.69746" lon="7.19642">
        <ele>22.356666</ele>
        <time>2021-09-19T08:56:31.000Z</time>
      </trkpt>
      <trkpt lat="43.69745" lon="7.19643">
        <ele>22.35276</ele>
        <time>2021-09-19T08:56:32.000Z</time>
      </trkpt>
      <trkpt lat="43.69741" lon="7.19644">
        <ele>22.336667</ele>
        <time>2021-09-19T08:56:54.000Z</time>
      </trkpt>
      <trkpt lat="43.69724" lon="7.19649">
        <ele>22.268785</ele>
        <time>2021-09-19T08:56:59.000Z</time>
      </trkpt>
      <trkpt lat="43.69696" lon="7.19659">
        <ele>22.155878</ele>
        <time>2021-09-19T08:57:05.000Z</time>
      </trkpt>
      <trkpt lat="43.6966" lon="7.19673">
        <ele>22.011838</ele>
        <time>2021-09-19T08:57:12.000Z</time>
      </trkpt>
      <trkpt lat="43.6965" lon="7.19677">
        <ele>21.97062</ele>
        <time>2021-09-19T08:57:14.000Z</time>
      </trkpt>
      <trkpt lat="43.69634" lon="7.19682">
        <ele>21.906636</ele>
        <time>2021-09-19T08:57:17.000Z</time>
      </trkpt>
      <trkpt lat="43.69586" lon="7.19709">
        <ele>21.72362</ele>
        <time>2021-09-19T08:57:26.000Z</time>
      </trkpt>
      <trkpt lat="43.69527" lon="7.19748">
        <ele>21.538871</ele>
        <time>2021-09-19T08:57:37.000Z</time>
      </trkpt>
      <trkpt lat="43.69522" lon="7.19751">
        <ele>21.523259</ele>
        <time>2021-09-19T08:57:38.000Z</time>
      </trkpt>
      <trkpt lat="43.69489" lon="7.19774">
        <ele>21.416752</ele>
        <time>2021-09-19T08:57:45.000Z</time>
      </trkpt>
      <trkpt lat="43.69453" lon="7.19799">
        <ele>21.301434</ele>
        <time>2021-09-19T08:57:52.000Z</time>
      </trkpt>
      <trkpt lat="43.69405" lon="7.19832">
        <ele>21.138797</ele>
        <time>2021-09-19T08:58:01.000Z</time>
      </trkpt>
      <trkpt lat="43.69369" lon="7.19856">
        <ele>21.012981</ele>
        <time>2021-09-19T08:58:08.000Z</time>
      </trkpt>
      <trkpt lat="43.69322" lon="7.19882">
        <ele>20.851301</ele>
        <time>2021-09-19T08:58:17.000Z</time>
      </trkpt>
      <trkpt lat="43.6928" lon="7.19906">
        <ele>20.708328</ele>
        <time>2021-09-19T08:58:25.000Z</time>
      </trkpt>
      <trkpt lat="43.69245" lon="7.19922">
        <ele>20.53783</ele>
        <time>2021-09-19T08:58:32.000Z</time>
      </trkpt>
      <trkpt lat="43.69236" lon="7.19923">
        <ele>20.495395</ele>
        <time>2021-09-19T08:58:35.000Z</time>
      </trkpt>
      <trkpt lat="43.69236" lon="7.19923">
        <ele>20.495395</ele>
        <time>2021-09-19T08:58:37.000Z</time>
      </trkpt>
      <trkpt lat="43.69234" lon="7.19925">
        <ele>20.481665</ele>
        <time>2021-09-19T08:58:56.000Z</time>
      </trkpt>
      <trkpt lat="43.69231" lon="7.19926">
        <ele>20.469716</ele>
        <time>2021-09-19T08:58:57.000Z</time>
      </trkpt>
      <trkpt lat="43.69229" lon="7.19928">
        <ele>20.454959</ele>
        <time>2021-09-19T08:58:58.000Z</time>
      </trkpt>
      <trkpt lat="43.69223" lon="7.19932">
        <ele>20.425443</ele>
        <time>2021-09-19T08:59:00.000Z</time>
      </trkpt>
      <trkpt lat="43.69211" lon="7.19943">
        <ele>20.35471</ele>
        <time>2021-09-19T08:59:04.000Z</time>
      </trkpt>
      <trkpt lat="43.69175" lon="7.19962">
        <ele>20.166039</ele>
        <time>2021-09-19T08:59:12.000Z</time>
      </trkpt>
      <trkpt lat="43.69141" lon="7.19981">
        <ele>19.98669</ele>
        <time>2021-09-19T08:59:19.000Z</time>
      </trkpt>
      <trkpt lat="43.69136" lon="7.19983">
        <ele>19.962031</ele>
        <time>2021-09-19T08:59:20.000Z</time>
      </trkpt>
      <trkpt lat="43.69089" lon="7.20008">
        <ele>19.723701</ele>
        <time>2021-09-19T08:59:29.000Z</time>
      </trkpt>
      <trkpt lat="43.69046" lon="7.20031">
        <ele>19.51737</ele>
        <time>2021-09-19T08:59:37.000Z</time>
      </trkpt>
      <trkpt lat="43.69005" lon="7.20053">
        <ele>19.316486</ele>
        <time>2021-09-19T08:59:45.000Z</time>
      </trkpt>
      <trkpt lat="43.68978" lon="7.20064">
        <ele>19.189966</ele>
        <time>2021-09-19T08:59:51.000Z</time>
      </trkpt>
      <trkpt lat="43.68942" lon="7.20076">
        <ele>19.022569</ele>
        <time>2021-09-19T08:59:58.000Z</time>
      </trkpt>
      <trkpt lat="43.68898" lon="7.2009">
        <ele>18.925145</ele>
        <time>2021-09-19T09:00:06.000Z</time>
      </trkpt>
      <trkpt lat="43.68893" lon="7.20092">
        <ele>18.914688</ele>
        <time>2021-09-19T09:00:07.000Z</time>
      </trkpt>
      <trkpt lat="43.68861" lon="7.20103">
        <ele>18.850453</ele>
        <time>2021-09-19T09:00:13.000Z</time>
      </trkpt>
      <trkpt lat="43.68813" lon="7.20119">
        <ele>18.754335</ele>
        <time>2021-09-19T09:00:22.000Z</time>
      </trkpt>
      <trkpt lat="43.68793" lon="7.20126">
        <ele>18.7126</ele>
        <time>2021-09-19T09:00:26.000Z</time>
      </trkpt>
      <trkpt lat="43.68777" lon="7.20131">
        <ele>18.68037</ele>
        <time>2021-09-19T09:00:29.000Z</time>
      </trkpt>
      <trkpt lat="43.68743" lon="7.20143">
        <ele>18.62416</ele>
        <time>2021-09-19T09:00:35.000Z</time>
      </trkpt>
      <trkpt lat="43.68706" lon="7.20156">
        <ele>18.569558</ele>
        <time>2021-09-19T09:00:42.000Z</time>
      </trkpt>
      <trkpt lat="43.68679" lon="7.20164">
        <ele>18.531324</ele>
        <time>2021-09-19T09:00:47.000Z</time>
      </trkpt>
      <trkpt lat="43.6863" lon="7.20179">
        <ele>18.460288</ele>
        <time>2021-09-19T09:00:56.000Z</time>
      </trkpt>
      <trkpt lat="43.68599" lon="7.20188">
        <ele>18.415157</ele>
        <time>2021-09-19T09:01:02.000Z</time>
      </trkpt>
      <trkpt lat="43.68594" lon="7.20189">
        <ele>18.408294</ele>
        <time>2021-09-19T09:01:03.000Z</time>
      </trkpt>
      <trkpt lat="43.68584" lon="7.20193">
        <ele>18.393878</ele>
        <time>2021-09-19T09:01:05.000Z</time>
      </trkpt>
      <trkpt lat="43.68575" lon="7.20196">
        <ele>18.378663</ele>
        <time>2021-09-19T09:01:07.000Z</time>
      </trkpt>
      <trkpt lat="43.68544" lon="7.20206">
        <ele>18.327857</ele>
        <time>2021-09-19T09:01:13.000Z</time>
      </trkpt>
      <trkpt lat="43.68493" lon="7.20222">
        <ele>18.243086</ele>
        <time>2021-09-19T09:01:22.000Z</time>
      </trkpt>
      <trkpt lat="43.68455" lon="7.20233">
        <ele>18.181574</ele>
        <time>2021-09-19T09:01:29.000Z</time>
      </trkpt>
      <trkpt lat="43.68438" lon="7.20238">
        <ele>18.154118</ele>
        <time>2021-09-19T09:01:32.000Z</time>
      </trkpt>
      <trkpt lat="43.68427" lon="7.20242">
        <ele>18.13528</ele>
        <time>2021-09-19T09:01:34.000Z</time>
      </trkpt>
      <trkpt lat="43.68398" lon="7.20254">
        <ele>18.239523</ele>
        <time>2021-09-19T09:01:39.000Z</time>
      </trkpt>
      <trkpt lat="43.68393" lon="7.20254">
        <ele>18.286155</ele>
        <time>2021-09-19T09:01:40.000Z</time>
      </trkpt>
      <trkpt lat="43.68353" lon="7.20267">
        <ele>18.627478</ele>
        <time>2021-09-19T09:01:47.000Z</time>
      </trkpt>
      <trkpt lat="43.68321" lon="7.20279">
        <ele>18.910401</ele>
        <time>2021-09-19T09:01:53.000Z</time>
      </trkpt>
      <trkpt lat="43.68312" lon="7.20282">
        <ele>18.984418</ele>
        <time>2021-09-19T09:01:56.000Z</time>
      </trkpt>
      <trkpt lat="43.68298" lon="7.20288">
        <ele>19.112155</ele>
        <time>2021-09-19T09:02:00.000Z</time>
      </trkpt>
      <trkpt lat="43.68266" lon="7.20301">
        <ele>19.388944</ele>
        <time>2021-09-19T09:02:07.000Z</time>
      </trkpt>
      <trkpt lat="43.68234" lon="7.20314">
        <ele>19.589359</ele>
        <time>2021-09-19T09:02:14.000Z</time>
      </trkpt>
      <trkpt lat="43.68197" lon="7.20328">
        <ele>19.329913</ele>
        <time>2021-09-19T09:02:22.000Z</time>
      </trkpt>
      <trkpt lat="43.6815" lon="7.20346">
        <ele>19.006158</ele>
        <time>2021-09-19T09:02:32.000Z</time>
      </trkpt>
      <trkpt lat="43.68122" lon="7.20357">
        <ele>18.810374</ele>
        <time>2021-09-19T09:02:38.000Z</time>
      </trkpt>
      <trkpt lat="43.68089" lon="7.2037">
        <ele>18.581009</ele>
        <time>2021-09-19T09:02:45.000Z</time>
      </trkpt>
      <trkpt lat="43.68085" lon="7.20372">
        <ele>18.551575</ele>
        <time>2021-09-19T09:02:46.000Z</time>
      </trkpt>
      <trkpt lat="43.68081" lon="7.20374">
        <ele>18.522785</ele>
        <time>2021-09-19T09:02:47.000Z</time>
      </trkpt>
      <trkpt lat="43.6807" lon="7.20378">
        <ele>18.445101</ele>
        <time>2021-09-19T09:02:50.000Z</time>
      </trkpt>
      <trkpt lat="43.68048" lon="7.20386">
        <ele>18.239533</ele>
        <time>2021-09-19T09:02:55.000Z</time>
      </trkpt>
      <trkpt lat="43.68017" lon="7.20399">
        <ele>17.928137</ele>
        <time>2021-09-19T09:03:02.000Z</time>
      </trkpt>
      <trkpt lat="43.67988" lon="7.20411">
        <ele>17.635914</ele>
        <time>2021-09-19T09:03:10.000Z</time>
      </trkpt>
      <trkpt lat="43.67963" lon="7.20421">
        <ele>17.384286</ele>
        <time>2021-09-19T09:03:16.000Z</time>
      </trkpt>
      <trkpt lat="43.67935" lon="7.20433">
        <ele>17.097485</ele>
        <time>2021-09-19T09:03:22.000Z</time>
      </trkpt>
      <trkpt lat="43.67931" lon="7.20435">
        <ele>17.054311</ele>
        <time>2021-09-19T09:03:23.000Z</time>
      </trkpt>
      <trkpt lat="43.67911" lon="7.20442">
        <ele>16.860035</ele>
        <time>2021-09-19T09:03:28.000Z</time>
      </trkpt>
      <trkpt lat="43.67906" lon="7.20444">
        <ele>16.809977</ele>
        <time>2021-09-19T09:03:29.000Z</time>
      </trkpt>
      <trkpt lat="43.67892" lon="7.20458">
        <ele>16.677015</ele>
        <time>2021-09-19T09:03:32.000Z</time>
      </trkpt>
      <trkpt lat="43.67874" lon="7.20465">
        <ele>16.658782</ele>
        <time>2021-09-19T09:03:36.000Z</time>
      </trkpt>
      <trkpt lat="43.67864" lon="7.20469">
        <ele>16.649765</ele>
        <time>2021-09-19T09:03:38.000Z</time>
      </trkpt>
      <trkpt lat="43.67855" lon="7.20473">
        <ele>16.640766</ele>
        <time>2021-09-19T09:03:40.000Z</time>
      </trkpt>
      <trkpt lat="43.67833" lon="7.20481">
        <ele>16.619013</ele>
        <time>2021-09-19T09:03:45.000Z</time>
      </trkpt>
      <trkpt lat="43.67806" lon="7.20492">
        <ele>16.593094</ele>
        <time>2021-09-19T09:03:52.000Z</time>
      </trkpt>
      <trkpt lat="43.67804" lon="7.20492">
        <ele>16.591045</ele>
        <time>2021-09-19T09:03:53.000Z</time>
      </trkpt>
      <trkpt lat="43.67802" lon="7.20491">
        <ele>16.589625</ele>
        <time>2021-09-19T09:03:55.000Z</time>
      </trkpt>
      <trkpt lat="43.67802" lon="7.20491">
        <ele>16.589402</ele>
        <time>2021-09-19T09:03:57.000Z</time>
      </trkpt>
      <trkpt lat="43.67804" lon="7.20498">
        <ele>16.584554</ele>
        <time>2021-09-19T09:04:11.000Z</time>
      </trkpt>
      <trkpt lat="43.67806" lon="7.20502">
        <ele>16.581012</ele>
        <time>2021-09-19T09:04:13.000Z</time>
      </trkpt>
      <trkpt lat="43.67809" lon="7.20522">
        <ele>16.567482</ele>
        <time>2021-09-19T09:04:18.000Z</time>
      </trkpt>
      <trkpt lat="43.67806" lon="7.20524">
        <ele>16.56518</ele>
        <time>2021-09-19T09:04:19.000Z</time>
      </trkpt>
      <trkpt lat="43.67799" lon="7.20531">
        <ele>16.556365</ele>
        <time>2021-09-19T09:04:23.000Z</time>
      </trkpt>
      <trkpt lat="43.67797" lon="7.20534">
        <ele>16.553761</ele>
        <time>2021-09-19T09:04:24.000Z</time>
      </trkpt>
      <trkpt lat="43.67794" lon="7.20541">
        <ele>16.548114</ele>
        <time>2021-09-19T09:04:27.000Z</time>
      </trkpt>
      <trkpt lat="43.67795" lon="7.20545">
        <ele>16.54524</ele>
        <time>2021-09-19T09:04:28.000Z</time>
      </trkpt>
      <trkpt lat="43.67801" lon="7.20571">
        <ele>16.526382</ele>
        <time>2021-09-19T09:04:33.000Z</time>
      </trkpt>
      <trkpt lat="43.67796" lon="7.20589">
        <ele>16.513416</ele>
        <time>2021-09-19T09:04:36.000Z</time>
      </trkpt>
      <trkpt lat="43.67793" lon="7.20594">
        <ele>16.522169</ele>
        <time>2021-09-19T09:04:37.000Z</time>
      </trkpt>
      <trkpt lat="43.67783" lon="7.20607">
        <ele>16.552442</ele>
        <time>2021-09-19T09:04:40.000Z</time>
      </trkpt>
      <trkpt lat="43.67774" lon="7.2062">
        <ele>16.58205</ele>
        <time>2021-09-19T09:04:43.000Z</time>
      </trkpt>
      <trkpt lat="43.67747" lon="7.20655">
        <ele>16.665894</ele>
        <time>2021-09-19T09:04:51.000Z</time>
      </trkpt>
      <trkpt lat="43.67721" lon="7.20692">
        <ele>16.749661</ele>
        <time>2021-09-19T09:04:59.000Z</time>
      </trkpt>
      <trkpt lat="43.67703" lon="7.20728">
        <ele>16.822177</ele>
        <time>2021-09-19T09:05:06.000Z</time>
      </trkpt>
      <trkpt lat="43.67681" lon="7.20772">
        <ele>16.910043</ele>
        <time>2021-09-19T09:05:15.000Z</time>
      </trkpt>
      <trkpt lat="43.67665" lon="7.20799">
        <ele>18.36374</ele>
        <time>2021-09-19T09:05:23.000Z</time>
      </trkpt>
      <trkpt lat="43.67654" lon="7.20812">
        <ele>19.423113</ele>
        <time>2021-09-19T09:05:30.000Z</time>
      </trkpt>
      <trkpt lat="43.67647" lon="7.2082">
        <ele>20.00782</ele>
        <time>2021-09-19T09:05:35.000Z</time>
      </trkpt>
      <trkpt lat="43.67638" lon="7.20828">
        <ele>20.774654</ele>
        <time>2021-09-19T09:05:41.000Z</time>
      </trkpt>
      <trkpt lat="43.67629" lon="7.20835">
        <ele>21.524146</ele>
        <time>2021-09-19T09:05:47.000Z</time>
      </trkpt>
      <trkpt lat="43.67617" lon="7.20844">
        <ele>22.478511</ele>
        <time>2021-09-19T09:05:55.000Z</time>
      </trkpt>
      <trkpt lat="43.67606" lon="7.20852">
        <ele>23.332459</ele>
        <time>2021-09-19T09:06:03.000Z</time>
      </trkpt>
      <trkpt lat="43.67596" lon="7.20861">
        <ele>24.168445</ele>
        <time>2021-09-19T09:06:10.000Z</time>
      </trkpt>
      <trkpt lat="43.67594" lon="7.20863">
        <ele>24.355805</ele>
        <time>2021-09-19T09:06:12.000Z</time>
      </trkpt>
      <trkpt lat="43.67591" lon="7.20866">
        <ele>24.60964</ele>
        <time>2021-09-19T09:06:15.000Z</time>
      </trkpt>
      <trkpt lat="43.67586" lon="7.20872">
        <ele>25.050757</ele>
        <time>2021-09-19T09:06:20.000Z</time>
      </trkpt>
      <trkpt lat="43.67581" lon="7.20878">
        <ele>25.519703</ele>
        <time>2021-09-19T09:06:26.000Z</time>
      </trkpt>
      <trkpt lat="43.67576" lon="7.20888">
        <ele>26.156616</ele>
        <time>2021-09-19T09:06:31.000Z</time>
      </trkpt>
      <trkpt lat="43.67567" lon="7.20908">
        <ele>27.322301</ele>
        <time>2021-09-19T09:06:38.000Z</time>
      </trkpt>
      <trkpt lat="43.67561" lon="7.20925">
        <ele>28.319495</ele>
        <time>2021-09-19T09:06:46.000Z</time>
      </trkpt>
      <trkpt lat="43.67553" lon="7.20945">
        <ele>29.452451</ele>
        <time>2021-09-19T09:06:54.000Z</time>
      </trkpt>
      <trkpt lat="43.67549" lon="7.20958">
        <ele>29.886376</ele>
        <time>2021-09-19T09:06:59.000Z</time>
      </trkpt>
      <trkpt lat="43.6754" lon="7.20981">
        <ele>30.654172</ele>
        <time>2021-09-19T09:07:06.000Z</time>
      </trkpt>
      <trkpt lat="43.67531" lon="7.21002">
        <ele>31.357053</ele>
        <time>2021-09-19T09:07:12.000Z</time>
      </trkpt>
      <trkpt lat="43.67521" lon="7.21029">
        <ele>32.24796</ele>
        <time>2021-09-19T09:07:19.000Z</time>
      </trkpt>
      <trkpt lat="43.67508" lon="7.21063">
        <ele>33.327391</ele>
        <time>2021-09-19T09:07:26.000Z</time>
      </trkpt>
      <trkpt lat="43.67507" lon="7.21068">
        <ele>33.49149</ele>
        <time>2021-09-19T09:07:27.000Z</time>
      </trkpt>
      <trkpt lat="43.67503" lon="7.21078">
        <ele>33.832817</ele>
        <time>2021-09-19T09:07:29.000Z</time>
      </trkpt>
      <trkpt lat="43.67501" lon="7.21084">
        <ele>34.017797</ele>
        <time>2021-09-19T09:07:30.000Z</time>
      </trkpt>
      <trkpt lat="43.67491" lon="7.21108">
        <ele>34.81623</ele>
        <time>2021-09-19T09:07:34.000Z</time>
      </trkpt>
      <trkpt lat="43.67486" lon="7.2112">
        <ele>35.214197</ele>
        <time>2021-09-19T09:07:36.000Z</time>
      </trkpt>
      <trkpt lat="43.6746" lon="7.21181">
        <ele>36.965113</ele>
        <time>2021-09-19T09:07:46.000Z</time>
      </trkpt>
      <trkpt lat="43.67446" lon="7.21216">
        <ele>37.49225</ele>
        <time>2021-09-19T09:07:52.000Z</time>
      </trkpt>
      <trkpt lat="43.67433" lon="7.21251">
        <ele>38.012106</ele>
        <time>2021-09-19T09:07:58.000Z</time>
      </trkpt>
      <trkpt lat="43.67432" lon="7.21258">
        <ele>38.0959</ele>
        <time>2021-09-19T09:07:59.000Z</time>
      </trkpt>
      <trkpt lat="43.67431" lon="7.21301">
        <ele>38.668111</ele>
        <time>2021-09-19T09:08:06.000Z</time>
      </trkpt>
      <trkpt lat="43.67437" lon="7.2135">
        <ele>39.323649</ele>
        <time>2021-09-19T09:08:13.000Z</time>
      </trkpt>
      <trkpt lat="43.67443" lon="7.21372">
        <ele>39.63903</ele>
        <time>2021-09-19T09:08:16.000Z</time>
      </trkpt>
      <trkpt lat="43.6745" lon="7.21395">
        <ele>39.961118</ele>
        <time>2021-09-19T09:08:19.000Z</time>
      </trkpt>
      <trkpt lat="43.67459" lon="7.21418">
        <ele>40.122279</ele>
        <time>2021-09-19T09:08:23.000Z</time>
      </trkpt>
      <trkpt lat="43.67472" lon="7.21452">
        <ele>40.328545</ele>
        <time>2021-09-19T09:08:30.000Z</time>
      </trkpt>
      <trkpt lat="43.6749" lon="7.21498">
        <ele>40.615744</ele>
        <time>2021-09-19T09:08:37.000Z</time>
      </trkpt>
      <trkpt lat="43.67508" lon="7.21558">
        <ele>40.965631</ele>
        <time>2021-09-19T09:08:45.000Z</time>
      </trkpt>
      <trkpt lat="43.67512" lon="7.21573">
        <ele>41.055017</ele>
        <time>2021-09-19T09:08:47.000Z</time>
      </trkpt>
      <trkpt lat="43.67514" lon="7.21599">
        <ele>41.197654</ele>
        <time>2021-09-19T09:08:50.000Z</time>
      </trkpt>
      <trkpt lat="43.67512" lon="7.21617">
        <ele>41.297878</ele>
        <time>2021-09-19T09:08:52.000Z</time>
      </trkpt>
      <trkpt lat="43.67509" lon="7.21636">
        <ele>41.295923</ele>
        <time>2021-09-19T09:08:54.000Z</time>
      </trkpt>
      <trkpt lat="43.67507" lon="7.21646">
        <ele>41.252106</ele>
        <time>2021-09-19T09:08:55.000Z</time>
      </trkpt>
      <trkpt lat="43.67501" lon="7.21664">
        <ele>41.164186</ele>
        <time>2021-09-19T09:08:57.000Z</time>
      </trkpt>
      <trkpt lat="43.67489" lon="7.21703">
        <ele>40.979408</ele>
        <time>2021-09-19T09:09:01.000Z</time>
      </trkpt>
      <trkpt lat="43.67479" lon="7.21732">
        <ele>40.83606</ele>
        <time>2021-09-19T09:09:04.000Z</time>
      </trkpt>
      <trkpt lat="43.67474" lon="7.21754">
        <ele>40.73516</ele>
        <time>2021-09-19T09:09:06.000Z</time>
      </trkpt>
      <trkpt lat="43.67467" lon="7.21791">
        <ele>40.566777</ele>
        <time>2021-09-19T09:09:09.000Z</time>
      </trkpt>
      <trkpt lat="43.67466" lon="7.21804">
        <ele>40.508808</ele>
        <time>2021-09-19T09:09:10.000Z</time>
      </trkpt>
      <trkpt lat="43.67465" lon="7.21817">
        <ele>40.451343</ele>
        <time>2021-09-19T09:09:11.000Z</time>
      </trkpt>
      <trkpt lat="43.67462" lon="7.21857">
        <ele>40.276125</ele>
        <time>2021-09-19T09:09:14.000Z</time>
      </trkpt>
      <trkpt lat="43.67457" lon="7.21939">
        <ele>39.160587</ele>
        <time>2021-09-19T09:09:20.000Z</time>
      </trkpt>
      <trkpt lat="43.67452" lon="7.21985">
        <ele>38.501141</ele>
        <time>2021-09-19T09:09:24.000Z</time>
      </trkpt>
      <trkpt lat="43.67441" lon="7.22047">
        <ele>37.581989</ele>
        <time>2021-09-19T09:09:30.000Z</time>
      </trkpt>
      <trkpt lat="43.67437" lon="7.22067">
        <ele>37.278291</ele>
        <time>2021-09-19T09:09:32.000Z</time>
      </trkpt>
      <trkpt lat="43.6743" lon="7.22096">
        <ele>36.837726</ele>
        <time>2021-09-19T09:09:36.000Z</time>
      </trkpt>
      <trkpt lat="43.67428" lon="7.22103">
        <ele>36.740868</ele>
        <time>2021-09-19T09:09:40.000Z</time>
      </trkpt>
      <trkpt lat="43.67426" lon="7.22109">
        <ele>36.620025</ele>
        <time>2021-09-19T09:09:47.000Z</time>
      </trkpt>
      <trkpt lat="43.67425" lon="7.22113">
        <ele>36.513529</ele>
        <time>2021-09-19T09:09:48.000Z</time>
      </trkpt>
      <trkpt lat="43.67416" lon="7.22145">
        <ele>35.728866</ele>
        <time>2021-09-19T09:09:53.000Z</time>
      </trkpt>
      <trkpt lat="43.67396" lon="7.22194">
        <ele>34.457957</ele>
        <time>2021-09-19T09:10:00.000Z</time>
      </trkpt>
      <trkpt lat="43.67388" lon="7.22212">
        <ele>33.967162</ele>
        <time>2021-09-19T09:10:03.000Z</time>
      </trkpt>
      <trkpt lat="43.67391" lon="7.22222">
        <ele>33.734613</ele>
        <time>2021-09-19T09:10:05.000Z</time>
      </trkpt>
      <trkpt lat="43.67398" lon="7.2223">
        <ele>33.427212</ele>
        <time>2021-09-19T09:10:07.000Z</time>
      </trkpt>
      <trkpt lat="43.67402" lon="7.22234">
        <ele>33.26696</ele>
        <time>2021-09-19T09:10:08.000Z</time>
      </trkpt>
      <trkpt lat="43.67426" lon="7.22261">
        <ele>32.302482</ele>
        <time>2021-09-19T09:10:13.000Z</time>
      </trkpt>
      <trkpt lat="43.67463" lon="7.22312">
        <ele>30.726592</ele>
        <time>2021-09-19T09:10:20.000Z</time>
      </trkpt>
      <trkpt lat="43.67468" lon="7.22319">
        <ele>30.544084</ele>
        <time>2021-09-19T09:10:21.000Z</time>
      </trkpt>
      <trkpt lat="43.6748" lon="7.22335">
        <ele>30.155261</ele>
        <time>2021-09-19T09:10:23.000Z</time>
      </trkpt>
      <trkpt lat="43.67492" lon="7.22349">
        <ele>29.773724</ele>
        <time>2021-09-19T09:10:25.000Z</time>
      </trkpt>
      <trkpt lat="43.67513" lon="7.22368">
        <ele>29.154487</ele>
        <time>2021-09-19T09:10:28.000Z</time>
      </trkpt>
      <trkpt lat="43.67545" lon="7.22406">
        <ele>28.122848</ele>
        <time>2021-09-19T09:10:33.000Z</time>
      </trkpt>
      <trkpt lat="43.67586" lon="7.22453">
        <ele>26.824941</ele>
        <time>2021-09-19T09:10:40.000Z</time>
      </trkpt>
      <trkpt lat="43.67612" lon="7.22483">
        <ele>26.035243</ele>
        <time>2021-09-19T09:10:45.000Z</time>
      </trkpt>
      <trkpt lat="43.67642" lon="7.22517">
        <ele>25.126686</ele>
        <time>2021-09-19T09:10:51.000Z</time>
      </trkpt>
      <trkpt lat="43.67682" lon="7.22561">
        <ele>23.951795</ele>
        <time>2021-09-19T09:10:59.000Z</time>
      </trkpt>
      <trkpt lat="43.67718" lon="7.22602">
        <ele>22.858524</ele>
        <time>2021-09-19T09:11:07.000Z</time>
      </trkpt>
      <trkpt lat="43.67754" lon="7.22645">
        <ele>21.792237</ele>
        <time>2021-09-19T09:11:15.000Z</time>
      </trkpt>
      <trkpt lat="43.67772" lon="7.22668">
        <ele>21.243392</ele>
        <time>2021-09-19T09:11:19.000Z</time>
      </trkpt>
      <trkpt lat="43.67777" lon="7.22673">
        <ele>21.107658</ele>
        <time>2021-09-19T09:11:20.000Z</time>
      </trkpt>
      <trkpt lat="43.67808" lon="7.22712">
        <ele>20.167933</ele>
        <time>2021-09-19T09:11:27.000Z</time>
      </trkpt>
      <trkpt lat="43.67828" lon="7.22737">
        <ele>19.574042</ele>
        <time>2021-09-19T09:11:32.000Z</time>
      </trkpt>
      <trkpt lat="43.67827" lon="7.22746">
        <ele>19.428517</ele>
        <time>2021-09-19T09:11:33.000Z</time>
      </trkpt>
      <trkpt lat="43.67826" lon="7.22752">
        <ele>19.324585</ele>
        <time>2021-09-19T09:11:34.000Z</time>
      </trkpt>
      <trkpt lat="43.67821" lon="7.22771">
        <ele>18.998472</ele>
        <time>2021-09-19T09:11:37.000Z</time>
      </trkpt>
      <trkpt lat="43.67814" lon="7.22799">
        <ele>18.523998</ele>
        <time>2021-09-19T09:11:42.000Z</time>
      </trkpt>
      <trkpt lat="43.67812" lon="7.22808">
        <ele>18.257274</ele>
        <time>2021-09-19T09:11:46.000Z</time>
      </trkpt>
      <trkpt lat="43.67806" lon="7.2283">
        <ele>17.381477</ele>
        <time>2021-09-19T09:11:51.000Z</time>
      </trkpt>
      <trkpt lat="43.67797" lon="7.22865">
        <ele>15.91274</ele>
        <time>2021-09-19T09:11:56.000Z</time>
      </trkpt>
      <trkpt lat="43.67786" lon="7.22874">
        <ele>15.237782</ele>
        <time>2021-09-19T09:11:58.000Z</time>
      </trkpt>
      <trkpt lat="43.67782" lon="7.22891">
        <ele>14.570466</ele>
        <time>2021-09-19T09:12:01.000Z</time>
      </trkpt>
      <trkpt lat="43.6778" lon="7.22896">
        <ele>14.34018</ele>
        <time>2021-09-19T09:12:05.000Z</time>
      </trkpt>
      <trkpt lat="43.6778" lon="7.22896">
        <ele>14.34018</ele>
        <time>2021-09-19T09:12:07.000Z</time>
      </trkpt>
      <trkpt lat="43.67783" lon="7.22903">
        <ele>14.054459</ele>
        <time>2021-09-19T09:13:06.000Z</time>
      </trkpt>
      <trkpt lat="43.67782" lon="7.22904">
        <ele>13.969677</ele>
        <time>2021-09-19T09:13:07.000Z</time>
      </trkpt>
      <trkpt lat="43.67778" lon="7.22915">
        <ele>13.492468</ele>
        <time>2021-09-19T09:13:13.000Z</time>
      </trkpt>
      <trkpt lat="43.67766" lon="7.22929">
        <ele>12.684584</ele>
        <time>2021-09-19T09:13:18.000Z</time>
      </trkpt>
      <trkpt lat="43.67766" lon="7.2293">
        <ele>12.63363</ele>
        <time>2021-09-19T09:13:19.000Z</time>
      </trkpt>
      <trkpt lat="43.67774" lon="7.22937">
        <ele>12.127728</ele>
        <time>2021-09-19T09:13:21.000Z</time>
      </trkpt>
      <trkpt lat="43.67786" lon="7.22945">
        <ele>11.451993</ele>
        <time>2021-09-19T09:13:28.000Z</time>
      </trkpt>
      <trkpt lat="43.67798" lon="7.22954">
        <ele>10.700546</ele>
        <time>2021-09-19T09:13:35.000Z</time>
      </trkpt>
      <trkpt lat="43.6781" lon="7.22963">
        <ele>9.965057</ele>
        <time>2021-09-19T09:13:42.000Z</time>
      </trkpt>
      <trkpt lat="43.67817" lon="7.22968">
        <ele>9.549687</ele>
        <time>2021-09-19T09:13:46.000Z</time>
      </trkpt>
      <trkpt lat="43.67818" lon="7.22968">
        <ele>9.507677</ele>
        <time>2021-09-19T09:13:47.000Z</time>
      </trkpt>
      <trkpt lat="43.6782" lon="7.2297">
        <ele>9.362096</ele>
        <time>2021-09-19T09:13:50.000Z</time>
      </trkpt>
      <trkpt lat="43.67822" lon="7.22971">
        <ele>9.260324</ele>
        <time>2021-09-19T09:13:52.000Z</time>
      </trkpt>
      <trkpt lat="43.67826" lon="7.22974">
        <ele>9.012989</ele>
        <time>2021-09-19T09:13:57.000Z</time>
      </trkpt>
      <trkpt lat="43.67829" lon="7.22976">
        <ele>8.854004</ele>
        <time>2021-09-19T09:15:01.000Z</time>
      </trkpt>
      <trkpt lat="43.67831" lon="7.22977">
        <ele>8.829057</ele>
        <time>2021-09-19T09:15:02.000Z</time>
      </trkpt>
      <trkpt lat="43.67834" lon="7.2298">
        <ele>8.770026</ele>
        <time>2021-09-19T09:15:04.000Z</time>
      </trkpt>
      <trkpt lat="43.67848" lon="7.2299">
        <ele>8.51229</ele>
        <time>2021-09-19T09:15:11.000Z</time>
      </trkpt>
      <trkpt lat="43.67859" lon="7.22998">
        <ele>8.320789</ele>
        <time>2021-09-19T09:15:17.000Z</time>
      </trkpt>
      <trkpt lat="43.67874" lon="7.23009">
        <ele>8.052515</ele>
        <time>2021-09-19T09:15:25.000Z</time>
      </trkpt>
      <trkpt lat="43.67891" lon="7.23021">
        <ele>7.746821</ele>
        <time>2021-09-19T09:15:34.000Z</time>
      </trkpt>
      <trkpt lat="43.67911" lon="7.23036">
        <ele>7.399839</ele>
        <time>2021-09-19T09:15:43.000Z</time>
      </trkpt>
      <trkpt lat="43.67923" lon="7.23045">
        <ele>7.178122</ele>
        <time>2021-09-19T09:15:50.000Z</time>
      </trkpt>
      <trkpt lat="43.67924" lon="7.23045">
        <ele>7.161774</ele>
        <time>2021-09-19T09:15:53.000Z</time>
      </trkpt>
      <trkpt lat="43.67929" lon="7.23049">
        <ele>7.07973</ele>
        <time>2021-09-19T09:17:08.000Z</time>
      </trkpt>
      <trkpt lat="43.6794" lon="7.23057">
        <ele>6.878847</ele>
        <time>2021-09-19T09:17:15.000Z</time>
      </trkpt>
      <trkpt lat="43.67946" lon="7.23064">
        <ele>6.745206</ele>
        <time>2021-09-19T09:17:20.000Z</time>
      </trkpt>
      <trkpt lat="43.6796" lon="7.23076">
        <ele>6.495641</ele>
        <time>2021-09-19T09:17:30.000Z</time>
      </trkpt>
      <trkpt lat="43.67968" lon="7.23082">
        <ele>6.350162</ele>
        <time>2021-09-19T09:17:38.000Z</time>
      </trkpt>
      <trkpt lat="43.67979" lon="7.2309">
        <ele>6.141781</ele>
        <time>2021-09-19T09:17:46.000Z</time>
      </trkpt>
      <trkpt lat="43.67994" lon="7.23098">
        <ele>6.023384</ele>
        <time>2021-09-19T09:17:53.000Z</time>
      </trkpt>
      <trkpt lat="43.68009" lon="7.2311">
        <ele>6.030178</ele>
        <time>2021-09-19T09:18:01.000Z</time>
      </trkpt>
      <trkpt lat="43.68024" lon="7.23122">
        <ele>6.036822</ele>
        <time>2021-09-19T09:18:09.000Z</time>
      </trkpt>
      <trkpt lat="43.68041" lon="7.23136">
        <ele>6.044161</ele>
        <time>2021-09-19T09:18:18.000Z</time>
      </trkpt>
      <trkpt lat="43.68055" lon="7.23147">
        <ele>6.050476</ele>
        <time>2021-09-19T09:18:27.000Z</time>
      </trkpt>
      <trkpt lat="43.68068" lon="7.23159">
        <ele>6.056544</ele>
        <time>2021-09-19T09:18:35.000Z</time>
      </trkpt>
      <trkpt lat="43.68082" lon="7.23173">
        <ele>6.063097</ele>
        <time>2021-09-19T09:18:43.000Z</time>
      </trkpt>
      <trkpt lat="43.68094" lon="7.23186">
        <ele>6.068788</ele>
        <time>2021-09-19T09:18:50.000Z</time>
      </trkpt>
      <trkpt lat="43.68108" lon="7.23201">
        <ele>6.075615</ele>
        <time>2021-09-19T09:18:58.000Z</time>
      </trkpt>
      <trkpt lat="43.68123" lon="7.23217">
        <ele>6.082914</ele>
        <time>2021-09-19T09:19:06.000Z</time>
      </trkpt>
      <trkpt lat="43.68127" lon="7.2322">
        <ele>6.08452</ele>
        <time>2021-09-19T09:19:10.000Z</time>
      </trkpt>
      <trkpt lat="43.6813" lon="7.23224">
        <ele>6.086092</ele>
        <time>2021-09-19T09:19:40.000Z</time>
      </trkpt>
      <trkpt lat="43.68132" lon="7.23226">
        <ele>6.087304</ele>
        <time>2021-09-19T09:19:42.000Z</time>
      </trkpt>
      <trkpt lat="43.68137" lon="7.23231">
        <ele>6.088386</ele>
        <time>2021-09-19T09:19:45.000Z</time>
      </trkpt>
      <trkpt lat="43.68149" lon="7.23244">
        <ele>5.985323</ele>
        <time>2021-09-19T09:19:51.000Z</time>
      </trkpt>
      <trkpt lat="43.68161" lon="7.23256">
        <ele>5.88419</ele>
        <time>2021-09-19T09:19:59.000Z</time>
      </trkpt>
      <trkpt lat="43.68182" lon="7.23278">
        <ele>5.711991</ele>
        <time>2021-09-19T09:20:07.000Z</time>
      </trkpt>
      <trkpt lat="43.68192" lon="7.2329">
        <ele>5.621504</ele>
        <time>2021-09-19T09:20:13.000Z</time>
      </trkpt>
      <trkpt lat="43.68211" lon="7.23309">
        <ele>5.46837</ele>
        <time>2021-09-19T09:20:20.000Z</time>
      </trkpt>
      <trkpt lat="43.68233" lon="7.23333">
        <ele>5.283828</ele>
        <time>2021-09-19T09:20:29.000Z</time>
      </trkpt>
      <trkpt lat="43.6825" lon="7.23352">
        <ele>5.134558</ele>
        <time>2021-09-19T09:20:37.000Z</time>
      </trkpt>
      <trkpt lat="43.68265" lon="7.23367">
        <ele>5.013419</ele>
        <time>2021-09-19T09:20:43.000Z</time>
      </trkpt>
      <trkpt lat="43.6829" lon="7.23394">
        <ele>4.69433</ele>
        <time>2021-09-19T09:20:53.000Z</time>
      </trkpt>
      <trkpt lat="43.68315" lon="7.23422">
        <ele>4.234036</ele>
        <time>2021-09-19T09:21:02.000Z</time>
      </trkpt>
      <trkpt lat="43.68338" lon="7.23448">
        <ele>3.81855</ele>
        <time>2021-09-19T09:21:11.000Z</time>
      </trkpt>
      <trkpt lat="43.6836" lon="7.23472">
        <ele>3.41297</ele>
        <time>2021-09-19T09:21:20.000Z</time>
      </trkpt>
      <trkpt lat="43.68382" lon="7.23497">
        <ele>3.002762</ele>
        <time>2021-09-19T09:21:30.000Z</time>
      </trkpt>
      <trkpt lat="43.68405" lon="7.23511">
        <ele>2.644012</ele>
        <time>2021-09-19T09:21:38.000Z</time>
      </trkpt>
      <trkpt lat="43.68431" lon="7.23538">
        <ele>2.25907</ele>
        <time>2021-09-19T09:21:48.000Z</time>
      </trkpt>
      <trkpt lat="43.68453" lon="7.23562">
        <ele>2.079903</ele>
        <time>2021-09-19T09:21:56.000Z</time>
      </trkpt>
      <trkpt lat="43.68479" lon="7.23592">
        <ele>1.852705</ele>
        <time>2021-09-19T09:22:06.000Z</time>
      </trkpt>
      <trkpt lat="43.685" lon="7.23624">
        <ele>1.647984</ele>
        <time>2021-09-19T09:22:15.000Z</time>
      </trkpt>
      <trkpt lat="43.68528" lon="7.23656">
        <ele>1.406913</ele>
        <time>2021-09-19T09:22:26.000Z</time>
      </trkpt>
      <trkpt lat="43.68549" lon="7.2368">
        <ele>1.226016</ele>
        <time>2021-09-19T09:22:34.000Z</time>
      </trkpt>
      <trkpt lat="43.68571" lon="7.23706">
        <ele>1.040258</ele>
        <time>2021-09-19T09:22:43.000Z</time>
      </trkpt>
      <trkpt lat="43.68595" lon="7.23736">
        <ele>0.830093</ele>
        <time>2021-09-19T09:22:52.000Z</time>
      </trkpt>
      <trkpt lat="43.68618" lon="7.23763">
        <ele>0.635821</ele>
        <time>2021-09-19T09:23:00.000Z</time>
      </trkpt>
      <trkpt lat="43.68639" lon="7.23791">
        <ele>0.44508</ele>
        <time>2021-09-19T09:23:08.000Z</time>
      </trkpt>
      <trkpt lat="43.68659" lon="7.23817">
        <ele>0.267893</ele>
        <time>2021-09-19T09:23:16.000Z</time>
      </trkpt>
      <trkpt lat="43.68682" lon="7.23837">
        <ele>0.087821</ele>
        <time>2021-09-19T09:23:24.000Z</time>
      </trkpt>
      <trkpt lat="43.687" lon="7.23863">
        <ele>-0.029068</ele>
        <time>2021-09-19T09:23:31.000Z</time>
      </trkpt>
      <trkpt lat="43.6872" lon="7.23893">
        <ele>-0.05103</ele>
        <time>2021-09-19T09:23:39.000Z</time>
      </trkpt>
      <trkpt lat="43.68738" lon="7.23922">
        <ele>-0.072892</ele>
        <time>2021-09-19T09:23:47.000Z</time>
      </trkpt>
      <trkpt lat="43.68757" lon="7.23952">
        <ele>-0.094619</ele>
        <time>2021-09-19T09:23:55.000Z</time>
      </trkpt>
      <trkpt lat="43.68779" lon="7.23989">
        <ele>-0.121477</ele>
        <time>2021-09-19T09:24:04.000Z</time>
      </trkpt>
      <trkpt lat="43.68793" lon="7.24013">
        <ele>-0.138528</ele>
        <time>2021-09-19T09:24:10.000Z</time>
      </trkpt>
      <trkpt lat="43.6881" lon="7.24043">
        <ele>-0.15977</ele>
        <time>2021-09-19T09:24:18.000Z</time>
      </trkpt>
      <trkpt lat="43.68828" lon="7.24077">
        <ele>0.012578</ele>
        <time>2021-09-19T09:24:27.000Z</time>
      </trkpt>
      <trkpt lat="43.6885" lon="7.24114">
        <ele>0.218946</ele>
        <time>2021-09-19T09:24:36.000Z</time>
      </trkpt>
      <trkpt lat="43.68869" lon="7.24148">
        <ele>0.398991</ele>
        <time>2021-09-19T09:24:44.000Z</time>
      </trkpt>
      <trkpt lat="43.68892" lon="7.2419">
        <ele>0.623438</ele>
        <time>2021-09-19T09:24:54.000Z</time>
      </trkpt>
      <trkpt lat="43.68911" lon="7.24226">
        <ele>0.814091</ele>
        <time>2021-09-19T09:25:02.000Z</time>
      </trkpt>
      <trkpt lat="43.68927" lon="7.24255">
        <ele>1.014458</ele>
        <time>2021-09-19T09:25:09.000Z</time>
      </trkpt>
      <trkpt lat="43.68943" lon="7.24284">
        <ele>1.265708</ele>
        <time>2021-09-19T09:25:16.000Z</time>
      </trkpt>
      <trkpt lat="43.68957" lon="7.24312">
        <ele>1.501335</ele>
        <time>2021-09-19T09:25:23.000Z</time>
      </trkpt>
      <trkpt lat="43.68969" lon="7.24336">
        <ele>1.700219</ele>
        <time>2021-09-19T09:25:29.000Z</time>
      </trkpt>
      <trkpt lat="43.68983" lon="7.24366">
        <ele>1.946452</ele>
        <time>2021-09-19T09:25:36.000Z</time>
      </trkpt>
      <trkpt lat="43.69" lon="7.24406">
        <ele>2.264586</ele>
        <time>2021-09-19T09:25:45.000Z</time>
      </trkpt>
      <trkpt lat="43.69017" lon="7.24448">
        <ele>2.595418</ele>
        <time>2021-09-19T09:25:54.000Z</time>
      </trkpt>
      <trkpt lat="43.69034" lon="7.24492">
        <ele>2.886106</ele>
        <time>2021-09-19T09:26:03.000Z</time>
      </trkpt>
      <trkpt lat="43.69049" lon="7.24532">
        <ele>3.150037</ele>
        <time>2021-09-19T09:26:12.000Z</time>
      </trkpt>
      <trkpt lat="43.69059" lon="7.2458">
        <ele>3.445684</ele>
        <time>2021-09-19T09:26:22.000Z</time>
      </trkpt>
      <trkpt lat="43.69072" lon="7.24618">
        <ele>3.69271</ele>
        <time>2021-09-19T09:26:30.000Z</time>
      </trkpt>
      <trkpt lat="43.69087" lon="7.24663">
        <ele>3.980353</ele>
        <time>2021-09-19T09:26:38.000Z</time>
      </trkpt>
      <trkpt lat="43.69104" lon="7.24712">
        <ele>4.180123</ele>
        <time>2021-09-19T09:26:46.000Z</time>
      </trkpt>
      <trkpt lat="43.69122" lon="7.24764">
        <ele>4.341967</ele>
        <time>2021-09-19T09:26:54.000Z</time>
      </trkpt>
      <trkpt lat="43.69141" lon="7.24819">
        <ele>4.516899</ele>
        <time>2021-09-19T09:27:04.000Z</time>
      </trkpt>
      <trkpt lat="43.69162" lon="7.24864">
        <ele>4.668594</ele>
        <time>2021-09-19T09:27:13.000Z</time>
      </trkpt>
      <trkpt lat="43.69177" lon="7.24907">
        <ele>4.799584</ele>
        <time>2021-09-19T09:27:22.000Z</time>
      </trkpt>
      <trkpt lat="43.69194" lon="7.24953">
        <ele>4.921794</ele>
        <time>2021-09-19T09:27:31.000Z</time>
      </trkpt>
      <trkpt lat="43.6921" lon="7.24999">
        <ele>5.042231</ele>
        <time>2021-09-19T09:27:40.000Z</time>
      </trkpt>
      <trkpt lat="43.69224" lon="7.2504">
        <ele>5.149271</ele>
        <time>2021-09-19T09:27:48.000Z</time>
      </trkpt>
      <trkpt lat="43.69239" lon="7.25084">
        <ele>5.263685</ele>
        <time>2021-09-19T09:27:57.000Z</time>
      </trkpt>
      <trkpt lat="43.69252" lon="7.25121">
        <ele>5.359383</ele>
        <time>2021-09-19T09:28:05.000Z</time>
      </trkpt>
      <trkpt lat="43.69259" lon="7.25143">
        <ele>5.427975</ele>
        <time>2021-09-19T09:28:11.000Z</time>
      </trkpt>
      <trkpt lat="43.69268" lon="7.25169">
        <ele>5.506593</ele>
        <time>2021-09-19T09:28:20.000Z</time>
      </trkpt>
      <trkpt lat="43.69276" lon="7.25201">
        <ele>5.598376</ele>
        <time>2021-09-19T09:28:27.000Z</time>
      </trkpt>
      <trkpt lat="43.69287" lon="7.25248">
        <ele>5.733122</ele>
        <time>2021-09-19T09:28:36.000Z</time>
      </trkpt>
      <trkpt lat="43.69298" lon="7.25296">
        <ele>5.870699</ele>
        <time>2021-09-19T09:28:45.000Z</time>
      </trkpt>
      <trkpt lat="43.69308" lon="7.25337">
        <ele>5.988753</ele>
        <time>2021-09-19T09:28:53.000Z</time>
      </trkpt>
      <trkpt lat="43.6932" lon="7.25389">
        <ele>6.116333</ele>
        <time>2021-09-19T09:29:03.000Z</time>
      </trkpt>
      <trkpt lat="43.6933" lon="7.25434">
        <ele>6.217891</ele>
        <time>2021-09-19T09:29:11.000Z</time>
      </trkpt>
      <trkpt lat="43.69339" lon="7.25478">
        <ele>6.316095</ele>
        <time>2021-09-19T09:29:19.000Z</time>
      </trkpt>
      <trkpt lat="43.69352" lon="7.2553">
        <ele>6.434727</ele>
        <time>2021-09-19T09:29:29.000Z</time>
      </trkpt>
      <trkpt lat="43.69353" lon="7.25574">
        <ele>6.530719</ele>
        <time>2021-09-19T09:29:36.000Z</time>
      </trkpt>
      <trkpt lat="43.69364" lon="7.25627">
        <ele>6.564506</ele>
        <time>2021-09-19T09:29:45.000Z</time>
      </trkpt>
      <trkpt lat="43.69375" lon="7.25674">
        <ele>6.550125</ele>
        <time>2021-09-19T09:29:53.000Z</time>
      </trkpt>
      <trkpt lat="43.69383" lon="7.25709">
        <ele>6.539438</ele>
        <time>2021-09-19T09:29:59.000Z</time>
      </trkpt>
      <trkpt lat="43.69385" lon="7.25721">
        <ele>6.535796</ele>
        <time>2021-09-19T09:30:01.000Z</time>
      </trkpt>
      <trkpt lat="43.69393" lon="7.25756">
        <ele>6.524901</ele>
        <time>2021-09-19T09:30:07.000Z</time>
      </trkpt>
      <trkpt lat="43.69396" lon="7.25767">
        <ele>6.521412</ele>
        <time>2021-09-19T09:30:09.000Z</time>
      </trkpt>
      <trkpt lat="43.69405" lon="7.25806">
        <ele>6.50942</ele>
        <time>2021-09-19T09:30:16.000Z</time>
      </trkpt>
      <trkpt lat="43.69414" lon="7.25845">
        <ele>6.381599</ele>
        <time>2021-09-19T09:30:23.000Z</time>
      </trkpt>
      <trkpt lat="43.69419" lon="7.2588">
        <ele>6.075858</ele>
        <time>2021-09-19T09:30:30.000Z</time>
      </trkpt>
      <trkpt lat="43.69422" lon="7.25897">
        <ele>5.929698</ele>
        <time>2021-09-19T09:30:33.000Z</time>
      </trkpt>
      <trkpt lat="43.69426" lon="7.25924">
        <ele>5.689508</ele>
        <time>2021-09-19T09:30:38.000Z</time>
      </trkpt>
      <trkpt lat="43.69428" lon="7.25935">
        <ele>5.601791</ele>
        <time>2021-09-19T09:30:40.000Z</time>
      </trkpt>
      <trkpt lat="43.6943" lon="7.25951">
        <ele>5.460036</ele>
        <time>2021-09-19T09:30:43.000Z</time>
      </trkpt>
      <trkpt lat="43.69433" lon="7.25968">
        <ele>5.307882</ele>
        <time>2021-09-19T09:30:46.000Z</time>
      </trkpt>
      <trkpt lat="43.69435" lon="7.25986">
        <ele>5.154457</ele>
        <time>2021-09-19T09:30:49.000Z</time>
      </trkpt>
      <trkpt lat="43.69441" lon="7.2603">
        <ele>4.773931</ele>
        <time>2021-09-19T09:30:57.000Z</time>
      </trkpt>
      <trkpt lat="43.69446" lon="7.26065">
        <ele>4.475481</ele>
        <time>2021-09-19T09:31:04.000Z</time>
      </trkpt>
      <trkpt lat="43.69452" lon="7.26105">
        <ele>4.418332</ele>
        <time>2021-09-19T09:31:11.000Z</time>
      </trkpt>
      <trkpt lat="43.69456" lon="7.26143">
        <ele>4.460584</ele>
        <time>2021-09-19T09:31:18.000Z</time>
      </trkpt>
      <trkpt lat="43.69459" lon="7.26181">
        <ele>4.502408</ele>
        <time>2021-09-19T09:31:25.000Z</time>
      </trkpt>
      <trkpt lat="43.69461" lon="7.26215">
        <ele>4.53908</ele>
        <time>2021-09-19T09:31:32.000Z</time>
      </trkpt>
      <trkpt lat="43.69463" lon="7.26231">
        <ele>4.557153</ele>
        <time>2021-09-19T09:31:36.000Z</time>
      </trkpt>
      <trkpt lat="43.69465" lon="7.26256">
        <ele>4.584417</ele>
        <time>2021-09-19T09:31:41.000Z</time>
      </trkpt>
      <trkpt lat="43.69469" lon="7.2631">
        <ele>4.643556</ele>
        <time>2021-09-19T09:31:49.000Z</time>
      </trkpt>
      <trkpt lat="43.69472" lon="7.26359">
        <ele>4.803861</ele>
        <time>2021-09-19T09:31:58.000Z</time>
      </trkpt>
      <trkpt lat="43.69473" lon="7.26379">
        <ele>4.883563</ele>
        <time>2021-09-19T09:32:03.000Z</time>
      </trkpt>
      <trkpt lat="43.69474" lon="7.26397">
        <ele>4.957604</ele>
        <time>2021-09-19T09:32:08.000Z</time>
      </trkpt>
      <trkpt lat="43.69474" lon="7.26417">
        <ele>5.033995</ele>
        <time>2021-09-19T09:32:12.000Z</time>
      </trkpt>
      <trkpt lat="43.69476" lon="7.2648">
        <ele>5.286215</ele>
        <time>2021-09-19T09:32:21.000Z</time>
      </trkpt>
      <trkpt lat="43.69478" lon="7.26536">
        <ele>5.508588</ele>
        <time>2021-09-19T09:32:30.000Z</time>
      </trkpt>
      <trkpt lat="43.6948" lon="7.26581">
        <ele>5.664732</ele>
        <time>2021-09-19T09:32:38.000Z</time>
      </trkpt>
      <trkpt lat="43.69484" lon="7.26645">
        <ele>5.785668</ele>
        <time>2021-09-19T09:32:49.000Z</time>
      </trkpt>
      <trkpt lat="43.69486" lon="7.26696">
        <ele>5.880616</ele>
        <time>2021-09-19T09:32:58.000Z</time>
      </trkpt>
      <trkpt lat="43.69487" lon="7.26707">
        <ele>5.901362</ele>
        <time>2021-09-19T09:33:00.000Z</time>
      </trkpt>
      <trkpt lat="43.69487" lon="7.26729">
        <ele>5.942678</ele>
        <time>2021-09-19T09:33:04.000Z</time>
      </trkpt>
      <trkpt lat="43.69489" lon="7.26771">
        <ele>6.020458</ele>
        <time>2021-09-19T09:33:12.000Z</time>
      </trkpt>
      <trkpt lat="43.69489" lon="7.26791">
        <ele>6.057274</ele>
        <time>2021-09-19T09:33:17.000Z</time>
      </trkpt>
      <trkpt lat="43.69489" lon="7.26818">
        <ele>6.108268</ele>
        <time>2021-09-19T09:33:23.000Z</time>
      </trkpt>
      <trkpt lat="43.6949" lon="7.26869">
        <ele>5.953642</ele>
        <time>2021-09-19T09:33:32.000Z</time>
      </trkpt>
      <trkpt lat="43.69495" lon="7.26904">
        <ele>5.842714</ele>
        <time>2021-09-19T09:33:39.000Z</time>
      </trkpt>
      <trkpt lat="43.69504" lon="7.26927">
        <ele>5.76031</ele>
        <time>2021-09-19T09:33:45.000Z</time>
      </trkpt>
      <trkpt lat="43.6951" lon="7.26951">
        <ele>5.685229</ele>
        <time>2021-09-19T09:33:50.000Z</time>
      </trkpt>
      <trkpt lat="43.6951" lon="7.2697">
        <ele>5.623702</ele>
        <time>2021-09-19T09:33:54.000Z</time>
      </trkpt>
      <trkpt lat="43.69511" lon="7.27004">
        <ele>5.518572</ele>
        <time>2021-09-19T09:34:00.000Z</time>
      </trkpt>
      <trkpt lat="43.69511" lon="7.27037">
        <ele>5.416851</ele>
        <time>2021-09-19T09:34:06.000Z</time>
      </trkpt>
      <trkpt lat="43.69512" lon="7.27072">
        <ele>5.277088</ele>
        <time>2021-09-19T09:34:12.000Z</time>
      </trkpt>
      <trkpt lat="43.69512" lon="7.27102">
        <ele>5.088951</ele>
        <time>2021-09-19T09:34:18.000Z</time>
      </trkpt>
      <trkpt lat="43.69513" lon="7.27129">
        <ele>4.926341</ele>
        <time>2021-09-19T09:34:23.000Z</time>
      </trkpt>
      <trkpt lat="43.69512" lon="7.27156">
        <ele>4.758103</ele>
        <time>2021-09-19T09:34:29.000Z</time>
      </trkpt>
      <trkpt lat="43.69512" lon="7.27189">
        <ele>4.548209</ele>
        <time>2021-09-19T09:34:35.000Z</time>
      </trkpt>
      <trkpt lat="43.69512" lon="7.27206">
        <ele>4.444809</ele>
        <time>2021-09-19T09:34:38.000Z</time>
      </trkpt>
      <trkpt lat="43.69512" lon="7.27229">
        <ele>4.298439</ele>
        <time>2021-09-19T09:34:42.000Z</time>
      </trkpt>
      <trkpt lat="43.69512" lon="7.27235">
        <ele>4.260438</ele>
        <time>2021-09-19T09:34:43.000Z</time>
      </trkpt>
      <trkpt lat="43.69512" lon="7.27248">
        <ele>4.183204</ele>
        <time>2021-09-19T09:34:45.000Z</time>
      </trkpt>
      <trkpt lat="43.69513" lon="7.27272">
        <ele>4.034954</ele>
        <time>2021-09-19T09:34:49.000Z</time>
      </trkpt>
      <trkpt lat="43.69513" lon="7.27288">
        <ele>3.935245</ele>
        <time>2021-09-19T09:34:52.000Z</time>
      </trkpt>
      <trkpt lat="43.69513" lon="7.27299">
        <ele>3.865442</ele>
        <time>2021-09-19T09:34:54.000Z</time>
      </trkpt>
      <trkpt lat="43.69514" lon="7.27335">
        <ele>3.890462</ele>
        <time>2021-09-19T09:35:01.000Z</time>
      </trkpt>
      <trkpt lat="43.69514" lon="7.27366">
        <ele>4.013624</ele>
        <time>2021-09-19T09:35:07.000Z</time>
      </trkpt>
      <trkpt lat="43.69514" lon="7.27392">
        <ele>4.120986</ele>
        <time>2021-09-19T09:35:13.000Z</time>
      </trkpt>
      <trkpt lat="43.69513" lon="7.27403">
        <ele>4.165825</ele>
        <time>2021-09-19T09:35:17.000Z</time>
      </trkpt>
      <trkpt lat="43.69516" lon="7.27403">
        <ele>4.181091</ele>
        <time>2021-09-19T09:35:21.000Z</time>
      </trkpt>
      <trkpt lat="43.69512" lon="7.27429">
        <ele>4.287036</ele>
        <time>2021-09-19T09:35:25.000Z</time>
      </trkpt>
      <trkpt lat="43.69511" lon="7.27453">
        <ele>4.384785</ele>
        <time>2021-09-19T09:35:30.000Z</time>
      </trkpt>
      <trkpt lat="43.69511" lon="7.27458">
        <ele>4.405546</ele>
        <time>2021-09-19T09:35:31.000Z</time>
      </trkpt>
      <trkpt lat="43.6951" lon="7.27468">
        <ele>4.447102</ele>
        <time>2021-09-19T09:35:33.000Z</time>
      </trkpt>
      <trkpt lat="43.6951" lon="7.27482">
        <ele>4.502891</ele>
        <time>2021-09-19T09:35:36.000Z</time>
      </trkpt>
      <trkpt lat="43.6951" lon="7.27484">
        <ele>4.510634</ele>
        <time>2021-09-19T09:35:37.000Z</time>
      </trkpt>
      <trkpt lat="43.69509" lon="7.27489">
        <ele>4.531554</ele>
        <time>2021-09-19T09:35:38.000Z</time>
      </trkpt>
      <trkpt lat="43.69508" lon="7.27497">
        <ele>4.565864</ele>
        <time>2021-09-19T09:35:40.000Z</time>
      </trkpt>
      <trkpt lat="43.69506" lon="7.27531">
        <ele>4.702877</ele>
        <time>2021-09-19T09:35:48.000Z</time>
      </trkpt>
      <trkpt lat="43.69506" lon="7.27533">
        <ele>4.712293</ele>
        <time>2021-09-19T09:35:51.000Z</time>
      </trkpt>
      <trkpt lat="43.69505" lon="7.27539">
        <ele>4.737247</ele>
        <time>2021-09-19T09:36:01.000Z</time>
      </trkpt>
      <trkpt lat="43.69504" lon="7.27558">
        <ele>4.818689</ele>
        <time>2021-09-19T09:36:06.000Z</time>
      </trkpt>
      <trkpt lat="43.695" lon="7.27594">
        <ele>5.048876</ele>
        <time>2021-09-19T09:36:13.000Z</time>
      </trkpt>
      <trkpt lat="43.695" lon="7.276">
        <ele>5.083502</ele>
        <time>2021-09-19T09:36:14.000Z</time>
      </trkpt>
      <trkpt lat="43.69497" lon="7.27628">
        <ele>5.263405</ele>
        <time>2021-09-19T09:36:19.000Z</time>
      </trkpt>
      <trkpt lat="43.69494" lon="7.27657">
        <ele>5.443926</ele>
        <time>2021-09-19T09:36:24.000Z</time>
      </trkpt>
      <trkpt lat="43.69493" lon="7.27667">
        <ele>5.505748</ele>
        <time>2021-09-19T09:36:26.000Z</time>
      </trkpt>
      <trkpt lat="43.69492" lon="7.27678">
        <ele>5.579073</ele>
        <time>2021-09-19T09:36:31.000Z</time>
      </trkpt>
      <trkpt lat="43.69491" lon="7.27684">
        <ele>5.616291</ele>
        <time>2021-09-19T09:36:34.000Z</time>
      </trkpt>
      <trkpt lat="43.6949" lon="7.27693">
        <ele>5.669615</ele>
        <time>2021-09-19T09:36:37.000Z</time>
      </trkpt>
      <trkpt lat="43.69486" lon="7.27718">
        <ele>5.834202</ele>
        <time>2021-09-19T09:36:44.000Z</time>
      </trkpt>
      <trkpt lat="43.69483" lon="7.27746">
        <ele>6.010159</ele>
        <time>2021-09-19T09:36:51.000Z</time>
      </trkpt>
      <trkpt lat="43.69478" lon="7.2778">
        <ele>6.225614</ele>
        <time>2021-09-19T09:36:59.000Z</time>
      </trkpt>
      <trkpt lat="43.69471" lon="7.27815">
        <ele>6.356081</ele>
        <time>2021-09-19T09:37:07.000Z</time>
      </trkpt>
      <trkpt lat="43.69456" lon="7.27851">
        <ele>6.356081</ele>
        <time>2021-09-19T09:37:16.000Z</time>
      </trkpt>
      <trkpt lat="43.69438" lon="7.27878">
        <ele>6.356081</ele>
        <time>2021-09-19T09:37:24.000Z</time>
      </trkpt>
      <trkpt lat="43.69423" lon="7.27898">
        <ele>6.356081</ele>
        <time>2021-09-19T09:37:31.000Z</time>
      </trkpt>
      <trkpt lat="43.69403" lon="7.27908">
        <ele>6.356081</ele>
        <time>2021-09-19T09:37:39.000Z</time>
      </trkpt>
      <trkpt lat="43.69391" lon="7.27909">
        <ele>6.356081</ele>
        <time>2021-09-19T09:37:45.000Z</time>
      </trkpt>
      <trkpt lat="43.6939" lon="7.27909">
        <ele>6.356081</ele>
        <time>2021-09-19T09:37:48.000Z</time>
      </trkpt>
      <trkpt lat="43.69386" lon="7.27909">
        <ele>6.356081</ele>
        <time>2021-09-19T09:37:53.000Z</time>
      </trkpt>
      <trkpt lat="43.69385" lon="7.27909">
        <ele>6.356081</ele>
        <time>2021-09-19T09:37:54.000Z</time>
      </trkpt>
      <trkpt lat="43.69373" lon="7.27912">
        <ele>6.356081</ele>
        <time>2021-09-19T09:38:02.000Z</time>
      </trkpt>
      <trkpt lat="43.69366" lon="7.27916">
        <ele>6.356081</ele>
        <time>2021-09-19T09:38:09.000Z</time>
      </trkpt>
      <trkpt lat="43.69363" lon="7.27912">
        <ele>6.356081</ele>
        <time>2021-09-19T09:38:14.000Z</time>
      </trkpt>
      <trkpt lat="43.69365" lon="7.2791">
        <ele>6.356081</ele>
        <time>2021-09-19T09:41:36.000Z</time>
      </trkpt>
      <trkpt lat="43.69367" lon="7.2791">
        <ele>6.356081</ele>
        <time>2021-09-19T09:41:37.000Z</time>
      </trkpt>
      <trkpt lat="43.69367" lon="7.2791">
        <ele>6.356081</ele>
        <time>2021-09-19T09:41:39.000Z</time>
      </trkpt>
    </trkseg>
  </trk>
</gpx>